<?xml version="1.0" encoding="UTF-8" standalone="no" ?>
<gpx xmlns="http://www.topografix.com/GPX/1/1" xmlns:xsi="http://www.w3.org/2001/XMLSchema-instance" xsi:schemaLocation="http://www.topografix.com/GPX/1/1 http://www.topografix.com/GPX/1/1/gpx.xsd" version="1.1" creator="VisuGPX - https://www.visugpx.com">
  <metadata>
    <name>Beau dimanche Peyrieu Avril 2015</name>
    <desc><![CDATA[Beau dimanche Peyrieu Avril 2015]]></desc>
  </metadata>
  <trk>
    <name><![CDATA[Beau dimanche Peyrieu Avril 2015_1]]></name>
    <trkseg>
      <trkpt lat="45.67613" lon="5.67947">
        <ele>214.7</ele>
        <time>2015-04-26T09:38:36Z</time>
      </trkpt>
      <trkpt lat="45.67607" lon="5.67946">
        <ele>214.7</ele>
        <time>2015-04-26T09:38:41Z</time>
      </trkpt>
      <trkpt lat="45.67607" lon="5.67944">
        <ele>214.7</ele>
        <time>2015-04-26T09:38:46Z</time>
      </trkpt>
      <trkpt lat="45.67606" lon="5.67942">
        <ele>214.7</ele>
        <time>2015-04-26T09:38:51Z</time>
      </trkpt>
      <trkpt lat="45.67607" lon="5.67941">
        <ele>229.221835555</ele>
        <time>2015-04-26T09:38:56Z</time>
      </trkpt>
      <trkpt lat="45.67607" lon="5.67942">
        <ele>229.221835555</ele>
        <time>2015-04-26T09:39:01Z</time>
      </trkpt>
      <trkpt lat="45.67607" lon="5.67942">
        <ele>229.221835555</ele>
        <time>2015-04-26T09:39:06Z</time>
      </trkpt>
      <trkpt lat="45.67607" lon="5.67941">
        <ele>229.221835555</ele>
        <time>2015-04-26T09:39:11Z</time>
      </trkpt>
      <trkpt lat="45.67607" lon="5.67942">
        <ele>229.221835555</ele>
        <time>2015-04-26T09:39:16Z</time>
      </trkpt>
      <trkpt lat="45.67606" lon="5.67939">
        <ele>229.221835555</ele>
        <time>2015-04-26T09:39:21Z</time>
      </trkpt>
      <trkpt lat="45.67605" lon="5.67937">
        <ele>229.221835555</ele>
        <time>2015-04-26T09:39:26Z</time>
      </trkpt>
      <trkpt lat="45.67605" lon="5.67936">
        <ele>229.221835555</ele>
        <time>2015-04-26T09:39:31Z</time>
      </trkpt>
      <trkpt lat="45.67605" lon="5.67935">
        <ele>229.221835555</ele>
        <time>2015-04-26T09:39:36Z</time>
      </trkpt>
      <trkpt lat="45.67605" lon="5.67935">
        <ele>229.221835555</ele>
        <time>2015-04-26T09:39:41Z</time>
      </trkpt>
      <trkpt lat="45.67605" lon="5.67935">
        <ele>229.221835555</ele>
        <time>2015-04-26T09:39:46Z</time>
      </trkpt>
      <trkpt lat="45.67604" lon="5.6793">
        <ele>233.03669974638</ele>
        <time>2015-04-26T09:39:51Z</time>
      </trkpt>
      <trkpt lat="45.67603" lon="5.67929">
        <ele>233.03669974638</ele>
        <time>2015-04-26T09:39:56Z</time>
      </trkpt>
      <trkpt lat="45.67602" lon="5.6793">
        <ele>233.03669974638</ele>
        <time>2015-04-26T09:40:01Z</time>
      </trkpt>
      <trkpt lat="45.67605" lon="5.67933">
        <ele>233.03669974638</ele>
        <time>2015-04-26T09:40:06Z</time>
      </trkpt>
      <trkpt lat="45.67604" lon="5.67935">
        <ele>233.03669974638</ele>
        <time>2015-04-26T09:40:11Z</time>
      </trkpt>
      <trkpt lat="45.67604" lon="5.67935">
        <ele>233.03669974638</ele>
        <time>2015-04-26T09:40:16Z</time>
      </trkpt>
      <trkpt lat="45.67604" lon="5.67934">
        <ele>233.03669974638</ele>
        <time>2015-04-26T09:40:21Z</time>
      </trkpt>
      <trkpt lat="45.67604" lon="5.67935">
        <ele>233.03669974638</ele>
        <time>2015-04-26T09:40:26Z</time>
      </trkpt>
      <trkpt lat="45.67604" lon="5.67937">
        <ele>233.18479968364</ele>
        <time>2015-04-26T09:40:31Z</time>
      </trkpt>
      <trkpt lat="45.67605" lon="5.67935">
        <ele>233.18479968364</ele>
        <time>2015-04-26T09:40:36Z</time>
      </trkpt>
      <trkpt lat="45.67604" lon="5.67933">
        <ele>233.18479968364</ele>
        <time>2015-04-26T09:40:41Z</time>
      </trkpt>
      <trkpt lat="45.67603" lon="5.67931">
        <ele>233.18479968364</ele>
        <time>2015-04-26T09:40:46Z</time>
      </trkpt>
      <trkpt lat="45.67603" lon="5.67932">
        <ele>233.18479968364</ele>
        <time>2015-04-26T09:40:51Z</time>
      </trkpt>
      <trkpt lat="45.67602" lon="5.67935">
        <ele>233.18479968364</ele>
        <time>2015-04-26T09:40:56Z</time>
      </trkpt>
      <trkpt lat="45.67603" lon="5.67937">
        <ele>233.18479968364</ele>
        <time>2015-04-26T09:41:01Z</time>
      </trkpt>
      <trkpt lat="45.67602" lon="5.67936">
        <ele>233.18479968364</ele>
        <time>2015-04-26T09:41:06Z</time>
      </trkpt>
      <trkpt lat="45.67602" lon="5.67936">
        <ele>234.15011845218</ele>
        <time>2015-04-26T09:41:11Z</time>
      </trkpt>
      <trkpt lat="45.67602" lon="5.67936">
        <ele>234.15011845218</ele>
        <time>2015-04-26T09:41:16Z</time>
      </trkpt>
      <trkpt lat="45.67603" lon="5.67937">
        <ele>234.15011845218</ele>
        <time>2015-04-26T09:41:21Z</time>
      </trkpt>
      <trkpt lat="45.67603" lon="5.67937">
        <ele>234.15011845218</ele>
        <time>2015-04-26T09:41:26Z</time>
      </trkpt>
      <trkpt lat="45.67601" lon="5.67936">
        <ele>234.15011845218</ele>
        <time>2015-04-26T09:41:31Z</time>
      </trkpt>
      <trkpt lat="45.67601" lon="5.67936">
        <ele>234.15011845218</ele>
        <time>2015-04-26T09:41:36Z</time>
      </trkpt>
      <trkpt lat="45.67601" lon="5.67936">
        <ele>234.15011845218</ele>
        <time>2015-04-26T09:41:41Z</time>
      </trkpt>
      <trkpt lat="45.67601" lon="5.67935">
        <ele>234.15011845218</ele>
        <time>2015-04-26T09:41:46Z</time>
      </trkpt>
      <trkpt lat="45.67601" lon="5.67935">
        <ele>234.15011845218</ele>
        <time>2015-04-26T09:41:51Z</time>
      </trkpt>
      <trkpt lat="45.67601" lon="5.67935">
        <ele>234.15011845218</ele>
        <time>2015-04-26T09:41:56Z</time>
      </trkpt>
      <trkpt lat="45.67601" lon="5.67934">
        <ele>234.15011845218</ele>
        <time>2015-04-26T09:42:01Z</time>
      </trkpt>
      <trkpt lat="45.676" lon="5.67933">
        <ele>234.15011845218</ele>
        <time>2015-04-26T09:42:06Z</time>
      </trkpt>
      <trkpt lat="45.67601" lon="5.67933">
        <ele>234.15011845218</ele>
        <time>2015-04-26T09:42:11Z</time>
      </trkpt>
      <trkpt lat="45.67601" lon="5.67933">
        <ele>234.15011845218</ele>
        <time>2015-04-26T09:42:16Z</time>
      </trkpt>
      <trkpt lat="45.67601" lon="5.67934">
        <ele>234.15011845218</ele>
        <time>2015-04-26T09:42:21Z</time>
      </trkpt>
      <trkpt lat="45.67601" lon="5.67933">
        <ele>234.15011845218</ele>
        <time>2015-04-26T09:42:26Z</time>
      </trkpt>
      <trkpt lat="45.67601" lon="5.67933">
        <ele>234.15011845218</ele>
        <time>2015-04-26T09:42:31Z</time>
      </trkpt>
      <trkpt lat="45.67602" lon="5.67933">
        <ele>234.15011845218</ele>
        <time>2015-04-26T09:42:36Z</time>
      </trkpt>
      <trkpt lat="45.67602" lon="5.67933">
        <ele>234.15011845218</ele>
        <time>2015-04-26T09:42:41Z</time>
      </trkpt>
      <trkpt lat="45.67602" lon="5.67933">
        <ele>234.15011845218</ele>
        <time>2015-04-26T09:42:46Z</time>
      </trkpt>
      <trkpt lat="45.67602" lon="5.67932">
        <ele>235.23051325839</ele>
        <time>2015-04-26T09:42:51Z</time>
      </trkpt>
      <trkpt lat="45.67602" lon="5.67928">
        <ele>235.23051325839</ele>
        <time>2015-04-26T09:42:56Z</time>
      </trkpt>
      <trkpt lat="45.67603" lon="5.67928">
        <ele>235.23051325839</ele>
        <time>2015-04-26T09:43:01Z</time>
      </trkpt>
      <trkpt lat="45.67604" lon="5.67928">
        <ele>235.23051325839</ele>
        <time>2015-04-26T09:43:06Z</time>
      </trkpt>
      <trkpt lat="45.67604" lon="5.67928">
        <ele>235.23051325839</ele>
        <time>2015-04-26T09:43:11Z</time>
      </trkpt>
      <trkpt lat="45.67604" lon="5.67928">
        <ele>235.23051325839</ele>
        <time>2015-04-26T09:43:16Z</time>
      </trkpt>
      <trkpt lat="45.67604" lon="5.67928">
        <ele>235.23051325839</ele>
        <time>2015-04-26T09:43:21Z</time>
      </trkpt>
      <trkpt lat="45.67604" lon="5.67928">
        <ele>235.23051325839</ele>
        <time>2015-04-26T09:43:26Z</time>
      </trkpt>
      <trkpt lat="45.67604" lon="5.67928">
        <ele>235.23051325839</ele>
        <time>2015-04-26T09:43:31Z</time>
      </trkpt>
      <trkpt lat="45.67604" lon="5.67928">
        <ele>235.23051325839</ele>
        <time>2015-04-26T09:43:36Z</time>
      </trkpt>
      <trkpt lat="45.67604" lon="5.67928">
        <ele>235.23051325839</ele>
        <time>2015-04-26T09:43:41Z</time>
      </trkpt>
      <trkpt lat="45.67604" lon="5.67928">
        <ele>235.23051325839</ele>
        <time>2015-04-26T09:43:46Z</time>
      </trkpt>
      <trkpt lat="45.67604" lon="5.67928">
        <ele>235.23051325839</ele>
        <time>2015-04-26T09:43:51Z</time>
      </trkpt>
      <trkpt lat="45.67604" lon="5.67928">
        <ele>235.23051325839</ele>
        <time>2015-04-26T09:43:56Z</time>
      </trkpt>
      <trkpt lat="45.67604" lon="5.67928">
        <ele>235.23051325839</ele>
        <time>2015-04-26T09:44:01Z</time>
      </trkpt>
      <trkpt lat="45.67604" lon="5.67928">
        <ele>235.23051325839</ele>
        <time>2015-04-26T09:44:06Z</time>
      </trkpt>
      <trkpt lat="45.67604" lon="5.67928">
        <ele>235.23051325839</ele>
        <time>2015-04-26T09:44:11Z</time>
      </trkpt>
      <trkpt lat="45.67605" lon="5.67928">
        <ele>235.23051325839</ele>
        <time>2015-04-26T09:44:16Z</time>
      </trkpt>
      <trkpt lat="45.67606" lon="5.67929">
        <ele>235.23051325839</ele>
        <time>2015-04-26T09:44:21Z</time>
      </trkpt>
      <trkpt lat="45.6761" lon="5.6793">
        <ele>237.28558814013</ele>
        <time>2015-04-26T09:44:26Z</time>
      </trkpt>
      <trkpt lat="45.67614" lon="5.67932">
        <ele>237.28558814013</ele>
        <time>2015-04-26T09:44:31Z</time>
      </trkpt>
      <trkpt lat="45.67618" lon="5.6793">
        <ele>237.28558814013</ele>
        <time>2015-04-26T09:44:36Z</time>
      </trkpt>
      <trkpt lat="45.67623" lon="5.67928">
        <ele>238.63798854647</ele>
        <time>2015-04-26T09:44:41Z</time>
      </trkpt>
      <trkpt lat="45.67627" lon="5.67924">
        <ele>238.63798854647</ele>
        <time>2015-04-26T09:44:46Z</time>
      </trkpt>
      <trkpt lat="45.67632" lon="5.67917">
        <ele>239.61063034083</ele>
        <time>2015-04-26T09:44:51Z</time>
      </trkpt>
      <trkpt lat="45.67636" lon="5.67906">
        <ele>239.61063034083</ele>
        <time>2015-04-26T09:44:56Z</time>
      </trkpt>
      <trkpt lat="45.67641" lon="5.67898">
        <ele>240.41883084542</ele>
        <time>2015-04-26T09:45:01Z</time>
      </trkpt>
      <trkpt lat="45.67649" lon="5.67897">
        <ele>240.41883084542</ele>
        <time>2015-04-26T09:45:06Z</time>
      </trkpt>
      <trkpt lat="45.67656" lon="5.67897">
        <ele>240.795663859</ele>
        <time>2015-04-26T09:45:11Z</time>
      </trkpt>
      <trkpt lat="45.67663" lon="5.67897">
        <ele>240.795663859</ele>
        <time>2015-04-26T09:45:16Z</time>
      </trkpt>
      <trkpt lat="45.6767" lon="5.67896">
        <ele>241.57297589086</ele>
        <time>2015-04-26T09:45:21Z</time>
      </trkpt>
      <trkpt lat="45.67674" lon="5.67898">
        <ele>241.57297589086</ele>
        <time>2015-04-26T09:45:26Z</time>
      </trkpt>
      <trkpt lat="45.67678" lon="5.679">
        <ele>241.57297589086</ele>
        <time>2015-04-26T09:45:31Z</time>
      </trkpt>
      <trkpt lat="45.67685" lon="5.67901">
        <ele>242.26910902042</ele>
        <time>2015-04-26T09:45:36Z</time>
      </trkpt>
      <trkpt lat="45.67695" lon="5.67898">
        <ele>243.21477434283</ele>
        <time>2015-04-26T09:45:41Z</time>
      </trkpt>
      <trkpt lat="45.67698" lon="5.67898">
        <ele>243.21477434283</ele>
        <time>2015-04-26T09:45:46Z</time>
      </trkpt>
      <trkpt lat="45.67697" lon="5.67897">
        <ele>243.21477434283</ele>
        <time>2015-04-26T09:45:51Z</time>
      </trkpt>
      <trkpt lat="45.67697" lon="5.67897">
        <ele>243.21477434283</ele>
        <time>2015-04-26T09:45:56Z</time>
      </trkpt>
      <trkpt lat="45.67697" lon="5.67897">
        <ele>243.21477434283</ele>
        <time>2015-04-26T09:46:01Z</time>
      </trkpt>
      <trkpt lat="45.67698" lon="5.67896">
        <ele>243.21477434283</ele>
        <time>2015-04-26T09:46:06Z</time>
      </trkpt>
      <trkpt lat="45.67702" lon="5.67888">
        <ele>243.29532965513</ele>
        <time>2015-04-26T09:46:11Z</time>
      </trkpt>
      <trkpt lat="45.67706" lon="5.67882">
        <ele>243.29532965513</ele>
        <time>2015-04-26T09:46:16Z</time>
      </trkpt>
      <trkpt lat="45.67706" lon="5.67874">
        <ele>243.00136758469</ele>
        <time>2015-04-26T09:46:21Z</time>
      </trkpt>
      <trkpt lat="45.67704" lon="5.67867">
        <ele>243.00136758469</ele>
        <time>2015-04-26T09:46:26Z</time>
      </trkpt>
      <trkpt lat="45.677" lon="5.67856">
        <ele>242.40286274192</ele>
        <time>2015-04-26T09:46:31Z</time>
      </trkpt>
      <trkpt lat="45.67699" lon="5.67848">
        <ele>242.40286274192</ele>
        <time>2015-04-26T09:46:36Z</time>
      </trkpt>
      <trkpt lat="45.67696" lon="5.6784">
        <ele>241.48327919193</ele>
        <time>2015-04-26T09:46:41Z</time>
      </trkpt>
      <trkpt lat="45.67693" lon="5.67829">
        <ele>241.48327919193</ele>
        <time>2015-04-26T09:46:46Z</time>
      </trkpt>
      <trkpt lat="45.6769" lon="5.67819">
        <ele>240.84265971033</ele>
        <time>2015-04-26T09:46:51Z</time>
      </trkpt>
      <trkpt lat="45.67688" lon="5.6781">
        <ele>240.84265971033</ele>
        <time>2015-04-26T09:46:56Z</time>
      </trkpt>
      <trkpt lat="45.67685" lon="5.67799">
        <ele>240.49349562765</ele>
        <time>2015-04-26T09:47:01Z</time>
      </trkpt>
      <trkpt lat="45.67683" lon="5.67791">
        <ele>240.49349562765</ele>
        <time>2015-04-26T09:47:06Z</time>
      </trkpt>
      <trkpt lat="45.67679" lon="5.67783">
        <ele>239.81375141118</ele>
        <time>2015-04-26T09:47:11Z</time>
      </trkpt>
      <trkpt lat="45.67677" lon="5.67775">
        <ele>239.81375141118</ele>
        <time>2015-04-26T09:47:16Z</time>
      </trkpt>
      <trkpt lat="45.67678" lon="5.67765">
        <ele>239.91424440509</ele>
        <time>2015-04-26T09:47:21Z</time>
      </trkpt>
      <trkpt lat="45.67679" lon="5.67755">
        <ele>239.91424440509</ele>
        <time>2015-04-26T09:47:26Z</time>
      </trkpt>
      <trkpt lat="45.67681" lon="5.67744">
        <ele>240.54030753415</ele>
        <time>2015-04-26T09:47:31Z</time>
      </trkpt>
      <trkpt lat="45.67684" lon="5.67734">
        <ele>240.54030753415</ele>
        <time>2015-04-26T09:47:36Z</time>
      </trkpt>
      <trkpt lat="45.67686" lon="5.67724">
        <ele>241.15263511144</ele>
        <time>2015-04-26T09:47:41Z</time>
      </trkpt>
      <trkpt lat="45.67691" lon="5.67716">
        <ele>241.15263511144</ele>
        <time>2015-04-26T09:47:46Z</time>
      </trkpt>
      <trkpt lat="45.67695" lon="5.67708">
        <ele>241.75258887336</ele>
        <time>2015-04-26T09:47:51Z</time>
      </trkpt>
      <trkpt lat="45.677" lon="5.67703">
        <ele>241.75258887336</ele>
        <time>2015-04-26T09:47:56Z</time>
      </trkpt>
      <trkpt lat="45.67699" lon="5.67707">
        <ele>242.13727576391</ele>
        <time>2015-04-26T09:48:01Z</time>
      </trkpt>
      <trkpt lat="45.677" lon="5.67707">
        <ele>242.13727576391</ele>
        <time>2015-04-26T09:48:06Z</time>
      </trkpt>
      <trkpt lat="45.677" lon="5.67707">
        <ele>242.13727576391</ele>
        <time>2015-04-26T09:48:11Z</time>
      </trkpt>
      <trkpt lat="45.67701" lon="5.67706">
        <ele>242.13727576391</ele>
        <time>2015-04-26T09:48:16Z</time>
      </trkpt>
      <trkpt lat="45.67706" lon="5.67704">
        <ele>242.13727576391</ele>
        <time>2015-04-26T09:48:21Z</time>
      </trkpt>
      <trkpt lat="45.67711" lon="5.67697">
        <ele>242.25724101331</ele>
        <time>2015-04-26T09:48:26Z</time>
      </trkpt>
      <trkpt lat="45.67716" lon="5.67693">
        <ele>242.25724101331</ele>
        <time>2015-04-26T09:48:31Z</time>
      </trkpt>
      <trkpt lat="45.67719" lon="5.67688">
        <ele>241.71178736587</ele>
        <time>2015-04-26T09:48:36Z</time>
      </trkpt>
      <trkpt lat="45.67724" lon="5.67683">
        <ele>241.71178736587</ele>
        <time>2015-04-26T09:48:41Z</time>
      </trkpt>
      <trkpt lat="45.67731" lon="5.6768">
        <ele>241.89191757602</ele>
        <time>2015-04-26T09:48:46Z</time>
      </trkpt>
      <trkpt lat="45.67739" lon="5.67676">
        <ele>241.89191757602</ele>
        <time>2015-04-26T09:48:51Z</time>
      </trkpt>
      <trkpt lat="45.67746" lon="5.67673">
        <ele>242.32398786658</ele>
        <time>2015-04-26T09:48:56Z</time>
      </trkpt>
      <trkpt lat="45.6775" lon="5.67667">
        <ele>242.32398786658</ele>
        <time>2015-04-26T09:49:01Z</time>
      </trkpt>
      <trkpt lat="45.67756" lon="5.67661">
        <ele>242.83228757174</ele>
        <time>2015-04-26T09:49:06Z</time>
      </trkpt>
      <trkpt lat="45.67761" lon="5.67655">
        <ele>242.83228757174</ele>
        <time>2015-04-26T09:49:11Z</time>
      </trkpt>
      <trkpt lat="45.67769" lon="5.67651">
        <ele>243.47965576339</ele>
        <time>2015-04-26T09:49:16Z</time>
      </trkpt>
      <trkpt lat="45.67776" lon="5.67646">
        <ele>243.47965576339</ele>
        <time>2015-04-26T09:49:21Z</time>
      </trkpt>
      <trkpt lat="45.67781" lon="5.67642">
        <ele>244.62960277513</ele>
        <time>2015-04-26T09:49:26Z</time>
      </trkpt>
      <trkpt lat="45.67788" lon="5.67637">
        <ele>244.62960277513</ele>
        <time>2015-04-26T09:49:31Z</time>
      </trkpt>
      <trkpt lat="45.67793" lon="5.67631">
        <ele>246.00897829408</ele>
        <time>2015-04-26T09:49:36Z</time>
      </trkpt>
      <trkpt lat="45.678" lon="5.67625">
        <ele>246.00897829408</ele>
        <time>2015-04-26T09:49:41Z</time>
      </trkpt>
      <trkpt lat="45.67806" lon="5.67619">
        <ele>247.08654065768</ele>
        <time>2015-04-26T09:49:46Z</time>
      </trkpt>
      <trkpt lat="45.67812" lon="5.67614">
        <ele>247.08654065768</ele>
        <time>2015-04-26T09:49:51Z</time>
      </trkpt>
      <trkpt lat="45.67817" lon="5.6761">
        <ele>247.85299918175</ele>
        <time>2015-04-26T09:49:56Z</time>
      </trkpt>
      <trkpt lat="45.67821" lon="5.67607">
        <ele>247.85299918175</ele>
        <time>2015-04-26T09:50:01Z</time>
      </trkpt>
      <trkpt lat="45.67824" lon="5.67599">
        <ele>248.20066351699</ele>
        <time>2015-04-26T09:50:06Z</time>
      </trkpt>
      <trkpt lat="45.67824" lon="5.67589">
        <ele>248.20066351699</ele>
        <time>2015-04-26T09:50:11Z</time>
      </trkpt>
      <trkpt lat="45.67822" lon="5.6758">
        <ele>248.35168072131</ele>
        <time>2015-04-26T09:50:16Z</time>
      </trkpt>
      <trkpt lat="45.67821" lon="5.67577">
        <ele>248.35168072131</ele>
        <time>2015-04-26T09:50:21Z</time>
      </trkpt>
      <trkpt lat="45.6782" lon="5.67578">
        <ele>248.35168072131</ele>
        <time>2015-04-26T09:50:26Z</time>
      </trkpt>
      <trkpt lat="45.6782" lon="5.67577">
        <ele>248.35168072131</ele>
        <time>2015-04-26T09:50:31Z</time>
      </trkpt>
      <trkpt lat="45.67821" lon="5.67577">
        <ele>248.35168072131</ele>
        <time>2015-04-26T09:50:36Z</time>
      </trkpt>
      <trkpt lat="45.67821" lon="5.67577">
        <ele>248.35168072131</ele>
        <time>2015-04-26T09:50:41Z</time>
      </trkpt>
      <trkpt lat="45.67822" lon="5.67577">
        <ele>248.35168072131</ele>
        <time>2015-04-26T09:50:46Z</time>
      </trkpt>
      <trkpt lat="45.67821" lon="5.67577">
        <ele>248.35168072131</ele>
        <time>2015-04-26T09:50:51Z</time>
      </trkpt>
      <trkpt lat="45.67821" lon="5.67577">
        <ele>248.35168072131</ele>
        <time>2015-04-26T09:50:56Z</time>
      </trkpt>
      <trkpt lat="45.67821" lon="5.67579">
        <ele>248.35168072131</ele>
        <time>2015-04-26T09:51:01Z</time>
      </trkpt>
      <trkpt lat="45.67822" lon="5.6758">
        <ele>248.35168072131</ele>
        <time>2015-04-26T09:51:06Z</time>
      </trkpt>
      <trkpt lat="45.67822" lon="5.6758">
        <ele>248.35168072131</ele>
        <time>2015-04-26T09:51:11Z</time>
      </trkpt>
      <trkpt lat="45.67823" lon="5.6758">
        <ele>248.60159000951</ele>
        <time>2015-04-26T09:51:16Z</time>
      </trkpt>
      <trkpt lat="45.67823" lon="5.6758">
        <ele>248.60159000951</ele>
        <time>2015-04-26T09:51:21Z</time>
      </trkpt>
      <trkpt lat="45.67823" lon="5.67582">
        <ele>248.60159000951</ele>
        <time>2015-04-26T09:51:26Z</time>
      </trkpt>
      <trkpt lat="45.67823" lon="5.67581">
        <ele>248.60159000951</ele>
        <time>2015-04-26T09:51:31Z</time>
      </trkpt>
      <trkpt lat="45.67822" lon="5.6758">
        <ele>248.60159000951</ele>
        <time>2015-04-26T09:51:36Z</time>
      </trkpt>
      <trkpt lat="45.67822" lon="5.67573">
        <ele>248.64562920733</ele>
        <time>2015-04-26T09:51:41Z</time>
      </trkpt>
      <trkpt lat="45.67823" lon="5.67574">
        <ele>248.64562920733</ele>
        <time>2015-04-26T09:51:46Z</time>
      </trkpt>
      <trkpt lat="45.67823" lon="5.67576">
        <ele>248.64562920733</ele>
        <time>2015-04-26T09:51:51Z</time>
      </trkpt>
      <trkpt lat="45.67823" lon="5.67577">
        <ele>248.64562920733</ele>
        <time>2015-04-26T09:51:56Z</time>
      </trkpt>
      <trkpt lat="45.67822" lon="5.67577">
        <ele>248.64562920733</ele>
        <time>2015-04-26T09:52:01Z</time>
      </trkpt>
      <trkpt lat="45.67822" lon="5.67578">
        <ele>248.64562920733</ele>
        <time>2015-04-26T09:52:06Z</time>
      </trkpt>
      <trkpt lat="45.67822" lon="5.67578">
        <ele>248.64562920733</ele>
        <time>2015-04-26T09:52:11Z</time>
      </trkpt>
      <trkpt lat="45.67822" lon="5.67578">
        <ele>248.64562920733</ele>
        <time>2015-04-26T09:52:16Z</time>
      </trkpt>
      <trkpt lat="45.67822" lon="5.67578">
        <ele>248.64562920733</ele>
        <time>2015-04-26T09:52:21Z</time>
      </trkpt>
      <trkpt lat="45.67822" lon="5.67579">
        <ele>248.64562920733</ele>
        <time>2015-04-26T09:52:26Z</time>
      </trkpt>
      <trkpt lat="45.67822" lon="5.67579">
        <ele>248.64562920733</ele>
        <time>2015-04-26T09:52:31Z</time>
      </trkpt>
      <trkpt lat="45.67822" lon="5.67579">
        <ele>248.64562920733</ele>
        <time>2015-04-26T09:52:36Z</time>
      </trkpt>
      <trkpt lat="45.67822" lon="5.67579">
        <ele>248.64562920733</ele>
        <time>2015-04-26T09:52:41Z</time>
      </trkpt>
      <trkpt lat="45.67824" lon="5.67577">
        <ele>248.64562920733</ele>
        <time>2015-04-26T09:52:46Z</time>
      </trkpt>
      <trkpt lat="45.67827" lon="5.67568">
        <ele>249.41673789585</ele>
        <time>2015-04-26T09:52:51Z</time>
      </trkpt>
      <trkpt lat="45.67827" lon="5.67559">
        <ele>249.41673789585</ele>
        <time>2015-04-26T09:52:56Z</time>
      </trkpt>
      <trkpt lat="45.67825" lon="5.67551">
        <ele>249.99025596084</ele>
        <time>2015-04-26T09:53:01Z</time>
      </trkpt>
      <trkpt lat="45.67824" lon="5.67541">
        <ele>249.99025596084</ele>
        <time>2015-04-26T09:53:06Z</time>
      </trkpt>
      <trkpt lat="45.67824" lon="5.67531">
        <ele>250.78521637507</ele>
        <time>2015-04-26T09:53:11Z</time>
      </trkpt>
      <trkpt lat="45.67829" lon="5.67525">
        <ele>250.78521637507</ele>
        <time>2015-04-26T09:53:16Z</time>
      </trkpt>
      <trkpt lat="45.67833" lon="5.6752">
        <ele>251.37712775081</ele>
        <time>2015-04-26T09:53:21Z</time>
      </trkpt>
      <trkpt lat="45.67839" lon="5.67514">
        <ele>251.37712775081</ele>
        <time>2015-04-26T09:53:26Z</time>
      </trkpt>
      <trkpt lat="45.67845" lon="5.67507">
        <ele>252.35313592319</ele>
        <time>2015-04-26T09:53:31Z</time>
      </trkpt>
      <trkpt lat="45.67849" lon="5.67498">
        <ele>252.35313592319</ele>
        <time>2015-04-26T09:53:36Z</time>
      </trkpt>
      <trkpt lat="45.67852" lon="5.67489">
        <ele>253.02057239408</ele>
        <time>2015-04-26T09:53:41Z</time>
      </trkpt>
      <trkpt lat="45.67855" lon="5.67478">
        <ele>253.02057239408</ele>
        <time>2015-04-26T09:53:46Z</time>
      </trkpt>
      <trkpt lat="45.67856" lon="5.67467">
        <ele>253.50272379211</ele>
        <time>2015-04-26T09:53:51Z</time>
      </trkpt>
      <trkpt lat="45.67857" lon="5.67457">
        <ele>253.50272379211</ele>
        <time>2015-04-26T09:53:56Z</time>
      </trkpt>
      <trkpt lat="45.67858" lon="5.67446">
        <ele>254.67964414621</ele>
        <time>2015-04-26T09:54:01Z</time>
      </trkpt>
      <trkpt lat="45.67861" lon="5.67436">
        <ele>254.67964414621</ele>
        <time>2015-04-26T09:54:06Z</time>
      </trkpt>
      <trkpt lat="45.67865" lon="5.67425">
        <ele>255.67669577519</ele>
        <time>2015-04-26T09:54:11Z</time>
      </trkpt>
      <trkpt lat="45.67867" lon="5.67415">
        <ele>255.67669577519</ele>
        <time>2015-04-26T09:54:16Z</time>
      </trkpt>
      <trkpt lat="45.67868" lon="5.67407">
        <ele>257.07615699392</ele>
        <time>2015-04-26T09:54:21Z</time>
      </trkpt>
      <trkpt lat="45.67868" lon="5.67398">
        <ele>257.07615699392</ele>
        <time>2015-04-26T09:54:26Z</time>
      </trkpt>
      <trkpt lat="45.67868" lon="5.67389">
        <ele>258.13759822952</ele>
        <time>2015-04-26T09:54:31Z</time>
      </trkpt>
      <trkpt lat="45.6787" lon="5.67382">
        <ele>258.13759822952</ele>
        <time>2015-04-26T09:54:36Z</time>
      </trkpt>
      <trkpt lat="45.6787" lon="5.67373">
        <ele>259.17048023042</ele>
        <time>2015-04-26T09:54:41Z</time>
      </trkpt>
      <trkpt lat="45.67868" lon="5.67366">
        <ele>259.17048023042</ele>
        <time>2015-04-26T09:54:46Z</time>
      </trkpt>
      <trkpt lat="45.67865" lon="5.67358">
        <ele>259.58655351762</ele>
        <time>2015-04-26T09:54:51Z</time>
      </trkpt>
      <trkpt lat="45.67865" lon="5.67348">
        <ele>259.58655351762</ele>
        <time>2015-04-26T09:54:56Z</time>
      </trkpt>
      <trkpt lat="45.67864" lon="5.67338">
        <ele>259.7809587767</ele>
        <time>2015-04-26T09:55:01Z</time>
      </trkpt>
      <trkpt lat="45.67861" lon="5.67331">
        <ele>259.7809587767</ele>
        <time>2015-04-26T09:55:06Z</time>
      </trkpt>
      <trkpt lat="45.67865" lon="5.6732">
        <ele>261.00993625917</ele>
        <time>2015-04-26T09:55:11Z</time>
      </trkpt>
      <trkpt lat="45.6787" lon="5.67309">
        <ele>262.58714173271</ele>
        <time>2015-04-26T09:55:16Z</time>
      </trkpt>
      <trkpt lat="45.67878" lon="5.673">
        <ele>264.9482278257</ele>
        <time>2015-04-26T09:55:21Z</time>
      </trkpt>
      <trkpt lat="45.67885" lon="5.67295">
        <ele>264.9482278257</ele>
        <time>2015-04-26T09:55:26Z</time>
      </trkpt>
      <trkpt lat="45.67888" lon="5.67288">
        <ele>266.53675270693</ele>
        <time>2015-04-26T09:55:31Z</time>
      </trkpt>
      <trkpt lat="45.67892" lon="5.67281">
        <ele>266.53675270693</ele>
        <time>2015-04-26T09:55:36Z</time>
      </trkpt>
      <trkpt lat="45.67898" lon="5.67277">
        <ele>267.89225005519</ele>
        <time>2015-04-26T09:55:41Z</time>
      </trkpt>
      <trkpt lat="45.67902" lon="5.67273">
        <ele>267.89225005519</ele>
        <time>2015-04-26T09:55:46Z</time>
      </trkpt>
      <trkpt lat="45.67909" lon="5.67268">
        <ele>269.19629959245</ele>
        <time>2015-04-26T09:55:51Z</time>
      </trkpt>
      <trkpt lat="45.67912" lon="5.67267">
        <ele>269.19629959245</ele>
        <time>2015-04-26T09:55:56Z</time>
      </trkpt>
      <trkpt lat="45.67906" lon="5.67267">
        <ele>269.19629959245</ele>
        <time>2015-04-26T09:56:01Z</time>
      </trkpt>
      <trkpt lat="45.67905" lon="5.67267">
        <ele>270.82462227165</ele>
        <time>2015-04-26T09:56:06Z</time>
      </trkpt>
      <trkpt lat="45.67908" lon="5.67263">
        <ele>270.82462227165</ele>
        <time>2015-04-26T09:56:11Z</time>
      </trkpt>
      <trkpt lat="45.67915" lon="5.67256">
        <ele>272.27146220646</ele>
        <time>2015-04-26T09:56:16Z</time>
      </trkpt>
      <trkpt lat="45.67921" lon="5.67251">
        <ele>272.27146220646</ele>
        <time>2015-04-26T09:56:21Z</time>
      </trkpt>
      <trkpt lat="45.67925" lon="5.67243">
        <ele>273.80227607315</ele>
        <time>2015-04-26T09:56:26Z</time>
      </trkpt>
      <trkpt lat="45.67928" lon="5.67234">
        <ele>273.80227607315</ele>
        <time>2015-04-26T09:56:31Z</time>
      </trkpt>
      <trkpt lat="45.67935" lon="5.67225">
        <ele>275.48217293465</ele>
        <time>2015-04-26T09:56:36Z</time>
      </trkpt>
      <trkpt lat="45.67944" lon="5.67217">
        <ele>277.35567369523</ele>
        <time>2015-04-26T09:56:41Z</time>
      </trkpt>
      <trkpt lat="45.6795" lon="5.6721">
        <ele>277.35567369523</ele>
        <time>2015-04-26T09:56:46Z</time>
      </trkpt>
      <trkpt lat="45.67953" lon="5.67202">
        <ele>279.44839777237</ele>
        <time>2015-04-26T09:56:51Z</time>
      </trkpt>
      <trkpt lat="45.67961" lon="5.67197">
        <ele>279.44839777237</ele>
        <time>2015-04-26T09:56:56Z</time>
      </trkpt>
      <trkpt lat="45.67972" lon="5.67194">
        <ele>282.06289279574</ele>
        <time>2015-04-26T09:57:01Z</time>
      </trkpt>
      <trkpt lat="45.67977" lon="5.6719">
        <ele>282.06289279574</ele>
        <time>2015-04-26T09:57:06Z</time>
      </trkpt>
      <trkpt lat="45.67983" lon="5.6719">
        <ele>284.0515865167</ele>
        <time>2015-04-26T09:57:11Z</time>
      </trkpt>
      <trkpt lat="45.67989" lon="5.67188">
        <ele>284.0515865167</ele>
        <time>2015-04-26T09:57:16Z</time>
      </trkpt>
      <trkpt lat="45.67991" lon="5.67184">
        <ele>286.15022507593</ele>
        <time>2015-04-26T09:57:21Z</time>
      </trkpt>
      <trkpt lat="45.67994" lon="5.6718">
        <ele>286.15022507593</ele>
        <time>2015-04-26T09:57:26Z</time>
      </trkpt>
      <trkpt lat="45.68001" lon="5.67177">
        <ele>288.87317479513</ele>
        <time>2015-04-26T09:57:31Z</time>
      </trkpt>
      <trkpt lat="45.68004" lon="5.67173">
        <ele>288.87317479513</ele>
        <time>2015-04-26T09:57:36Z</time>
      </trkpt>
      <trkpt lat="45.6801" lon="5.67168">
        <ele>291.10124928607</ele>
        <time>2015-04-26T09:57:41Z</time>
      </trkpt>
      <trkpt lat="45.68016" lon="5.67163">
        <ele>291.10124928607</ele>
        <time>2015-04-26T09:57:46Z</time>
      </trkpt>
      <trkpt lat="45.68026" lon="5.67163">
        <ele>293.27802462802</ele>
        <time>2015-04-26T09:57:51Z</time>
      </trkpt>
      <trkpt lat="45.68033" lon="5.6716">
        <ele>293.27802462802</ele>
        <time>2015-04-26T09:57:56Z</time>
      </trkpt>
      <trkpt lat="45.68043" lon="5.67156">
        <ele>295.44808238115</ele>
        <time>2015-04-26T09:58:01Z</time>
      </trkpt>
      <trkpt lat="45.68051" lon="5.67153">
        <ele>295.44808238115</ele>
        <time>2015-04-26T09:58:06Z</time>
      </trkpt>
      <trkpt lat="45.68055" lon="5.67146">
        <ele>296.59243894789</ele>
        <time>2015-04-26T09:58:11Z</time>
      </trkpt>
      <trkpt lat="45.6806" lon="5.67141">
        <ele>296.59243894789</ele>
        <time>2015-04-26T09:58:16Z</time>
      </trkpt>
      <trkpt lat="45.68067" lon="5.67136">
        <ele>297.06567156419</ele>
        <time>2015-04-26T09:58:21Z</time>
      </trkpt>
      <trkpt lat="45.68071" lon="5.67131">
        <ele>297.06567156419</ele>
        <time>2015-04-26T09:58:26Z</time>
      </trkpt>
      <trkpt lat="45.68074" lon="5.67125">
        <ele>297.21056103678</ele>
        <time>2015-04-26T09:58:31Z</time>
      </trkpt>
      <trkpt lat="45.68079" lon="5.67119">
        <ele>297.21056103678</ele>
        <time>2015-04-26T09:58:36Z</time>
      </trkpt>
      <trkpt lat="45.68084" lon="5.67113">
        <ele>297.30061134447</ele>
        <time>2015-04-26T09:58:41Z</time>
      </trkpt>
      <trkpt lat="45.68092" lon="5.67109">
        <ele>297.30061134447</ele>
        <time>2015-04-26T09:58:46Z</time>
      </trkpt>
      <trkpt lat="45.68098" lon="5.67106">
        <ele>297.58843337645</ele>
        <time>2015-04-26T09:58:51Z</time>
      </trkpt>
      <trkpt lat="45.68101" lon="5.671">
        <ele>297.58843337645</ele>
        <time>2015-04-26T09:58:56Z</time>
      </trkpt>
      <trkpt lat="45.68106" lon="5.67096">
        <ele>297.84448801582</ele>
        <time>2015-04-26T09:59:01Z</time>
      </trkpt>
      <trkpt lat="45.68114" lon="5.67096">
        <ele>297.84448801582</ele>
        <time>2015-04-26T09:59:06Z</time>
      </trkpt>
      <trkpt lat="45.68123" lon="5.67093">
        <ele>298.2035124177</ele>
        <time>2015-04-26T09:59:11Z</time>
      </trkpt>
      <trkpt lat="45.6813" lon="5.67091">
        <ele>298.2035124177</ele>
        <time>2015-04-26T09:59:16Z</time>
      </trkpt>
      <trkpt lat="45.68136" lon="5.67087">
        <ele>298.44341550595</ele>
        <time>2015-04-26T09:59:21Z</time>
      </trkpt>
      <trkpt lat="45.68142" lon="5.67084">
        <ele>298.44341550595</ele>
        <time>2015-04-26T09:59:26Z</time>
      </trkpt>
      <trkpt lat="45.6815" lon="5.67082">
        <ele>299.21055941408</ele>
        <time>2015-04-26T09:59:31Z</time>
      </trkpt>
      <trkpt lat="45.68158" lon="5.67079">
        <ele>299.21055941408</ele>
        <time>2015-04-26T09:59:36Z</time>
      </trkpt>
      <trkpt lat="45.6817" lon="5.67079">
        <ele>300.43803792082</ele>
        <time>2015-04-26T09:59:41Z</time>
      </trkpt>
      <trkpt lat="45.68181" lon="5.6708">
        <ele>301.19748115963</ele>
        <time>2015-04-26T09:59:46Z</time>
      </trkpt>
      <trkpt lat="45.68187" lon="5.67084">
        <ele>301.19748115963</ele>
        <time>2015-04-26T09:59:51Z</time>
      </trkpt>
      <trkpt lat="45.68191" lon="5.67088">
        <ele>301.42385496041</ele>
        <time>2015-04-26T09:59:56Z</time>
      </trkpt>
      <trkpt lat="45.68194" lon="5.67089">
        <ele>301.42385496041</ele>
        <time>2015-04-26T10:00:01Z</time>
      </trkpt>
      <trkpt lat="45.68197" lon="5.67083">
        <ele>301.42385496041</ele>
        <time>2015-04-26T10:00:06Z</time>
      </trkpt>
      <trkpt lat="45.68194" lon="5.67069">
        <ele>301.47646437674</ele>
        <time>2015-04-26T10:00:11Z</time>
      </trkpt>
      <trkpt lat="45.68184" lon="5.6706">
        <ele>301.52992839555</ele>
        <time>2015-04-26T10:00:16Z</time>
      </trkpt>
      <trkpt lat="45.68171" lon="5.67054">
        <ele>301.37113919271</ele>
        <time>2015-04-26T10:00:21Z</time>
      </trkpt>
      <trkpt lat="45.68164" lon="5.67055">
        <ele>301.37113919271</ele>
        <time>2015-04-26T10:00:26Z</time>
      </trkpt>
      <trkpt lat="45.68157" lon="5.67055">
        <ele>300.74556857517</ele>
        <time>2015-04-26T10:00:31Z</time>
      </trkpt>
      <trkpt lat="45.68152" lon="5.67055">
        <ele>300.74556857517</ele>
        <time>2015-04-26T10:00:36Z</time>
      </trkpt>
      <trkpt lat="45.68155" lon="5.67046">
        <ele>301.10555837335</ele>
        <time>2015-04-26T10:00:41Z</time>
      </trkpt>
      <trkpt lat="45.68162" lon="5.67043">
        <ele>301.10555837335</ele>
        <time>2015-04-26T10:00:46Z</time>
      </trkpt>
      <trkpt lat="45.6817" lon="5.67042">
        <ele>302.02059792998</ele>
        <time>2015-04-26T10:00:51Z</time>
      </trkpt>
      <trkpt lat="45.68178" lon="5.67043">
        <ele>302.02059792998</ele>
        <time>2015-04-26T10:00:56Z</time>
      </trkpt>
      <trkpt lat="45.68181" lon="5.67042">
        <ele>302.61434557831</ele>
        <time>2015-04-26T10:01:01Z</time>
      </trkpt>
      <trkpt lat="45.68183" lon="5.67041">
        <ele>302.61434557831</ele>
        <time>2015-04-26T10:01:06Z</time>
      </trkpt>
      <trkpt lat="45.68184" lon="5.67041">
        <ele>302.61434557831</ele>
        <time>2015-04-26T10:01:11Z</time>
      </trkpt>
      <trkpt lat="45.6819" lon="5.67043">
        <ele>303.79157987932</ele>
        <time>2015-04-26T10:01:16Z</time>
      </trkpt>
      <trkpt lat="45.68193" lon="5.67043">
        <ele>303.79157987932</ele>
        <time>2015-04-26T10:01:21Z</time>
      </trkpt>
      <trkpt lat="45.68199" lon="5.67043">
        <ele>303.79157987932</ele>
        <time>2015-04-26T10:01:26Z</time>
      </trkpt>
      <trkpt lat="45.68205" lon="5.67043">
        <ele>305.17768949569</ele>
        <time>2015-04-26T10:01:31Z</time>
      </trkpt>
      <trkpt lat="45.68212" lon="5.67044">
        <ele>305.17768949569</ele>
        <time>2015-04-26T10:01:36Z</time>
      </trkpt>
      <trkpt lat="45.68221" lon="5.67048">
        <ele>306.46815706673</ele>
        <time>2015-04-26T10:01:41Z</time>
      </trkpt>
      <trkpt lat="45.68229" lon="5.67055">
        <ele>307.64062846318</ele>
        <time>2015-04-26T10:01:46Z</time>
      </trkpt>
      <trkpt lat="45.68233" lon="5.67068">
        <ele>308.0689104663</ele>
        <time>2015-04-26T10:01:51Z</time>
      </trkpt>
      <trkpt lat="45.68234" lon="5.6708">
        <ele>308.0689104663</ele>
        <time>2015-04-26T10:01:56Z</time>
      </trkpt>
      <trkpt lat="45.68238" lon="5.67087">
        <ele>308.93453062754</ele>
        <time>2015-04-26T10:02:01Z</time>
      </trkpt>
      <trkpt lat="45.68244" lon="5.67084">
        <ele>308.93453062754</ele>
        <time>2015-04-26T10:02:06Z</time>
      </trkpt>
      <trkpt lat="45.68247" lon="5.67074">
        <ele>309.71551516151</ele>
        <time>2015-04-26T10:02:11Z</time>
      </trkpt>
      <trkpt lat="45.68246" lon="5.67065">
        <ele>309.71551516151</ele>
        <time>2015-04-26T10:02:16Z</time>
      </trkpt>
      <trkpt lat="45.68244" lon="5.67055">
        <ele>310.69291532918</ele>
        <time>2015-04-26T10:02:21Z</time>
      </trkpt>
      <trkpt lat="45.68245" lon="5.67049">
        <ele>310.69291532918</ele>
        <time>2015-04-26T10:02:26Z</time>
      </trkpt>
      <trkpt lat="45.68245" lon="5.67041">
        <ele>312.0399953615</ele>
        <time>2015-04-26T10:02:31Z</time>
      </trkpt>
      <trkpt lat="45.68247" lon="5.67033">
        <ele>312.0399953615</ele>
        <time>2015-04-26T10:02:36Z</time>
      </trkpt>
      <trkpt lat="45.68255" lon="5.67026">
        <ele>313.71426057233</ele>
        <time>2015-04-26T10:02:41Z</time>
      </trkpt>
      <trkpt lat="45.68261" lon="5.67021">
        <ele>313.71426057233</ele>
        <time>2015-04-26T10:02:46Z</time>
      </trkpt>
      <trkpt lat="45.68265" lon="5.67015">
        <ele>314.69454182811</ele>
        <time>2015-04-26T10:02:51Z</time>
      </trkpt>
      <trkpt lat="45.68266" lon="5.67009">
        <ele>314.69454182811</ele>
        <time>2015-04-26T10:02:56Z</time>
      </trkpt>
      <trkpt lat="45.68265" lon="5.67001">
        <ele>315.81087772382</ele>
        <time>2015-04-26T10:03:01Z</time>
      </trkpt>
      <trkpt lat="45.68264" lon="5.66995">
        <ele>315.81087772382</ele>
        <time>2015-04-26T10:03:06Z</time>
      </trkpt>
      <trkpt lat="45.68268" lon="5.66989">
        <ele>316.8221798413</ele>
        <time>2015-04-26T10:03:11Z</time>
      </trkpt>
      <trkpt lat="45.68272" lon="5.66982">
        <ele>316.8221798413</ele>
        <time>2015-04-26T10:03:16Z</time>
      </trkpt>
      <trkpt lat="45.68276" lon="5.66976">
        <ele>318.64480260575</ele>
        <time>2015-04-26T10:03:21Z</time>
      </trkpt>
      <trkpt lat="45.6828" lon="5.66969">
        <ele>318.64480260575</ele>
        <time>2015-04-26T10:03:26Z</time>
      </trkpt>
      <trkpt lat="45.68282" lon="5.66967">
        <ele>318.64480260575</ele>
        <time>2015-04-26T10:03:31Z</time>
      </trkpt>
      <trkpt lat="45.68279" lon="5.66962">
        <ele>320.52443780152</ele>
        <time>2015-04-26T10:03:36Z</time>
      </trkpt>
      <trkpt lat="45.68281" lon="5.66962">
        <ele>320.52443780152</ele>
        <time>2015-04-26T10:03:41Z</time>
      </trkpt>
      <trkpt lat="45.68286" lon="5.66956">
        <ele>320.52443780152</ele>
        <time>2015-04-26T10:03:46Z</time>
      </trkpt>
      <trkpt lat="45.68287" lon="5.66947">
        <ele>322.94474920099</ele>
        <time>2015-04-26T10:03:51Z</time>
      </trkpt>
      <trkpt lat="45.68287" lon="5.66937">
        <ele>322.94474920099</ele>
        <time>2015-04-26T10:03:56Z</time>
      </trkpt>
      <trkpt lat="45.68287" lon="5.6693">
        <ele>324.07373145155</ele>
        <time>2015-04-26T10:04:01Z</time>
      </trkpt>
      <trkpt lat="45.68288" lon="5.66919">
        <ele>324.07373145155</ele>
        <time>2015-04-26T10:04:06Z</time>
      </trkpt>
      <trkpt lat="45.68288" lon="5.66913">
        <ele>325.63560312306</ele>
        <time>2015-04-26T10:04:11Z</time>
      </trkpt>
      <trkpt lat="45.68288" lon="5.66909">
        <ele>325.63560312306</ele>
        <time>2015-04-26T10:04:16Z</time>
      </trkpt>
      <trkpt lat="45.68288" lon="5.66909">
        <ele>325.63560312306</ele>
        <time>2015-04-26T10:04:21Z</time>
      </trkpt>
      <trkpt lat="45.68287" lon="5.66908">
        <ele>325.63560312306</ele>
        <time>2015-04-26T10:04:26Z</time>
      </trkpt>
      <trkpt lat="45.68288" lon="5.66904">
        <ele>325.63560312306</ele>
        <time>2015-04-26T10:04:31Z</time>
      </trkpt>
      <trkpt lat="45.6829" lon="5.66896">
        <ele>327.82765083708</ele>
        <time>2015-04-26T10:04:36Z</time>
      </trkpt>
      <trkpt lat="45.68296" lon="5.6689">
        <ele>327.82765083708</ele>
        <time>2015-04-26T10:04:41Z</time>
      </trkpt>
      <trkpt lat="45.68299" lon="5.66878">
        <ele>330.09551900233</ele>
        <time>2015-04-26T10:04:46Z</time>
      </trkpt>
      <trkpt lat="45.68301" lon="5.6687">
        <ele>330.09551900233</ele>
        <time>2015-04-26T10:04:51Z</time>
      </trkpt>
      <trkpt lat="45.68302" lon="5.66859">
        <ele>333.28081043721</ele>
        <time>2015-04-26T10:04:56Z</time>
      </trkpt>
      <trkpt lat="45.68308" lon="5.66851">
        <ele>333.28081043721</ele>
        <time>2015-04-26T10:05:01Z</time>
      </trkpt>
      <trkpt lat="45.68314" lon="5.66844">
        <ele>336.86303651741</ele>
        <time>2015-04-26T10:05:06Z</time>
      </trkpt>
      <trkpt lat="45.68319" lon="5.66838">
        <ele>336.86303651741</ele>
        <time>2015-04-26T10:05:11Z</time>
      </trkpt>
      <trkpt lat="45.68321" lon="5.66829">
        <ele>339.33540962949</ele>
        <time>2015-04-26T10:05:16Z</time>
      </trkpt>
      <trkpt lat="45.68325" lon="5.6682">
        <ele>339.33540962949</ele>
        <time>2015-04-26T10:05:21Z</time>
      </trkpt>
      <trkpt lat="45.68327" lon="5.66815">
        <ele>341.65509563068</ele>
        <time>2015-04-26T10:05:26Z</time>
      </trkpt>
      <trkpt lat="45.68331" lon="5.66811">
        <ele>341.65509563068</ele>
        <time>2015-04-26T10:05:31Z</time>
      </trkpt>
      <trkpt lat="45.68332" lon="5.66808">
        <ele>341.65509563068</ele>
        <time>2015-04-26T10:05:36Z</time>
      </trkpt>
      <trkpt lat="45.6833" lon="5.66808">
        <ele>341.65509563068</ele>
        <time>2015-04-26T10:05:41Z</time>
      </trkpt>
      <trkpt lat="45.68332" lon="5.6681">
        <ele>347.40494759881</ele>
        <time>2015-04-26T10:05:46Z</time>
      </trkpt>
      <trkpt lat="45.68333" lon="5.66812">
        <ele>347.40494759881</ele>
        <time>2015-04-26T10:05:51Z</time>
      </trkpt>
      <trkpt lat="45.68333" lon="5.66812">
        <ele>347.40494759881</ele>
        <time>2015-04-26T10:05:56Z</time>
      </trkpt>
      <trkpt lat="45.68333" lon="5.66811">
        <ele>347.40494759881</ele>
        <time>2015-04-26T10:06:01Z</time>
      </trkpt>
      <trkpt lat="45.68342" lon="5.66808">
        <ele>353.20606527861</ele>
        <time>2015-04-26T10:06:06Z</time>
      </trkpt>
      <trkpt lat="45.68345" lon="5.66801">
        <ele>353.20606527861</ele>
        <time>2015-04-26T10:06:11Z</time>
      </trkpt>
      <trkpt lat="45.68349" lon="5.66796">
        <ele>357.23996604349</ele>
        <time>2015-04-26T10:06:16Z</time>
      </trkpt>
      <trkpt lat="45.68352" lon="5.66789">
        <ele>357.23996604349</ele>
        <time>2015-04-26T10:06:21Z</time>
      </trkpt>
      <trkpt lat="45.68355" lon="5.66787">
        <ele>357.23996604349</ele>
        <time>2015-04-26T10:06:26Z</time>
      </trkpt>
      <trkpt lat="45.68356" lon="5.66787">
        <ele>359.59996915818</ele>
        <time>2015-04-26T10:06:31Z</time>
      </trkpt>
      <trkpt lat="45.68359" lon="5.66784">
        <ele>359.59996915818</ele>
        <time>2015-04-26T10:06:36Z</time>
      </trkpt>
      <trkpt lat="45.68362" lon="5.66781">
        <ele>359.59996915818</ele>
        <time>2015-04-26T10:06:41Z</time>
      </trkpt>
      <trkpt lat="45.68365" lon="5.6678">
        <ele>362.16459118746</ele>
        <time>2015-04-26T10:06:46Z</time>
      </trkpt>
      <trkpt lat="45.68366" lon="5.6678">
        <ele>362.16459118746</ele>
        <time>2015-04-26T10:06:51Z</time>
      </trkpt>
      <trkpt lat="45.68368" lon="5.6678">
        <ele>362.16459118746</ele>
        <time>2015-04-26T10:06:56Z</time>
      </trkpt>
      <trkpt lat="45.68368" lon="5.6678">
        <ele>362.16459118746</ele>
        <time>2015-04-26T10:07:01Z</time>
      </trkpt>
      <trkpt lat="45.68368" lon="5.6678">
        <ele>362.16459118746</ele>
        <time>2015-04-26T10:07:06Z</time>
      </trkpt>
      <trkpt lat="45.68368" lon="5.6678">
        <ele>362.16459118746</ele>
        <time>2015-04-26T10:07:11Z</time>
      </trkpt>
      <trkpt lat="45.68371" lon="5.66778">
        <ele>362.16459118746</ele>
        <time>2015-04-26T10:07:16Z</time>
      </trkpt>
      <trkpt lat="45.68382" lon="5.66778">
        <ele>364.78561652909</ele>
        <time>2015-04-26T10:07:21Z</time>
      </trkpt>
      <trkpt lat="45.68386" lon="5.66776">
        <ele>364.78561652909</ele>
        <time>2015-04-26T10:07:26Z</time>
      </trkpt>
      <trkpt lat="45.68395" lon="5.66774">
        <ele>367.52750369464</ele>
        <time>2015-04-26T10:07:31Z</time>
      </trkpt>
      <trkpt lat="45.68404" lon="5.66773">
        <ele>370.21918650529</ele>
        <time>2015-04-26T10:07:36Z</time>
      </trkpt>
      <trkpt lat="45.68412" lon="5.66772">
        <ele>370.21918650529</ele>
        <time>2015-04-26T10:07:41Z</time>
      </trkpt>
      <trkpt lat="45.68419" lon="5.6677">
        <ele>373.0195335454</ele>
        <time>2015-04-26T10:07:46Z</time>
      </trkpt>
      <trkpt lat="45.68425" lon="5.66768">
        <ele>373.0195335454</ele>
        <time>2015-04-26T10:07:51Z</time>
      </trkpt>
      <trkpt lat="45.6843" lon="5.66764">
        <ele>375.26851323246</ele>
        <time>2015-04-26T10:07:56Z</time>
      </trkpt>
      <trkpt lat="45.68437" lon="5.66764">
        <ele>375.26851323246</ele>
        <time>2015-04-26T10:08:01Z</time>
      </trkpt>
      <trkpt lat="45.68445" lon="5.66763">
        <ele>377.40835385682</ele>
        <time>2015-04-26T10:08:06Z</time>
      </trkpt>
      <trkpt lat="45.68452" lon="5.66761">
        <ele>377.40835385682</ele>
        <time>2015-04-26T10:08:11Z</time>
      </trkpt>
      <trkpt lat="45.68458" lon="5.66761">
        <ele>378.95570713063</ele>
        <time>2015-04-26T10:08:16Z</time>
      </trkpt>
      <trkpt lat="45.68465" lon="5.66759">
        <ele>378.95570713063</ele>
        <time>2015-04-26T10:08:21Z</time>
      </trkpt>
      <trkpt lat="45.68472" lon="5.66758">
        <ele>380.51657328296</ele>
        <time>2015-04-26T10:08:26Z</time>
      </trkpt>
      <trkpt lat="45.68477" lon="5.66757">
        <ele>380.51657328296</ele>
        <time>2015-04-26T10:08:31Z</time>
      </trkpt>
      <trkpt lat="45.68484" lon="5.66756">
        <ele>381.7013549596</ele>
        <time>2015-04-26T10:08:36Z</time>
      </trkpt>
      <trkpt lat="45.68488" lon="5.66753">
        <ele>381.7013549596</ele>
        <time>2015-04-26T10:08:41Z</time>
      </trkpt>
      <trkpt lat="45.68492" lon="5.66751">
        <ele>382.25112544995</ele>
        <time>2015-04-26T10:08:46Z</time>
      </trkpt>
      <trkpt lat="45.68499" lon="5.66748">
        <ele>382.25112544995</ele>
        <time>2015-04-26T10:08:51Z</time>
      </trkpt>
      <trkpt lat="45.68509" lon="5.66746">
        <ele>382.53313023121</ele>
        <time>2015-04-26T10:08:56Z</time>
      </trkpt>
      <trkpt lat="45.68519" lon="5.66744">
        <ele>382.41289192373</ele>
        <time>2015-04-26T10:09:01Z</time>
      </trkpt>
      <trkpt lat="45.68525" lon="5.66741">
        <ele>382.41289192373</ele>
        <time>2015-04-26T10:09:06Z</time>
      </trkpt>
      <trkpt lat="45.68528" lon="5.66739">
        <ele>382.22816064347</ele>
        <time>2015-04-26T10:09:11Z</time>
      </trkpt>
      <trkpt lat="45.68536" lon="5.66735">
        <ele>382.22816064347</ele>
        <time>2015-04-26T10:09:16Z</time>
      </trkpt>
      <trkpt lat="45.68541" lon="5.66732">
        <ele>382.01828290877</ele>
        <time>2015-04-26T10:09:21Z</time>
      </trkpt>
      <trkpt lat="45.68547" lon="5.6673">
        <ele>382.01828290877</ele>
        <time>2015-04-26T10:09:26Z</time>
      </trkpt>
      <trkpt lat="45.68555" lon="5.66729">
        <ele>381.80539536602</ele>
        <time>2015-04-26T10:09:31Z</time>
      </trkpt>
      <trkpt lat="45.68561" lon="5.66726">
        <ele>381.80539536602</ele>
        <time>2015-04-26T10:09:36Z</time>
      </trkpt>
      <trkpt lat="45.68564" lon="5.66722">
        <ele>381.39384914317</ele>
        <time>2015-04-26T10:09:41Z</time>
      </trkpt>
      <trkpt lat="45.68571" lon="5.66721">
        <ele>381.39384914317</ele>
        <time>2015-04-26T10:09:46Z</time>
      </trkpt>
      <trkpt lat="45.68578" lon="5.66718">
        <ele>380.48761552928</ele>
        <time>2015-04-26T10:09:51Z</time>
      </trkpt>
      <trkpt lat="45.68587" lon="5.66717">
        <ele>380.48761552928</ele>
        <time>2015-04-26T10:09:56Z</time>
      </trkpt>
      <trkpt lat="45.68598" lon="5.66714">
        <ele>380.71606085501</ele>
        <time>2015-04-26T10:10:01Z</time>
      </trkpt>
      <trkpt lat="45.68603" lon="5.66712">
        <ele>380.71606085501</ele>
        <time>2015-04-26T10:10:06Z</time>
      </trkpt>
      <trkpt lat="45.68608" lon="5.66708">
        <ele>380.67453574683</ele>
        <time>2015-04-26T10:10:11Z</time>
      </trkpt>
      <trkpt lat="45.68614" lon="5.66702">
        <ele>380.67453574683</ele>
        <time>2015-04-26T10:10:16Z</time>
      </trkpt>
      <trkpt lat="45.68618" lon="5.66697">
        <ele>380.3881092917</ele>
        <time>2015-04-26T10:10:21Z</time>
      </trkpt>
      <trkpt lat="45.68617" lon="5.66688">
        <ele>380.3881092917</ele>
        <time>2015-04-26T10:10:26Z</time>
      </trkpt>
      <trkpt lat="45.68616" lon="5.66679">
        <ele>379.20328029112</ele>
        <time>2015-04-26T10:10:31Z</time>
      </trkpt>
      <trkpt lat="45.68613" lon="5.6667">
        <ele>379.20328029112</ele>
        <time>2015-04-26T10:10:36Z</time>
      </trkpt>
      <trkpt lat="45.6861" lon="5.66663">
        <ele>377.49695647329</ele>
        <time>2015-04-26T10:10:41Z</time>
      </trkpt>
      <trkpt lat="45.68608" lon="5.66655">
        <ele>377.49695647329</ele>
        <time>2015-04-26T10:10:46Z</time>
      </trkpt>
      <trkpt lat="45.68606" lon="5.66644">
        <ele>376.18176079949</ele>
        <time>2015-04-26T10:10:51Z</time>
      </trkpt>
      <trkpt lat="45.68606" lon="5.66633">
        <ele>376.18176079949</ele>
        <time>2015-04-26T10:10:56Z</time>
      </trkpt>
      <trkpt lat="45.68603" lon="5.66624">
        <ele>374.30061944587</ele>
        <time>2015-04-26T10:11:01Z</time>
      </trkpt>
      <trkpt lat="45.68602" lon="5.66614">
        <ele>374.30061944587</ele>
        <time>2015-04-26T10:11:06Z</time>
      </trkpt>
      <trkpt lat="45.68599" lon="5.66604">
        <ele>372.87052279364</ele>
        <time>2015-04-26T10:11:11Z</time>
      </trkpt>
      <trkpt lat="45.68598" lon="5.66595">
        <ele>372.87052279364</ele>
        <time>2015-04-26T10:11:16Z</time>
      </trkpt>
      <trkpt lat="45.68597" lon="5.66587">
        <ele>371.31912204717</ele>
        <time>2015-04-26T10:11:21Z</time>
      </trkpt>
      <trkpt lat="45.68596" lon="5.66579">
        <ele>371.31912204717</ele>
        <time>2015-04-26T10:11:26Z</time>
      </trkpt>
      <trkpt lat="45.68593" lon="5.66569">
        <ele>370.1683177821</ele>
        <time>2015-04-26T10:11:31Z</time>
      </trkpt>
      <trkpt lat="45.68589" lon="5.66554">
        <ele>369.00684934354</ele>
        <time>2015-04-26T10:11:36Z</time>
      </trkpt>
      <trkpt lat="45.68587" lon="5.66543">
        <ele>369.00684934354</ele>
        <time>2015-04-26T10:11:41Z</time>
      </trkpt>
      <trkpt lat="45.68584" lon="5.66539">
        <ele>366.94909992709</ele>
        <time>2015-04-26T10:11:46Z</time>
      </trkpt>
      <trkpt lat="45.68581" lon="5.6653">
        <ele>366.94909992709</ele>
        <time>2015-04-26T10:11:51Z</time>
      </trkpt>
      <trkpt lat="45.68577" lon="5.66521">
        <ele>365.56912573118</ele>
        <time>2015-04-26T10:11:56Z</time>
      </trkpt>
      <trkpt lat="45.68573" lon="5.66513">
        <ele>365.56912573118</ele>
        <time>2015-04-26T10:12:01Z</time>
      </trkpt>
      <trkpt lat="45.68568" lon="5.66509">
        <ele>364.24798373927</ele>
        <time>2015-04-26T10:12:06Z</time>
      </trkpt>
      <trkpt lat="45.68564" lon="5.66504">
        <ele>364.24798373927</ele>
        <time>2015-04-26T10:12:11Z</time>
      </trkpt>
      <trkpt lat="45.6856" lon="5.66499">
        <ele>363.66561262828</ele>
        <time>2015-04-26T10:12:16Z</time>
      </trkpt>
      <trkpt lat="45.68555" lon="5.66493">
        <ele>363.66561262828</ele>
        <time>2015-04-26T10:12:21Z</time>
      </trkpt>
      <trkpt lat="45.68553" lon="5.66487">
        <ele>362.93650615176</ele>
        <time>2015-04-26T10:12:26Z</time>
      </trkpt>
      <trkpt lat="45.68548" lon="5.66482">
        <ele>362.93650615176</ele>
        <time>2015-04-26T10:12:31Z</time>
      </trkpt>
      <trkpt lat="45.68543" lon="5.66474">
        <ele>362.14831991672</ele>
        <time>2015-04-26T10:12:36Z</time>
      </trkpt>
      <trkpt lat="45.68539" lon="5.66467">
        <ele>362.14831991672</ele>
        <time>2015-04-26T10:12:41Z</time>
      </trkpt>
      <trkpt lat="45.68535" lon="5.66459">
        <ele>361.84338062097</ele>
        <time>2015-04-26T10:12:46Z</time>
      </trkpt>
      <trkpt lat="45.68529" lon="5.66456">
        <ele>361.84338062097</ele>
        <time>2015-04-26T10:12:51Z</time>
      </trkpt>
      <trkpt lat="45.68524" lon="5.6645">
        <ele>361.02381942711</ele>
        <time>2015-04-26T10:12:56Z</time>
      </trkpt>
      <trkpt lat="45.68521" lon="5.66443">
        <ele>361.02381942711</ele>
        <time>2015-04-26T10:13:01Z</time>
      </trkpt>
      <trkpt lat="45.68517" lon="5.66433">
        <ele>360.33714424516</ele>
        <time>2015-04-26T10:13:06Z</time>
      </trkpt>
      <trkpt lat="45.68514" lon="5.66425">
        <ele>360.33714424516</ele>
        <time>2015-04-26T10:13:11Z</time>
      </trkpt>
      <trkpt lat="45.68511" lon="5.66417">
        <ele>358.97040238881</ele>
        <time>2015-04-26T10:13:16Z</time>
      </trkpt>
      <trkpt lat="45.68507" lon="5.66412">
        <ele>358.97040238881</ele>
        <time>2015-04-26T10:13:21Z</time>
      </trkpt>
      <trkpt lat="45.68502" lon="5.66405">
        <ele>358.0743587154</ele>
        <time>2015-04-26T10:13:26Z</time>
      </trkpt>
      <trkpt lat="45.68498" lon="5.66396">
        <ele>358.0743587154</ele>
        <time>2015-04-26T10:13:31Z</time>
      </trkpt>
      <trkpt lat="45.68496" lon="5.66387">
        <ele>356.98435931549</ele>
        <time>2015-04-26T10:13:36Z</time>
      </trkpt>
      <trkpt lat="45.68491" lon="5.66378">
        <ele>356.98435931549</ele>
        <time>2015-04-26T10:13:41Z</time>
      </trkpt>
      <trkpt lat="45.68486" lon="5.66371">
        <ele>356.381936075</ele>
        <time>2015-04-26T10:13:46Z</time>
      </trkpt>
      <trkpt lat="45.68482" lon="5.66364">
        <ele>356.381936075</ele>
        <time>2015-04-26T10:13:51Z</time>
      </trkpt>
      <trkpt lat="45.68479" lon="5.66355">
        <ele>355.57115288692</ele>
        <time>2015-04-26T10:13:56Z</time>
      </trkpt>
      <trkpt lat="45.68475" lon="5.66348">
        <ele>355.57115288692</ele>
        <time>2015-04-26T10:14:01Z</time>
      </trkpt>
      <trkpt lat="45.68471" lon="5.66339">
        <ele>355.52165059109</ele>
        <time>2015-04-26T10:14:06Z</time>
      </trkpt>
      <trkpt lat="45.68468" lon="5.6633">
        <ele>355.52165059109</ele>
        <time>2015-04-26T10:14:11Z</time>
      </trkpt>
      <trkpt lat="45.68467" lon="5.66325">
        <ele>356.33690167926</ele>
        <time>2015-04-26T10:14:16Z</time>
      </trkpt>
      <trkpt lat="45.68468" lon="5.66322">
        <ele>356.33690167926</ele>
        <time>2015-04-26T10:14:21Z</time>
      </trkpt>
      <trkpt lat="45.6847" lon="5.66314">
        <ele>356.33690167926</ele>
        <time>2015-04-26T10:14:26Z</time>
      </trkpt>
      <trkpt lat="45.68467" lon="5.66306">
        <ele>357.2455089629</ele>
        <time>2015-04-26T10:14:31Z</time>
      </trkpt>
      <trkpt lat="45.68464" lon="5.66296">
        <ele>357.2455089629</ele>
        <time>2015-04-26T10:14:36Z</time>
      </trkpt>
      <trkpt lat="45.68462" lon="5.66285">
        <ele>358.16641869729</ele>
        <time>2015-04-26T10:14:41Z</time>
      </trkpt>
      <trkpt lat="45.6846" lon="5.66272">
        <ele>358.16641869729</ele>
        <time>2015-04-26T10:14:46Z</time>
      </trkpt>
      <trkpt lat="45.68459" lon="5.66262">
        <ele>359.39904883785</ele>
        <time>2015-04-26T10:14:51Z</time>
      </trkpt>
      <trkpt lat="45.68459" lon="5.66251">
        <ele>359.39904883785</ele>
        <time>2015-04-26T10:14:56Z</time>
      </trkpt>
      <trkpt lat="45.68461" lon="5.6624">
        <ele>360.61455772926</ele>
        <time>2015-04-26T10:15:01Z</time>
      </trkpt>
      <trkpt lat="45.68459" lon="5.6623">
        <ele>360.61455772926</ele>
        <time>2015-04-26T10:15:06Z</time>
      </trkpt>
      <trkpt lat="45.68459" lon="5.6622">
        <ele>361.78201865925</ele>
        <time>2015-04-26T10:15:11Z</time>
      </trkpt>
      <trkpt lat="45.68459" lon="5.66215">
        <ele>361.78201865925</ele>
        <time>2015-04-26T10:15:16Z</time>
      </trkpt>
      <trkpt lat="45.68459" lon="5.66208">
        <ele>361.78201865925</ele>
        <time>2015-04-26T10:15:21Z</time>
      </trkpt>
      <trkpt lat="45.6846" lon="5.66203">
        <ele>363.4925069127</ele>
        <time>2015-04-26T10:15:26Z</time>
      </trkpt>
      <trkpt lat="45.68461" lon="5.66202">
        <ele>363.4925069127</ele>
        <time>2015-04-26T10:15:31Z</time>
      </trkpt>
      <trkpt lat="45.68462" lon="5.66201">
        <ele>363.4925069127</ele>
        <time>2015-04-26T10:15:36Z</time>
      </trkpt>
      <trkpt lat="45.68462" lon="5.66201">
        <ele>363.4925069127</ele>
        <time>2015-04-26T10:15:41Z</time>
      </trkpt>
      <trkpt lat="45.68462" lon="5.66201">
        <ele>363.4925069127</ele>
        <time>2015-04-26T10:15:46Z</time>
      </trkpt>
      <trkpt lat="45.68462" lon="5.66201">
        <ele>363.4925069127</ele>
        <time>2015-04-26T10:15:51Z</time>
      </trkpt>
      <trkpt lat="45.68462" lon="5.66201">
        <ele>363.4925069127</ele>
        <time>2015-04-26T10:15:56Z</time>
      </trkpt>
      <trkpt lat="45.68462" lon="5.66201">
        <ele>363.4925069127</ele>
        <time>2015-04-26T10:16:01Z</time>
      </trkpt>
      <trkpt lat="45.68462" lon="5.66201">
        <ele>363.4925069127</ele>
        <time>2015-04-26T10:16:06Z</time>
      </trkpt>
      <trkpt lat="45.68464" lon="5.66197">
        <ele>363.4925069127</ele>
        <time>2015-04-26T10:16:11Z</time>
      </trkpt>
      <trkpt lat="45.68464" lon="5.66189">
        <ele>364.38981566503</ele>
        <time>2015-04-26T10:16:16Z</time>
      </trkpt>
      <trkpt lat="45.68462" lon="5.66181">
        <ele>364.38981566503</ele>
        <time>2015-04-26T10:16:21Z</time>
      </trkpt>
      <trkpt lat="45.68462" lon="5.66173">
        <ele>365.13627676714</ele>
        <time>2015-04-26T10:16:26Z</time>
      </trkpt>
      <trkpt lat="45.68459" lon="5.66168">
        <ele>365.13627676714</ele>
        <time>2015-04-26T10:16:31Z</time>
      </trkpt>
      <trkpt lat="45.68457" lon="5.66162">
        <ele>366.23066312262</ele>
        <time>2015-04-26T10:16:36Z</time>
      </trkpt>
      <trkpt lat="45.68456" lon="5.66155">
        <ele>366.23066312262</ele>
        <time>2015-04-26T10:16:41Z</time>
      </trkpt>
      <trkpt lat="45.68456" lon="5.66146">
        <ele>367.71618444421</ele>
        <time>2015-04-26T10:16:46Z</time>
      </trkpt>
      <trkpt lat="45.68456" lon="5.66137">
        <ele>367.71618444421</ele>
        <time>2015-04-26T10:16:51Z</time>
      </trkpt>
      <trkpt lat="45.6846" lon="5.66131">
        <ele>369.5453005774</ele>
        <time>2015-04-26T10:16:56Z</time>
      </trkpt>
      <trkpt lat="45.68465" lon="5.6613">
        <ele>369.5453005774</ele>
        <time>2015-04-26T10:17:01Z</time>
      </trkpt>
      <trkpt lat="45.6847" lon="5.6613">
        <ele>370.93803353807</ele>
        <time>2015-04-26T10:17:06Z</time>
      </trkpt>
      <trkpt lat="45.68475" lon="5.66131">
        <ele>370.93803353807</ele>
        <time>2015-04-26T10:17:11Z</time>
      </trkpt>
      <trkpt lat="45.68481" lon="5.66131">
        <ele>372.4987641214</ele>
        <time>2015-04-26T10:17:16Z</time>
      </trkpt>
      <trkpt lat="45.68486" lon="5.6613">
        <ele>372.4987641214</ele>
        <time>2015-04-26T10:17:21Z</time>
      </trkpt>
      <trkpt lat="45.6849" lon="5.66128">
        <ele>373.86471935348</ele>
        <time>2015-04-26T10:17:26Z</time>
      </trkpt>
      <trkpt lat="45.68496" lon="5.66128">
        <ele>373.86471935348</ele>
        <time>2015-04-26T10:17:31Z</time>
      </trkpt>
      <trkpt lat="45.68501" lon="5.66125">
        <ele>374.67153670214</ele>
        <time>2015-04-26T10:17:36Z</time>
      </trkpt>
      <trkpt lat="45.68504" lon="5.66121">
        <ele>374.67153670214</ele>
        <time>2015-04-26T10:17:41Z</time>
      </trkpt>
      <trkpt lat="45.68507" lon="5.6612">
        <ele>374.67153670214</ele>
        <time>2015-04-26T10:17:46Z</time>
      </trkpt>
      <trkpt lat="45.68512" lon="5.6612">
        <ele>375.64965629309</ele>
        <time>2015-04-26T10:17:51Z</time>
      </trkpt>
      <trkpt lat="45.68512" lon="5.6612">
        <ele>375.64965629309</ele>
        <time>2015-04-26T10:17:56Z</time>
      </trkpt>
      <trkpt lat="45.68513" lon="5.6612">
        <ele>375.64965629309</ele>
        <time>2015-04-26T10:18:01Z</time>
      </trkpt>
      <trkpt lat="45.6852" lon="5.66115">
        <ele>376.17843006286</ele>
        <time>2015-04-26T10:18:06Z</time>
      </trkpt>
      <trkpt lat="45.68528" lon="5.66113">
        <ele>376.17843006286</ele>
        <time>2015-04-26T10:18:11Z</time>
      </trkpt>
      <trkpt lat="45.68536" lon="5.66107">
        <ele>377.34139726417</ele>
        <time>2015-04-26T10:18:16Z</time>
      </trkpt>
      <trkpt lat="45.68548" lon="5.66103">
        <ele>378.8726028422</ele>
        <time>2015-04-26T10:18:21Z</time>
      </trkpt>
      <trkpt lat="45.68558" lon="5.66103">
        <ele>380.65436046631</ele>
        <time>2015-04-26T10:18:26Z</time>
      </trkpt>
      <trkpt lat="45.68567" lon="5.66102">
        <ele>380.65436046631</ele>
        <time>2015-04-26T10:18:31Z</time>
      </trkpt>
      <trkpt lat="45.68575" lon="5.66099">
        <ele>382.27436333517</ele>
        <time>2015-04-26T10:18:36Z</time>
      </trkpt>
      <trkpt lat="45.68582" lon="5.66099">
        <ele>382.27436333517</ele>
        <time>2015-04-26T10:18:41Z</time>
      </trkpt>
      <trkpt lat="45.68589" lon="5.66101">
        <ele>384.4896041093</ele>
        <time>2015-04-26T10:18:46Z</time>
      </trkpt>
      <trkpt lat="45.68595" lon="5.66099">
        <ele>384.4896041093</ele>
        <time>2015-04-26T10:18:51Z</time>
      </trkpt>
      <trkpt lat="45.68596" lon="5.66096">
        <ele>384.4896041093</ele>
        <time>2015-04-26T10:18:56Z</time>
      </trkpt>
      <trkpt lat="45.68601" lon="5.66094">
        <ele>386.60200631108</ele>
        <time>2015-04-26T10:19:01Z</time>
      </trkpt>
      <trkpt lat="45.68614" lon="5.66095">
        <ele>388.68571516537</ele>
        <time>2015-04-26T10:19:06Z</time>
      </trkpt>
      <trkpt lat="45.68623" lon="5.66092">
        <ele>388.68571516537</ele>
        <time>2015-04-26T10:19:11Z</time>
      </trkpt>
      <trkpt lat="45.68637" lon="5.66093">
        <ele>391.29959428237</ele>
        <time>2015-04-26T10:19:16Z</time>
      </trkpt>
      <trkpt lat="45.68648" lon="5.66091">
        <ele>393.11545675032</ele>
        <time>2015-04-26T10:19:21Z</time>
      </trkpt>
      <trkpt lat="45.68658" lon="5.66085">
        <ele>395.03789079258</ele>
        <time>2015-04-26T10:19:26Z</time>
      </trkpt>
      <trkpt lat="45.68662" lon="5.6608">
        <ele>395.03789079258</ele>
        <time>2015-04-26T10:19:31Z</time>
      </trkpt>
      <trkpt lat="45.68674" lon="5.66076">
        <ele>397.55899715117</ele>
        <time>2015-04-26T10:19:36Z</time>
      </trkpt>
      <trkpt lat="45.68683" lon="5.66071">
        <ele>400.05234837875</ele>
        <time>2015-04-26T10:19:41Z</time>
      </trkpt>
      <trkpt lat="45.68691" lon="5.66068">
        <ele>400.05234837875</ele>
        <time>2015-04-26T10:19:46Z</time>
      </trkpt>
      <trkpt lat="45.68696" lon="5.66073">
        <ele>402.94653225963</ele>
        <time>2015-04-26T10:19:51Z</time>
      </trkpt>
      <trkpt lat="45.68699" lon="5.66073">
        <ele>402.94653225963</ele>
        <time>2015-04-26T10:19:56Z</time>
      </trkpt>
      <trkpt lat="45.68702" lon="5.6607">
        <ele>402.94653225963</ele>
        <time>2015-04-26T10:20:01Z</time>
      </trkpt>
      <trkpt lat="45.68702" lon="5.66069">
        <ele>402.94653225963</ele>
        <time>2015-04-26T10:20:06Z</time>
      </trkpt>
      <trkpt lat="45.6871" lon="5.66063">
        <ele>405.09568522622</ele>
        <time>2015-04-26T10:20:11Z</time>
      </trkpt>
      <trkpt lat="45.68716" lon="5.66055">
        <ele>405.09568522622</ele>
        <time>2015-04-26T10:20:16Z</time>
      </trkpt>
      <trkpt lat="45.68722" lon="5.66049">
        <ele>406.62207263335</ele>
        <time>2015-04-26T10:20:21Z</time>
      </trkpt>
      <trkpt lat="45.68731" lon="5.66045">
        <ele>408.05880194054</ele>
        <time>2015-04-26T10:20:26Z</time>
      </trkpt>
      <trkpt lat="45.68738" lon="5.6604">
        <ele>408.05880194054</ele>
        <time>2015-04-26T10:20:31Z</time>
      </trkpt>
      <trkpt lat="45.68744" lon="5.66038">
        <ele>409.41024485552</ele>
        <time>2015-04-26T10:20:36Z</time>
      </trkpt>
      <trkpt lat="45.68746" lon="5.66038">
        <ele>409.41024485552</ele>
        <time>2015-04-26T10:20:41Z</time>
      </trkpt>
      <trkpt lat="45.68747" lon="5.66038">
        <ele>409.41024485552</ele>
        <time>2015-04-26T10:20:46Z</time>
      </trkpt>
      <trkpt lat="45.6876" lon="5.66039">
        <ele>410.79612900083</ele>
        <time>2015-04-26T10:20:51Z</time>
      </trkpt>
      <trkpt lat="45.68776" lon="5.66041">
        <ele>411.99597755355</ele>
        <time>2015-04-26T10:20:56Z</time>
      </trkpt>
      <trkpt lat="45.68787" lon="5.6604">
        <ele>412.92145729302</ele>
        <time>2015-04-26T10:21:01Z</time>
      </trkpt>
      <trkpt lat="45.68795" lon="5.66038">
        <ele>412.92145729302</ele>
        <time>2015-04-26T10:21:06Z</time>
      </trkpt>
      <trkpt lat="45.68802" lon="5.66039">
        <ele>414.61569187648</ele>
        <time>2015-04-26T10:21:11Z</time>
      </trkpt>
      <trkpt lat="45.68808" lon="5.6604">
        <ele>414.61569187648</ele>
        <time>2015-04-26T10:21:16Z</time>
      </trkpt>
      <trkpt lat="45.68811" lon="5.66036">
        <ele>416.21293306146</ele>
        <time>2015-04-26T10:21:21Z</time>
      </trkpt>
      <trkpt lat="45.68814" lon="5.66034">
        <ele>416.21293306146</ele>
        <time>2015-04-26T10:21:26Z</time>
      </trkpt>
      <trkpt lat="45.68818" lon="5.66032">
        <ele>416.21293306146</ele>
        <time>2015-04-26T10:21:31Z</time>
      </trkpt>
      <trkpt lat="45.68823" lon="5.66029">
        <ele>415.91705098269</ele>
        <time>2015-04-26T10:21:36Z</time>
      </trkpt>
      <trkpt lat="45.68826" lon="5.66028">
        <ele>415.91705098269</ele>
        <time>2015-04-26T10:21:41Z</time>
      </trkpt>
      <trkpt lat="45.6883" lon="5.66028">
        <ele>415.91705098269</ele>
        <time>2015-04-26T10:21:46Z</time>
      </trkpt>
      <trkpt lat="45.68831" lon="5.66028">
        <ele>415.91705098269</ele>
        <time>2015-04-26T10:21:51Z</time>
      </trkpt>
      <trkpt lat="45.68832" lon="5.66028">
        <ele>415.91705098269</ele>
        <time>2015-04-26T10:21:56Z</time>
      </trkpt>
      <trkpt lat="45.68832" lon="5.66028">
        <ele>415.52794501484</ele>
        <time>2015-04-26T10:22:01Z</time>
      </trkpt>
      <trkpt lat="45.68842" lon="5.66027">
        <ele>415.24371566097</ele>
        <time>2015-04-26T10:22:06Z</time>
      </trkpt>
      <trkpt lat="45.68854" lon="5.66027">
        <ele>415.70885204872</ele>
        <time>2015-04-26T10:22:11Z</time>
      </trkpt>
      <trkpt lat="45.68862" lon="5.66029">
        <ele>415.70885204872</ele>
        <time>2015-04-26T10:22:16Z</time>
      </trkpt>
      <trkpt lat="45.68871" lon="5.66031">
        <ele>415.47208113056</ele>
        <time>2015-04-26T10:22:21Z</time>
      </trkpt>
      <trkpt lat="45.6888" lon="5.66033">
        <ele>415.47208113056</ele>
        <time>2015-04-26T10:22:26Z</time>
      </trkpt>
      <trkpt lat="45.68884" lon="5.66032">
        <ele>415.35242531518</ele>
        <time>2015-04-26T10:22:31Z</time>
      </trkpt>
      <trkpt lat="45.68887" lon="5.66031">
        <ele>415.35242531518</ele>
        <time>2015-04-26T10:22:36Z</time>
      </trkpt>
      <trkpt lat="45.68889" lon="5.66031">
        <ele>415.35242531518</ele>
        <time>2015-04-26T10:22:41Z</time>
      </trkpt>
      <trkpt lat="45.68894" lon="5.66028">
        <ele>415.33024862647</ele>
        <time>2015-04-26T10:22:46Z</time>
      </trkpt>
      <trkpt lat="45.68906" lon="5.66026">
        <ele>415.19976288283</ele>
        <time>2015-04-26T10:22:51Z</time>
      </trkpt>
      <trkpt lat="45.6892" lon="5.66022">
        <ele>415.96673653402</ele>
        <time>2015-04-26T10:22:56Z</time>
      </trkpt>
      <trkpt lat="45.68932" lon="5.66017">
        <ele>417.45088671184</ele>
        <time>2015-04-26T10:23:01Z</time>
      </trkpt>
      <trkpt lat="45.68941" lon="5.66013">
        <ele>418.60408515005</ele>
        <time>2015-04-26T10:23:06Z</time>
      </trkpt>
      <trkpt lat="45.68947" lon="5.66014">
        <ele>418.60408515005</ele>
        <time>2015-04-26T10:23:11Z</time>
      </trkpt>
      <trkpt lat="45.68952" lon="5.66012">
        <ele>419.43608214071</ele>
        <time>2015-04-26T10:23:16Z</time>
      </trkpt>
      <trkpt lat="45.68954" lon="5.66012">
        <ele>419.43608214071</ele>
        <time>2015-04-26T10:23:21Z</time>
      </trkpt>
      <trkpt lat="45.68956" lon="5.66013">
        <ele>419.43608214071</ele>
        <time>2015-04-26T10:23:26Z</time>
      </trkpt>
      <trkpt lat="45.68957" lon="5.66013">
        <ele>419.43608214071</ele>
        <time>2015-04-26T10:23:31Z</time>
      </trkpt>
      <trkpt lat="45.68968" lon="5.66007">
        <ele>419.89916650368</ele>
        <time>2015-04-26T10:23:36Z</time>
      </trkpt>
      <trkpt lat="45.68986" lon="5.66007">
        <ele>420.19515195619</ele>
        <time>2015-04-26T10:23:41Z</time>
      </trkpt>
      <trkpt lat="45.68991" lon="5.66008">
        <ele>420.19515195619</ele>
        <time>2015-04-26T10:23:46Z</time>
      </trkpt>
      <trkpt lat="45.68998" lon="5.66007">
        <ele>419.89180898836</ele>
        <time>2015-04-26T10:23:51Z</time>
      </trkpt>
      <trkpt lat="45.69007" lon="5.66006">
        <ele>419.89180898836</ele>
        <time>2015-04-26T10:23:56Z</time>
      </trkpt>
      <trkpt lat="45.69012" lon="5.66005">
        <ele>419.52704751606</ele>
        <time>2015-04-26T10:24:01Z</time>
      </trkpt>
      <trkpt lat="45.69017" lon="5.66006">
        <ele>419.52704751606</ele>
        <time>2015-04-26T10:24:06Z</time>
      </trkpt>
      <trkpt lat="45.69025" lon="5.66007">
        <ele>419.35442214837</ele>
        <time>2015-04-26T10:24:11Z</time>
      </trkpt>
      <trkpt lat="45.69027" lon="5.66007">
        <ele>419.35442214837</ele>
        <time>2015-04-26T10:24:16Z</time>
      </trkpt>
      <trkpt lat="45.69029" lon="5.66007">
        <ele>419.35442214837</ele>
        <time>2015-04-26T10:24:21Z</time>
      </trkpt>
      <trkpt lat="45.69032" lon="5.66001">
        <ele>419.35442214837</ele>
        <time>2015-04-26T10:24:26Z</time>
      </trkpt>
      <trkpt lat="45.69037" lon="5.66">
        <ele>419.73799066558</ele>
        <time>2015-04-26T10:24:31Z</time>
      </trkpt>
      <trkpt lat="45.69038" lon="5.66001">
        <ele>419.73799066558</ele>
        <time>2015-04-26T10:24:36Z</time>
      </trkpt>
      <trkpt lat="45.69038" lon="5.66001">
        <ele>419.73799066558</ele>
        <time>2015-04-26T10:24:41Z</time>
      </trkpt>
      <trkpt lat="45.69039" lon="5.66">
        <ele>419.73799066558</ele>
        <time>2015-04-26T10:24:46Z</time>
      </trkpt>
      <trkpt lat="45.69042" lon="5.65997">
        <ele>419.73799066558</ele>
        <time>2015-04-26T10:24:51Z</time>
      </trkpt>
      <trkpt lat="45.69044" lon="5.65991">
        <ele>420.1776235465</ele>
        <time>2015-04-26T10:24:56Z</time>
      </trkpt>
      <trkpt lat="45.69049" lon="5.65983">
        <ele>420.1776235465</ele>
        <time>2015-04-26T10:25:01Z</time>
      </trkpt>
      <trkpt lat="45.69053" lon="5.6598">
        <ele>419.77739479852</ele>
        <time>2015-04-26T10:25:06Z</time>
      </trkpt>
      <trkpt lat="45.69061" lon="5.65977">
        <ele>419.77739479852</ele>
        <time>2015-04-26T10:25:11Z</time>
      </trkpt>
      <trkpt lat="45.69069" lon="5.65974">
        <ele>418.24270792646</ele>
        <time>2015-04-26T10:25:16Z</time>
      </trkpt>
      <trkpt lat="45.69074" lon="5.65973">
        <ele>418.24270792646</ele>
        <time>2015-04-26T10:25:21Z</time>
      </trkpt>
      <trkpt lat="45.69077" lon="5.65972">
        <ele>418.24270792646</ele>
        <time>2015-04-26T10:25:26Z</time>
      </trkpt>
      <trkpt lat="45.69081" lon="5.65971">
        <ele>415.85134982393</ele>
        <time>2015-04-26T10:25:31Z</time>
      </trkpt>
      <trkpt lat="45.69085" lon="5.65969">
        <ele>415.85134982393</ele>
        <time>2015-04-26T10:25:36Z</time>
      </trkpt>
      <trkpt lat="45.69088" lon="5.65968">
        <ele>415.85134982393</ele>
        <time>2015-04-26T10:25:41Z</time>
      </trkpt>
      <trkpt lat="45.6909" lon="5.6597">
        <ele>413.22330518158</ele>
        <time>2015-04-26T10:25:46Z</time>
      </trkpt>
      <trkpt lat="45.69094" lon="5.65969">
        <ele>413.22330518158</ele>
        <time>2015-04-26T10:25:51Z</time>
      </trkpt>
      <trkpt lat="45.69098" lon="5.65967">
        <ele>413.22330518158</ele>
        <time>2015-04-26T10:25:56Z</time>
      </trkpt>
      <trkpt lat="45.69102" lon="5.65965">
        <ele>410.25625963832</ele>
        <time>2015-04-26T10:26:01Z</time>
      </trkpt>
      <trkpt lat="45.69106" lon="5.65962">
        <ele>410.25625963832</ele>
        <time>2015-04-26T10:26:06Z</time>
      </trkpt>
      <trkpt lat="45.6911" lon="5.65955">
        <ele>407.69209246659</ele>
        <time>2015-04-26T10:26:11Z</time>
      </trkpt>
      <trkpt lat="45.69116" lon="5.65949">
        <ele>407.69209246659</ele>
        <time>2015-04-26T10:26:16Z</time>
      </trkpt>
      <trkpt lat="45.69121" lon="5.65947">
        <ele>405.26578210077</ele>
        <time>2015-04-26T10:26:21Z</time>
      </trkpt>
      <trkpt lat="45.69126" lon="5.65944">
        <ele>405.26578210077</ele>
        <time>2015-04-26T10:26:26Z</time>
      </trkpt>
      <trkpt lat="45.69131" lon="5.6594">
        <ele>402.94739777922</ele>
        <time>2015-04-26T10:26:31Z</time>
      </trkpt>
      <trkpt lat="45.69137" lon="5.65937">
        <ele>402.94739777922</ele>
        <time>2015-04-26T10:26:36Z</time>
      </trkpt>
      <trkpt lat="45.69143" lon="5.65935">
        <ele>400.50697532295</ele>
        <time>2015-04-26T10:26:41Z</time>
      </trkpt>
      <trkpt lat="45.69149" lon="5.65934">
        <ele>400.50697532295</ele>
        <time>2015-04-26T10:26:46Z</time>
      </trkpt>
      <trkpt lat="45.69154" lon="5.65931">
        <ele>397.34249728356</ele>
        <time>2015-04-26T10:26:51Z</time>
      </trkpt>
      <trkpt lat="45.69158" lon="5.65929">
        <ele>397.34249728356</ele>
        <time>2015-04-26T10:26:56Z</time>
      </trkpt>
      <trkpt lat="45.69163" lon="5.65929">
        <ele>394.06529910717</ele>
        <time>2015-04-26T10:27:01Z</time>
      </trkpt>
      <trkpt lat="45.69166" lon="5.65928">
        <ele>394.06529910717</ele>
        <time>2015-04-26T10:27:06Z</time>
      </trkpt>
      <trkpt lat="45.69167" lon="5.65928">
        <ele>394.06529910717</ele>
        <time>2015-04-26T10:27:11Z</time>
      </trkpt>
      <trkpt lat="45.69169" lon="5.65929">
        <ele>394.06529910717</ele>
        <time>2015-04-26T10:27:16Z</time>
      </trkpt>
      <trkpt lat="45.69174" lon="5.65928">
        <ele>390.67987360761</ele>
        <time>2015-04-26T10:27:21Z</time>
      </trkpt>
      <trkpt lat="45.6918" lon="5.65926">
        <ele>390.67987360761</ele>
        <time>2015-04-26T10:27:26Z</time>
      </trkpt>
      <trkpt lat="45.69186" lon="5.65922">
        <ele>386.90223262405</ele>
        <time>2015-04-26T10:27:31Z</time>
      </trkpt>
      <trkpt lat="45.69192" lon="5.6592">
        <ele>386.90223262405</ele>
        <time>2015-04-26T10:27:36Z</time>
      </trkpt>
      <trkpt lat="45.69198" lon="5.65918">
        <ele>382.91684658324</ele>
        <time>2015-04-26T10:27:41Z</time>
      </trkpt>
      <trkpt lat="45.69201" lon="5.65913">
        <ele>382.91684658324</ele>
        <time>2015-04-26T10:27:46Z</time>
      </trkpt>
      <trkpt lat="45.69207" lon="5.65911">
        <ele>378.92377669287</ele>
        <time>2015-04-26T10:27:51Z</time>
      </trkpt>
      <trkpt lat="45.69214" lon="5.65907">
        <ele>378.92377669287</ele>
        <time>2015-04-26T10:27:56Z</time>
      </trkpt>
      <trkpt lat="45.69222" lon="5.65902">
        <ele>375.16577642336</ele>
        <time>2015-04-26T10:28:01Z</time>
      </trkpt>
      <trkpt lat="45.69229" lon="5.65895">
        <ele>375.16577642336</ele>
        <time>2015-04-26T10:28:06Z</time>
      </trkpt>
      <trkpt lat="45.69232" lon="5.65889">
        <ele>371.80917317254</ele>
        <time>2015-04-26T10:28:11Z</time>
      </trkpt>
      <trkpt lat="45.69235" lon="5.65884">
        <ele>371.80917317254</ele>
        <time>2015-04-26T10:28:16Z</time>
      </trkpt>
      <trkpt lat="45.6924" lon="5.65879">
        <ele>368.71842875337</ele>
        <time>2015-04-26T10:28:21Z</time>
      </trkpt>
      <trkpt lat="45.69244" lon="5.65875">
        <ele>368.71842875337</ele>
        <time>2015-04-26T10:28:26Z</time>
      </trkpt>
      <trkpt lat="45.69248" lon="5.65871">
        <ele>364.93106482647</ele>
        <time>2015-04-26T10:28:31Z</time>
      </trkpt>
      <trkpt lat="45.69253" lon="5.65867">
        <ele>364.93106482647</ele>
        <time>2015-04-26T10:28:36Z</time>
      </trkpt>
      <trkpt lat="45.69256" lon="5.65864">
        <ele>364.93106482647</ele>
        <time>2015-04-26T10:28:41Z</time>
      </trkpt>
      <trkpt lat="45.69263" lon="5.65861">
        <ele>361.04129410965</ele>
        <time>2015-04-26T10:28:46Z</time>
      </trkpt>
      <trkpt lat="45.69271" lon="5.65856">
        <ele>361.04129410965</ele>
        <time>2015-04-26T10:28:51Z</time>
      </trkpt>
      <trkpt lat="45.69276" lon="5.65852">
        <ele>357.52759550542</ele>
        <time>2015-04-26T10:28:56Z</time>
      </trkpt>
      <trkpt lat="45.69281" lon="5.65848">
        <ele>357.52759550542</ele>
        <time>2015-04-26T10:29:01Z</time>
      </trkpt>
      <trkpt lat="45.69286" lon="5.65844">
        <ele>354.16901485088</ele>
        <time>2015-04-26T10:29:06Z</time>
      </trkpt>
      <trkpt lat="45.69292" lon="5.65839">
        <ele>354.16901485088</ele>
        <time>2015-04-26T10:29:11Z</time>
      </trkpt>
      <trkpt lat="45.69299" lon="5.65834">
        <ele>350.91859664946</ele>
        <time>2015-04-26T10:29:16Z</time>
      </trkpt>
      <trkpt lat="45.69305" lon="5.65829">
        <ele>350.91859664946</ele>
        <time>2015-04-26T10:29:21Z</time>
      </trkpt>
      <trkpt lat="45.69311" lon="5.65826">
        <ele>347.57368967556</ele>
        <time>2015-04-26T10:29:26Z</time>
      </trkpt>
      <trkpt lat="45.69313" lon="5.65824">
        <ele>347.57368967556</ele>
        <time>2015-04-26T10:29:31Z</time>
      </trkpt>
      <trkpt lat="45.69317" lon="5.65821">
        <ele>347.57368967556</ele>
        <time>2015-04-26T10:29:36Z</time>
      </trkpt>
      <trkpt lat="45.69325" lon="5.65817">
        <ele>344.73908954033</ele>
        <time>2015-04-26T10:29:41Z</time>
      </trkpt>
      <trkpt lat="45.69338" lon="5.65809">
        <ele>342.52667720216</ele>
        <time>2015-04-26T10:29:46Z</time>
      </trkpt>
      <trkpt lat="45.69346" lon="5.65804">
        <ele>342.52667720216</ele>
        <time>2015-04-26T10:29:51Z</time>
      </trkpt>
      <trkpt lat="45.69353" lon="5.65799">
        <ele>340.86513461463</ele>
        <time>2015-04-26T10:29:56Z</time>
      </trkpt>
      <trkpt lat="45.69357" lon="5.65792">
        <ele>340.86513461463</ele>
        <time>2015-04-26T10:30:01Z</time>
      </trkpt>
      <trkpt lat="45.69366" lon="5.65786">
        <ele>339.55684864493</ele>
        <time>2015-04-26T10:30:06Z</time>
      </trkpt>
      <trkpt lat="45.69388" lon="5.65764">
        <ele>338.80656042062</ele>
        <time>2015-04-26T10:30:11Z</time>
      </trkpt>
      <trkpt lat="45.69407" lon="5.65738">
        <ele>338.78774440537</ele>
        <time>2015-04-26T10:30:16Z</time>
      </trkpt>
      <trkpt lat="45.69422" lon="5.65715">
        <ele>339.08240969391</ele>
        <time>2015-04-26T10:30:21Z</time>
      </trkpt>
      <trkpt lat="45.69437" lon="5.65696">
        <ele>339.93628306464</ele>
        <time>2015-04-26T10:30:26Z</time>
      </trkpt>
      <trkpt lat="45.69446" lon="5.65687">
        <ele>340.71063708294</ele>
        <time>2015-04-26T10:30:31Z</time>
      </trkpt>
      <trkpt lat="45.69451" lon="5.6568">
        <ele>340.71063708294</ele>
        <time>2015-04-26T10:30:36Z</time>
      </trkpt>
      <trkpt lat="45.69456" lon="5.65673">
        <ele>341.41901798665</ele>
        <time>2015-04-26T10:30:41Z</time>
      </trkpt>
      <trkpt lat="45.69462" lon="5.65665">
        <ele>341.41901798665</ele>
        <time>2015-04-26T10:30:46Z</time>
      </trkpt>
      <trkpt lat="45.6947" lon="5.65663">
        <ele>342.59285618411</ele>
        <time>2015-04-26T10:30:51Z</time>
      </trkpt>
      <trkpt lat="45.69484" lon="5.6567">
        <ele>343.69997226405</ele>
        <time>2015-04-26T10:30:56Z</time>
      </trkpt>
      <trkpt lat="45.69501" lon="5.65686">
        <ele>344.4491747424</ele>
        <time>2015-04-26T10:31:01Z</time>
      </trkpt>
      <trkpt lat="45.69522" lon="5.65691">
        <ele>345.79659043577</ele>
        <time>2015-04-26T10:31:06Z</time>
      </trkpt>
      <trkpt lat="45.69533" lon="5.65685">
        <ele>347.41590233498</ele>
        <time>2015-04-26T10:31:11Z</time>
      </trkpt>
      <trkpt lat="45.6954" lon="5.65687">
        <ele>347.41590233498</ele>
        <time>2015-04-26T10:31:16Z</time>
      </trkpt>
      <trkpt lat="45.69547" lon="5.65684">
        <ele>348.47081896799</ele>
        <time>2015-04-26T10:31:21Z</time>
      </trkpt>
      <trkpt lat="45.69556" lon="5.65682">
        <ele>348.47081896799</ele>
        <time>2015-04-26T10:31:26Z</time>
      </trkpt>
      <trkpt lat="45.69561" lon="5.65681">
        <ele>349.39865025664</ele>
        <time>2015-04-26T10:31:31Z</time>
      </trkpt>
      <trkpt lat="45.69566" lon="5.65677">
        <ele>349.39865025664</ele>
        <time>2015-04-26T10:31:36Z</time>
      </trkpt>
      <trkpt lat="45.69573" lon="5.65671">
        <ele>350.50413185429</ele>
        <time>2015-04-26T10:31:41Z</time>
      </trkpt>
      <trkpt lat="45.69578" lon="5.65665">
        <ele>350.50413185429</ele>
        <time>2015-04-26T10:31:46Z</time>
      </trkpt>
      <trkpt lat="45.69585" lon="5.65662">
        <ele>351.53599364493</ele>
        <time>2015-04-26T10:31:51Z</time>
      </trkpt>
      <trkpt lat="45.69593" lon="5.65658">
        <ele>351.53599364493</ele>
        <time>2015-04-26T10:31:56Z</time>
      </trkpt>
      <trkpt lat="45.69596" lon="5.65655">
        <ele>353.01111428507</ele>
        <time>2015-04-26T10:32:01Z</time>
      </trkpt>
      <trkpt lat="45.69604" lon="5.65649">
        <ele>353.01111428507</ele>
        <time>2015-04-26T10:32:06Z</time>
      </trkpt>
      <trkpt lat="45.69615" lon="5.6564">
        <ele>354.4129136721</ele>
        <time>2015-04-26T10:32:11Z</time>
      </trkpt>
      <trkpt lat="45.69624" lon="5.65634">
        <ele>355.75307899659</ele>
        <time>2015-04-26T10:32:16Z</time>
      </trkpt>
      <trkpt lat="45.6963" lon="5.65629">
        <ele>355.75307899659</ele>
        <time>2015-04-26T10:32:21Z</time>
      </trkpt>
      <trkpt lat="45.69638" lon="5.65626">
        <ele>357.59038471023</ele>
        <time>2015-04-26T10:32:26Z</time>
      </trkpt>
      <trkpt lat="45.69644" lon="5.65627">
        <ele>357.59038471023</ele>
        <time>2015-04-26T10:32:31Z</time>
      </trkpt>
      <trkpt lat="45.69649" lon="5.65621">
        <ele>359.40372734463</ele>
        <time>2015-04-26T10:32:36Z</time>
      </trkpt>
      <trkpt lat="45.69656" lon="5.65617">
        <ele>359.40372734463</ele>
        <time>2015-04-26T10:32:41Z</time>
      </trkpt>
      <trkpt lat="45.69659" lon="5.65613">
        <ele>361.11403914258</ele>
        <time>2015-04-26T10:32:46Z</time>
      </trkpt>
      <trkpt lat="45.69666" lon="5.65608">
        <ele>361.11403914258</ele>
        <time>2015-04-26T10:32:51Z</time>
      </trkpt>
      <trkpt lat="45.69674" lon="5.65603">
        <ele>362.80706128718</ele>
        <time>2015-04-26T10:32:56Z</time>
      </trkpt>
      <trkpt lat="45.69679" lon="5.65599">
        <ele>362.80706128718</ele>
        <time>2015-04-26T10:33:01Z</time>
      </trkpt>
      <trkpt lat="45.69684" lon="5.65596">
        <ele>364.82188596595</ele>
        <time>2015-04-26T10:33:06Z</time>
      </trkpt>
      <trkpt lat="45.69691" lon="5.65592">
        <ele>364.82188596595</ele>
        <time>2015-04-26T10:33:11Z</time>
      </trkpt>
      <trkpt lat="45.69696" lon="5.65589">
        <ele>366.13176914168</ele>
        <time>2015-04-26T10:33:16Z</time>
      </trkpt>
      <trkpt lat="45.69702" lon="5.65584">
        <ele>366.13176914168</ele>
        <time>2015-04-26T10:33:21Z</time>
      </trkpt>
      <trkpt lat="45.69705" lon="5.65583">
        <ele>367.74749785423</ele>
        <time>2015-04-26T10:33:26Z</time>
      </trkpt>
      <trkpt lat="45.6971" lon="5.6558">
        <ele>367.74749785423</ele>
        <time>2015-04-26T10:33:31Z</time>
      </trkpt>
      <trkpt lat="45.69715" lon="5.65575">
        <ele>369.56737299159</ele>
        <time>2015-04-26T10:33:36Z</time>
      </trkpt>
      <trkpt lat="45.6972" lon="5.65573">
        <ele>369.56737299159</ele>
        <time>2015-04-26T10:33:41Z</time>
      </trkpt>
      <trkpt lat="45.69722" lon="5.65572">
        <ele>369.56737299159</ele>
        <time>2015-04-26T10:33:46Z</time>
      </trkpt>
      <trkpt lat="45.69724" lon="5.65572">
        <ele>371.03566641246</ele>
        <time>2015-04-26T10:33:51Z</time>
      </trkpt>
      <trkpt lat="45.6973" lon="5.65573">
        <ele>371.03566641246</ele>
        <time>2015-04-26T10:33:56Z</time>
      </trkpt>
      <trkpt lat="45.69734" lon="5.65572">
        <ele>371.81162370303</ele>
        <time>2015-04-26T10:34:01Z</time>
      </trkpt>
      <trkpt lat="45.69739" lon="5.6557">
        <ele>371.81162370303</ele>
        <time>2015-04-26T10:34:06Z</time>
      </trkpt>
      <trkpt lat="45.69746" lon="5.65568">
        <ele>371.25023710366</ele>
        <time>2015-04-26T10:34:11Z</time>
      </trkpt>
      <trkpt lat="45.69754" lon="5.65568">
        <ele>371.25023710366</ele>
        <time>2015-04-26T10:34:16Z</time>
      </trkpt>
      <trkpt lat="45.69763" lon="5.65566">
        <ele>369.59369752329</ele>
        <time>2015-04-26T10:34:21Z</time>
      </trkpt>
      <trkpt lat="45.69767" lon="5.65565">
        <ele>369.59369752329</ele>
        <time>2015-04-26T10:34:26Z</time>
      </trkpt>
      <trkpt lat="45.6977" lon="5.65565">
        <ele>369.59369752329</ele>
        <time>2015-04-26T10:34:31Z</time>
      </trkpt>
      <trkpt lat="45.69775" lon="5.65561">
        <ele>368.78460735169</ele>
        <time>2015-04-26T10:34:36Z</time>
      </trkpt>
      <trkpt lat="45.69784" lon="5.65557">
        <ele>367.91138956442</ele>
        <time>2015-04-26T10:34:41Z</time>
      </trkpt>
      <trkpt lat="45.69794" lon="5.65552">
        <ele>367.35472782369</ele>
        <time>2015-04-26T10:34:46Z</time>
      </trkpt>
      <trkpt lat="45.698" lon="5.65551">
        <ele>367.35472782369</ele>
        <time>2015-04-26T10:34:51Z</time>
      </trkpt>
      <trkpt lat="45.69806" lon="5.65548">
        <ele>367.48102026726</ele>
        <time>2015-04-26T10:34:56Z</time>
      </trkpt>
      <trkpt lat="45.69813" lon="5.65544">
        <ele>367.48102026726</ele>
        <time>2015-04-26T10:35:01Z</time>
      </trkpt>
      <trkpt lat="45.69822" lon="5.65539">
        <ele>367.6480216304</ele>
        <time>2015-04-26T10:35:06Z</time>
      </trkpt>
      <trkpt lat="45.6983" lon="5.65534">
        <ele>367.6480216304</ele>
        <time>2015-04-26T10:35:11Z</time>
      </trkpt>
      <trkpt lat="45.69835" lon="5.65528">
        <ele>366.85717241803</ele>
        <time>2015-04-26T10:35:16Z</time>
      </trkpt>
      <trkpt lat="45.69836" lon="5.65519">
        <ele>366.85717241803</ele>
        <time>2015-04-26T10:35:21Z</time>
      </trkpt>
      <trkpt lat="45.69839" lon="5.6551">
        <ele>366.82331125985</ele>
        <time>2015-04-26T10:35:26Z</time>
      </trkpt>
      <trkpt lat="45.69844" lon="5.65501">
        <ele>366.82331125985</ele>
        <time>2015-04-26T10:35:31Z</time>
      </trkpt>
      <trkpt lat="45.69847" lon="5.65489">
        <ele>367.07250734368</ele>
        <time>2015-04-26T10:35:36Z</time>
      </trkpt>
      <trkpt lat="45.69851" lon="5.65484">
        <ele>367.07250734368</ele>
        <time>2015-04-26T10:35:41Z</time>
      </trkpt>
      <trkpt lat="45.69855" lon="5.65472">
        <ele>367.2946574227</ele>
        <time>2015-04-26T10:35:46Z</time>
      </trkpt>
      <trkpt lat="45.69862" lon="5.6546">
        <ele>368.05287091488</ele>
        <time>2015-04-26T10:35:51Z</time>
      </trkpt>
      <trkpt lat="45.69866" lon="5.65453">
        <ele>368.05287091488</ele>
        <time>2015-04-26T10:35:56Z</time>
      </trkpt>
      <trkpt lat="45.69871" lon="5.65446">
        <ele>368.61371757006</ele>
        <time>2015-04-26T10:36:01Z</time>
      </trkpt>
      <trkpt lat="45.69873" lon="5.65444">
        <ele>368.61371757006</ele>
        <time>2015-04-26T10:36:06Z</time>
      </trkpt>
      <trkpt lat="45.69874" lon="5.65442">
        <ele>368.61371757006</ele>
        <time>2015-04-26T10:36:11Z</time>
      </trkpt>
      <trkpt lat="45.69875" lon="5.65442">
        <ele>368.61371757006</ele>
        <time>2015-04-26T10:36:16Z</time>
      </trkpt>
      <trkpt lat="45.69875" lon="5.65442">
        <ele>368.61371757006</ele>
        <time>2015-04-26T10:36:21Z</time>
      </trkpt>
      <trkpt lat="45.69875" lon="5.65442">
        <ele>368.61371757006</ele>
        <time>2015-04-26T10:36:26Z</time>
      </trkpt>
      <trkpt lat="45.69875" lon="5.65442">
        <ele>368.61371757006</ele>
        <time>2015-04-26T10:36:31Z</time>
      </trkpt>
      <trkpt lat="45.69877" lon="5.65438">
        <ele>368.61371757006</ele>
        <time>2015-04-26T10:36:36Z</time>
      </trkpt>
      <trkpt lat="45.69879" lon="5.65432">
        <ele>369.53764906374</ele>
        <time>2015-04-26T10:36:41Z</time>
      </trkpt>
      <trkpt lat="45.69881" lon="5.65426">
        <ele>369.53764906374</ele>
        <time>2015-04-26T10:36:46Z</time>
      </trkpt>
      <trkpt lat="45.69884" lon="5.65423">
        <ele>369.53764906374</ele>
        <time>2015-04-26T10:36:51Z</time>
      </trkpt>
      <trkpt lat="45.69889" lon="5.65422">
        <ele>369.68574203119</ele>
        <time>2015-04-26T10:36:56Z</time>
      </trkpt>
      <trkpt lat="45.69891" lon="5.6542">
        <ele>369.68574203119</ele>
        <time>2015-04-26T10:37:01Z</time>
      </trkpt>
      <trkpt lat="45.69895" lon="5.65416">
        <ele>369.68574203119</ele>
        <time>2015-04-26T10:37:06Z</time>
      </trkpt>
      <trkpt lat="45.69895" lon="5.65413">
        <ele>369.51817076145</ele>
        <time>2015-04-26T10:37:11Z</time>
      </trkpt>
      <trkpt lat="45.69895" lon="5.6541">
        <ele>369.51817076145</ele>
        <time>2015-04-26T10:37:16Z</time>
      </trkpt>
      <trkpt lat="45.69895" lon="5.65409">
        <ele>369.51817076145</ele>
        <time>2015-04-26T10:37:21Z</time>
      </trkpt>
      <trkpt lat="45.69895" lon="5.65409">
        <ele>369.51817076145</ele>
        <time>2015-04-26T10:37:26Z</time>
      </trkpt>
      <trkpt lat="45.69895" lon="5.65409">
        <ele>369.51817076145</ele>
        <time>2015-04-26T10:37:31Z</time>
      </trkpt>
      <trkpt lat="45.69896" lon="5.65406">
        <ele>369.51817076145</ele>
        <time>2015-04-26T10:37:36Z</time>
      </trkpt>
      <trkpt lat="45.69894" lon="5.654">
        <ele>368.56878498023</ele>
        <time>2015-04-26T10:37:41Z</time>
      </trkpt>
      <trkpt lat="45.69896" lon="5.65395">
        <ele>368.56878498023</ele>
        <time>2015-04-26T10:37:46Z</time>
      </trkpt>
      <trkpt lat="45.69897" lon="5.65391">
        <ele>368.56878498023</ele>
        <time>2015-04-26T10:37:51Z</time>
      </trkpt>
      <trkpt lat="45.69901" lon="5.65385">
        <ele>367.61847924683</ele>
        <time>2015-04-26T10:37:56Z</time>
      </trkpt>
      <trkpt lat="45.69906" lon="5.65378">
        <ele>367.61847924683</ele>
        <time>2015-04-26T10:38:01Z</time>
      </trkpt>
      <trkpt lat="45.6991" lon="5.65375">
        <ele>365.93532583227</ele>
        <time>2015-04-26T10:38:06Z</time>
      </trkpt>
      <trkpt lat="45.69914" lon="5.6537">
        <ele>365.93532583227</ele>
        <time>2015-04-26T10:38:11Z</time>
      </trkpt>
      <trkpt lat="45.69918" lon="5.65364">
        <ele>364.18350062993</ele>
        <time>2015-04-26T10:38:16Z</time>
      </trkpt>
      <trkpt lat="45.69922" lon="5.65359">
        <ele>364.18350062993</ele>
        <time>2015-04-26T10:38:21Z</time>
      </trkpt>
      <trkpt lat="45.69922" lon="5.65351">
        <ele>361.89777777908</ele>
        <time>2015-04-26T10:38:26Z</time>
      </trkpt>
      <trkpt lat="45.69924" lon="5.65344">
        <ele>361.89777777908</ele>
        <time>2015-04-26T10:38:31Z</time>
      </trkpt>
      <trkpt lat="45.69926" lon="5.65337">
        <ele>359.67180440251</ele>
        <time>2015-04-26T10:38:36Z</time>
      </trkpt>
      <trkpt lat="45.69926" lon="5.6533">
        <ele>359.67180440251</ele>
        <time>2015-04-26T10:38:41Z</time>
      </trkpt>
      <trkpt lat="45.69927" lon="5.65323">
        <ele>357.1619527105</ele>
        <time>2015-04-26T10:38:46Z</time>
      </trkpt>
      <trkpt lat="45.6993" lon="5.65317">
        <ele>357.1619527105</ele>
        <time>2015-04-26T10:38:51Z</time>
      </trkpt>
      <trkpt lat="45.69937" lon="5.65313">
        <ele>355.34760686905</ele>
        <time>2015-04-26T10:38:56Z</time>
      </trkpt>
      <trkpt lat="45.69944" lon="5.65307">
        <ele>355.34760686905</ele>
        <time>2015-04-26T10:39:01Z</time>
      </trkpt>
      <trkpt lat="45.69945" lon="5.65304">
        <ele>353.17429760286</ele>
        <time>2015-04-26T10:39:06Z</time>
      </trkpt>
      <trkpt lat="45.69949" lon="5.65302">
        <ele>353.17429760286</ele>
        <time>2015-04-26T10:39:11Z</time>
      </trkpt>
      <trkpt lat="45.69954" lon="5.65298">
        <ele>351.00619576891</ele>
        <time>2015-04-26T10:39:16Z</time>
      </trkpt>
      <trkpt lat="45.69958" lon="5.65294">
        <ele>351.00619576891</ele>
        <time>2015-04-26T10:39:21Z</time>
      </trkpt>
      <trkpt lat="45.6996" lon="5.6529">
        <ele>351.00619576891</ele>
        <time>2015-04-26T10:39:26Z</time>
      </trkpt>
      <trkpt lat="45.69962" lon="5.65286">
        <ele>348.73388538643</ele>
        <time>2015-04-26T10:39:31Z</time>
      </trkpt>
      <trkpt lat="45.69963" lon="5.65282">
        <ele>348.73388538643</ele>
        <time>2015-04-26T10:39:36Z</time>
      </trkpt>
      <trkpt lat="45.69964" lon="5.65277">
        <ele>348.73388538643</ele>
        <time>2015-04-26T10:39:41Z</time>
      </trkpt>
      <trkpt lat="45.69967" lon="5.65274">
        <ele>345.91032385151</ele>
        <time>2015-04-26T10:39:46Z</time>
      </trkpt>
      <trkpt lat="45.69968" lon="5.65271">
        <ele>345.91032385151</ele>
        <time>2015-04-26T10:39:51Z</time>
      </trkpt>
      <trkpt lat="45.69971" lon="5.65266">
        <ele>345.91032385151</ele>
        <time>2015-04-26T10:39:56Z</time>
      </trkpt>
      <trkpt lat="45.69973" lon="5.65264">
        <ele>342.95859516745</ele>
        <time>2015-04-26T10:40:01Z</time>
      </trkpt>
      <trkpt lat="45.69977" lon="5.65264">
        <ele>342.95859516745</ele>
        <time>2015-04-26T10:40:06Z</time>
      </trkpt>
      <trkpt lat="45.69982" lon="5.65258">
        <ele>340.29976767892</ele>
        <time>2015-04-26T10:40:11Z</time>
      </trkpt>
      <trkpt lat="45.69986" lon="5.65253">
        <ele>340.29976767892</ele>
        <time>2015-04-26T10:40:16Z</time>
      </trkpt>
      <trkpt lat="45.69991" lon="5.65247">
        <ele>337.38630209626</ele>
        <time>2015-04-26T10:40:21Z</time>
      </trkpt>
      <trkpt lat="45.69992" lon="5.65244">
        <ele>337.38630209626</ele>
        <time>2015-04-26T10:40:26Z</time>
      </trkpt>
      <trkpt lat="45.69994" lon="5.65236">
        <ele>337.38630209626</ele>
        <time>2015-04-26T10:40:31Z</time>
      </trkpt>
      <trkpt lat="45.69999" lon="5.65231">
        <ele>334.30230563663</ele>
        <time>2015-04-26T10:40:36Z</time>
      </trkpt>
      <trkpt lat="45.70003" lon="5.65226">
        <ele>334.30230563663</ele>
        <time>2015-04-26T10:40:41Z</time>
      </trkpt>
      <trkpt lat="45.70009" lon="5.6522">
        <ele>331.18367187357</ele>
        <time>2015-04-26T10:40:46Z</time>
      </trkpt>
      <trkpt lat="45.70013" lon="5.65214">
        <ele>331.18367187357</ele>
        <time>2015-04-26T10:40:51Z</time>
      </trkpt>
      <trkpt lat="45.70019" lon="5.65208">
        <ele>328.1850617127</ele>
        <time>2015-04-26T10:40:56Z</time>
      </trkpt>
      <trkpt lat="45.70023" lon="5.652">
        <ele>328.1850617127</ele>
        <time>2015-04-26T10:41:01Z</time>
      </trkpt>
      <trkpt lat="45.70028" lon="5.65196">
        <ele>325.1033911176</ele>
        <time>2015-04-26T10:41:06Z</time>
      </trkpt>
      <trkpt lat="45.7003" lon="5.65193">
        <ele>325.1033911176</ele>
        <time>2015-04-26T10:41:11Z</time>
      </trkpt>
      <trkpt lat="45.70032" lon="5.6519">
        <ele>325.1033911176</ele>
        <time>2015-04-26T10:41:16Z</time>
      </trkpt>
      <trkpt lat="45.70037" lon="5.65184">
        <ele>322.37021643904</ele>
        <time>2015-04-26T10:41:21Z</time>
      </trkpt>
      <trkpt lat="45.70038" lon="5.65177">
        <ele>322.37021643904</ele>
        <time>2015-04-26T10:41:26Z</time>
      </trkpt>
      <trkpt lat="45.70037" lon="5.65169">
        <ele>319.70689589703</ele>
        <time>2015-04-26T10:41:31Z</time>
      </trkpt>
      <trkpt lat="45.70042" lon="5.65161">
        <ele>319.70689589703</ele>
        <time>2015-04-26T10:41:36Z</time>
      </trkpt>
      <trkpt lat="45.70047" lon="5.65154">
        <ele>316.81162559355</ele>
        <time>2015-04-26T10:41:41Z</time>
      </trkpt>
      <trkpt lat="45.7005" lon="5.65147">
        <ele>316.81162559355</ele>
        <time>2015-04-26T10:41:46Z</time>
      </trkpt>
      <trkpt lat="45.70055" lon="5.65141">
        <ele>314.1113619589</ele>
        <time>2015-04-26T10:41:51Z</time>
      </trkpt>
      <trkpt lat="45.7006" lon="5.65135">
        <ele>314.1113619589</ele>
        <time>2015-04-26T10:41:56Z</time>
      </trkpt>
      <trkpt lat="45.70065" lon="5.65129">
        <ele>312.02976586081</ele>
        <time>2015-04-26T10:42:01Z</time>
      </trkpt>
      <trkpt lat="45.70071" lon="5.65122">
        <ele>312.02976586081</ele>
        <time>2015-04-26T10:42:06Z</time>
      </trkpt>
      <trkpt lat="45.70076" lon="5.65114">
        <ele>310.59715740884</ele>
        <time>2015-04-26T10:42:11Z</time>
      </trkpt>
      <trkpt lat="45.70082" lon="5.65107">
        <ele>310.59715740884</ele>
        <time>2015-04-26T10:42:16Z</time>
      </trkpt>
      <trkpt lat="45.70087" lon="5.65104">
        <ele>310.14224263716</ele>
        <time>2015-04-26T10:42:21Z</time>
      </trkpt>
      <trkpt lat="45.70092" lon="5.65099">
        <ele>310.14224263716</ele>
        <time>2015-04-26T10:42:26Z</time>
      </trkpt>
      <trkpt lat="45.70098" lon="5.65094">
        <ele>309.75611510385</ele>
        <time>2015-04-26T10:42:31Z</time>
      </trkpt>
      <trkpt lat="45.70104" lon="5.65088">
        <ele>309.75611510385</ele>
        <time>2015-04-26T10:42:36Z</time>
      </trkpt>
      <trkpt lat="45.70108" lon="5.65084">
        <ele>309.64827997594</ele>
        <time>2015-04-26T10:42:41Z</time>
      </trkpt>
      <trkpt lat="45.70113" lon="5.65082">
        <ele>309.64827997594</ele>
        <time>2015-04-26T10:42:46Z</time>
      </trkpt>
      <trkpt lat="45.70117" lon="5.65079">
        <ele>309.26253586726</ele>
        <time>2015-04-26T10:42:51Z</time>
      </trkpt>
      <trkpt lat="45.70119" lon="5.65076">
        <ele>309.26253586726</ele>
        <time>2015-04-26T10:42:56Z</time>
      </trkpt>
      <trkpt lat="45.70121" lon="5.65075">
        <ele>309.26253586726</ele>
        <time>2015-04-26T10:43:01Z</time>
      </trkpt>
      <trkpt lat="45.70121" lon="5.65075">
        <ele>309.26253586726</ele>
        <time>2015-04-26T10:43:06Z</time>
      </trkpt>
      <trkpt lat="45.70121" lon="5.65075">
        <ele>309.26253586726</ele>
        <time>2015-04-26T10:43:11Z</time>
      </trkpt>
      <trkpt lat="45.70121" lon="5.65075">
        <ele>309.26253586726</ele>
        <time>2015-04-26T10:43:16Z</time>
      </trkpt>
      <trkpt lat="45.70121" lon="5.65075">
        <ele>309.26253586726</ele>
        <time>2015-04-26T10:43:21Z</time>
      </trkpt>
      <trkpt lat="45.70121" lon="5.65075">
        <ele>309.26253586726</ele>
        <time>2015-04-26T10:43:26Z</time>
      </trkpt>
      <trkpt lat="45.70121" lon="5.65075">
        <ele>309.26253586726</ele>
        <time>2015-04-26T10:43:31Z</time>
      </trkpt>
      <trkpt lat="45.70121" lon="5.65075">
        <ele>309.26253586726</ele>
        <time>2015-04-26T10:43:36Z</time>
      </trkpt>
      <trkpt lat="45.70121" lon="5.65075">
        <ele>309.26253586726</ele>
        <time>2015-04-26T10:43:41Z</time>
      </trkpt>
      <trkpt lat="45.70122" lon="5.65073">
        <ele>309.26253586726</ele>
        <time>2015-04-26T10:43:46Z</time>
      </trkpt>
      <trkpt lat="45.70122" lon="5.65073">
        <ele>309.26253586726</ele>
        <time>2015-04-26T10:43:51Z</time>
      </trkpt>
      <trkpt lat="45.70122" lon="5.65072">
        <ele>309.26253586726</ele>
        <time>2015-04-26T10:43:56Z</time>
      </trkpt>
      <trkpt lat="45.70122" lon="5.65072">
        <ele>309.26253586726</ele>
        <time>2015-04-26T10:44:01Z</time>
      </trkpt>
      <trkpt lat="45.70123" lon="5.65072">
        <ele>309.26253586726</ele>
        <time>2015-04-26T10:44:06Z</time>
      </trkpt>
      <trkpt lat="45.70123" lon="5.65071">
        <ele>309.26253586726</ele>
        <time>2015-04-26T10:44:11Z</time>
      </trkpt>
      <trkpt lat="45.70123" lon="5.65069">
        <ele>309.75587047437</ele>
        <time>2015-04-26T10:44:16Z</time>
      </trkpt>
      <trkpt lat="45.70123" lon="5.65069">
        <ele>309.75587047437</ele>
        <time>2015-04-26T10:44:21Z</time>
      </trkpt>
      <trkpt lat="45.70123" lon="5.65069">
        <ele>309.75587047437</ele>
        <time>2015-04-26T10:44:26Z</time>
      </trkpt>
      <trkpt lat="45.70124" lon="5.65068">
        <ele>309.75587047437</ele>
        <time>2015-04-26T10:44:31Z</time>
      </trkpt>
      <trkpt lat="45.70124" lon="5.65068">
        <ele>309.75587047437</ele>
        <time>2015-04-26T10:44:36Z</time>
      </trkpt>
      <trkpt lat="45.70124" lon="5.65067">
        <ele>309.75587047437</ele>
        <time>2015-04-26T10:44:41Z</time>
      </trkpt>
      <trkpt lat="45.70124" lon="5.65067">
        <ele>309.75587047437</ele>
        <time>2015-04-26T10:44:46Z</time>
      </trkpt>
      <trkpt lat="45.70125" lon="5.65069">
        <ele>309.75587047437</ele>
        <time>2015-04-26T10:44:51Z</time>
      </trkpt>
      <trkpt lat="45.70127" lon="5.65074">
        <ele>309.75587047437</ele>
        <time>2015-04-26T10:44:56Z</time>
      </trkpt>
      <trkpt lat="45.70126" lon="5.65071">
        <ele>310.18013861221</ele>
        <time>2015-04-26T10:45:01Z</time>
      </trkpt>
      <trkpt lat="45.70125" lon="5.65069">
        <ele>310.18013861221</ele>
        <time>2015-04-26T10:45:06Z</time>
      </trkpt>
      <trkpt lat="45.70124" lon="5.65067">
        <ele>310.18013861221</ele>
        <time>2015-04-26T10:45:11Z</time>
      </trkpt>
      <trkpt lat="45.70124" lon="5.65066">
        <ele>310.18013861221</ele>
        <time>2015-04-26T10:45:16Z</time>
      </trkpt>
      <trkpt lat="45.70126" lon="5.65062">
        <ele>310.18013861221</ele>
        <time>2015-04-26T10:45:21Z</time>
      </trkpt>
      <trkpt lat="45.70127" lon="5.65055">
        <ele>310.65130719586</ele>
        <time>2015-04-26T10:45:26Z</time>
      </trkpt>
      <trkpt lat="45.70123" lon="5.6505">
        <ele>310.65130719586</ele>
        <time>2015-04-26T10:45:31Z</time>
      </trkpt>
      <trkpt lat="45.70119" lon="5.65044">
        <ele>311.14691383779</ele>
        <time>2015-04-26T10:45:36Z</time>
      </trkpt>
      <trkpt lat="45.70113" lon="5.65035">
        <ele>311.14691383779</ele>
        <time>2015-04-26T10:45:41Z</time>
      </trkpt>
      <trkpt lat="45.70108" lon="5.65028">
        <ele>311.91983050606</ele>
        <time>2015-04-26T10:45:46Z</time>
      </trkpt>
      <trkpt lat="45.70104" lon="5.65021">
        <ele>311.91983050606</ele>
        <time>2015-04-26T10:45:51Z</time>
      </trkpt>
      <trkpt lat="45.70099" lon="5.65017">
        <ele>312.58385830507</ele>
        <time>2015-04-26T10:45:56Z</time>
      </trkpt>
      <trkpt lat="45.70095" lon="5.65011">
        <ele>312.58385830507</ele>
        <time>2015-04-26T10:46:01Z</time>
      </trkpt>
      <trkpt lat="45.7009" lon="5.65004">
        <ele>313.61729854893</ele>
        <time>2015-04-26T10:46:06Z</time>
      </trkpt>
      <trkpt lat="45.70083" lon="5.64995">
        <ele>313.61729854893</ele>
        <time>2015-04-26T10:46:11Z</time>
      </trkpt>
      <trkpt lat="45.70078" lon="5.64989">
        <ele>314.65525659732</ele>
        <time>2015-04-26T10:46:16Z</time>
      </trkpt>
      <trkpt lat="45.70074" lon="5.64984">
        <ele>314.65525659732</ele>
        <time>2015-04-26T10:46:21Z</time>
      </trkpt>
      <trkpt lat="45.70072" lon="5.64978">
        <ele>315.38846850782</ele>
        <time>2015-04-26T10:46:26Z</time>
      </trkpt>
      <trkpt lat="45.70067" lon="5.64971">
        <ele>315.38846850782</ele>
        <time>2015-04-26T10:46:31Z</time>
      </trkpt>
      <trkpt lat="45.70062" lon="5.64965">
        <ele>316.06448736786</ele>
        <time>2015-04-26T10:46:36Z</time>
      </trkpt>
      <trkpt lat="45.70056" lon="5.64959">
        <ele>316.06448736786</ele>
        <time>2015-04-26T10:46:41Z</time>
      </trkpt>
      <trkpt lat="45.7005" lon="5.64953">
        <ele>316.75436654752</ele>
        <time>2015-04-26T10:46:46Z</time>
      </trkpt>
      <trkpt lat="45.70043" lon="5.64947">
        <ele>316.75436654752</ele>
        <time>2015-04-26T10:46:51Z</time>
      </trkpt>
      <trkpt lat="45.70037" lon="5.64941">
        <ele>317.88423969801</ele>
        <time>2015-04-26T10:46:56Z</time>
      </trkpt>
      <trkpt lat="45.7003" lon="5.64938">
        <ele>317.88423969801</ele>
        <time>2015-04-26T10:47:01Z</time>
      </trkpt>
      <trkpt lat="45.70025" lon="5.64936">
        <ele>318.59400796901</ele>
        <time>2015-04-26T10:47:06Z</time>
      </trkpt>
      <trkpt lat="45.70017" lon="5.6493">
        <ele>318.59400796901</ele>
        <time>2015-04-26T10:47:11Z</time>
      </trkpt>
      <trkpt lat="45.70011" lon="5.64925">
        <ele>319.67324022739</ele>
        <time>2015-04-26T10:47:16Z</time>
      </trkpt>
      <trkpt lat="45.70004" lon="5.64925">
        <ele>319.67324022739</ele>
        <time>2015-04-26T10:47:21Z</time>
      </trkpt>
      <trkpt lat="45.69999" lon="5.64931">
        <ele>320.46909485825</ele>
        <time>2015-04-26T10:47:26Z</time>
      </trkpt>
      <trkpt lat="45.70001" lon="5.64933">
        <ele>320.46909485825</ele>
        <time>2015-04-26T10:47:31Z</time>
      </trkpt>
      <trkpt lat="45.70002" lon="5.64932">
        <ele>320.46909485825</ele>
        <time>2015-04-26T10:47:36Z</time>
      </trkpt>
      <trkpt lat="45.69997" lon="5.64933">
        <ele>320.46909485825</ele>
        <time>2015-04-26T10:47:41Z</time>
      </trkpt>
      <trkpt lat="45.69992" lon="5.64927">
        <ele>320.8243303378</ele>
        <time>2015-04-26T10:47:46Z</time>
      </trkpt>
      <trkpt lat="45.6999" lon="5.64917">
        <ele>320.8243303378</ele>
        <time>2015-04-26T10:47:51Z</time>
      </trkpt>
      <trkpt lat="45.6999" lon="5.64912">
        <ele>321.18545776122</ele>
        <time>2015-04-26T10:47:56Z</time>
      </trkpt>
      <trkpt lat="45.69987" lon="5.64906">
        <ele>321.18545776122</ele>
        <time>2015-04-26T10:48:01Z</time>
      </trkpt>
      <trkpt lat="45.69987" lon="5.64906">
        <ele>321.18545776122</ele>
        <time>2015-04-26T10:48:06Z</time>
      </trkpt>
      <trkpt lat="45.69987" lon="5.64905">
        <ele>321.18545776122</ele>
        <time>2015-04-26T10:48:11Z</time>
      </trkpt>
      <trkpt lat="45.69985" lon="5.649">
        <ele>321.21690744836</ele>
        <time>2015-04-26T10:48:16Z</time>
      </trkpt>
      <trkpt lat="45.69987" lon="5.64891">
        <ele>321.21690744836</ele>
        <time>2015-04-26T10:48:21Z</time>
      </trkpt>
      <trkpt lat="45.69986" lon="5.64884">
        <ele>320.91143442981</ele>
        <time>2015-04-26T10:48:26Z</time>
      </trkpt>
      <trkpt lat="45.69981" lon="5.64881">
        <ele>320.91143442981</ele>
        <time>2015-04-26T10:48:31Z</time>
      </trkpt>
      <trkpt lat="45.69975" lon="5.64875">
        <ele>320.88306450941</ele>
        <time>2015-04-26T10:48:36Z</time>
      </trkpt>
      <trkpt lat="45.69968" lon="5.64869">
        <ele>320.88306450941</ele>
        <time>2015-04-26T10:48:41Z</time>
      </trkpt>
      <trkpt lat="45.69963" lon="5.64865">
        <ele>320.84979806237</ele>
        <time>2015-04-26T10:48:46Z</time>
      </trkpt>
      <trkpt lat="45.69957" lon="5.64862">
        <ele>320.84979806237</ele>
        <time>2015-04-26T10:48:51Z</time>
      </trkpt>
      <trkpt lat="45.69953" lon="5.64859">
        <ele>321.21338819422</ele>
        <time>2015-04-26T10:48:56Z</time>
      </trkpt>
      <trkpt lat="45.69951" lon="5.64857">
        <ele>321.21338819422</ele>
        <time>2015-04-26T10:49:01Z</time>
      </trkpt>
      <trkpt lat="45.69952" lon="5.64859">
        <ele>321.21338819422</ele>
        <time>2015-04-26T10:49:06Z</time>
      </trkpt>
      <trkpt lat="45.69952" lon="5.64859">
        <ele>321.21338819422</ele>
        <time>2015-04-26T10:49:11Z</time>
      </trkpt>
      <trkpt lat="45.69952" lon="5.64859">
        <ele>321.21338819422</ele>
        <time>2015-04-26T10:49:16Z</time>
      </trkpt>
      <trkpt lat="45.69953" lon="5.64859">
        <ele>321.21338819422</ele>
        <time>2015-04-26T10:49:21Z</time>
      </trkpt>
      <trkpt lat="45.6995" lon="5.64856">
        <ele>321.21338819422</ele>
        <time>2015-04-26T10:49:26Z</time>
      </trkpt>
      <trkpt lat="45.69944" lon="5.64851">
        <ele>321.12012727892</ele>
        <time>2015-04-26T10:49:31Z</time>
      </trkpt>
      <trkpt lat="45.69939" lon="5.64846">
        <ele>321.12012727892</ele>
        <time>2015-04-26T10:49:36Z</time>
      </trkpt>
      <trkpt lat="45.69933" lon="5.64841">
        <ele>321.07741109381</ele>
        <time>2015-04-26T10:49:41Z</time>
      </trkpt>
      <trkpt lat="45.69928" lon="5.64836">
        <ele>321.07741109381</ele>
        <time>2015-04-26T10:49:46Z</time>
      </trkpt>
      <trkpt lat="45.69923" lon="5.6483">
        <ele>321.16622726672</ele>
        <time>2015-04-26T10:49:51Z</time>
      </trkpt>
      <trkpt lat="45.69917" lon="5.64826">
        <ele>321.16622726672</ele>
        <time>2015-04-26T10:49:56Z</time>
      </trkpt>
      <trkpt lat="45.69912" lon="5.64821">
        <ele>321.33165006452</ele>
        <time>2015-04-26T10:50:01Z</time>
      </trkpt>
      <trkpt lat="45.69908" lon="5.64815">
        <ele>321.33165006452</ele>
        <time>2015-04-26T10:50:06Z</time>
      </trkpt>
      <trkpt lat="45.69904" lon="5.6481">
        <ele>321.1623980081</ele>
        <time>2015-04-26T10:50:11Z</time>
      </trkpt>
      <trkpt lat="45.69902" lon="5.64808">
        <ele>321.1623980081</ele>
        <time>2015-04-26T10:50:16Z</time>
      </trkpt>
      <trkpt lat="45.69901" lon="5.64807">
        <ele>321.1623980081</ele>
        <time>2015-04-26T10:50:21Z</time>
      </trkpt>
      <trkpt lat="45.69901" lon="5.64807">
        <ele>321.1623980081</ele>
        <time>2015-04-26T10:50:26Z</time>
      </trkpt>
      <trkpt lat="45.69901" lon="5.64807">
        <ele>321.1623980081</ele>
        <time>2015-04-26T10:50:31Z</time>
      </trkpt>
      <trkpt lat="45.69901" lon="5.64807">
        <ele>321.1623980081</ele>
        <time>2015-04-26T10:50:36Z</time>
      </trkpt>
      <trkpt lat="45.69901" lon="5.64807">
        <ele>321.1623980081</ele>
        <time>2015-04-26T10:50:41Z</time>
      </trkpt>
      <trkpt lat="45.69901" lon="5.64807">
        <ele>321.1623980081</ele>
        <time>2015-04-26T10:50:46Z</time>
      </trkpt>
      <trkpt lat="45.69901" lon="5.64807">
        <ele>321.1623980081</ele>
        <time>2015-04-26T10:50:51Z</time>
      </trkpt>
      <trkpt lat="45.69901" lon="5.64807">
        <ele>321.1623980081</ele>
        <time>2015-04-26T10:50:56Z</time>
      </trkpt>
      <trkpt lat="45.699" lon="5.64805">
        <ele>321.1623980081</ele>
        <time>2015-04-26T10:51:01Z</time>
      </trkpt>
      <trkpt lat="45.69897" lon="5.64795">
        <ele>321.3160414185</ele>
        <time>2015-04-26T10:51:06Z</time>
      </trkpt>
      <trkpt lat="45.69893" lon="5.64787">
        <ele>321.3160414185</ele>
        <time>2015-04-26T10:51:11Z</time>
      </trkpt>
      <trkpt lat="45.6989" lon="5.64779">
        <ele>321.52195981356</ele>
        <time>2015-04-26T10:51:16Z</time>
      </trkpt>
      <trkpt lat="45.69887" lon="5.64774">
        <ele>321.52195981356</ele>
        <time>2015-04-26T10:51:21Z</time>
      </trkpt>
      <trkpt lat="45.69882" lon="5.64768">
        <ele>321.93287302404</ele>
        <time>2015-04-26T10:51:26Z</time>
      </trkpt>
      <trkpt lat="45.69877" lon="5.64759">
        <ele>321.93287302404</ele>
        <time>2015-04-26T10:51:31Z</time>
      </trkpt>
      <trkpt lat="45.69872" lon="5.64749">
        <ele>322.47363527895</ele>
        <time>2015-04-26T10:51:36Z</time>
      </trkpt>
      <trkpt lat="45.69868" lon="5.64738">
        <ele>322.47363527895</ele>
        <time>2015-04-26T10:51:41Z</time>
      </trkpt>
      <trkpt lat="45.69863" lon="5.64731">
        <ele>323.01670696662</ele>
        <time>2015-04-26T10:51:46Z</time>
      </trkpt>
      <trkpt lat="45.69857" lon="5.64723">
        <ele>323.01670696662</ele>
        <time>2015-04-26T10:51:51Z</time>
      </trkpt>
      <trkpt lat="45.69855" lon="5.64718">
        <ele>322.80991554921</ele>
        <time>2015-04-26T10:51:56Z</time>
      </trkpt>
      <trkpt lat="45.69854" lon="5.64716">
        <ele>322.80991554921</ele>
        <time>2015-04-26T10:52:01Z</time>
      </trkpt>
      <trkpt lat="45.69849" lon="5.64706">
        <ele>322.93110615139</ele>
        <time>2015-04-26T10:52:06Z</time>
      </trkpt>
      <trkpt lat="45.69844" lon="5.64698">
        <ele>322.93110615139</ele>
        <time>2015-04-26T10:52:11Z</time>
      </trkpt>
      <trkpt lat="45.69839" lon="5.64691">
        <ele>322.60554815073</ele>
        <time>2015-04-26T10:52:16Z</time>
      </trkpt>
      <trkpt lat="45.69831" lon="5.64682">
        <ele>322.26964983786</ele>
        <time>2015-04-26T10:52:21Z</time>
      </trkpt>
      <trkpt lat="45.69827" lon="5.64678">
        <ele>322.26964983786</ele>
        <time>2015-04-26T10:52:26Z</time>
      </trkpt>
      <trkpt lat="45.6982" lon="5.64671">
        <ele>321.98200285624</ele>
        <time>2015-04-26T10:52:31Z</time>
      </trkpt>
      <trkpt lat="45.69815" lon="5.64666">
        <ele>321.98200285624</ele>
        <time>2015-04-26T10:52:36Z</time>
      </trkpt>
      <trkpt lat="45.69814" lon="5.64662">
        <ele>320.87452009742</ele>
        <time>2015-04-26T10:52:41Z</time>
      </trkpt>
      <trkpt lat="45.69812" lon="5.64658">
        <ele>320.87452009742</ele>
        <time>2015-04-26T10:52:46Z</time>
      </trkpt>
      <trkpt lat="45.69809" lon="5.64655">
        <ele>320.87452009742</ele>
        <time>2015-04-26T10:52:51Z</time>
      </trkpt>
      <trkpt lat="45.69809" lon="5.64645">
        <ele>319.98987044874</ele>
        <time>2015-04-26T10:52:56Z</time>
      </trkpt>
      <trkpt lat="45.69808" lon="5.64635">
        <ele>319.98987044874</ele>
        <time>2015-04-26T10:53:01Z</time>
      </trkpt>
      <trkpt lat="45.69808" lon="5.64625">
        <ele>319.1983141097</ele>
        <time>2015-04-26T10:53:06Z</time>
      </trkpt>
      <trkpt lat="45.6981" lon="5.64616">
        <ele>319.1983141097</ele>
        <time>2015-04-26T10:53:11Z</time>
      </trkpt>
      <trkpt lat="45.69813" lon="5.64608">
        <ele>318.26413733186</ele>
        <time>2015-04-26T10:53:16Z</time>
      </trkpt>
      <trkpt lat="45.69817" lon="5.646">
        <ele>318.26413733186</ele>
        <time>2015-04-26T10:53:21Z</time>
      </trkpt>
      <trkpt lat="45.69821" lon="5.64593">
        <ele>316.8540879434</ele>
        <time>2015-04-26T10:53:26Z</time>
      </trkpt>
      <trkpt lat="45.69826" lon="5.64586">
        <ele>316.8540879434</ele>
        <time>2015-04-26T10:53:31Z</time>
      </trkpt>
      <trkpt lat="45.69831" lon="5.64579">
        <ele>315.26602060369</ele>
        <time>2015-04-26T10:53:36Z</time>
      </trkpt>
      <trkpt lat="45.69835" lon="5.6457">
        <ele>315.26602060369</ele>
        <time>2015-04-26T10:53:41Z</time>
      </trkpt>
      <trkpt lat="45.69839" lon="5.64562">
        <ele>313.97817854396</ele>
        <time>2015-04-26T10:53:46Z</time>
      </trkpt>
      <trkpt lat="45.69843" lon="5.64554">
        <ele>313.97817854396</ele>
        <time>2015-04-26T10:53:51Z</time>
      </trkpt>
      <trkpt lat="45.69848" lon="5.64546">
        <ele>312.9716788201</ele>
        <time>2015-04-26T10:53:56Z</time>
      </trkpt>
      <trkpt lat="45.6985" lon="5.6454">
        <ele>312.9716788201</ele>
        <time>2015-04-26T10:54:01Z</time>
      </trkpt>
      <trkpt lat="45.69854" lon="5.64534">
        <ele>312.40116402957</ele>
        <time>2015-04-26T10:54:06Z</time>
      </trkpt>
      <trkpt lat="45.69859" lon="5.64528">
        <ele>312.40116402957</ele>
        <time>2015-04-26T10:54:11Z</time>
      </trkpt>
      <trkpt lat="45.69863" lon="5.64521">
        <ele>311.47195804153</ele>
        <time>2015-04-26T10:54:16Z</time>
      </trkpt>
      <trkpt lat="45.69866" lon="5.64514">
        <ele>311.47195804153</ele>
        <time>2015-04-26T10:54:21Z</time>
      </trkpt>
      <trkpt lat="45.6987" lon="5.64506">
        <ele>310.78898315438</ele>
        <time>2015-04-26T10:54:26Z</time>
      </trkpt>
      <trkpt lat="45.69874" lon="5.64499">
        <ele>310.78898315438</ele>
        <time>2015-04-26T10:54:31Z</time>
      </trkpt>
      <trkpt lat="45.69878" lon="5.64493">
        <ele>309.83117766463</ele>
        <time>2015-04-26T10:54:36Z</time>
      </trkpt>
      <trkpt lat="45.69884" lon="5.64484">
        <ele>309.83117766463</ele>
        <time>2015-04-26T10:54:41Z</time>
      </trkpt>
      <trkpt lat="45.69888" lon="5.64476">
        <ele>308.89470203666</ele>
        <time>2015-04-26T10:54:46Z</time>
      </trkpt>
      <trkpt lat="45.69886" lon="5.64479">
        <ele>308.89470203666</ele>
        <time>2015-04-26T10:54:51Z</time>
      </trkpt>
      <trkpt lat="45.69886" lon="5.64477">
        <ele>308.89470203666</ele>
        <time>2015-04-26T10:54:56Z</time>
      </trkpt>
      <trkpt lat="45.6989" lon="5.6447">
        <ele>307.85035976953</ele>
        <time>2015-04-26T10:55:01Z</time>
      </trkpt>
      <trkpt lat="45.69895" lon="5.64462">
        <ele>307.85035976953</ele>
        <time>2015-04-26T10:55:06Z</time>
      </trkpt>
      <trkpt lat="45.69898" lon="5.64454">
        <ele>306.83811372413</ele>
        <time>2015-04-26T10:55:11Z</time>
      </trkpt>
      <trkpt lat="45.69902" lon="5.64445">
        <ele>306.83811372413</ele>
        <time>2015-04-26T10:55:16Z</time>
      </trkpt>
      <trkpt lat="45.69904" lon="5.64436">
        <ele>305.95869504397</ele>
        <time>2015-04-26T10:55:21Z</time>
      </trkpt>
      <trkpt lat="45.69906" lon="5.64427">
        <ele>305.95869504397</ele>
        <time>2015-04-26T10:55:26Z</time>
      </trkpt>
      <trkpt lat="45.69909" lon="5.64418">
        <ele>304.90150981502</ele>
        <time>2015-04-26T10:55:31Z</time>
      </trkpt>
      <trkpt lat="45.69912" lon="5.64409">
        <ele>304.90150981502</ele>
        <time>2015-04-26T10:55:36Z</time>
      </trkpt>
      <trkpt lat="45.69916" lon="5.644">
        <ele>303.6674560537</ele>
        <time>2015-04-26T10:55:41Z</time>
      </trkpt>
      <trkpt lat="45.69921" lon="5.64392">
        <ele>303.6674560537</ele>
        <time>2015-04-26T10:55:46Z</time>
      </trkpt>
      <trkpt lat="45.69926" lon="5.64381">
        <ele>302.86308098901</ele>
        <time>2015-04-26T10:55:51Z</time>
      </trkpt>
      <trkpt lat="45.69931" lon="5.64372">
        <ele>302.86308098901</ele>
        <time>2015-04-26T10:55:56Z</time>
      </trkpt>
      <trkpt lat="45.69935" lon="5.64364">
        <ele>302.12680827924</ele>
        <time>2015-04-26T10:56:01Z</time>
      </trkpt>
      <trkpt lat="45.6994" lon="5.64355">
        <ele>302.12680827924</ele>
        <time>2015-04-26T10:56:06Z</time>
      </trkpt>
      <trkpt lat="45.69944" lon="5.64346">
        <ele>302.67978289883</ele>
        <time>2015-04-26T10:56:11Z</time>
      </trkpt>
      <trkpt lat="45.69946" lon="5.64337">
        <ele>302.67978289883</ele>
        <time>2015-04-26T10:56:16Z</time>
      </trkpt>
      <trkpt lat="45.69949" lon="5.64329">
        <ele>304.52571752782</ele>
        <time>2015-04-26T10:56:21Z</time>
      </trkpt>
      <trkpt lat="45.69953" lon="5.6432">
        <ele>304.52571752782</ele>
        <time>2015-04-26T10:56:26Z</time>
      </trkpt>
      <trkpt lat="45.69958" lon="5.64311">
        <ele>307.00148117831</ele>
        <time>2015-04-26T10:56:31Z</time>
      </trkpt>
      <trkpt lat="45.69961" lon="5.64304">
        <ele>307.00148117831</ele>
        <time>2015-04-26T10:56:36Z</time>
      </trkpt>
      <trkpt lat="45.69962" lon="5.64296">
        <ele>308.5973828607</ele>
        <time>2015-04-26T10:56:41Z</time>
      </trkpt>
      <trkpt lat="45.69967" lon="5.64289">
        <ele>308.5973828607</ele>
        <time>2015-04-26T10:56:46Z</time>
      </trkpt>
      <trkpt lat="45.6997" lon="5.64281">
        <ele>310.56874850063</ele>
        <time>2015-04-26T10:56:51Z</time>
      </trkpt>
      <trkpt lat="45.69975" lon="5.64274">
        <ele>310.56874850063</ele>
        <time>2015-04-26T10:56:56Z</time>
      </trkpt>
      <trkpt lat="45.6998" lon="5.64265">
        <ele>312.99682396341</ele>
        <time>2015-04-26T10:57:01Z</time>
      </trkpt>
      <trkpt lat="45.69987" lon="5.64255">
        <ele>315.55213625399</ele>
        <time>2015-04-26T10:57:06Z</time>
      </trkpt>
      <trkpt lat="45.69991" lon="5.64246">
        <ele>315.55213625399</ele>
        <time>2015-04-26T10:57:11Z</time>
      </trkpt>
      <trkpt lat="45.69993" lon="5.64236">
        <ele>317.1653278595</ele>
        <time>2015-04-26T10:57:16Z</time>
      </trkpt>
      <trkpt lat="45.69997" lon="5.64227">
        <ele>317.1653278595</ele>
        <time>2015-04-26T10:57:21Z</time>
      </trkpt>
      <trkpt lat="45.70001" lon="5.64218">
        <ele>318.73616926602</ele>
        <time>2015-04-26T10:57:26Z</time>
      </trkpt>
      <trkpt lat="45.70005" lon="5.64209">
        <ele>318.73616926602</ele>
        <time>2015-04-26T10:57:31Z</time>
      </trkpt>
      <trkpt lat="45.70009" lon="5.64202">
        <ele>320.03211762424</ele>
        <time>2015-04-26T10:57:36Z</time>
      </trkpt>
      <trkpt lat="45.70012" lon="5.64193">
        <ele>320.03211762424</ele>
        <time>2015-04-26T10:57:41Z</time>
      </trkpt>
      <trkpt lat="45.70013" lon="5.64184">
        <ele>320.92504609806</ele>
        <time>2015-04-26T10:57:46Z</time>
      </trkpt>
      <trkpt lat="45.70017" lon="5.64176">
        <ele>320.92504609806</ele>
        <time>2015-04-26T10:57:51Z</time>
      </trkpt>
      <trkpt lat="45.70022" lon="5.64168">
        <ele>321.60010450814</ele>
        <time>2015-04-26T10:57:56Z</time>
      </trkpt>
      <trkpt lat="45.70025" lon="5.6416">
        <ele>321.60010450814</ele>
        <time>2015-04-26T10:58:01Z</time>
      </trkpt>
      <trkpt lat="45.70028" lon="5.64152">
        <ele>322.0854442691</ele>
        <time>2015-04-26T10:58:06Z</time>
      </trkpt>
      <trkpt lat="45.70031" lon="5.64142">
        <ele>322.0854442691</ele>
        <time>2015-04-26T10:58:11Z</time>
      </trkpt>
      <trkpt lat="45.70037" lon="5.64135">
        <ele>322.06191563363</ele>
        <time>2015-04-26T10:58:16Z</time>
      </trkpt>
      <trkpt lat="45.70042" lon="5.64127">
        <ele>322.06191563363</ele>
        <time>2015-04-26T10:58:21Z</time>
      </trkpt>
      <trkpt lat="45.70046" lon="5.64119">
        <ele>321.5812049117</ele>
        <time>2015-04-26T10:58:26Z</time>
      </trkpt>
      <trkpt lat="45.7005" lon="5.64114">
        <ele>321.5812049117</ele>
        <time>2015-04-26T10:58:31Z</time>
      </trkpt>
      <trkpt lat="45.70052" lon="5.64108">
        <ele>321.98957678676</ele>
        <time>2015-04-26T10:58:36Z</time>
      </trkpt>
      <trkpt lat="45.70055" lon="5.64102">
        <ele>321.98957678676</ele>
        <time>2015-04-26T10:58:41Z</time>
      </trkpt>
      <trkpt lat="45.70063" lon="5.64096">
        <ele>322.51443614562</ele>
        <time>2015-04-26T10:58:46Z</time>
      </trkpt>
      <trkpt lat="45.70068" lon="5.64087">
        <ele>322.51443614562</ele>
        <time>2015-04-26T10:58:51Z</time>
      </trkpt>
      <trkpt lat="45.70073" lon="5.64077">
        <ele>322.18029522022</ele>
        <time>2015-04-26T10:58:56Z</time>
      </trkpt>
      <trkpt lat="45.70076" lon="5.64068">
        <ele>322.18029522022</ele>
        <time>2015-04-26T10:59:01Z</time>
      </trkpt>
      <trkpt lat="45.70077" lon="5.64059">
        <ele>321.97366495771</ele>
        <time>2015-04-26T10:59:06Z</time>
      </trkpt>
      <trkpt lat="45.70075" lon="5.6405">
        <ele>321.97366495771</ele>
        <time>2015-04-26T10:59:11Z</time>
      </trkpt>
      <trkpt lat="45.70067" lon="5.64044">
        <ele>320.81956242182</ele>
        <time>2015-04-26T10:59:16Z</time>
      </trkpt>
      <trkpt lat="45.70061" lon="5.64034">
        <ele>319.41078718352</ele>
        <time>2015-04-26T10:59:21Z</time>
      </trkpt>
      <trkpt lat="45.70058" lon="5.64025">
        <ele>319.41078718352</ele>
        <time>2015-04-26T10:59:26Z</time>
      </trkpt>
      <trkpt lat="45.70058" lon="5.64015">
        <ele>318.34677142135</ele>
        <time>2015-04-26T10:59:31Z</time>
      </trkpt>
      <trkpt lat="45.70061" lon="5.64004">
        <ele>318.34677142135</ele>
        <time>2015-04-26T10:59:36Z</time>
      </trkpt>
      <trkpt lat="45.70062" lon="5.63996">
        <ele>317.49024404639</ele>
        <time>2015-04-26T10:59:41Z</time>
      </trkpt>
      <trkpt lat="45.70065" lon="5.63991">
        <ele>317.49024404639</ele>
        <time>2015-04-26T10:59:46Z</time>
      </trkpt>
      <trkpt lat="45.70069" lon="5.63981">
        <ele>316.79992148036</ele>
        <time>2015-04-26T10:59:51Z</time>
      </trkpt>
      <trkpt lat="45.70073" lon="5.63968">
        <ele>316.53972926267</ele>
        <time>2015-04-26T10:59:56Z</time>
      </trkpt>
      <trkpt lat="45.70076" lon="5.63963">
        <ele>316.53972926267</ele>
        <time>2015-04-26T11:00:01Z</time>
      </trkpt>
      <trkpt lat="45.70074" lon="5.63961">
        <ele>316.53972926267</ele>
        <time>2015-04-26T11:00:06Z</time>
      </trkpt>
      <trkpt lat="45.70074" lon="5.6396">
        <ele>316.53972926267</ele>
        <time>2015-04-26T11:00:11Z</time>
      </trkpt>
      <trkpt lat="45.70072" lon="5.6396">
        <ele>316.53972926267</ele>
        <time>2015-04-26T11:00:16Z</time>
      </trkpt>
      <trkpt lat="45.70072" lon="5.63959">
        <ele>316.47743397253</ele>
        <time>2015-04-26T11:00:21Z</time>
      </trkpt>
      <trkpt lat="45.70075" lon="5.63949">
        <ele>316.47743397253</ele>
        <time>2015-04-26T11:00:26Z</time>
      </trkpt>
      <trkpt lat="45.70079" lon="5.6394">
        <ele>316.35407102699</ele>
        <time>2015-04-26T11:00:31Z</time>
      </trkpt>
      <trkpt lat="45.70081" lon="5.63931">
        <ele>316.35407102699</ele>
        <time>2015-04-26T11:00:36Z</time>
      </trkpt>
      <trkpt lat="45.70082" lon="5.63922">
        <ele>315.18048531248</ele>
        <time>2015-04-26T11:00:41Z</time>
      </trkpt>
      <trkpt lat="45.70085" lon="5.63917">
        <ele>315.18048531248</ele>
        <time>2015-04-26T11:00:46Z</time>
      </trkpt>
      <trkpt lat="45.70085" lon="5.63911">
        <ele>315.18048531248</ele>
        <time>2015-04-26T11:00:51Z</time>
      </trkpt>
      <trkpt lat="45.70085" lon="5.63909">
        <ele>314.17596409828</ele>
        <time>2015-04-26T11:00:56Z</time>
      </trkpt>
      <trkpt lat="45.70084" lon="5.6391">
        <ele>314.17596409828</ele>
        <time>2015-04-26T11:01:01Z</time>
      </trkpt>
      <trkpt lat="45.70084" lon="5.63909">
        <ele>314.17596409828</ele>
        <time>2015-04-26T11:01:06Z</time>
      </trkpt>
      <trkpt lat="45.70084" lon="5.63909">
        <ele>314.17596409828</ele>
        <time>2015-04-26T11:01:11Z</time>
      </trkpt>
      <trkpt lat="45.70084" lon="5.63909">
        <ele>314.17596409828</ele>
        <time>2015-04-26T11:01:16Z</time>
      </trkpt>
      <trkpt lat="45.70085" lon="5.63907">
        <ele>314.17596409828</ele>
        <time>2015-04-26T11:01:21Z</time>
      </trkpt>
      <trkpt lat="45.70085" lon="5.63905">
        <ele>314.17596409828</ele>
        <time>2015-04-26T11:01:26Z</time>
      </trkpt>
      <trkpt lat="45.70085" lon="5.63906">
        <ele>314.17596409828</ele>
        <time>2015-04-26T11:01:31Z</time>
      </trkpt>
      <trkpt lat="45.70085" lon="5.63906">
        <ele>314.17596409828</ele>
        <time>2015-04-26T11:01:36Z</time>
      </trkpt>
      <trkpt lat="45.70085" lon="5.63906">
        <ele>314.17596409828</ele>
        <time>2015-04-26T11:01:41Z</time>
      </trkpt>
      <trkpt lat="45.70085" lon="5.63905">
        <ele>314.17596409828</ele>
        <time>2015-04-26T11:01:46Z</time>
      </trkpt>
      <trkpt lat="45.70087" lon="5.63899">
        <ele>313.37448986839</ele>
        <time>2015-04-26T11:01:51Z</time>
      </trkpt>
      <trkpt lat="45.70089" lon="5.63866">
        <ele>313.16723383099</ele>
        <time>2015-04-26T11:01:56Z</time>
      </trkpt>
      <trkpt lat="45.70092" lon="5.63846">
        <ele>313.1079144014</ele>
        <time>2015-04-26T11:02:01Z</time>
      </trkpt>
      <trkpt lat="45.70096" lon="5.63838">
        <ele>313.1079144014</ele>
        <time>2015-04-26T11:02:06Z</time>
      </trkpt>
      <trkpt lat="45.701" lon="5.63832">
        <ele>314.56956925087</ele>
        <time>2015-04-26T11:02:11Z</time>
      </trkpt>
      <trkpt lat="45.70103" lon="5.63824">
        <ele>314.56956925087</ele>
        <time>2015-04-26T11:02:16Z</time>
      </trkpt>
      <trkpt lat="45.70106" lon="5.63816">
        <ele>316.91781726258</ele>
        <time>2015-04-26T11:02:21Z</time>
      </trkpt>
      <trkpt lat="45.70108" lon="5.63803">
        <ele>319.47591379363</ele>
        <time>2015-04-26T11:02:26Z</time>
      </trkpt>
      <trkpt lat="45.7011" lon="5.63793">
        <ele>319.47591379363</ele>
        <time>2015-04-26T11:02:31Z</time>
      </trkpt>
      <trkpt lat="45.70112" lon="5.63786">
        <ele>321.48654249733</ele>
        <time>2015-04-26T11:02:36Z</time>
      </trkpt>
      <trkpt lat="45.70115" lon="5.63777">
        <ele>321.48654249733</ele>
        <time>2015-04-26T11:02:41Z</time>
      </trkpt>
      <trkpt lat="45.70118" lon="5.63768">
        <ele>323.61863201416</ele>
        <time>2015-04-26T11:02:46Z</time>
      </trkpt>
      <trkpt lat="45.70121" lon="5.63761">
        <ele>323.61863201416</ele>
        <time>2015-04-26T11:02:51Z</time>
      </trkpt>
      <trkpt lat="45.70126" lon="5.63755">
        <ele>325.03614479382</ele>
        <time>2015-04-26T11:02:56Z</time>
      </trkpt>
      <trkpt lat="45.7013" lon="5.63746">
        <ele>325.03614479382</ele>
        <time>2015-04-26T11:03:01Z</time>
      </trkpt>
      <trkpt lat="45.70128" lon="5.63735">
        <ele>325.41325449868</ele>
        <time>2015-04-26T11:03:06Z</time>
      </trkpt>
      <trkpt lat="45.70132" lon="5.63726">
        <ele>325.41325449868</ele>
        <time>2015-04-26T11:03:11Z</time>
      </trkpt>
      <trkpt lat="45.70135" lon="5.63716">
        <ele>325.84892044029</ele>
        <time>2015-04-26T11:03:16Z</time>
      </trkpt>
      <trkpt lat="45.70136" lon="5.63707">
        <ele>325.84892044029</ele>
        <time>2015-04-26T11:03:21Z</time>
      </trkpt>
      <trkpt lat="45.70136" lon="5.63705">
        <ele>325.84892044029</ele>
        <time>2015-04-26T11:03:26Z</time>
      </trkpt>
      <trkpt lat="45.70136" lon="5.63701">
        <ele>324.50786079074</ele>
        <time>2015-04-26T11:03:31Z</time>
      </trkpt>
      <trkpt lat="45.70137" lon="5.63689">
        <ele>324.50786079074</ele>
        <time>2015-04-26T11:03:36Z</time>
      </trkpt>
      <trkpt lat="45.70137" lon="5.63675">
        <ele>322.83626668937</ele>
        <time>2015-04-26T11:03:41Z</time>
      </trkpt>
      <trkpt lat="45.7014" lon="5.63663">
        <ele>322.83626668937</ele>
        <time>2015-04-26T11:03:46Z</time>
      </trkpt>
      <trkpt lat="45.7014" lon="5.63649">
        <ele>321.28156612338</ele>
        <time>2015-04-26T11:03:51Z</time>
      </trkpt>
      <trkpt lat="45.70139" lon="5.63638">
        <ele>321.28156612338</ele>
        <time>2015-04-26T11:03:56Z</time>
      </trkpt>
      <trkpt lat="45.70139" lon="5.63627">
        <ele>319.73921175621</ele>
        <time>2015-04-26T11:04:01Z</time>
      </trkpt>
      <trkpt lat="45.70139" lon="5.63618">
        <ele>319.73921175621</ele>
        <time>2015-04-26T11:04:06Z</time>
      </trkpt>
      <trkpt lat="45.7014" lon="5.63609">
        <ele>317.95378313401</ele>
        <time>2015-04-26T11:04:11Z</time>
      </trkpt>
      <trkpt lat="45.70142" lon="5.63597">
        <ele>317.95378313401</ele>
        <time>2015-04-26T11:04:16Z</time>
      </trkpt>
      <trkpt lat="45.70145" lon="5.63587">
        <ele>316.16485936494</ele>
        <time>2015-04-26T11:04:21Z</time>
      </trkpt>
      <trkpt lat="45.70151" lon="5.6358">
        <ele>316.16485936494</ele>
        <time>2015-04-26T11:04:26Z</time>
      </trkpt>
      <trkpt lat="45.70153" lon="5.63576">
        <ele>314.752925646</ele>
        <time>2015-04-26T11:04:31Z</time>
      </trkpt>
      <trkpt lat="45.70153" lon="5.63573">
        <ele>314.752925646</ele>
        <time>2015-04-26T11:04:36Z</time>
      </trkpt>
      <trkpt lat="45.70153" lon="5.63569">
        <ele>314.752925646</ele>
        <time>2015-04-26T11:04:41Z</time>
      </trkpt>
      <trkpt lat="45.70151" lon="5.63567">
        <ele>314.752925646</ele>
        <time>2015-04-26T11:04:46Z</time>
      </trkpt>
      <trkpt lat="45.70147" lon="5.63564">
        <ele>313.91089820867</ele>
        <time>2015-04-26T11:04:51Z</time>
      </trkpt>
      <trkpt lat="45.70144" lon="5.63559">
        <ele>313.91089820867</ele>
        <time>2015-04-26T11:04:56Z</time>
      </trkpt>
      <trkpt lat="45.70141" lon="5.63553">
        <ele>313.95998685428</ele>
        <time>2015-04-26T11:05:01Z</time>
      </trkpt>
      <trkpt lat="45.70138" lon="5.63549">
        <ele>313.95998685428</ele>
        <time>2015-04-26T11:05:06Z</time>
      </trkpt>
      <trkpt lat="45.70137" lon="5.63546">
        <ele>313.95998685428</ele>
        <time>2015-04-26T11:05:11Z</time>
      </trkpt>
      <trkpt lat="45.70135" lon="5.63542">
        <ele>313.85501968039</ele>
        <time>2015-04-26T11:05:16Z</time>
      </trkpt>
      <trkpt lat="45.70132" lon="5.63537">
        <ele>313.85501968039</ele>
        <time>2015-04-26T11:05:21Z</time>
      </trkpt>
      <trkpt lat="45.7013" lon="5.63535">
        <ele>313.85501968039</ele>
        <time>2015-04-26T11:05:26Z</time>
      </trkpt>
      <trkpt lat="45.70129" lon="5.63533">
        <ele>313.47823694972</ele>
        <time>2015-04-26T11:05:31Z</time>
      </trkpt>
      <trkpt lat="45.70128" lon="5.63532">
        <ele>313.47823694972</ele>
        <time>2015-04-26T11:05:36Z</time>
      </trkpt>
      <trkpt lat="45.70127" lon="5.63531">
        <ele>313.47823694972</ele>
        <time>2015-04-26T11:05:41Z</time>
      </trkpt>
      <trkpt lat="45.70122" lon="5.63515">
        <ele>312.96622782337</ele>
        <time>2015-04-26T11:05:46Z</time>
      </trkpt>
      <trkpt lat="45.70114" lon="5.63498">
        <ele>312.15765176038</ele>
        <time>2015-04-26T11:05:51Z</time>
      </trkpt>
      <trkpt lat="45.70109" lon="5.63482">
        <ele>311.79728813725</ele>
        <time>2015-04-26T11:05:56Z</time>
      </trkpt>
      <trkpt lat="45.70107" lon="5.63469">
        <ele>311.47864910191</ele>
        <time>2015-04-26T11:06:01Z</time>
      </trkpt>
      <trkpt lat="45.70106" lon="5.63466">
        <ele>311.47864910191</ele>
        <time>2015-04-26T11:06:06Z</time>
      </trkpt>
      <trkpt lat="45.70106" lon="5.63465">
        <ele>311.47864910191</ele>
        <time>2015-04-26T11:06:11Z</time>
      </trkpt>
      <trkpt lat="45.70107" lon="5.63464">
        <ele>311.47864910191</ele>
        <time>2015-04-26T11:06:16Z</time>
      </trkpt>
      <trkpt lat="45.70104" lon="5.63458">
        <ele>312.0642935085</ele>
        <time>2015-04-26T11:06:21Z</time>
      </trkpt>
      <trkpt lat="45.70107" lon="5.63448">
        <ele>312.0642935085</ele>
        <time>2015-04-26T11:06:26Z</time>
      </trkpt>
      <trkpt lat="45.70105" lon="5.63442">
        <ele>311.84329518307</ele>
        <time>2015-04-26T11:06:31Z</time>
      </trkpt>
      <trkpt lat="45.70105" lon="5.63438">
        <ele>311.84329518307</ele>
        <time>2015-04-26T11:06:36Z</time>
      </trkpt>
      <trkpt lat="45.70108" lon="5.63431">
        <ele>311.84329518307</ele>
        <time>2015-04-26T11:06:41Z</time>
      </trkpt>
      <trkpt lat="45.70112" lon="5.63422">
        <ele>310.78902596289</ele>
        <time>2015-04-26T11:06:46Z</time>
      </trkpt>
      <trkpt lat="45.7011" lon="5.63416">
        <ele>310.78902596289</ele>
        <time>2015-04-26T11:06:51Z</time>
      </trkpt>
      <trkpt lat="45.7011" lon="5.63405">
        <ele>310.47873838552</ele>
        <time>2015-04-26T11:06:56Z</time>
      </trkpt>
      <trkpt lat="45.70112" lon="5.63395">
        <ele>310.47873838552</ele>
        <time>2015-04-26T11:07:01Z</time>
      </trkpt>
      <trkpt lat="45.70114" lon="5.63386">
        <ele>310.77205511058</ele>
        <time>2015-04-26T11:07:06Z</time>
      </trkpt>
      <trkpt lat="45.7011" lon="5.63376">
        <ele>310.77205511058</ele>
        <time>2015-04-26T11:07:11Z</time>
      </trkpt>
      <trkpt lat="45.70104" lon="5.63365">
        <ele>311.03278527819</ele>
        <time>2015-04-26T11:07:16Z</time>
      </trkpt>
      <trkpt lat="45.70097" lon="5.63342">
        <ele>311.33443507049</ele>
        <time>2015-04-26T11:07:21Z</time>
      </trkpt>
      <trkpt lat="45.70094" lon="5.63322">
        <ele>311.68731714973</ele>
        <time>2015-04-26T11:07:26Z</time>
      </trkpt>
      <trkpt lat="45.7009" lon="5.63309">
        <ele>312.61961556546</ele>
        <time>2015-04-26T11:07:31Z</time>
      </trkpt>
      <trkpt lat="45.70086" lon="5.63298">
        <ele>312.61961556546</ele>
        <time>2015-04-26T11:07:36Z</time>
      </trkpt>
      <trkpt lat="45.7008" lon="5.63296">
        <ele>314.79200435232</ele>
        <time>2015-04-26T11:07:41Z</time>
      </trkpt>
      <trkpt lat="45.70074" lon="5.63297">
        <ele>314.79200435232</ele>
        <time>2015-04-26T11:07:46Z</time>
      </trkpt>
      <trkpt lat="45.70069" lon="5.63299">
        <ele>316.32001577705</ele>
        <time>2015-04-26T11:07:51Z</time>
      </trkpt>
      <trkpt lat="45.70064" lon="5.63303">
        <ele>316.32001577705</ele>
        <time>2015-04-26T11:07:56Z</time>
      </trkpt>
      <trkpt lat="45.70055" lon="5.63305">
        <ele>317.5058055494</ele>
        <time>2015-04-26T11:08:01Z</time>
      </trkpt>
      <trkpt lat="45.70044" lon="5.63309">
        <ele>318.70236702646</ele>
        <time>2015-04-26T11:08:06Z</time>
      </trkpt>
      <trkpt lat="45.70017" lon="5.63327">
        <ele>320.84203098064</ele>
        <time>2015-04-26T11:08:11Z</time>
      </trkpt>
      <trkpt lat="45.70004" lon="5.63331">
        <ele>323.17199255138</ele>
        <time>2015-04-26T11:08:16Z</time>
      </trkpt>
      <trkpt lat="45.69995" lon="5.63325">
        <ele>325.35454774011</ele>
        <time>2015-04-26T11:08:21Z</time>
      </trkpt>
      <trkpt lat="45.69989" lon="5.63317">
        <ele>325.35454774011</ele>
        <time>2015-04-26T11:08:26Z</time>
      </trkpt>
      <trkpt lat="45.69983" lon="5.63308">
        <ele>327.35109423947</ele>
        <time>2015-04-26T11:08:31Z</time>
      </trkpt>
      <trkpt lat="45.69978" lon="5.63295">
        <ele>329.74614850576</ele>
        <time>2015-04-26T11:08:36Z</time>
      </trkpt>
      <trkpt lat="45.69976" lon="5.63284">
        <ele>329.74614850576</ele>
        <time>2015-04-26T11:08:41Z</time>
      </trkpt>
      <trkpt lat="45.69974" lon="5.63272">
        <ele>331.65356529498</ele>
        <time>2015-04-26T11:08:46Z</time>
      </trkpt>
      <trkpt lat="45.69971" lon="5.63256">
        <ele>333.5940021485</ele>
        <time>2015-04-26T11:08:51Z</time>
      </trkpt>
      <trkpt lat="45.69971" lon="5.63248">
        <ele>333.5940021485</ele>
        <time>2015-04-26T11:08:56Z</time>
      </trkpt>
      <trkpt lat="45.69969" lon="5.63237">
        <ele>335.58873513139</ele>
        <time>2015-04-26T11:09:01Z</time>
      </trkpt>
      <trkpt lat="45.69967" lon="5.63223">
        <ele>337.39804624248</ele>
        <time>2015-04-26T11:09:06Z</time>
      </trkpt>
      <trkpt lat="45.69964" lon="5.63214">
        <ele>337.39804624248</ele>
        <time>2015-04-26T11:09:11Z</time>
      </trkpt>
      <trkpt lat="45.69961" lon="5.63207">
        <ele>339.47779696103</ele>
        <time>2015-04-26T11:09:16Z</time>
      </trkpt>
      <trkpt lat="45.6996" lon="5.632">
        <ele>339.47779696103</ele>
        <time>2015-04-26T11:09:21Z</time>
      </trkpt>
      <trkpt lat="45.69958" lon="5.63191">
        <ele>341.88945804394</ele>
        <time>2015-04-26T11:09:26Z</time>
      </trkpt>
      <trkpt lat="45.69954" lon="5.63181">
        <ele>341.88945804394</ele>
        <time>2015-04-26T11:09:31Z</time>
      </trkpt>
      <trkpt lat="45.69952" lon="5.63172">
        <ele>344.45861485245</ele>
        <time>2015-04-26T11:09:36Z</time>
      </trkpt>
      <trkpt lat="45.69953" lon="5.63162">
        <ele>344.45861485245</ele>
        <time>2015-04-26T11:09:41Z</time>
      </trkpt>
      <trkpt lat="45.69952" lon="5.63151">
        <ele>346.37486743279</ele>
        <time>2015-04-26T11:09:46Z</time>
      </trkpt>
      <trkpt lat="45.69953" lon="5.63141">
        <ele>346.37486743279</ele>
        <time>2015-04-26T11:09:51Z</time>
      </trkpt>
      <trkpt lat="45.69956" lon="5.63132">
        <ele>348.3736732644</ele>
        <time>2015-04-26T11:09:56Z</time>
      </trkpt>
      <trkpt lat="45.69959" lon="5.63123">
        <ele>348.3736732644</ele>
        <time>2015-04-26T11:10:01Z</time>
      </trkpt>
      <trkpt lat="45.6996" lon="5.63121">
        <ele>348.3736732644</ele>
        <time>2015-04-26T11:10:06Z</time>
      </trkpt>
      <trkpt lat="45.6996" lon="5.63119">
        <ele>351.12197514523</ele>
        <time>2015-04-26T11:10:11Z</time>
      </trkpt>
      <trkpt lat="45.69956" lon="5.6311">
        <ele>351.12197514523</ele>
        <time>2015-04-26T11:10:16Z</time>
      </trkpt>
      <trkpt lat="45.69952" lon="5.63099">
        <ele>353.27586569964</ele>
        <time>2015-04-26T11:10:21Z</time>
      </trkpt>
      <trkpt lat="45.6995" lon="5.63089">
        <ele>353.27586569964</ele>
        <time>2015-04-26T11:10:26Z</time>
      </trkpt>
      <trkpt lat="45.6995" lon="5.63087">
        <ele>353.27586569964</ele>
        <time>2015-04-26T11:10:31Z</time>
      </trkpt>
      <trkpt lat="45.69949" lon="5.63086">
        <ele>356.08511197344</ele>
        <time>2015-04-26T11:10:36Z</time>
      </trkpt>
      <trkpt lat="45.69948" lon="5.63082">
        <ele>356.08511197344</ele>
        <time>2015-04-26T11:10:41Z</time>
      </trkpt>
      <trkpt lat="45.69943" lon="5.63071">
        <ele>358.42904337013</ele>
        <time>2015-04-26T11:10:46Z</time>
      </trkpt>
      <trkpt lat="45.69939" lon="5.63059">
        <ele>360.69748638489</ele>
        <time>2015-04-26T11:10:51Z</time>
      </trkpt>
      <trkpt lat="45.69936" lon="5.6305">
        <ele>360.69748638489</ele>
        <time>2015-04-26T11:10:56Z</time>
      </trkpt>
      <trkpt lat="45.69929" lon="5.63047">
        <ele>362.57468877979</ele>
        <time>2015-04-26T11:11:01Z</time>
      </trkpt>
      <trkpt lat="45.69924" lon="5.63041">
        <ele>362.57468877979</ele>
        <time>2015-04-26T11:11:06Z</time>
      </trkpt>
      <trkpt lat="45.6992" lon="5.63034">
        <ele>364.56197055944</ele>
        <time>2015-04-26T11:11:11Z</time>
      </trkpt>
      <trkpt lat="45.69916" lon="5.63028">
        <ele>364.56197055944</ele>
        <time>2015-04-26T11:11:16Z</time>
      </trkpt>
      <trkpt lat="45.69912" lon="5.63022">
        <ele>366.90751638969</ele>
        <time>2015-04-26T11:11:21Z</time>
      </trkpt>
      <trkpt lat="45.69908" lon="5.63014">
        <ele>366.90751638969</ele>
        <time>2015-04-26T11:11:26Z</time>
      </trkpt>
      <trkpt lat="45.69904" lon="5.63006">
        <ele>368.84607154218</ele>
        <time>2015-04-26T11:11:31Z</time>
      </trkpt>
      <trkpt lat="45.69901" lon="5.62996">
        <ele>368.84607154218</ele>
        <time>2015-04-26T11:11:36Z</time>
      </trkpt>
      <trkpt lat="45.69897" lon="5.62987">
        <ele>371.03895578421</ele>
        <time>2015-04-26T11:11:41Z</time>
      </trkpt>
      <trkpt lat="45.69893" lon="5.6298">
        <ele>371.03895578421</ele>
        <time>2015-04-26T11:11:46Z</time>
      </trkpt>
      <trkpt lat="45.69888" lon="5.62972">
        <ele>372.801352943</ele>
        <time>2015-04-26T11:11:51Z</time>
      </trkpt>
      <trkpt lat="45.69884" lon="5.62964">
        <ele>372.801352943</ele>
        <time>2015-04-26T11:11:56Z</time>
      </trkpt>
      <trkpt lat="45.69881" lon="5.62955">
        <ele>374.95563839572</ele>
        <time>2015-04-26T11:12:01Z</time>
      </trkpt>
      <trkpt lat="45.69877" lon="5.62947">
        <ele>374.95563839572</ele>
        <time>2015-04-26T11:12:06Z</time>
      </trkpt>
      <trkpt lat="45.69874" lon="5.62934">
        <ele>377.00906067023</ele>
        <time>2015-04-26T11:12:11Z</time>
      </trkpt>
      <trkpt lat="45.69872" lon="5.62923">
        <ele>377.00906067023</ele>
        <time>2015-04-26T11:12:16Z</time>
      </trkpt>
      <trkpt lat="45.69867" lon="5.62918">
        <ele>379.34134055579</ele>
        <time>2015-04-26T11:12:21Z</time>
      </trkpt>
      <trkpt lat="45.69861" lon="5.6292">
        <ele>379.34134055579</ele>
        <time>2015-04-26T11:12:26Z</time>
      </trkpt>
      <trkpt lat="45.69858" lon="5.62925">
        <ele>381.22283190315</ele>
        <time>2015-04-26T11:12:31Z</time>
      </trkpt>
      <trkpt lat="45.69853" lon="5.62926">
        <ele>381.22283190315</ele>
        <time>2015-04-26T11:12:36Z</time>
      </trkpt>
      <trkpt lat="45.69847" lon="5.62923">
        <ele>382.78591369492</ele>
        <time>2015-04-26T11:12:41Z</time>
      </trkpt>
      <trkpt lat="45.69843" lon="5.62925">
        <ele>382.78591369492</ele>
        <time>2015-04-26T11:12:46Z</time>
      </trkpt>
      <trkpt lat="45.69838" lon="5.62925">
        <ele>383.86604358215</ele>
        <time>2015-04-26T11:12:51Z</time>
      </trkpt>
      <trkpt lat="45.69832" lon="5.62924">
        <ele>383.86604358215</ele>
        <time>2015-04-26T11:12:56Z</time>
      </trkpt>
      <trkpt lat="45.69827" lon="5.62925">
        <ele>384.6292893757</ele>
        <time>2015-04-26T11:13:01Z</time>
      </trkpt>
      <trkpt lat="45.69823" lon="5.6292">
        <ele>384.6292893757</ele>
        <time>2015-04-26T11:13:06Z</time>
      </trkpt>
      <trkpt lat="45.69818" lon="5.62917">
        <ele>384.88465345683</ele>
        <time>2015-04-26T11:13:11Z</time>
      </trkpt>
      <trkpt lat="45.69814" lon="5.62909">
        <ele>384.88465345683</ele>
        <time>2015-04-26T11:13:16Z</time>
      </trkpt>
      <trkpt lat="45.69817" lon="5.62898">
        <ele>384.15405595069</ele>
        <time>2015-04-26T11:13:21Z</time>
      </trkpt>
      <trkpt lat="45.69822" lon="5.62887">
        <ele>383.58260279483</ele>
        <time>2015-04-26T11:13:26Z</time>
      </trkpt>
      <trkpt lat="45.69828" lon="5.62881">
        <ele>383.58260279483</ele>
        <time>2015-04-26T11:13:31Z</time>
      </trkpt>
      <trkpt lat="45.69829" lon="5.62872">
        <ele>382.60243501805</ele>
        <time>2015-04-26T11:13:36Z</time>
      </trkpt>
      <trkpt lat="45.6983" lon="5.62862">
        <ele>382.60243501805</ele>
        <time>2015-04-26T11:13:41Z</time>
      </trkpt>
      <trkpt lat="45.6983" lon="5.62854">
        <ele>380.84710975164</ele>
        <time>2015-04-26T11:13:46Z</time>
      </trkpt>
      <trkpt lat="45.69832" lon="5.62847">
        <ele>380.84710975164</ele>
        <time>2015-04-26T11:13:51Z</time>
      </trkpt>
      <trkpt lat="45.69833" lon="5.62838">
        <ele>378.71425126806</ele>
        <time>2015-04-26T11:13:56Z</time>
      </trkpt>
      <trkpt lat="45.69833" lon="5.62827">
        <ele>378.71425126806</ele>
        <time>2015-04-26T11:14:01Z</time>
      </trkpt>
      <trkpt lat="45.69833" lon="5.62815">
        <ele>376.71742559785</ele>
        <time>2015-04-26T11:14:06Z</time>
      </trkpt>
      <trkpt lat="45.69834" lon="5.62805">
        <ele>376.71742559785</ele>
        <time>2015-04-26T11:14:11Z</time>
      </trkpt>
      <trkpt lat="45.69832" lon="5.62794">
        <ele>374.17915451145</ele>
        <time>2015-04-26T11:14:16Z</time>
      </trkpt>
      <trkpt lat="45.6983" lon="5.62783">
        <ele>374.17915451145</ele>
        <time>2015-04-26T11:14:21Z</time>
      </trkpt>
      <trkpt lat="45.69831" lon="5.62777">
        <ele>372.04398341294</ele>
        <time>2015-04-26T11:14:26Z</time>
      </trkpt>
      <trkpt lat="45.69833" lon="5.62768">
        <ele>372.04398341294</ele>
        <time>2015-04-26T11:14:31Z</time>
      </trkpt>
      <trkpt lat="45.69832" lon="5.62759">
        <ele>370.2058859628</ele>
        <time>2015-04-26T11:14:36Z</time>
      </trkpt>
      <trkpt lat="45.69831" lon="5.62746">
        <ele>368.27744678661</ele>
        <time>2015-04-26T11:14:41Z</time>
      </trkpt>
      <trkpt lat="45.69831" lon="5.62734">
        <ele>368.27744678661</ele>
        <time>2015-04-26T11:14:46Z</time>
      </trkpt>
      <trkpt lat="45.69833" lon="5.62723">
        <ele>366.96624495116</ele>
        <time>2015-04-26T11:14:51Z</time>
      </trkpt>
      <trkpt lat="45.69832" lon="5.6271">
        <ele>365.12460289156</ele>
        <time>2015-04-26T11:14:56Z</time>
      </trkpt>
      <trkpt lat="45.69834" lon="5.627">
        <ele>365.12460289156</ele>
        <time>2015-04-26T11:15:01Z</time>
      </trkpt>
      <trkpt lat="45.69835" lon="5.6269">
        <ele>363.49185782544</ele>
        <time>2015-04-26T11:15:06Z</time>
      </trkpt>
      <trkpt lat="45.69836" lon="5.62682">
        <ele>363.49185782544</ele>
        <time>2015-04-26T11:15:11Z</time>
      </trkpt>
      <trkpt lat="45.69838" lon="5.62674">
        <ele>362.13259002459</ele>
        <time>2015-04-26T11:15:16Z</time>
      </trkpt>
      <trkpt lat="45.6984" lon="5.62666">
        <ele>362.13259002459</ele>
        <time>2015-04-26T11:15:21Z</time>
      </trkpt>
      <trkpt lat="45.69841" lon="5.62658">
        <ele>361.4947792134</ele>
        <time>2015-04-26T11:15:26Z</time>
      </trkpt>
      <trkpt lat="45.69846" lon="5.62648">
        <ele>361.4947792134</ele>
        <time>2015-04-26T11:15:31Z</time>
      </trkpt>
      <trkpt lat="45.69845" lon="5.62643">
        <ele>360.55016575632</ele>
        <time>2015-04-26T11:15:36Z</time>
      </trkpt>
      <trkpt lat="45.69849" lon="5.62633">
        <ele>360.55016575632</ele>
        <time>2015-04-26T11:15:41Z</time>
      </trkpt>
      <trkpt lat="45.6985" lon="5.62621">
        <ele>358.82225302296</ele>
        <time>2015-04-26T11:15:46Z</time>
      </trkpt>
      <trkpt lat="45.69851" lon="5.62611">
        <ele>358.82225302296</ele>
        <time>2015-04-26T11:15:51Z</time>
      </trkpt>
      <trkpt lat="45.69851" lon="5.62599">
        <ele>357.44235405726</ele>
        <time>2015-04-26T11:15:56Z</time>
      </trkpt>
      <trkpt lat="45.69851" lon="5.62588">
        <ele>357.44235405726</ele>
        <time>2015-04-26T11:16:01Z</time>
      </trkpt>
      <trkpt lat="45.6985" lon="5.62578">
        <ele>356.34783927699</ele>
        <time>2015-04-26T11:16:06Z</time>
      </trkpt>
      <trkpt lat="45.69849" lon="5.62568">
        <ele>356.34783927699</ele>
        <time>2015-04-26T11:16:11Z</time>
      </trkpt>
      <trkpt lat="45.69848" lon="5.62556">
        <ele>355.1770386152</ele>
        <time>2015-04-26T11:16:16Z</time>
      </trkpt>
      <trkpt lat="45.69846" lon="5.62544">
        <ele>355.1770386152</ele>
        <time>2015-04-26T11:16:21Z</time>
      </trkpt>
      <trkpt lat="45.69842" lon="5.62534">
        <ele>353.22016501588</ele>
        <time>2015-04-26T11:16:26Z</time>
      </trkpt>
      <trkpt lat="45.69837" lon="5.62524">
        <ele>353.22016501588</ele>
        <time>2015-04-26T11:16:31Z</time>
      </trkpt>
      <trkpt lat="45.6983" lon="5.62509">
        <ele>351.6661885627</ele>
        <time>2015-04-26T11:16:36Z</time>
      </trkpt>
      <trkpt lat="45.69824" lon="5.62463">
        <ele>349.92929403025</ele>
        <time>2015-04-26T11:16:41Z</time>
      </trkpt>
      <trkpt lat="45.69819" lon="5.62432">
        <ele>348.47577608783</ele>
        <time>2015-04-26T11:16:46Z</time>
      </trkpt>
      <trkpt lat="45.69818" lon="5.62419">
        <ele>348.47577608783</ele>
        <time>2015-04-26T11:16:51Z</time>
      </trkpt>
      <trkpt lat="45.69817" lon="5.6241">
        <ele>347.62137661203</ele>
        <time>2015-04-26T11:16:56Z</time>
      </trkpt>
      <trkpt lat="45.69814" lon="5.624">
        <ele>347.62137661203</ele>
        <time>2015-04-26T11:17:01Z</time>
      </trkpt>
      <trkpt lat="45.69812" lon="5.62389">
        <ele>347.09471652049</ele>
        <time>2015-04-26T11:17:06Z</time>
      </trkpt>
      <trkpt lat="45.69807" lon="5.62384">
        <ele>347.09471652049</ele>
        <time>2015-04-26T11:17:11Z</time>
      </trkpt>
      <trkpt lat="45.69805" lon="5.62374">
        <ele>346.68645884279</ele>
        <time>2015-04-26T11:17:16Z</time>
      </trkpt>
      <trkpt lat="45.69804" lon="5.62362">
        <ele>346.68645884279</ele>
        <time>2015-04-26T11:17:21Z</time>
      </trkpt>
      <trkpt lat="45.69804" lon="5.62348">
        <ele>346.33181313524</ele>
        <time>2015-04-26T11:17:26Z</time>
      </trkpt>
      <trkpt lat="45.69804" lon="5.62335">
        <ele>346.18657581058</ele>
        <time>2015-04-26T11:17:31Z</time>
      </trkpt>
      <trkpt lat="45.69803" lon="5.62323">
        <ele>346.18657581058</ele>
        <time>2015-04-26T11:17:36Z</time>
      </trkpt>
      <trkpt lat="45.69799" lon="5.62305">
        <ele>345.0973310572</ele>
        <time>2015-04-26T11:17:41Z</time>
      </trkpt>
      <trkpt lat="45.69796" lon="5.62293">
        <ele>344.08748168389</ele>
        <time>2015-04-26T11:17:46Z</time>
      </trkpt>
      <trkpt lat="45.69792" lon="5.62283">
        <ele>344.08748168389</ele>
        <time>2015-04-26T11:17:51Z</time>
      </trkpt>
      <trkpt lat="45.6979" lon="5.62272">
        <ele>343.00962075887</ele>
        <time>2015-04-26T11:17:56Z</time>
      </trkpt>
      <trkpt lat="45.69791" lon="5.62262">
        <ele>343.00962075887</ele>
        <time>2015-04-26T11:18:01Z</time>
      </trkpt>
      <trkpt lat="45.69794" lon="5.62254">
        <ele>341.81366908914</ele>
        <time>2015-04-26T11:18:06Z</time>
      </trkpt>
      <trkpt lat="45.698" lon="5.62249">
        <ele>341.81366908914</ele>
        <time>2015-04-26T11:18:11Z</time>
      </trkpt>
      <trkpt lat="45.69807" lon="5.62245">
        <ele>341.20278249548</ele>
        <time>2015-04-26T11:18:16Z</time>
      </trkpt>
      <trkpt lat="45.69813" lon="5.62241">
        <ele>341.20278249548</ele>
        <time>2015-04-26T11:18:21Z</time>
      </trkpt>
      <trkpt lat="45.69819" lon="5.62236">
        <ele>341.53845395085</ele>
        <time>2015-04-26T11:18:26Z</time>
      </trkpt>
      <trkpt lat="45.69819" lon="5.62235">
        <ele>341.53845395085</ele>
        <time>2015-04-26T11:18:31Z</time>
      </trkpt>
      <trkpt lat="45.69818" lon="5.62235">
        <ele>341.53845395085</ele>
        <time>2015-04-26T11:18:36Z</time>
      </trkpt>
      <trkpt lat="45.69819" lon="5.62234">
        <ele>341.53845395085</ele>
        <time>2015-04-26T11:18:41Z</time>
      </trkpt>
      <trkpt lat="45.6983" lon="5.62231">
        <ele>341.30820558423</ele>
        <time>2015-04-26T11:18:46Z</time>
      </trkpt>
      <trkpt lat="45.69843" lon="5.6223">
        <ele>341.85023917997</ele>
        <time>2015-04-26T11:18:51Z</time>
      </trkpt>
      <trkpt lat="45.69849" lon="5.62233">
        <ele>341.85023917997</ele>
        <time>2015-04-26T11:18:56Z</time>
      </trkpt>
      <trkpt lat="45.69851" lon="5.62238">
        <ele>343.17723086713</ele>
        <time>2015-04-26T11:19:01Z</time>
      </trkpt>
      <trkpt lat="45.69853" lon="5.62238">
        <ele>343.17723086713</ele>
        <time>2015-04-26T11:19:06Z</time>
      </trkpt>
      <trkpt lat="45.69854" lon="5.62237">
        <ele>343.17723086713</ele>
        <time>2015-04-26T11:19:11Z</time>
      </trkpt>
      <trkpt lat="45.69854" lon="5.62237">
        <ele>343.17723086713</ele>
        <time>2015-04-26T11:19:16Z</time>
      </trkpt>
      <trkpt lat="45.69856" lon="5.62237">
        <ele>343.17723086713</ele>
        <time>2015-04-26T11:19:21Z</time>
      </trkpt>
      <trkpt lat="45.69866" lon="5.62232">
        <ele>344.60689644561</ele>
        <time>2015-04-26T11:19:26Z</time>
      </trkpt>
      <trkpt lat="45.69873" lon="5.62225">
        <ele>345.79493101103</ele>
        <time>2015-04-26T11:19:31Z</time>
      </trkpt>
      <trkpt lat="45.6988" lon="5.62223">
        <ele>345.79493101103</ele>
        <time>2015-04-26T11:19:36Z</time>
      </trkpt>
      <trkpt lat="45.69885" lon="5.62222">
        <ele>348.16669155033</ele>
        <time>2015-04-26T11:19:41Z</time>
      </trkpt>
      <trkpt lat="45.6989" lon="5.62224">
        <ele>348.16669155033</ele>
        <time>2015-04-26T11:19:46Z</time>
      </trkpt>
      <trkpt lat="45.69891" lon="5.62224">
        <ele>348.16669155033</ele>
        <time>2015-04-26T11:19:51Z</time>
      </trkpt>
      <trkpt lat="45.69893" lon="5.62224">
        <ele>348.16669155033</ele>
        <time>2015-04-26T11:19:56Z</time>
      </trkpt>
      <trkpt lat="45.69894" lon="5.62224">
        <ele>350.90663290062</ele>
        <time>2015-04-26T11:20:01Z</time>
      </trkpt>
      <trkpt lat="45.69894" lon="5.62224">
        <ele>350.90663290062</ele>
        <time>2015-04-26T11:20:06Z</time>
      </trkpt>
      <trkpt lat="45.69894" lon="5.62224">
        <ele>350.90663290062</ele>
        <time>2015-04-26T11:20:11Z</time>
      </trkpt>
      <trkpt lat="45.69894" lon="5.62224">
        <ele>350.90663290062</ele>
        <time>2015-04-26T11:20:16Z</time>
      </trkpt>
      <trkpt lat="45.69894" lon="5.62224">
        <ele>350.90663290062</ele>
        <time>2015-04-26T11:20:21Z</time>
      </trkpt>
      <trkpt lat="45.69896" lon="5.62223">
        <ele>350.90663290062</ele>
        <time>2015-04-26T11:20:26Z</time>
      </trkpt>
      <trkpt lat="45.69899" lon="5.6222">
        <ele>350.90663290062</ele>
        <time>2015-04-26T11:20:31Z</time>
      </trkpt>
      <trkpt lat="45.69901" lon="5.62217">
        <ele>350.90663290062</ele>
        <time>2015-04-26T11:20:36Z</time>
      </trkpt>
      <trkpt lat="45.69903" lon="5.62209">
        <ele>353.66159162121</ele>
        <time>2015-04-26T11:20:41Z</time>
      </trkpt>
      <trkpt lat="45.69906" lon="5.62199">
        <ele>353.66159162121</ele>
        <time>2015-04-26T11:20:46Z</time>
      </trkpt>
      <trkpt lat="45.69911" lon="5.62195">
        <ele>355.81610091733</ele>
        <time>2015-04-26T11:20:51Z</time>
      </trkpt>
      <trkpt lat="45.69916" lon="5.62196">
        <ele>355.81610091733</ele>
        <time>2015-04-26T11:20:56Z</time>
      </trkpt>
      <trkpt lat="45.69923" lon="5.62189">
        <ele>358.64625605665</ele>
        <time>2015-04-26T11:21:01Z</time>
      </trkpt>
      <trkpt lat="45.69931" lon="5.62184">
        <ele>361.4159030633</ele>
        <time>2015-04-26T11:21:06Z</time>
      </trkpt>
      <trkpt lat="45.69938" lon="5.62179">
        <ele>361.4159030633</ele>
        <time>2015-04-26T11:21:11Z</time>
      </trkpt>
      <trkpt lat="45.69944" lon="5.62172">
        <ele>364.13495569929</ele>
        <time>2015-04-26T11:21:16Z</time>
      </trkpt>
      <trkpt lat="45.69952" lon="5.62167">
        <ele>364.13495569929</ele>
        <time>2015-04-26T11:21:21Z</time>
      </trkpt>
      <trkpt lat="45.69957" lon="5.62166">
        <ele>366.98578154493</ele>
        <time>2015-04-26T11:21:26Z</time>
      </trkpt>
      <trkpt lat="45.69959" lon="5.62166">
        <ele>366.98578154493</ele>
        <time>2015-04-26T11:21:31Z</time>
      </trkpt>
      <trkpt lat="45.69962" lon="5.62165">
        <ele>366.98578154493</ele>
        <time>2015-04-26T11:21:36Z</time>
      </trkpt>
      <trkpt lat="45.69965" lon="5.62162">
        <ele>366.98578154493</ele>
        <time>2015-04-26T11:21:41Z</time>
      </trkpt>
      <trkpt lat="45.69971" lon="5.62154">
        <ele>370.16593028024</ele>
        <time>2015-04-26T11:21:46Z</time>
      </trkpt>
      <trkpt lat="45.69977" lon="5.62146">
        <ele>370.16593028024</ele>
        <time>2015-04-26T11:21:51Z</time>
      </trkpt>
      <trkpt lat="45.69978" lon="5.62142">
        <ele>373.42532670443</ele>
        <time>2015-04-26T11:21:56Z</time>
      </trkpt>
      <trkpt lat="45.6998" lon="5.62141">
        <ele>373.42532670443</ele>
        <time>2015-04-26T11:22:01Z</time>
      </trkpt>
      <trkpt lat="45.69981" lon="5.62138">
        <ele>373.42532670443</ele>
        <time>2015-04-26T11:22:06Z</time>
      </trkpt>
      <trkpt lat="45.69984" lon="5.62137">
        <ele>373.42532670443</ele>
        <time>2015-04-26T11:22:11Z</time>
      </trkpt>
      <trkpt lat="45.69984" lon="5.62136">
        <ele>373.42532670443</ele>
        <time>2015-04-26T11:22:16Z</time>
      </trkpt>
      <trkpt lat="45.69984" lon="5.62136">
        <ele>373.42532670443</ele>
        <time>2015-04-26T11:22:21Z</time>
      </trkpt>
      <trkpt lat="45.69987" lon="5.62132">
        <ele>376.99336165845</ele>
        <time>2015-04-26T11:22:26Z</time>
      </trkpt>
      <trkpt lat="45.6999" lon="5.62126">
        <ele>376.99336165845</ele>
        <time>2015-04-26T11:22:31Z</time>
      </trkpt>
      <trkpt lat="45.69992" lon="5.6212">
        <ele>380.8657227209</ele>
        <time>2015-04-26T11:22:36Z</time>
      </trkpt>
      <trkpt lat="45.69992" lon="5.62115">
        <ele>380.8657227209</ele>
        <time>2015-04-26T11:22:41Z</time>
      </trkpt>
      <trkpt lat="45.69993" lon="5.62108">
        <ele>380.8657227209</ele>
        <time>2015-04-26T11:22:46Z</time>
      </trkpt>
      <trkpt lat="45.69997" lon="5.62099">
        <ele>382.91932116277</ele>
        <time>2015-04-26T11:22:51Z</time>
      </trkpt>
      <trkpt lat="45.70001" lon="5.6209">
        <ele>382.91932116277</ele>
        <time>2015-04-26T11:22:56Z</time>
      </trkpt>
      <trkpt lat="45.70003" lon="5.62086">
        <ele>385.12657292105</ele>
        <time>2015-04-26T11:23:01Z</time>
      </trkpt>
      <trkpt lat="45.70005" lon="5.62081">
        <ele>385.12657292105</ele>
        <time>2015-04-26T11:23:06Z</time>
      </trkpt>
      <trkpt lat="45.70006" lon="5.62078">
        <ele>385.12657292105</ele>
        <time>2015-04-26T11:23:11Z</time>
      </trkpt>
      <trkpt lat="45.70008" lon="5.62078">
        <ele>385.12657292105</ele>
        <time>2015-04-26T11:23:16Z</time>
      </trkpt>
      <trkpt lat="45.70008" lon="5.62078">
        <ele>385.12657292105</ele>
        <time>2015-04-26T11:23:21Z</time>
      </trkpt>
      <trkpt lat="45.70008" lon="5.62078">
        <ele>385.12657292105</ele>
        <time>2015-04-26T11:23:26Z</time>
      </trkpt>
      <trkpt lat="45.7001" lon="5.62075">
        <ele>387.97455241991</ele>
        <time>2015-04-26T11:23:31Z</time>
      </trkpt>
      <trkpt lat="45.70015" lon="5.62068">
        <ele>387.97455241991</ele>
        <time>2015-04-26T11:23:36Z</time>
      </trkpt>
      <trkpt lat="45.70019" lon="5.62065">
        <ele>389.54955270858</ele>
        <time>2015-04-26T11:23:41Z</time>
      </trkpt>
      <trkpt lat="45.70026" lon="5.62057">
        <ele>389.54955270858</ele>
        <time>2015-04-26T11:23:46Z</time>
      </trkpt>
      <trkpt lat="45.70033" lon="5.6205">
        <ele>391.59855038902</ele>
        <time>2015-04-26T11:23:51Z</time>
      </trkpt>
      <trkpt lat="45.70038" lon="5.62045">
        <ele>391.59855038902</ele>
        <time>2015-04-26T11:23:56Z</time>
      </trkpt>
      <trkpt lat="45.70042" lon="5.62038">
        <ele>393.73593525172</ele>
        <time>2015-04-26T11:24:01Z</time>
      </trkpt>
      <trkpt lat="45.70046" lon="5.62029">
        <ele>393.73593525172</ele>
        <time>2015-04-26T11:24:06Z</time>
      </trkpt>
      <trkpt lat="45.70053" lon="5.62022">
        <ele>395.96467242822</ele>
        <time>2015-04-26T11:24:11Z</time>
      </trkpt>
      <trkpt lat="45.70059" lon="5.62017">
        <ele>395.96467242822</ele>
        <time>2015-04-26T11:24:16Z</time>
      </trkpt>
      <trkpt lat="45.70061" lon="5.62016">
        <ele>395.96467242822</ele>
        <time>2015-04-26T11:24:21Z</time>
      </trkpt>
      <trkpt lat="45.70061" lon="5.62014">
        <ele>397.81190178304</ele>
        <time>2015-04-26T11:24:26Z</time>
      </trkpt>
      <trkpt lat="45.70063" lon="5.62009">
        <ele>397.81190178304</ele>
        <time>2015-04-26T11:24:31Z</time>
      </trkpt>
      <trkpt lat="45.70063" lon="5.6201">
        <ele>397.81190178304</ele>
        <time>2015-04-26T11:24:36Z</time>
      </trkpt>
      <trkpt lat="45.70064" lon="5.6201">
        <ele>397.81190178304</ele>
        <time>2015-04-26T11:24:41Z</time>
      </trkpt>
      <trkpt lat="45.70067" lon="5.62004">
        <ele>397.64465600014</ele>
        <time>2015-04-26T11:24:46Z</time>
      </trkpt>
      <trkpt lat="45.70073" lon="5.62">
        <ele>397.64465600014</ele>
        <time>2015-04-26T11:24:51Z</time>
      </trkpt>
      <trkpt lat="45.70084" lon="5.61996">
        <ele>395.81480640338</ele>
        <time>2015-04-26T11:24:56Z</time>
      </trkpt>
      <trkpt lat="45.70094" lon="5.61995">
        <ele>393.92139558377</ele>
        <time>2015-04-26T11:25:01Z</time>
      </trkpt>
      <trkpt lat="45.70095" lon="5.61997">
        <ele>393.92139558377</ele>
        <time>2015-04-26T11:25:06Z</time>
      </trkpt>
      <trkpt lat="45.70098" lon="5.61998">
        <ele>393.92139558377</ele>
        <time>2015-04-26T11:25:11Z</time>
      </trkpt>
      <trkpt lat="45.70099" lon="5.62001">
        <ele>393.92139558377</ele>
        <time>2015-04-26T11:25:16Z</time>
      </trkpt>
      <trkpt lat="45.70101" lon="5.62002">
        <ele>392.7401868988</ele>
        <time>2015-04-26T11:25:21Z</time>
      </trkpt>
      <trkpt lat="45.70105" lon="5.62007">
        <ele>392.7401868988</ele>
        <time>2015-04-26T11:25:26Z</time>
      </trkpt>
      <trkpt lat="45.70114" lon="5.62009">
        <ele>390.46613421355</ele>
        <time>2015-04-26T11:25:31Z</time>
      </trkpt>
      <trkpt lat="45.70124" lon="5.62007">
        <ele>388.81655793012</ele>
        <time>2015-04-26T11:25:36Z</time>
      </trkpt>
      <trkpt lat="45.70129" lon="5.62008">
        <ele>388.81655793012</ele>
        <time>2015-04-26T11:25:41Z</time>
      </trkpt>
      <trkpt lat="45.70132" lon="5.62009">
        <ele>388.81655793012</ele>
        <time>2015-04-26T11:25:46Z</time>
      </trkpt>
      <trkpt lat="45.7014" lon="5.62016">
        <ele>387.34896859859</ele>
        <time>2015-04-26T11:25:51Z</time>
      </trkpt>
      <trkpt lat="45.70144" lon="5.62025">
        <ele>387.34896859859</ele>
        <time>2015-04-26T11:25:56Z</time>
      </trkpt>
      <trkpt lat="45.70147" lon="5.62036">
        <ele>387.06519982801</ele>
        <time>2015-04-26T11:26:01Z</time>
      </trkpt>
      <trkpt lat="45.70148" lon="5.62047">
        <ele>387.06519982801</ele>
        <time>2015-04-26T11:26:06Z</time>
      </trkpt>
      <trkpt lat="45.70155" lon="5.62055">
        <ele>388.89019272263</ele>
        <time>2015-04-26T11:26:11Z</time>
      </trkpt>
      <trkpt lat="45.70165" lon="5.62065">
        <ele>390.67752839907</ele>
        <time>2015-04-26T11:26:16Z</time>
      </trkpt>
      <trkpt lat="45.7017" lon="5.62076">
        <ele>392.84523760153</ele>
        <time>2015-04-26T11:26:21Z</time>
      </trkpt>
      <trkpt lat="45.70175" lon="5.62085">
        <ele>392.84523760153</ele>
        <time>2015-04-26T11:26:26Z</time>
      </trkpt>
      <trkpt lat="45.70175" lon="5.62096">
        <ele>395.44813913084</ele>
        <time>2015-04-26T11:26:31Z</time>
      </trkpt>
      <trkpt lat="45.70176" lon="5.621">
        <ele>395.44813913084</ele>
        <time>2015-04-26T11:26:36Z</time>
      </trkpt>
      <trkpt lat="45.7018" lon="5.62103">
        <ele>395.44813913084</ele>
        <time>2015-04-26T11:26:41Z</time>
      </trkpt>
      <trkpt lat="45.70182" lon="5.62105">
        <ele>396.18681770047</ele>
        <time>2015-04-26T11:26:46Z</time>
      </trkpt>
      <trkpt lat="45.70184" lon="5.62107">
        <ele>396.18681770047</ele>
        <time>2015-04-26T11:26:51Z</time>
      </trkpt>
      <trkpt lat="45.70183" lon="5.62111">
        <ele>396.18681770047</ele>
        <time>2015-04-26T11:26:56Z</time>
      </trkpt>
      <trkpt lat="45.7019" lon="5.62117">
        <ele>397.38906814407</ele>
        <time>2015-04-26T11:27:01Z</time>
      </trkpt>
      <trkpt lat="45.70193" lon="5.62116">
        <ele>397.38906814407</ele>
        <time>2015-04-26T11:27:06Z</time>
      </trkpt>
      <trkpt lat="45.70202" lon="5.62109">
        <ele>398.52995385858</ele>
        <time>2015-04-26T11:27:11Z</time>
      </trkpt>
      <trkpt lat="45.70207" lon="5.62093">
        <ele>399.72857492462</ele>
        <time>2015-04-26T11:27:16Z</time>
      </trkpt>
      <trkpt lat="45.70209" lon="5.62087">
        <ele>399.72857492462</ele>
        <time>2015-04-26T11:27:21Z</time>
      </trkpt>
      <trkpt lat="45.70213" lon="5.6208">
        <ele>400.4322434226</ele>
        <time>2015-04-26T11:27:26Z</time>
      </trkpt>
      <trkpt lat="45.70218" lon="5.62072">
        <ele>400.4322434226</ele>
        <time>2015-04-26T11:27:31Z</time>
      </trkpt>
      <trkpt lat="45.70221" lon="5.62065">
        <ele>401.47052707343</ele>
        <time>2015-04-26T11:27:36Z</time>
      </trkpt>
      <trkpt lat="45.70226" lon="5.62059">
        <ele>401.47052707343</ele>
        <time>2015-04-26T11:27:41Z</time>
      </trkpt>
      <trkpt lat="45.70231" lon="5.62048">
        <ele>403.00588075969</ele>
        <time>2015-04-26T11:27:46Z</time>
      </trkpt>
      <trkpt lat="45.70236" lon="5.62038">
        <ele>403.00588075969</ele>
        <time>2015-04-26T11:27:51Z</time>
      </trkpt>
      <trkpt lat="45.70242" lon="5.62031">
        <ele>403.45812707984</ele>
        <time>2015-04-26T11:27:56Z</time>
      </trkpt>
      <trkpt lat="45.70247" lon="5.62024">
        <ele>403.45812707984</ele>
        <time>2015-04-26T11:28:01Z</time>
      </trkpt>
      <trkpt lat="45.70251" lon="5.62017">
        <ele>404.32051290082</ele>
        <time>2015-04-26T11:28:06Z</time>
      </trkpt>
      <trkpt lat="45.70256" lon="5.62009">
        <ele>404.32051290082</ele>
        <time>2015-04-26T11:28:11Z</time>
      </trkpt>
      <trkpt lat="45.7026" lon="5.61999">
        <ele>405.37583376045</ele>
        <time>2015-04-26T11:28:16Z</time>
      </trkpt>
      <trkpt lat="45.70262" lon="5.61987">
        <ele>405.37583376045</ele>
        <time>2015-04-26T11:28:21Z</time>
      </trkpt>
      <trkpt lat="45.70265" lon="5.61978">
        <ele>406.24939005013</ele>
        <time>2015-04-26T11:28:26Z</time>
      </trkpt>
      <trkpt lat="45.70269" lon="5.61978">
        <ele>406.24939005013</ele>
        <time>2015-04-26T11:28:31Z</time>
      </trkpt>
      <trkpt lat="45.7027" lon="5.61972">
        <ele>406.24939005013</ele>
        <time>2015-04-26T11:28:36Z</time>
      </trkpt>
      <trkpt lat="45.70271" lon="5.61964">
        <ele>406.76747101609</ele>
        <time>2015-04-26T11:28:41Z</time>
      </trkpt>
      <trkpt lat="45.70272" lon="5.61962">
        <ele>406.76747101609</ele>
        <time>2015-04-26T11:28:46Z</time>
      </trkpt>
      <trkpt lat="45.70273" lon="5.61955">
        <ele>406.76747101609</ele>
        <time>2015-04-26T11:28:51Z</time>
      </trkpt>
      <trkpt lat="45.70275" lon="5.61945">
        <ele>407.72127545249</ele>
        <time>2015-04-26T11:28:56Z</time>
      </trkpt>
      <trkpt lat="45.70276" lon="5.61935">
        <ele>407.72127545249</ele>
        <time>2015-04-26T11:29:01Z</time>
      </trkpt>
      <trkpt lat="45.70277" lon="5.61924">
        <ele>408.51685124957</ele>
        <time>2015-04-26T11:29:06Z</time>
      </trkpt>
      <trkpt lat="45.70277" lon="5.61917">
        <ele>408.51685124957</ele>
        <time>2015-04-26T11:29:11Z</time>
      </trkpt>
      <trkpt lat="45.70277" lon="5.6191">
        <ele>409.81486848831</ele>
        <time>2015-04-26T11:29:16Z</time>
      </trkpt>
      <trkpt lat="45.70277" lon="5.61894">
        <ele>411.80814611509</ele>
        <time>2015-04-26T11:29:21Z</time>
      </trkpt>
      <trkpt lat="45.70277" lon="5.61879">
        <ele>412.88642366341</ele>
        <time>2015-04-26T11:29:26Z</time>
      </trkpt>
      <trkpt lat="45.70276" lon="5.61868">
        <ele>412.88642366341</ele>
        <time>2015-04-26T11:29:31Z</time>
      </trkpt>
      <trkpt lat="45.70275" lon="5.61857">
        <ele>413.62110075821</ele>
        <time>2015-04-26T11:29:36Z</time>
      </trkpt>
      <trkpt lat="45.70272" lon="5.61849">
        <ele>413.62110075821</ele>
        <time>2015-04-26T11:29:41Z</time>
      </trkpt>
      <trkpt lat="45.70272" lon="5.61846">
        <ele>413.62110075821</ele>
        <time>2015-04-26T11:29:46Z</time>
      </trkpt>
      <trkpt lat="45.70271" lon="5.61841">
        <ele>413.64909111832</ele>
        <time>2015-04-26T11:29:51Z</time>
      </trkpt>
      <trkpt lat="45.70269" lon="5.61832">
        <ele>413.64909111832</ele>
        <time>2015-04-26T11:29:56Z</time>
      </trkpt>
      <trkpt lat="45.70267" lon="5.61825">
        <ele>412.69361669733</ele>
        <time>2015-04-26T11:30:01Z</time>
      </trkpt>
      <trkpt lat="45.70267" lon="5.61817">
        <ele>412.69361669733</ele>
        <time>2015-04-26T11:30:06Z</time>
      </trkpt>
      <trkpt lat="45.70269" lon="5.61808">
        <ele>411.82681313262</ele>
        <time>2015-04-26T11:30:11Z</time>
      </trkpt>
      <trkpt lat="45.70269" lon="5.61799">
        <ele>411.82681313262</ele>
        <time>2015-04-26T11:30:16Z</time>
      </trkpt>
      <trkpt lat="45.70271" lon="5.6179">
        <ele>410.8744961594</ele>
        <time>2015-04-26T11:30:21Z</time>
      </trkpt>
      <trkpt lat="45.70273" lon="5.6178">
        <ele>410.8744961594</ele>
        <time>2015-04-26T11:30:26Z</time>
      </trkpt>
      <trkpt lat="45.70277" lon="5.61771">
        <ele>408.66671005985</ele>
        <time>2015-04-26T11:30:31Z</time>
      </trkpt>
      <trkpt lat="45.7028" lon="5.61762">
        <ele>408.66671005985</ele>
        <time>2015-04-26T11:30:36Z</time>
      </trkpt>
      <trkpt lat="45.7028" lon="5.61757">
        <ele>406.52957520693</ele>
        <time>2015-04-26T11:30:41Z</time>
      </trkpt>
      <trkpt lat="45.70283" lon="5.6175">
        <ele>406.52957520693</ele>
        <time>2015-04-26T11:30:46Z</time>
      </trkpt>
      <trkpt lat="45.70286" lon="5.61738">
        <ele>405.14391102974</ele>
        <time>2015-04-26T11:30:51Z</time>
      </trkpt>
      <trkpt lat="45.70292" lon="5.61736">
        <ele>405.14391102974</ele>
        <time>2015-04-26T11:30:56Z</time>
      </trkpt>
      <trkpt lat="45.70289" lon="5.61736">
        <ele>405.14391102974</ele>
        <time>2015-04-26T11:31:01Z</time>
      </trkpt>
      <trkpt lat="45.7029" lon="5.6173">
        <ele>404.05750114385</ele>
        <time>2015-04-26T11:31:06Z</time>
      </trkpt>
      <trkpt lat="45.70292" lon="5.61726">
        <ele>404.05750114385</ele>
        <time>2015-04-26T11:31:11Z</time>
      </trkpt>
      <trkpt lat="45.70297" lon="5.61716">
        <ele>403.21069102761</ele>
        <time>2015-04-26T11:31:16Z</time>
      </trkpt>
      <trkpt lat="45.70302" lon="5.61704">
        <ele>401.36571600134</ele>
        <time>2015-04-26T11:31:21Z</time>
      </trkpt>
      <trkpt lat="45.70305" lon="5.61695">
        <ele>401.36571600134</ele>
        <time>2015-04-26T11:31:26Z</time>
      </trkpt>
      <trkpt lat="45.70308" lon="5.61688">
        <ele>399.81389712188</ele>
        <time>2015-04-26T11:31:31Z</time>
      </trkpt>
      <trkpt lat="45.70311" lon="5.61679">
        <ele>399.81389712188</ele>
        <time>2015-04-26T11:31:36Z</time>
      </trkpt>
      <trkpt lat="45.70313" lon="5.61675">
        <ele>397.51702078707</ele>
        <time>2015-04-26T11:31:41Z</time>
      </trkpt>
      <trkpt lat="45.70315" lon="5.61661">
        <ele>395.07148914913</ele>
        <time>2015-04-26T11:31:46Z</time>
      </trkpt>
      <trkpt lat="45.70323" lon="5.61647">
        <ele>392.6986997958</ele>
        <time>2015-04-26T11:31:51Z</time>
      </trkpt>
      <trkpt lat="45.70336" lon="5.61629">
        <ele>391.32397265625</ele>
        <time>2015-04-26T11:31:56Z</time>
      </trkpt>
      <trkpt lat="45.70355" lon="5.61608">
        <ele>390.28851238527</ele>
        <time>2015-04-26T11:32:01Z</time>
      </trkpt>
      <trkpt lat="45.70365" lon="5.61593">
        <ele>389.55723174863</ele>
        <time>2015-04-26T11:32:06Z</time>
      </trkpt>
      <trkpt lat="45.70372" lon="5.61585">
        <ele>389.55723174863</ele>
        <time>2015-04-26T11:32:11Z</time>
      </trkpt>
      <trkpt lat="45.7038" lon="5.61576">
        <ele>388.69307594254</ele>
        <time>2015-04-26T11:32:16Z</time>
      </trkpt>
      <trkpt lat="45.70386" lon="5.6157">
        <ele>388.69307594254</ele>
        <time>2015-04-26T11:32:21Z</time>
      </trkpt>
      <trkpt lat="45.70391" lon="5.61564">
        <ele>388.76122589934</ele>
        <time>2015-04-26T11:32:26Z</time>
      </trkpt>
      <trkpt lat="45.70394" lon="5.61555">
        <ele>388.76122589934</ele>
        <time>2015-04-26T11:32:31Z</time>
      </trkpt>
      <trkpt lat="45.70395" lon="5.61547">
        <ele>384.95255331752</ele>
        <time>2015-04-26T11:32:36Z</time>
      </trkpt>
      <trkpt lat="45.70398" lon="5.61537">
        <ele>384.95255331752</ele>
        <time>2015-04-26T11:32:41Z</time>
      </trkpt>
      <trkpt lat="45.70402" lon="5.61532">
        <ele>381.78561633156</ele>
        <time>2015-04-26T11:32:46Z</time>
      </trkpt>
      <trkpt lat="45.70408" lon="5.61526">
        <ele>381.78561633156</ele>
        <time>2015-04-26T11:32:51Z</time>
      </trkpt>
      <trkpt lat="45.70412" lon="5.61518">
        <ele>380.04403481232</ele>
        <time>2015-04-26T11:32:56Z</time>
      </trkpt>
      <trkpt lat="45.70416" lon="5.61513">
        <ele>380.04403481232</ele>
        <time>2015-04-26T11:33:01Z</time>
      </trkpt>
      <trkpt lat="45.70421" lon="5.61507">
        <ele>380.1470450363</ele>
        <time>2015-04-26T11:33:06Z</time>
      </trkpt>
      <trkpt lat="45.70427" lon="5.61503">
        <ele>380.1470450363</ele>
        <time>2015-04-26T11:33:11Z</time>
      </trkpt>
      <trkpt lat="45.7043" lon="5.615">
        <ele>380.71956780177</ele>
        <time>2015-04-26T11:33:16Z</time>
      </trkpt>
      <trkpt lat="45.70432" lon="5.61498">
        <ele>380.71956780177</ele>
        <time>2015-04-26T11:33:21Z</time>
      </trkpt>
      <trkpt lat="45.70436" lon="5.61493">
        <ele>380.71956780177</ele>
        <time>2015-04-26T11:33:26Z</time>
      </trkpt>
      <trkpt lat="45.70441" lon="5.61484">
        <ele>382.05685288105</ele>
        <time>2015-04-26T11:33:31Z</time>
      </trkpt>
      <trkpt lat="45.70444" lon="5.61482">
        <ele>382.05685288105</ele>
        <time>2015-04-26T11:33:36Z</time>
      </trkpt>
      <trkpt lat="45.70448" lon="5.61476">
        <ele>382.05685288105</ele>
        <time>2015-04-26T11:33:41Z</time>
      </trkpt>
      <trkpt lat="45.70452" lon="5.61467">
        <ele>384.08428911031</ele>
        <time>2015-04-26T11:33:46Z</time>
      </trkpt>
      <trkpt lat="45.70455" lon="5.6146">
        <ele>384.08428911031</ele>
        <time>2015-04-26T11:33:51Z</time>
      </trkpt>
      <trkpt lat="45.70456" lon="5.61459">
        <ele>384.08428911031</ele>
        <time>2015-04-26T11:33:56Z</time>
      </trkpt>
      <trkpt lat="45.70458" lon="5.61459">
        <ele>385.90923954581</ele>
        <time>2015-04-26T11:34:01Z</time>
      </trkpt>
      <trkpt lat="45.7046" lon="5.61459">
        <ele>385.90923954581</ele>
        <time>2015-04-26T11:34:06Z</time>
      </trkpt>
      <trkpt lat="45.7046" lon="5.61459">
        <ele>385.90923954581</ele>
        <time>2015-04-26T11:34:11Z</time>
      </trkpt>
      <trkpt lat="45.70462" lon="5.61457">
        <ele>385.90923954581</ele>
        <time>2015-04-26T11:34:16Z</time>
      </trkpt>
      <trkpt lat="45.7047" lon="5.61454">
        <ele>388.0165079306</ele>
        <time>2015-04-26T11:34:21Z</time>
      </trkpt>
      <trkpt lat="45.70477" lon="5.61448">
        <ele>388.0165079306</ele>
        <time>2015-04-26T11:34:26Z</time>
      </trkpt>
      <trkpt lat="45.70482" lon="5.61436">
        <ele>389.31241636326</ele>
        <time>2015-04-26T11:34:31Z</time>
      </trkpt>
      <trkpt lat="45.7049" lon="5.61428">
        <ele>391.94187723417</ele>
        <time>2015-04-26T11:34:36Z</time>
      </trkpt>
      <trkpt lat="45.70497" lon="5.61424">
        <ele>391.94187723417</ele>
        <time>2015-04-26T11:34:41Z</time>
      </trkpt>
      <trkpt lat="45.70502" lon="5.61426">
        <ele>394.81889334662</ele>
        <time>2015-04-26T11:34:46Z</time>
      </trkpt>
      <trkpt lat="45.70507" lon="5.61425">
        <ele>394.81889334662</ele>
        <time>2015-04-26T11:34:51Z</time>
      </trkpt>
      <trkpt lat="45.70509" lon="5.61423">
        <ele>394.81889334662</ele>
        <time>2015-04-26T11:34:56Z</time>
      </trkpt>
      <trkpt lat="45.70511" lon="5.61423">
        <ele>394.81889334662</ele>
        <time>2015-04-26T11:35:01Z</time>
      </trkpt>
      <trkpt lat="45.70517" lon="5.61417">
        <ele>399.15585217266</ele>
        <time>2015-04-26T11:35:06Z</time>
      </trkpt>
      <trkpt lat="45.70521" lon="5.61413">
        <ele>399.15585217266</ele>
        <time>2015-04-26T11:35:11Z</time>
      </trkpt>
      <trkpt lat="45.70525" lon="5.61404">
        <ele>401.7342547917</ele>
        <time>2015-04-26T11:35:16Z</time>
      </trkpt>
      <trkpt lat="45.7053" lon="5.61391">
        <ele>404.14533185292</ele>
        <time>2015-04-26T11:35:21Z</time>
      </trkpt>
      <trkpt lat="45.70536" lon="5.61381">
        <ele>404.14533185292</ele>
        <time>2015-04-26T11:35:26Z</time>
      </trkpt>
      <trkpt lat="45.70541" lon="5.61377">
        <ele>405.84640221201</ele>
        <time>2015-04-26T11:35:31Z</time>
      </trkpt>
      <trkpt lat="45.70544" lon="5.61376">
        <ele>405.84640221201</ele>
        <time>2015-04-26T11:35:36Z</time>
      </trkpt>
      <trkpt lat="45.70544" lon="5.61375">
        <ele>405.84640221201</ele>
        <time>2015-04-26T11:35:41Z</time>
      </trkpt>
      <trkpt lat="45.70544" lon="5.61373">
        <ele>405.84640221201</ele>
        <time>2015-04-26T11:35:46Z</time>
      </trkpt>
      <trkpt lat="45.70544" lon="5.61374">
        <ele>405.84640221201</ele>
        <time>2015-04-26T11:35:51Z</time>
      </trkpt>
      <trkpt lat="45.70544" lon="5.61374">
        <ele>405.84640221201</ele>
        <time>2015-04-26T11:35:56Z</time>
      </trkpt>
      <trkpt lat="45.70544" lon="5.61374">
        <ele>405.84640221201</ele>
        <time>2015-04-26T11:36:01Z</time>
      </trkpt>
      <trkpt lat="45.70544" lon="5.61374">
        <ele>405.84640221201</ele>
        <time>2015-04-26T11:36:06Z</time>
      </trkpt>
      <trkpt lat="45.70544" lon="5.61374">
        <ele>405.84640221201</ele>
        <time>2015-04-26T11:36:11Z</time>
      </trkpt>
      <trkpt lat="45.70544" lon="5.61374">
        <ele>405.84640221201</ele>
        <time>2015-04-26T11:36:16Z</time>
      </trkpt>
      <trkpt lat="45.70548" lon="5.61373">
        <ele>407.12933621049</ele>
        <time>2015-04-26T11:36:21Z</time>
      </trkpt>
      <trkpt lat="45.70553" lon="5.61371">
        <ele>407.12933621049</ele>
        <time>2015-04-26T11:36:26Z</time>
      </trkpt>
      <trkpt lat="45.70555" lon="5.61369">
        <ele>407.12933621049</ele>
        <time>2015-04-26T11:36:31Z</time>
      </trkpt>
      <trkpt lat="45.70557" lon="5.61367">
        <ele>408.25141935442</ele>
        <time>2015-04-26T11:36:36Z</time>
      </trkpt>
      <trkpt lat="45.70564" lon="5.61361">
        <ele>408.25141935442</ele>
        <time>2015-04-26T11:36:41Z</time>
      </trkpt>
      <trkpt lat="45.70572" lon="5.61358">
        <ele>409.43717808475</ele>
        <time>2015-04-26T11:36:46Z</time>
      </trkpt>
      <trkpt lat="45.70575" lon="5.61357">
        <ele>409.43717808475</ele>
        <time>2015-04-26T11:36:51Z</time>
      </trkpt>
      <trkpt lat="45.70577" lon="5.61354">
        <ele>409.43717808475</ele>
        <time>2015-04-26T11:36:56Z</time>
      </trkpt>
      <trkpt lat="45.70582" lon="5.61341">
        <ele>409.82814755056</ele>
        <time>2015-04-26T11:37:01Z</time>
      </trkpt>
      <trkpt lat="45.70589" lon="5.61334">
        <ele>409.82814755056</ele>
        <time>2015-04-26T11:37:06Z</time>
      </trkpt>
      <trkpt lat="45.70595" lon="5.61328">
        <ele>409.53915790628</ele>
        <time>2015-04-26T11:37:11Z</time>
      </trkpt>
      <trkpt lat="45.70599" lon="5.61326">
        <ele>409.53915790628</ele>
        <time>2015-04-26T11:37:16Z</time>
      </trkpt>
      <trkpt lat="45.70605" lon="5.61323">
        <ele>409.13976597143</ele>
        <time>2015-04-26T11:37:21Z</time>
      </trkpt>
      <trkpt lat="45.7061" lon="5.61318">
        <ele>409.13976597143</ele>
        <time>2015-04-26T11:37:26Z</time>
      </trkpt>
      <trkpt lat="45.70617" lon="5.61312">
        <ele>407.81785535858</ele>
        <time>2015-04-26T11:37:31Z</time>
      </trkpt>
      <trkpt lat="45.70624" lon="5.61308">
        <ele>407.81785535858</ele>
        <time>2015-04-26T11:37:36Z</time>
      </trkpt>
      <trkpt lat="45.70629" lon="5.61308">
        <ele>406.00534407977</ele>
        <time>2015-04-26T11:37:41Z</time>
      </trkpt>
      <trkpt lat="45.7063" lon="5.61308">
        <ele>406.00534407977</ele>
        <time>2015-04-26T11:37:46Z</time>
      </trkpt>
      <trkpt lat="45.70631" lon="5.61309">
        <ele>406.00534407977</ele>
        <time>2015-04-26T11:37:51Z</time>
      </trkpt>
      <trkpt lat="45.70637" lon="5.61309">
        <ele>406.00534407977</ele>
        <time>2015-04-26T11:37:56Z</time>
      </trkpt>
      <trkpt lat="45.70642" lon="5.61306">
        <ele>404.63707149391</ele>
        <time>2015-04-26T11:38:01Z</time>
      </trkpt>
      <trkpt lat="45.70659" lon="5.6129">
        <ele>401.63813300361</ele>
        <time>2015-04-26T11:38:06Z</time>
      </trkpt>
      <trkpt lat="45.70681" lon="5.61272">
        <ele>399.54367767102</ele>
        <time>2015-04-26T11:38:11Z</time>
      </trkpt>
      <trkpt lat="45.707" lon="5.6126">
        <ele>396.00206251942</ele>
        <time>2015-04-26T11:38:16Z</time>
      </trkpt>
      <trkpt lat="45.70722" lon="5.61247">
        <ele>393.06088877746</ele>
        <time>2015-04-26T11:38:21Z</time>
      </trkpt>
      <trkpt lat="45.7074" lon="5.61235">
        <ele>390.29542155171</ele>
        <time>2015-04-26T11:38:26Z</time>
      </trkpt>
      <trkpt lat="45.70752" lon="5.61229">
        <ele>388.24828969013</ele>
        <time>2015-04-26T11:38:31Z</time>
      </trkpt>
      <trkpt lat="45.70761" lon="5.61226">
        <ele>386.59872798257</ele>
        <time>2015-04-26T11:38:36Z</time>
      </trkpt>
      <trkpt lat="45.70768" lon="5.61219">
        <ele>386.59872798257</ele>
        <time>2015-04-26T11:38:41Z</time>
      </trkpt>
      <trkpt lat="45.70777" lon="5.61214">
        <ele>385.17802291186</ele>
        <time>2015-04-26T11:38:46Z</time>
      </trkpt>
      <trkpt lat="45.70784" lon="5.61207">
        <ele>385.17802291186</ele>
        <time>2015-04-26T11:38:51Z</time>
      </trkpt>
      <trkpt lat="45.70791" lon="5.61201">
        <ele>384.31908701898</ele>
        <time>2015-04-26T11:38:56Z</time>
      </trkpt>
      <trkpt lat="45.70798" lon="5.6119">
        <ele>384.18458459849</ele>
        <time>2015-04-26T11:39:01Z</time>
      </trkpt>
      <trkpt lat="45.70806" lon="5.61183">
        <ele>384.18458459849</ele>
        <time>2015-04-26T11:39:06Z</time>
      </trkpt>
      <trkpt lat="45.70811" lon="5.61179">
        <ele>384.4475282262</ele>
        <time>2015-04-26T11:39:11Z</time>
      </trkpt>
      <trkpt lat="45.70817" lon="5.61177">
        <ele>384.4475282262</ele>
        <time>2015-04-26T11:39:16Z</time>
      </trkpt>
      <trkpt lat="45.70821" lon="5.61179">
        <ele>384.32817071361</ele>
        <time>2015-04-26T11:39:21Z</time>
      </trkpt>
      <trkpt lat="45.70824" lon="5.61178">
        <ele>384.32817071361</ele>
        <time>2015-04-26T11:39:26Z</time>
      </trkpt>
      <trkpt lat="45.70826" lon="5.61179">
        <ele>384.32817071361</ele>
        <time>2015-04-26T11:39:31Z</time>
      </trkpt>
      <trkpt lat="45.7083" lon="5.6118">
        <ele>384.60378321171</ele>
        <time>2015-04-26T11:39:36Z</time>
      </trkpt>
      <trkpt lat="45.70833" lon="5.61183">
        <ele>384.60378321171</ele>
        <time>2015-04-26T11:39:41Z</time>
      </trkpt>
      <trkpt lat="45.70836" lon="5.61186">
        <ele>384.60378321171</ele>
        <time>2015-04-26T11:39:46Z</time>
      </trkpt>
      <trkpt lat="45.70844" lon="5.61185">
        <ele>384.23519300084</ele>
        <time>2015-04-26T11:39:51Z</time>
      </trkpt>
      <trkpt lat="45.70853" lon="5.61185">
        <ele>383.2124299905</ele>
        <time>2015-04-26T11:39:56Z</time>
      </trkpt>
      <trkpt lat="45.70861" lon="5.61185">
        <ele>383.2124299905</ele>
        <time>2015-04-26T11:40:01Z</time>
      </trkpt>
      <trkpt lat="45.70869" lon="5.61186">
        <ele>381.7585977691</ele>
        <time>2015-04-26T11:40:06Z</time>
      </trkpt>
      <trkpt lat="45.70873" lon="5.6119">
        <ele>381.7585977691</ele>
        <time>2015-04-26T11:40:11Z</time>
      </trkpt>
      <trkpt lat="45.70882" lon="5.61193">
        <ele>380.87416162577</ele>
        <time>2015-04-26T11:40:16Z</time>
      </trkpt>
      <trkpt lat="45.70886" lon="5.61193">
        <ele>380.87416162577</ele>
        <time>2015-04-26T11:40:21Z</time>
      </trkpt>
      <trkpt lat="45.70888" lon="5.61195">
        <ele>380.87416162577</ele>
        <time>2015-04-26T11:40:26Z</time>
      </trkpt>
      <trkpt lat="45.70893" lon="5.61197">
        <ele>380.23065884263</ele>
        <time>2015-04-26T11:40:31Z</time>
      </trkpt>
      <trkpt lat="45.70897" lon="5.61197">
        <ele>380.23065884263</ele>
        <time>2015-04-26T11:40:36Z</time>
      </trkpt>
      <trkpt lat="45.70901" lon="5.61198">
        <ele>380.23065884263</ele>
        <time>2015-04-26T11:40:41Z</time>
      </trkpt>
      <trkpt lat="45.70909" lon="5.61201">
        <ele>380.50296702276</ele>
        <time>2015-04-26T11:40:46Z</time>
      </trkpt>
      <trkpt lat="45.70917" lon="5.61203">
        <ele>380.50296702276</ele>
        <time>2015-04-26T11:40:51Z</time>
      </trkpt>
      <trkpt lat="45.70922" lon="5.61201">
        <ele>379.86386262675</ele>
        <time>2015-04-26T11:40:56Z</time>
      </trkpt>
      <trkpt lat="45.70925" lon="5.612">
        <ele>379.86386262675</ele>
        <time>2015-04-26T11:41:01Z</time>
      </trkpt>
      <trkpt lat="45.70925" lon="5.61201">
        <ele>379.86386262675</ele>
        <time>2015-04-26T11:41:06Z</time>
      </trkpt>
      <trkpt lat="45.70925" lon="5.61201">
        <ele>379.86386262675</ele>
        <time>2015-04-26T11:41:11Z</time>
      </trkpt>
      <trkpt lat="45.70929" lon="5.61206">
        <ele>379.86386262675</ele>
        <time>2015-04-26T11:41:16Z</time>
      </trkpt>
      <trkpt lat="45.70941" lon="5.61213">
        <ele>379.59153450995</ele>
        <time>2015-04-26T11:41:21Z</time>
      </trkpt>
      <trkpt lat="45.70953" lon="5.61216">
        <ele>378.72193448508</ele>
        <time>2015-04-26T11:41:26Z</time>
      </trkpt>
      <trkpt lat="45.70961" lon="5.61223">
        <ele>378.56835730357</ele>
        <time>2015-04-26T11:41:31Z</time>
      </trkpt>
      <trkpt lat="45.70969" lon="5.61238">
        <ele>378.86122302286</ele>
        <time>2015-04-26T11:41:36Z</time>
      </trkpt>
      <trkpt lat="45.70976" lon="5.61248">
        <ele>379.72415118931</ele>
        <time>2015-04-26T11:41:41Z</time>
      </trkpt>
      <trkpt lat="45.70984" lon="5.61258">
        <ele>380.52067137027</ele>
        <time>2015-04-26T11:41:46Z</time>
      </trkpt>
      <trkpt lat="45.70993" lon="5.61271">
        <ele>381.8285348161</ele>
        <time>2015-04-26T11:41:51Z</time>
      </trkpt>
      <trkpt lat="45.71" lon="5.61281">
        <ele>383.05754334388</ele>
        <time>2015-04-26T11:41:56Z</time>
      </trkpt>
      <trkpt lat="45.71005" lon="5.6129">
        <ele>383.05754334388</ele>
        <time>2015-04-26T11:42:01Z</time>
      </trkpt>
      <trkpt lat="45.71009" lon="5.61302">
        <ele>383.67549285531</ele>
        <time>2015-04-26T11:42:06Z</time>
      </trkpt>
      <trkpt lat="45.71013" lon="5.61314">
        <ele>384.11331785114</ele>
        <time>2015-04-26T11:42:11Z</time>
      </trkpt>
      <trkpt lat="45.71018" lon="5.61329">
        <ele>385.37609731002</ele>
        <time>2015-04-26T11:42:16Z</time>
      </trkpt>
      <trkpt lat="45.71024" lon="5.61344">
        <ele>387.23991307275</ele>
        <time>2015-04-26T11:42:21Z</time>
      </trkpt>
      <trkpt lat="45.71027" lon="5.61356">
        <ele>387.23991307275</ele>
        <time>2015-04-26T11:42:26Z</time>
      </trkpt>
      <trkpt lat="45.71029" lon="5.6136">
        <ele>388.24189096347</ele>
        <time>2015-04-26T11:42:31Z</time>
      </trkpt>
      <trkpt lat="45.71028" lon="5.61365">
        <ele>388.24189096347</ele>
        <time>2015-04-26T11:42:36Z</time>
      </trkpt>
      <trkpt lat="45.71028" lon="5.61374">
        <ele>389.83926348764</ele>
        <time>2015-04-26T11:42:41Z</time>
      </trkpt>
      <trkpt lat="45.71029" lon="5.6138">
        <ele>389.83926348764</ele>
        <time>2015-04-26T11:42:46Z</time>
      </trkpt>
      <trkpt lat="45.71032" lon="5.61388">
        <ele>392.11243905962</ele>
        <time>2015-04-26T11:42:51Z</time>
      </trkpt>
      <trkpt lat="45.71034" lon="5.61396">
        <ele>392.11243905962</ele>
        <time>2015-04-26T11:42:56Z</time>
      </trkpt>
      <trkpt lat="45.71035" lon="5.61402">
        <ele>393.01567144169</ele>
        <time>2015-04-26T11:43:01Z</time>
      </trkpt>
      <trkpt lat="45.71037" lon="5.61406">
        <ele>393.01567144169</ele>
        <time>2015-04-26T11:43:06Z</time>
      </trkpt>
      <trkpt lat="45.71038" lon="5.61407">
        <ele>393.01567144169</ele>
        <time>2015-04-26T11:43:11Z</time>
      </trkpt>
      <trkpt lat="45.71038" lon="5.61408">
        <ele>393.01567144169</ele>
        <time>2015-04-26T11:43:16Z</time>
      </trkpt>
      <trkpt lat="45.71039" lon="5.61408">
        <ele>393.01567144169</ele>
        <time>2015-04-26T11:43:21Z</time>
      </trkpt>
      <trkpt lat="45.71039" lon="5.61408">
        <ele>393.01567144169</ele>
        <time>2015-04-26T11:43:26Z</time>
      </trkpt>
      <trkpt lat="45.71039" lon="5.61408">
        <ele>393.01567144169</ele>
        <time>2015-04-26T11:43:31Z</time>
      </trkpt>
      <trkpt lat="45.7104" lon="5.61412">
        <ele>393.25142746562</ele>
        <time>2015-04-26T11:43:36Z</time>
      </trkpt>
      <trkpt lat="45.71038" lon="5.61418">
        <ele>393.25142746562</ele>
        <time>2015-04-26T11:43:41Z</time>
      </trkpt>
      <trkpt lat="45.71039" lon="5.61425">
        <ele>393.27078245938</ele>
        <time>2015-04-26T11:43:46Z</time>
      </trkpt>
      <trkpt lat="45.71042" lon="5.61424">
        <ele>393.27078245938</ele>
        <time>2015-04-26T11:43:51Z</time>
      </trkpt>
      <trkpt lat="45.71042" lon="5.61426">
        <ele>393.27078245938</ele>
        <time>2015-04-26T11:43:56Z</time>
      </trkpt>
      <trkpt lat="45.71042" lon="5.61427">
        <ele>393.27078245938</ele>
        <time>2015-04-26T11:44:01Z</time>
      </trkpt>
      <trkpt lat="45.71042" lon="5.61427">
        <ele>393.27078245938</ele>
        <time>2015-04-26T11:44:06Z</time>
      </trkpt>
      <trkpt lat="45.71043" lon="5.61428">
        <ele>393.27078245938</ele>
        <time>2015-04-26T11:44:11Z</time>
      </trkpt>
      <trkpt lat="45.71047" lon="5.61434">
        <ele>394.08323538668</ele>
        <time>2015-04-26T11:44:16Z</time>
      </trkpt>
      <trkpt lat="45.71049" lon="5.61437">
        <ele>394.08323538668</ele>
        <time>2015-04-26T11:44:21Z</time>
      </trkpt>
      <trkpt lat="45.71047" lon="5.61444">
        <ele>394.08323538668</ele>
        <time>2015-04-26T11:44:26Z</time>
      </trkpt>
      <trkpt lat="45.71045" lon="5.61453">
        <ele>394.24416329957</ele>
        <time>2015-04-26T11:44:31Z</time>
      </trkpt>
      <trkpt lat="45.71045" lon="5.61462">
        <ele>394.24416329957</ele>
        <time>2015-04-26T11:44:36Z</time>
      </trkpt>
      <trkpt lat="45.71047" lon="5.61469">
        <ele>394.39130668076</ele>
        <time>2015-04-26T11:44:41Z</time>
      </trkpt>
      <trkpt lat="45.71052" lon="5.61473">
        <ele>394.39130668076</ele>
        <time>2015-04-26T11:44:46Z</time>
      </trkpt>
      <trkpt lat="45.71049" lon="5.61481">
        <ele>394.22219547081</ele>
        <time>2015-04-26T11:44:51Z</time>
      </trkpt>
      <trkpt lat="45.71049" lon="5.61487">
        <ele>394.22219547081</ele>
        <time>2015-04-26T11:44:56Z</time>
      </trkpt>
      <trkpt lat="45.71053" lon="5.61489">
        <ele>394.22219547081</ele>
        <time>2015-04-26T11:45:01Z</time>
      </trkpt>
      <trkpt lat="45.71053" lon="5.6149">
        <ele>393.67371603404</ele>
        <time>2015-04-26T11:45:06Z</time>
      </trkpt>
      <trkpt lat="45.71054" lon="5.61491">
        <ele>393.67371603404</ele>
        <time>2015-04-26T11:45:11Z</time>
      </trkpt>
      <trkpt lat="45.71054" lon="5.61491">
        <ele>393.67371603404</ele>
        <time>2015-04-26T11:45:16Z</time>
      </trkpt>
      <trkpt lat="45.71054" lon="5.61491">
        <ele>393.67371603404</ele>
        <time>2015-04-26T11:45:21Z</time>
      </trkpt>
      <trkpt lat="45.71054" lon="5.61493">
        <ele>393.67371603404</ele>
        <time>2015-04-26T11:45:26Z</time>
      </trkpt>
      <trkpt lat="45.71053" lon="5.61504">
        <ele>393.38026571972</ele>
        <time>2015-04-26T11:45:31Z</time>
      </trkpt>
      <trkpt lat="45.71054" lon="5.61514">
        <ele>393.38026571972</ele>
        <time>2015-04-26T11:45:36Z</time>
      </trkpt>
      <trkpt lat="45.71056" lon="5.61524">
        <ele>393.06432661231</ele>
        <time>2015-04-26T11:45:41Z</time>
      </trkpt>
      <trkpt lat="45.71055" lon="5.61533">
        <ele>393.06432661231</ele>
        <time>2015-04-26T11:45:46Z</time>
      </trkpt>
      <trkpt lat="45.71055" lon="5.6154">
        <ele>391.77715693823</ele>
        <time>2015-04-26T11:45:51Z</time>
      </trkpt>
      <trkpt lat="45.71053" lon="5.61548">
        <ele>391.77715693823</ele>
        <time>2015-04-26T11:45:56Z</time>
      </trkpt>
      <trkpt lat="45.71057" lon="5.61554">
        <ele>390.0691835887</ele>
        <time>2015-04-26T11:46:01Z</time>
      </trkpt>
      <trkpt lat="45.71066" lon="5.61562">
        <ele>388.33632801614</ele>
        <time>2015-04-26T11:46:06Z</time>
      </trkpt>
      <trkpt lat="45.71072" lon="5.61566">
        <ele>388.33632801614</ele>
        <time>2015-04-26T11:46:11Z</time>
      </trkpt>
      <trkpt lat="45.71075" lon="5.61573">
        <ele>385.97997397911</ele>
        <time>2015-04-26T11:46:16Z</time>
      </trkpt>
      <trkpt lat="45.71077" lon="5.61581">
        <ele>385.97997397911</ele>
        <time>2015-04-26T11:46:21Z</time>
      </trkpt>
      <trkpt lat="45.71079" lon="5.61587">
        <ele>383.78746644292</ele>
        <time>2015-04-26T11:46:26Z</time>
      </trkpt>
      <trkpt lat="45.71083" lon="5.61591">
        <ele>383.78746644292</ele>
        <time>2015-04-26T11:46:31Z</time>
      </trkpt>
      <trkpt lat="45.71089" lon="5.61587">
        <ele>382.01227337919</ele>
        <time>2015-04-26T11:46:36Z</time>
      </trkpt>
      <trkpt lat="45.71088" lon="5.61592">
        <ele>382.01227337919</ele>
        <time>2015-04-26T11:46:41Z</time>
      </trkpt>
      <trkpt lat="45.71087" lon="5.61598">
        <ele>382.01227337919</ele>
        <time>2015-04-26T11:46:46Z</time>
      </trkpt>
      <trkpt lat="45.71091" lon="5.61602">
        <ele>380.85922277439</ele>
        <time>2015-04-26T11:46:51Z</time>
      </trkpt>
      <trkpt lat="45.71098" lon="5.61605">
        <ele>380.85922277439</ele>
        <time>2015-04-26T11:46:56Z</time>
      </trkpt>
      <trkpt lat="45.71098" lon="5.61612">
        <ele>378.65727499596</ele>
        <time>2015-04-26T11:47:01Z</time>
      </trkpt>
      <trkpt lat="45.71099" lon="5.61618">
        <ele>378.65727499596</ele>
        <time>2015-04-26T11:47:06Z</time>
      </trkpt>
      <trkpt lat="45.71098" lon="5.6162">
        <ele>378.65727499596</ele>
        <time>2015-04-26T11:47:11Z</time>
      </trkpt>
      <trkpt lat="45.711" lon="5.61622">
        <ele>378.65727499596</ele>
        <time>2015-04-26T11:47:16Z</time>
      </trkpt>
      <trkpt lat="45.71102" lon="5.61624">
        <ele>377.1179461085</ele>
        <time>2015-04-26T11:47:21Z</time>
      </trkpt>
      <trkpt lat="45.71101" lon="5.61626">
        <ele>377.1179461085</ele>
        <time>2015-04-26T11:47:26Z</time>
      </trkpt>
      <trkpt lat="45.71101" lon="5.61627">
        <ele>377.1179461085</ele>
        <time>2015-04-26T11:47:31Z</time>
      </trkpt>
      <trkpt lat="45.711" lon="5.61628">
        <ele>377.1179461085</ele>
        <time>2015-04-26T11:47:36Z</time>
      </trkpt>
      <trkpt lat="45.711" lon="5.61628">
        <ele>377.1179461085</ele>
        <time>2015-04-26T11:47:41Z</time>
      </trkpt>
      <trkpt lat="45.71099" lon="5.61633">
        <ele>377.1179461085</ele>
        <time>2015-04-26T11:47:46Z</time>
      </trkpt>
      <trkpt lat="45.711" lon="5.61634">
        <ele>377.1179461085</ele>
        <time>2015-04-26T11:47:51Z</time>
      </trkpt>
      <trkpt lat="45.71099" lon="5.61633">
        <ele>377.1179461085</ele>
        <time>2015-04-26T11:47:56Z</time>
      </trkpt>
      <trkpt lat="45.71099" lon="5.61633">
        <ele>376.68662791016</ele>
        <time>2015-04-26T11:48:01Z</time>
      </trkpt>
      <trkpt lat="45.711" lon="5.61633">
        <ele>376.68662791016</ele>
        <time>2015-04-26T11:48:06Z</time>
      </trkpt>
      <trkpt lat="45.711" lon="5.61633">
        <ele>376.68662791016</ele>
        <time>2015-04-26T11:48:11Z</time>
      </trkpt>
      <trkpt lat="45.711" lon="5.61633">
        <ele>376.68662791016</ele>
        <time>2015-04-26T11:48:16Z</time>
      </trkpt>
      <trkpt lat="45.711" lon="5.61633">
        <ele>376.68662791016</ele>
        <time>2015-04-26T11:48:21Z</time>
      </trkpt>
      <trkpt lat="45.71105" lon="5.61634">
        <ele>376.68662791016</ele>
        <time>2015-04-26T11:48:26Z</time>
      </trkpt>
      <trkpt lat="45.71106" lon="5.61633">
        <ele>376.68662791016</ele>
        <time>2015-04-26T11:48:31Z</time>
      </trkpt>
      <trkpt lat="45.71108" lon="5.61631">
        <ele>376.68662791016</ele>
        <time>2015-04-26T11:48:36Z</time>
      </trkpt>
      <trkpt lat="45.71109" lon="5.61631">
        <ele>376.54787586573</ele>
        <time>2015-04-26T11:48:41Z</time>
      </trkpt>
      <trkpt lat="45.7111" lon="5.61629">
        <ele>376.54787586573</ele>
        <time>2015-04-26T11:48:46Z</time>
      </trkpt>
      <trkpt lat="45.7111" lon="5.61629">
        <ele>376.54787586573</ele>
        <time>2015-04-26T11:48:51Z</time>
      </trkpt>
      <trkpt lat="45.7111" lon="5.61628">
        <ele>376.54787586573</ele>
        <time>2015-04-26T11:48:56Z</time>
      </trkpt>
      <trkpt lat="45.7111" lon="5.61628">
        <ele>376.54787586573</ele>
        <time>2015-04-26T11:49:01Z</time>
      </trkpt>
      <trkpt lat="45.71111" lon="5.61628">
        <ele>376.54787586573</ele>
        <time>2015-04-26T11:49:06Z</time>
      </trkpt>
      <trkpt lat="45.71115" lon="5.61627">
        <ele>376.54787586573</ele>
        <time>2015-04-26T11:49:11Z</time>
      </trkpt>
      <trkpt lat="45.71122" lon="5.61623">
        <ele>372.63069694465</ele>
        <time>2015-04-26T11:49:16Z</time>
      </trkpt>
      <trkpt lat="45.71126" lon="5.61623">
        <ele>372.63069694465</ele>
        <time>2015-04-26T11:49:21Z</time>
      </trkpt>
      <trkpt lat="45.7113" lon="5.61623">
        <ele>372.63069694465</ele>
        <time>2015-04-26T11:49:26Z</time>
      </trkpt>
      <trkpt lat="45.71131" lon="5.61622">
        <ele>369.18625052042</ele>
        <time>2015-04-26T11:49:31Z</time>
      </trkpt>
      <trkpt lat="45.71131" lon="5.61622">
        <ele>369.18625052042</ele>
        <time>2015-04-26T11:49:36Z</time>
      </trkpt>
      <trkpt lat="45.71132" lon="5.61622">
        <ele>369.18625052042</ele>
        <time>2015-04-26T11:49:41Z</time>
      </trkpt>
      <trkpt lat="45.71137" lon="5.61621">
        <ele>369.18625052042</ele>
        <time>2015-04-26T11:49:46Z</time>
      </trkpt>
      <trkpt lat="45.7115" lon="5.61615">
        <ele>364.56047400395</ele>
        <time>2015-04-26T11:49:51Z</time>
      </trkpt>
      <trkpt lat="45.71159" lon="5.61616">
        <ele>360.22152267833</ele>
        <time>2015-04-26T11:49:56Z</time>
      </trkpt>
      <trkpt lat="45.71169" lon="5.6161">
        <ele>355.35267867852</ele>
        <time>2015-04-26T11:50:01Z</time>
      </trkpt>
      <trkpt lat="45.71179" lon="5.6161">
        <ele>351.24492133711</ele>
        <time>2015-04-26T11:50:06Z</time>
      </trkpt>
      <trkpt lat="45.71187" lon="5.6161">
        <ele>351.24492133711</ele>
        <time>2015-04-26T11:50:11Z</time>
      </trkpt>
      <trkpt lat="45.71193" lon="5.6161">
        <ele>347.91036439555</ele>
        <time>2015-04-26T11:50:16Z</time>
      </trkpt>
      <trkpt lat="45.712" lon="5.61606">
        <ele>347.91036439555</ele>
        <time>2015-04-26T11:50:21Z</time>
      </trkpt>
      <trkpt lat="45.71214" lon="5.616">
        <ele>345.1561068802</ele>
        <time>2015-04-26T11:50:26Z</time>
      </trkpt>
      <trkpt lat="45.71225" lon="5.61604">
        <ele>343.27714769943</ele>
        <time>2015-04-26T11:50:31Z</time>
      </trkpt>
      <trkpt lat="45.71231" lon="5.61603">
        <ele>343.27714769943</ele>
        <time>2015-04-26T11:50:36Z</time>
      </trkpt>
      <trkpt lat="45.71233" lon="5.61602">
        <ele>343.27714769943</ele>
        <time>2015-04-26T11:50:41Z</time>
      </trkpt>
      <trkpt lat="45.71236" lon="5.61599">
        <ele>340.75716781279</ele>
        <time>2015-04-26T11:50:46Z</time>
      </trkpt>
      <trkpt lat="45.71246" lon="5.61589">
        <ele>336.98542999811</ele>
        <time>2015-04-26T11:50:51Z</time>
      </trkpt>
      <trkpt lat="45.71256" lon="5.6158">
        <ele>332.99898896808</ele>
        <time>2015-04-26T11:50:56Z</time>
      </trkpt>
      <trkpt lat="45.71262" lon="5.61574">
        <ele>332.99898896808</ele>
        <time>2015-04-26T11:51:01Z</time>
      </trkpt>
      <trkpt lat="45.71264" lon="5.61569">
        <ele>329.52852105115</ele>
        <time>2015-04-26T11:51:06Z</time>
      </trkpt>
      <trkpt lat="45.71271" lon="5.61566">
        <ele>329.52852105115</ele>
        <time>2015-04-26T11:51:11Z</time>
      </trkpt>
      <trkpt lat="45.71275" lon="5.61564">
        <ele>327.20612170071</ele>
        <time>2015-04-26T11:51:16Z</time>
      </trkpt>
      <trkpt lat="45.71279" lon="5.6156">
        <ele>327.20612170071</ele>
        <time>2015-04-26T11:51:21Z</time>
      </trkpt>
      <trkpt lat="45.71285" lon="5.61553">
        <ele>325.1152494045</ele>
        <time>2015-04-26T11:51:26Z</time>
      </trkpt>
      <trkpt lat="45.7129" lon="5.6155">
        <ele>325.1152494045</ele>
        <time>2015-04-26T11:51:31Z</time>
      </trkpt>
      <trkpt lat="45.71296" lon="5.61548">
        <ele>321.69967037197</ele>
        <time>2015-04-26T11:51:36Z</time>
      </trkpt>
      <trkpt lat="45.71308" lon="5.61544">
        <ele>317.86997416261</ele>
        <time>2015-04-26T11:51:41Z</time>
      </trkpt>
      <trkpt lat="45.71321" lon="5.6154">
        <ele>314.61490904135</ele>
        <time>2015-04-26T11:51:46Z</time>
      </trkpt>
      <trkpt lat="45.71333" lon="5.61535">
        <ele>312.25790154548</ele>
        <time>2015-04-26T11:51:51Z</time>
      </trkpt>
      <trkpt lat="45.71354" lon="5.61528">
        <ele>310.37532613353</ele>
        <time>2015-04-26T11:51:56Z</time>
      </trkpt>
      <trkpt lat="45.71361" lon="5.61529">
        <ele>310.37532613353</ele>
        <time>2015-04-26T11:52:01Z</time>
      </trkpt>
      <trkpt lat="45.71365" lon="5.61526">
        <ele>308.6596007806</ele>
        <time>2015-04-26T11:52:06Z</time>
      </trkpt>
      <trkpt lat="45.7137" lon="5.61522">
        <ele>308.6596007806</ele>
        <time>2015-04-26T11:52:11Z</time>
      </trkpt>
      <trkpt lat="45.71374" lon="5.6152">
        <ele>307.11329184033</ele>
        <time>2015-04-26T11:52:16Z</time>
      </trkpt>
      <trkpt lat="45.71385" lon="5.61517">
        <ele>306.18486026</ele>
        <time>2015-04-26T11:52:21Z</time>
      </trkpt>
      <trkpt lat="45.7139" lon="5.61516">
        <ele>306.18486026</ele>
        <time>2015-04-26T11:52:26Z</time>
      </trkpt>
      <trkpt lat="45.71391" lon="5.61515">
        <ele>306.18486026</ele>
        <time>2015-04-26T11:52:31Z</time>
      </trkpt>
      <trkpt lat="45.71392" lon="5.61514">
        <ele>306.18486026</ele>
        <time>2015-04-26T11:52:36Z</time>
      </trkpt>
      <trkpt lat="45.71398" lon="5.61512">
        <ele>304.11183920512</ele>
        <time>2015-04-26T11:52:41Z</time>
      </trkpt>
      <trkpt lat="45.71406" lon="5.6151">
        <ele>304.11183920512</ele>
        <time>2015-04-26T11:52:46Z</time>
      </trkpt>
      <trkpt lat="45.71413" lon="5.61508">
        <ele>302.29061912555</ele>
        <time>2015-04-26T11:52:51Z</time>
      </trkpt>
      <trkpt lat="45.7142" lon="5.61508">
        <ele>302.29061912555</ele>
        <time>2015-04-26T11:52:56Z</time>
      </trkpt>
      <trkpt lat="45.71427" lon="5.61507">
        <ele>300.94773946782</ele>
        <time>2015-04-26T11:53:01Z</time>
      </trkpt>
      <trkpt lat="45.71432" lon="5.61507">
        <ele>300.94773946782</ele>
        <time>2015-04-26T11:53:06Z</time>
      </trkpt>
      <trkpt lat="45.7144" lon="5.61505">
        <ele>300.13310401831</ele>
        <time>2015-04-26T11:53:11Z</time>
      </trkpt>
      <trkpt lat="45.71448" lon="5.61504">
        <ele>300.13310401831</ele>
        <time>2015-04-26T11:53:16Z</time>
      </trkpt>
      <trkpt lat="45.71454" lon="5.61503">
        <ele>299.5166639628</ele>
        <time>2015-04-26T11:53:21Z</time>
      </trkpt>
      <trkpt lat="45.71464" lon="5.61501">
        <ele>299.57016152649</ele>
        <time>2015-04-26T11:53:26Z</time>
      </trkpt>
      <trkpt lat="45.71477" lon="5.61499">
        <ele>300.15228276825</ele>
        <time>2015-04-26T11:53:31Z</time>
      </trkpt>
      <trkpt lat="45.71482" lon="5.61497">
        <ele>300.15228276825</ele>
        <time>2015-04-26T11:53:36Z</time>
      </trkpt>
      <trkpt lat="45.71487" lon="5.61498">
        <ele>300.38117686734</ele>
        <time>2015-04-26T11:53:41Z</time>
      </trkpt>
      <trkpt lat="45.71487" lon="5.61501">
        <ele>300.38117686734</ele>
        <time>2015-04-26T11:53:46Z</time>
      </trkpt>
      <trkpt lat="45.71488" lon="5.61502">
        <ele>300.38117686734</ele>
        <time>2015-04-26T11:53:51Z</time>
      </trkpt>
      <trkpt lat="45.71493" lon="5.61501">
        <ele>300.38117686734</ele>
        <time>2015-04-26T11:53:56Z</time>
      </trkpt>
      <trkpt lat="45.71499" lon="5.61501">
        <ele>301.35740952192</ele>
        <time>2015-04-26T11:54:01Z</time>
      </trkpt>
      <trkpt lat="45.71501" lon="5.61501">
        <ele>301.35740952192</ele>
        <time>2015-04-26T11:54:06Z</time>
      </trkpt>
      <trkpt lat="45.71502" lon="5.615">
        <ele>301.35740952192</ele>
        <time>2015-04-26T11:54:11Z</time>
      </trkpt>
      <trkpt lat="45.71507" lon="5.61499">
        <ele>301.35740952192</ele>
        <time>2015-04-26T11:54:16Z</time>
      </trkpt>
      <trkpt lat="45.71515" lon="5.61494">
        <ele>301.8360477973</ele>
        <time>2015-04-26T11:54:21Z</time>
      </trkpt>
      <trkpt lat="45.71522" lon="5.61489">
        <ele>301.8360477973</ele>
        <time>2015-04-26T11:54:26Z</time>
      </trkpt>
      <trkpt lat="45.71531" lon="5.61487">
        <ele>302.43758673908</ele>
        <time>2015-04-26T11:54:31Z</time>
      </trkpt>
      <trkpt lat="45.71537" lon="5.61486">
        <ele>302.43758673908</ele>
        <time>2015-04-26T11:54:36Z</time>
      </trkpt>
      <trkpt lat="45.71544" lon="5.61484">
        <ele>303.73663030904</ele>
        <time>2015-04-26T11:54:41Z</time>
      </trkpt>
      <trkpt lat="45.71553" lon="5.61482">
        <ele>303.73663030904</ele>
        <time>2015-04-26T11:54:46Z</time>
      </trkpt>
      <trkpt lat="45.71556" lon="5.61481">
        <ele>305.34136126133</ele>
        <time>2015-04-26T11:54:51Z</time>
      </trkpt>
      <trkpt lat="45.71561" lon="5.61479">
        <ele>305.34136126133</ele>
        <time>2015-04-26T11:54:56Z</time>
      </trkpt>
      <trkpt lat="45.71571" lon="5.61475">
        <ele>307.20501121795</ele>
        <time>2015-04-26T11:55:01Z</time>
      </trkpt>
      <trkpt lat="45.71585" lon="5.61466">
        <ele>308.99540050596</ele>
        <time>2015-04-26T11:55:06Z</time>
      </trkpt>
      <trkpt lat="45.71594" lon="5.61459">
        <ele>310.83741467023</ele>
        <time>2015-04-26T11:55:11Z</time>
      </trkpt>
      <trkpt lat="45.71603" lon="5.61453">
        <ele>312.86117774009</ele>
        <time>2015-04-26T11:55:16Z</time>
      </trkpt>
      <trkpt lat="45.71611" lon="5.61451">
        <ele>312.86117774009</ele>
        <time>2015-04-26T11:55:21Z</time>
      </trkpt>
      <trkpt lat="45.71618" lon="5.61447">
        <ele>314.7401665812</ele>
        <time>2015-04-26T11:55:26Z</time>
      </trkpt>
      <trkpt lat="45.71623" lon="5.61443">
        <ele>314.7401665812</ele>
        <time>2015-04-26T11:55:31Z</time>
      </trkpt>
      <trkpt lat="45.71629" lon="5.61439">
        <ele>316.54712354228</ele>
        <time>2015-04-26T11:55:36Z</time>
      </trkpt>
      <trkpt lat="45.71634" lon="5.61433">
        <ele>316.54712354228</ele>
        <time>2015-04-26T11:55:41Z</time>
      </trkpt>
      <trkpt lat="45.71642" lon="5.61422">
        <ele>318.10486021646</ele>
        <time>2015-04-26T11:55:46Z</time>
      </trkpt>
      <trkpt lat="45.71649" lon="5.61411">
        <ele>319.36540499968</ele>
        <time>2015-04-26T11:55:51Z</time>
      </trkpt>
      <trkpt lat="45.71661" lon="5.61392">
        <ele>321.09238982323</ele>
        <time>2015-04-26T11:55:56Z</time>
      </trkpt>
      <trkpt lat="45.71678" lon="5.61378">
        <ele>322.42146175652</ele>
        <time>2015-04-26T11:56:01Z</time>
      </trkpt>
      <trkpt lat="45.71688" lon="5.61372">
        <ele>324.10951768816</ele>
        <time>2015-04-26T11:56:06Z</time>
      </trkpt>
      <trkpt lat="45.71702" lon="5.6136">
        <ele>325.19981063834</ele>
        <time>2015-04-26T11:56:11Z</time>
      </trkpt>
      <trkpt lat="45.71717" lon="5.61355">
        <ele>326.42184408321</ele>
        <time>2015-04-26T11:56:16Z</time>
      </trkpt>
      <trkpt lat="45.71737" lon="5.6136">
        <ele>327.65879977696</ele>
        <time>2015-04-26T11:56:21Z</time>
      </trkpt>
      <trkpt lat="45.71752" lon="5.61355">
        <ele>329.10528143314</ele>
        <time>2015-04-26T11:56:26Z</time>
      </trkpt>
      <trkpt lat="45.71773" lon="5.61339">
        <ele>329.97571242013</ele>
        <time>2015-04-26T11:56:31Z</time>
      </trkpt>
      <trkpt lat="45.71823" lon="5.61308">
        <ele>330.04847348658</ele>
        <time>2015-04-26T11:56:36Z</time>
      </trkpt>
      <trkpt lat="45.71847" lon="5.61297">
        <ele>330.38888042404</ele>
        <time>2015-04-26T11:56:41Z</time>
      </trkpt>
      <trkpt lat="45.71858" lon="5.61287">
        <ele>331.47908428736</ele>
        <time>2015-04-26T11:56:46Z</time>
      </trkpt>
      <trkpt lat="45.71862" lon="5.61282">
        <ele>331.47908428736</ele>
        <time>2015-04-26T11:56:51Z</time>
      </trkpt>
      <trkpt lat="45.7187" lon="5.61277">
        <ele>332.42370529292</ele>
        <time>2015-04-26T11:56:56Z</time>
      </trkpt>
      <trkpt lat="45.71878" lon="5.61275">
        <ele>332.42370529292</ele>
        <time>2015-04-26T11:57:01Z</time>
      </trkpt>
      <trkpt lat="45.71885" lon="5.61271">
        <ele>333.50342029906</ele>
        <time>2015-04-26T11:57:06Z</time>
      </trkpt>
      <trkpt lat="45.71891" lon="5.61267">
        <ele>333.50342029906</ele>
        <time>2015-04-26T11:57:11Z</time>
      </trkpt>
      <trkpt lat="45.71897" lon="5.61264">
        <ele>335.0790005265</ele>
        <time>2015-04-26T11:57:16Z</time>
      </trkpt>
      <trkpt lat="45.71902" lon="5.6126">
        <ele>335.0790005265</ele>
        <time>2015-04-26T11:57:21Z</time>
      </trkpt>
      <trkpt lat="45.71906" lon="5.61256">
        <ele>336.7629793926</ele>
        <time>2015-04-26T11:57:26Z</time>
      </trkpt>
      <trkpt lat="45.71913" lon="5.6125">
        <ele>336.7629793926</ele>
        <time>2015-04-26T11:57:31Z</time>
      </trkpt>
      <trkpt lat="45.7192" lon="5.61246">
        <ele>338.91681510732</ele>
        <time>2015-04-26T11:57:36Z</time>
      </trkpt>
      <trkpt lat="45.71926" lon="5.61239">
        <ele>338.91681510732</ele>
        <time>2015-04-26T11:57:41Z</time>
      </trkpt>
      <trkpt lat="45.71931" lon="5.61233">
        <ele>340.82229366152</ele>
        <time>2015-04-26T11:57:46Z</time>
      </trkpt>
      <trkpt lat="45.71935" lon="5.61231">
        <ele>340.82229366152</ele>
        <time>2015-04-26T11:57:51Z</time>
      </trkpt>
      <trkpt lat="45.71941" lon="5.61226">
        <ele>341.78604416373</ele>
        <time>2015-04-26T11:57:56Z</time>
      </trkpt>
      <trkpt lat="45.71945" lon="5.61219">
        <ele>341.78604416373</ele>
        <time>2015-04-26T11:58:01Z</time>
      </trkpt>
      <trkpt lat="45.71951" lon="5.61212">
        <ele>342.73929082556</ele>
        <time>2015-04-26T11:58:06Z</time>
      </trkpt>
      <trkpt lat="45.71956" lon="5.61204">
        <ele>342.73929082556</ele>
        <time>2015-04-26T11:58:11Z</time>
      </trkpt>
      <trkpt lat="45.71961" lon="5.61196">
        <ele>343.73806024802</ele>
        <time>2015-04-26T11:58:16Z</time>
      </trkpt>
      <trkpt lat="45.71963" lon="5.61188">
        <ele>343.73806024802</ele>
        <time>2015-04-26T11:58:21Z</time>
      </trkpt>
      <trkpt lat="45.71968" lon="5.61181">
        <ele>344.18583031129</ele>
        <time>2015-04-26T11:58:26Z</time>
      </trkpt>
      <trkpt lat="45.71972" lon="5.61173">
        <ele>344.18583031129</ele>
        <time>2015-04-26T11:58:31Z</time>
      </trkpt>
      <trkpt lat="45.7198" lon="5.61165">
        <ele>345.50595451697</ele>
        <time>2015-04-26T11:58:36Z</time>
      </trkpt>
      <trkpt lat="45.71986" lon="5.6116">
        <ele>345.50595451697</ele>
        <time>2015-04-26T11:58:41Z</time>
      </trkpt>
      <trkpt lat="45.71991" lon="5.61149">
        <ele>347.1271034625</ele>
        <time>2015-04-26T11:58:46Z</time>
      </trkpt>
      <trkpt lat="45.71994" lon="5.61138">
        <ele>347.1271034625</ele>
        <time>2015-04-26T11:58:51Z</time>
      </trkpt>
      <trkpt lat="45.71998" lon="5.61128">
        <ele>348.13014460675</ele>
        <time>2015-04-26T11:58:56Z</time>
      </trkpt>
      <trkpt lat="45.72003" lon="5.61119">
        <ele>348.13014460675</ele>
        <time>2015-04-26T11:59:01Z</time>
      </trkpt>
      <trkpt lat="45.7201" lon="5.61103">
        <ele>347.11773780773</ele>
        <time>2015-04-26T11:59:06Z</time>
      </trkpt>
      <trkpt lat="45.72014" lon="5.61091">
        <ele>345.65439492212</ele>
        <time>2015-04-26T11:59:11Z</time>
      </trkpt>
      <trkpt lat="45.72014" lon="5.6108">
        <ele>345.65439492212</ele>
        <time>2015-04-26T11:59:16Z</time>
      </trkpt>
      <trkpt lat="45.72017" lon="5.6107">
        <ele>344.93169728651</ele>
        <time>2015-04-26T11:59:21Z</time>
      </trkpt>
      <trkpt lat="45.7202" lon="5.61059">
        <ele>344.93169728651</ele>
        <time>2015-04-26T11:59:26Z</time>
      </trkpt>
      <trkpt lat="45.72025" lon="5.61051">
        <ele>341.4833991864</ele>
        <time>2015-04-26T11:59:31Z</time>
      </trkpt>
      <trkpt lat="45.72031" lon="5.61041">
        <ele>337.79799823088</ele>
        <time>2015-04-26T11:59:36Z</time>
      </trkpt>
      <trkpt lat="45.72042" lon="5.61032">
        <ele>333.58789666477</ele>
        <time>2015-04-26T11:59:41Z</time>
      </trkpt>
      <trkpt lat="45.72053" lon="5.61029">
        <ele>329.64011458549</ele>
        <time>2015-04-26T11:59:46Z</time>
      </trkpt>
      <trkpt lat="45.7206" lon="5.61028">
        <ele>329.64011458549</ele>
        <time>2015-04-26T11:59:51Z</time>
      </trkpt>
      <trkpt lat="45.72064" lon="5.61025">
        <ele>326.36604783935</ele>
        <time>2015-04-26T11:59:56Z</time>
      </trkpt>
      <trkpt lat="45.72071" lon="5.61025">
        <ele>326.36604783935</ele>
        <time>2015-04-26T12:00:01Z</time>
      </trkpt>
      <trkpt lat="45.72079" lon="5.61021">
        <ele>323.36671743139</ele>
        <time>2015-04-26T12:00:06Z</time>
      </trkpt>
      <trkpt lat="45.72087" lon="5.61019">
        <ele>323.36671743139</ele>
        <time>2015-04-26T12:00:11Z</time>
      </trkpt>
      <trkpt lat="45.72097" lon="5.61016">
        <ele>320.93450152553</ele>
        <time>2015-04-26T12:00:16Z</time>
      </trkpt>
      <trkpt lat="45.72098" lon="5.61018">
        <ele>320.93450152553</ele>
        <time>2015-04-26T12:00:21Z</time>
      </trkpt>
      <trkpt lat="45.72098" lon="5.6102">
        <ele>320.93450152553</ele>
        <time>2015-04-26T12:00:26Z</time>
      </trkpt>
      <trkpt lat="45.72103" lon="5.61021">
        <ele>320.2032640432</ele>
        <time>2015-04-26T12:00:31Z</time>
      </trkpt>
      <trkpt lat="45.72117" lon="5.61013">
        <ele>318.73118692492</ele>
        <time>2015-04-26T12:00:36Z</time>
      </trkpt>
      <trkpt lat="45.72133" lon="5.61002">
        <ele>316.63560191141</ele>
        <time>2015-04-26T12:00:41Z</time>
      </trkpt>
      <trkpt lat="45.72139" lon="5.60995">
        <ele>316.63560191141</ele>
        <time>2015-04-26T12:00:46Z</time>
      </trkpt>
      <trkpt lat="45.72143" lon="5.60991">
        <ele>314.86267161504</ele>
        <time>2015-04-26T12:00:51Z</time>
      </trkpt>
      <trkpt lat="45.72152" lon="5.60984">
        <ele>313.42333291152</ele>
        <time>2015-04-26T12:00:56Z</time>
      </trkpt>
      <trkpt lat="45.72162" lon="5.60979">
        <ele>311.72136159071</ele>
        <time>2015-04-26T12:01:01Z</time>
      </trkpt>
      <trkpt lat="45.72176" lon="5.60971">
        <ele>310.17045376397</ele>
        <time>2015-04-26T12:01:06Z</time>
      </trkpt>
      <trkpt lat="45.72192" lon="5.60959">
        <ele>308.476006633</ele>
        <time>2015-04-26T12:01:11Z</time>
      </trkpt>
      <trkpt lat="45.72209" lon="5.60948">
        <ele>307.11467483417</ele>
        <time>2015-04-26T12:01:16Z</time>
      </trkpt>
      <trkpt lat="45.72212" lon="5.60938">
        <ele>307.11467483417</ele>
        <time>2015-04-26T12:01:21Z</time>
      </trkpt>
      <trkpt lat="45.72217" lon="5.60925">
        <ele>306.41171017314</ele>
        <time>2015-04-26T12:01:26Z</time>
      </trkpt>
      <trkpt lat="45.72219" lon="5.60918">
        <ele>306.41171017314</ele>
        <time>2015-04-26T12:01:31Z</time>
      </trkpt>
      <trkpt lat="45.72218" lon="5.60909">
        <ele>304.46155907122</ele>
        <time>2015-04-26T12:01:36Z</time>
      </trkpt>
      <trkpt lat="45.72214" lon="5.60904">
        <ele>304.46155907122</ele>
        <time>2015-04-26T12:01:41Z</time>
      </trkpt>
      <trkpt lat="45.72215" lon="5.60897">
        <ele>302.49949543528</ele>
        <time>2015-04-26T12:01:46Z</time>
      </trkpt>
      <trkpt lat="45.72218" lon="5.60891">
        <ele>302.49949543528</ele>
        <time>2015-04-26T12:01:51Z</time>
      </trkpt>
      <trkpt lat="45.72223" lon="5.60886">
        <ele>300.60349734012</ele>
        <time>2015-04-26T12:01:56Z</time>
      </trkpt>
      <trkpt lat="45.72227" lon="5.60881">
        <ele>300.60349734012</ele>
        <time>2015-04-26T12:02:01Z</time>
      </trkpt>
      <trkpt lat="45.72231" lon="5.60876">
        <ele>299.88306680177</ele>
        <time>2015-04-26T12:02:06Z</time>
      </trkpt>
      <trkpt lat="45.72238" lon="5.60868">
        <ele>299.88306680177</ele>
        <time>2015-04-26T12:02:11Z</time>
      </trkpt>
      <trkpt lat="45.72243" lon="5.60862">
        <ele>300.28191157005</ele>
        <time>2015-04-26T12:02:16Z</time>
      </trkpt>
      <trkpt lat="45.7225" lon="5.60859">
        <ele>300.28191157005</ele>
        <time>2015-04-26T12:02:21Z</time>
      </trkpt>
      <trkpt lat="45.7225" lon="5.60857">
        <ele>300.28191157005</ele>
        <time>2015-04-26T12:02:26Z</time>
      </trkpt>
      <trkpt lat="45.72253" lon="5.60855">
        <ele>300.46199340223</ele>
        <time>2015-04-26T12:02:31Z</time>
      </trkpt>
      <trkpt lat="45.72257" lon="5.60852">
        <ele>300.46199340223</ele>
        <time>2015-04-26T12:02:36Z</time>
      </trkpt>
      <trkpt lat="45.72259" lon="5.6085">
        <ele>300.46199340223</ele>
        <time>2015-04-26T12:02:41Z</time>
      </trkpt>
      <trkpt lat="45.7226" lon="5.60849">
        <ele>300.46199340223</ele>
        <time>2015-04-26T12:02:46Z</time>
      </trkpt>
      <trkpt lat="45.72264" lon="5.60848">
        <ele>301.07189613701</ele>
        <time>2015-04-26T12:02:51Z</time>
      </trkpt>
      <trkpt lat="45.72271" lon="5.60845">
        <ele>301.07189613701</ele>
        <time>2015-04-26T12:02:56Z</time>
      </trkpt>
      <trkpt lat="45.7228" lon="5.60838">
        <ele>301.94744106745</ele>
        <time>2015-04-26T12:03:01Z</time>
      </trkpt>
      <trkpt lat="45.72288" lon="5.60832">
        <ele>301.94744106745</ele>
        <time>2015-04-26T12:03:06Z</time>
      </trkpt>
      <trkpt lat="45.72296" lon="5.60827">
        <ele>303.26711605007</ele>
        <time>2015-04-26T12:03:11Z</time>
      </trkpt>
      <trkpt lat="45.72307" lon="5.60822">
        <ele>304.90674446325</ele>
        <time>2015-04-26T12:03:16Z</time>
      </trkpt>
      <trkpt lat="45.72319" lon="5.60811">
        <ele>305.59741943958</ele>
        <time>2015-04-26T12:03:21Z</time>
      </trkpt>
      <trkpt lat="45.7233" lon="5.60801">
        <ele>306.44301944728</ele>
        <time>2015-04-26T12:03:26Z</time>
      </trkpt>
      <trkpt lat="45.72343" lon="5.60791">
        <ele>307.63002470782</ele>
        <time>2015-04-26T12:03:31Z</time>
      </trkpt>
      <trkpt lat="45.72348" lon="5.60792">
        <ele>307.63002470782</ele>
        <time>2015-04-26T12:03:36Z</time>
      </trkpt>
      <trkpt lat="45.72349" lon="5.60794">
        <ele>307.63002470782</ele>
        <time>2015-04-26T12:03:41Z</time>
      </trkpt>
      <trkpt lat="45.72352" lon="5.60791">
        <ele>311.13163976032</ele>
        <time>2015-04-26T12:03:46Z</time>
      </trkpt>
      <trkpt lat="45.72358" lon="5.60788">
        <ele>311.13163976032</ele>
        <time>2015-04-26T12:03:51Z</time>
      </trkpt>
      <trkpt lat="45.72365" lon="5.60783">
        <ele>315.09480395426</ele>
        <time>2015-04-26T12:03:56Z</time>
      </trkpt>
      <trkpt lat="45.72371" lon="5.60775">
        <ele>315.09480395426</ele>
        <time>2015-04-26T12:04:01Z</time>
      </trkpt>
      <trkpt lat="45.72374" lon="5.60773">
        <ele>319.01186000403</ele>
        <time>2015-04-26T12:04:06Z</time>
      </trkpt>
      <trkpt lat="45.72376" lon="5.60772">
        <ele>319.01186000403</ele>
        <time>2015-04-26T12:04:11Z</time>
      </trkpt>
      <trkpt lat="45.72379" lon="5.60768">
        <ele>319.01186000403</ele>
        <time>2015-04-26T12:04:16Z</time>
      </trkpt>
      <trkpt lat="45.72384" lon="5.60761">
        <ele>322.36940772177</ele>
        <time>2015-04-26T12:04:21Z</time>
      </trkpt>
      <trkpt lat="45.7239" lon="5.60753">
        <ele>322.36940772177</ele>
        <time>2015-04-26T12:04:26Z</time>
      </trkpt>
      <trkpt lat="45.72393" lon="5.60749">
        <ele>324.92400601671</ele>
        <time>2015-04-26T12:04:31Z</time>
      </trkpt>
      <trkpt lat="45.72399" lon="5.60743">
        <ele>324.92400601671</ele>
        <time>2015-04-26T12:04:36Z</time>
      </trkpt>
      <trkpt lat="45.72406" lon="5.60737">
        <ele>327.40360498356</ele>
        <time>2015-04-26T12:04:41Z</time>
      </trkpt>
      <trkpt lat="45.72412" lon="5.60733">
        <ele>327.40360498356</ele>
        <time>2015-04-26T12:04:46Z</time>
      </trkpt>
      <trkpt lat="45.72419" lon="5.60727">
        <ele>329.79129771499</ele>
        <time>2015-04-26T12:04:51Z</time>
      </trkpt>
      <trkpt lat="45.72424" lon="5.60721">
        <ele>329.79129771499</ele>
        <time>2015-04-26T12:04:56Z</time>
      </trkpt>
      <trkpt lat="45.72431" lon="5.60716">
        <ele>331.97095444238</ele>
        <time>2015-04-26T12:05:01Z</time>
      </trkpt>
      <trkpt lat="45.72436" lon="5.6071">
        <ele>331.97095444238</ele>
        <time>2015-04-26T12:05:06Z</time>
      </trkpt>
      <trkpt lat="45.7244" lon="5.60705">
        <ele>334.46981558436</ele>
        <time>2015-04-26T12:05:11Z</time>
      </trkpt>
      <trkpt lat="45.72442" lon="5.60698">
        <ele>334.46981558436</ele>
        <time>2015-04-26T12:05:16Z</time>
      </trkpt>
      <trkpt lat="45.72445" lon="5.60691">
        <ele>336.17603643159</ele>
        <time>2015-04-26T12:05:21Z</time>
      </trkpt>
      <trkpt lat="45.72448" lon="5.60685">
        <ele>336.17603643159</ele>
        <time>2015-04-26T12:05:26Z</time>
      </trkpt>
      <trkpt lat="45.72451" lon="5.60677">
        <ele>337.28679656522</ele>
        <time>2015-04-26T12:05:31Z</time>
      </trkpt>
      <trkpt lat="45.72454" lon="5.60671">
        <ele>337.28679656522</ele>
        <time>2015-04-26T12:05:36Z</time>
      </trkpt>
      <trkpt lat="45.72457" lon="5.60662">
        <ele>337.88576518227</ele>
        <time>2015-04-26T12:05:41Z</time>
      </trkpt>
      <trkpt lat="45.7246" lon="5.60652">
        <ele>337.88576518227</ele>
        <time>2015-04-26T12:05:46Z</time>
      </trkpt>
      <trkpt lat="45.72462" lon="5.6064">
        <ele>338.64293630679</ele>
        <time>2015-04-26T12:05:51Z</time>
      </trkpt>
      <trkpt lat="45.72469" lon="5.60628">
        <ele>339.67442822645</ele>
        <time>2015-04-26T12:05:56Z</time>
      </trkpt>
      <trkpt lat="45.72475" lon="5.60618">
        <ele>340.91429481227</ele>
        <time>2015-04-26T12:06:01Z</time>
      </trkpt>
      <trkpt lat="45.72481" lon="5.60611">
        <ele>340.91429481227</ele>
        <time>2015-04-26T12:06:06Z</time>
      </trkpt>
      <trkpt lat="45.72485" lon="5.60605">
        <ele>342.5171800514</ele>
        <time>2015-04-26T12:06:11Z</time>
      </trkpt>
      <trkpt lat="45.72489" lon="5.60596">
        <ele>342.5171800514</ele>
        <time>2015-04-26T12:06:16Z</time>
      </trkpt>
      <trkpt lat="45.72493" lon="5.60587">
        <ele>344.14994285814</ele>
        <time>2015-04-26T12:06:21Z</time>
      </trkpt>
      <trkpt lat="45.72496" lon="5.60584">
        <ele>344.14994285814</ele>
        <time>2015-04-26T12:06:26Z</time>
      </trkpt>
      <trkpt lat="45.72498" lon="5.60586">
        <ele>344.14994285814</ele>
        <time>2015-04-26T12:06:31Z</time>
      </trkpt>
      <trkpt lat="45.725" lon="5.60582">
        <ele>345.05724300749</ele>
        <time>2015-04-26T12:06:36Z</time>
      </trkpt>
      <trkpt lat="45.72506" lon="5.60576">
        <ele>345.05724300749</ele>
        <time>2015-04-26T12:06:41Z</time>
      </trkpt>
      <trkpt lat="45.72512" lon="5.60572">
        <ele>346.41486175693</ele>
        <time>2015-04-26T12:06:46Z</time>
      </trkpt>
      <trkpt lat="45.72515" lon="5.60569">
        <ele>346.41486175693</ele>
        <time>2015-04-26T12:06:51Z</time>
      </trkpt>
      <trkpt lat="45.72522" lon="5.60567">
        <ele>347.78351765861</ele>
        <time>2015-04-26T12:06:56Z</time>
      </trkpt>
      <trkpt lat="45.72522" lon="5.60565">
        <ele>347.78351765861</ele>
        <time>2015-04-26T12:07:01Z</time>
      </trkpt>
      <trkpt lat="45.72527" lon="5.60562">
        <ele>347.78351765861</ele>
        <time>2015-04-26T12:07:06Z</time>
      </trkpt>
      <trkpt lat="45.72535" lon="5.60562">
        <ele>349.04453706709</ele>
        <time>2015-04-26T12:07:11Z</time>
      </trkpt>
      <trkpt lat="45.72538" lon="5.60566">
        <ele>349.04453706709</ele>
        <time>2015-04-26T12:07:16Z</time>
      </trkpt>
      <trkpt lat="45.72538" lon="5.60566">
        <ele>349.04453706709</ele>
        <time>2015-04-26T12:07:21Z</time>
      </trkpt>
      <trkpt lat="45.7254" lon="5.60567">
        <ele>349.04453706709</ele>
        <time>2015-04-26T12:07:26Z</time>
      </trkpt>
      <trkpt lat="45.7254" lon="5.60567">
        <ele>349.04453706709</ele>
        <time>2015-04-26T12:07:31Z</time>
      </trkpt>
      <trkpt lat="45.72537" lon="5.60572">
        <ele>350.4198645359</ele>
        <time>2015-04-26T12:07:36Z</time>
      </trkpt>
      <trkpt lat="45.72537" lon="5.60574">
        <ele>350.4198645359</ele>
        <time>2015-04-26T12:07:41Z</time>
      </trkpt>
      <trkpt lat="45.7254" lon="5.60582">
        <ele>350.4198645359</ele>
        <time>2015-04-26T12:07:46Z</time>
      </trkpt>
      <trkpt lat="45.72543" lon="5.6059">
        <ele>351.69703659517</ele>
        <time>2015-04-26T12:07:51Z</time>
      </trkpt>
      <trkpt lat="45.72548" lon="5.60599">
        <ele>351.69703659517</ele>
        <time>2015-04-26T12:07:56Z</time>
      </trkpt>
      <trkpt lat="45.72553" lon="5.60609">
        <ele>354.06307646575</ele>
        <time>2015-04-26T12:08:01Z</time>
      </trkpt>
      <trkpt lat="45.72558" lon="5.60618">
        <ele>354.06307646575</ele>
        <time>2015-04-26T12:08:06Z</time>
      </trkpt>
      <trkpt lat="45.7256" lon="5.60628">
        <ele>355.94883287555</ele>
        <time>2015-04-26T12:08:11Z</time>
      </trkpt>
      <trkpt lat="45.72562" lon="5.60635">
        <ele>355.94883287555</ele>
        <time>2015-04-26T12:08:16Z</time>
      </trkpt>
      <trkpt lat="45.72566" lon="5.60643">
        <ele>357.8329944729</ele>
        <time>2015-04-26T12:08:21Z</time>
      </trkpt>
      <trkpt lat="45.7257" lon="5.60654">
        <ele>357.8329944729</ele>
        <time>2015-04-26T12:08:26Z</time>
      </trkpt>
      <trkpt lat="45.72574" lon="5.60664">
        <ele>359.48190132954</ele>
        <time>2015-04-26T12:08:31Z</time>
      </trkpt>
      <trkpt lat="45.72579" lon="5.60674">
        <ele>359.48190132954</ele>
        <time>2015-04-26T12:08:36Z</time>
      </trkpt>
      <trkpt lat="45.72584" lon="5.60681">
        <ele>360.86719509959</ele>
        <time>2015-04-26T12:08:41Z</time>
      </trkpt>
      <trkpt lat="45.7259" lon="5.60686">
        <ele>360.86719509959</ele>
        <time>2015-04-26T12:08:46Z</time>
      </trkpt>
      <trkpt lat="45.72596" lon="5.60692">
        <ele>361.93464708869</ele>
        <time>2015-04-26T12:08:51Z</time>
      </trkpt>
      <trkpt lat="45.72601" lon="5.60698">
        <ele>361.93464708869</ele>
        <time>2015-04-26T12:08:56Z</time>
      </trkpt>
      <trkpt lat="45.72607" lon="5.60703">
        <ele>362.75031655827</ele>
        <time>2015-04-26T12:09:01Z</time>
      </trkpt>
      <trkpt lat="45.72613" lon="5.60712">
        <ele>362.75031655827</ele>
        <time>2015-04-26T12:09:06Z</time>
      </trkpt>
      <trkpt lat="45.72618" lon="5.60719">
        <ele>363.46269950539</ele>
        <time>2015-04-26T12:09:11Z</time>
      </trkpt>
      <trkpt lat="45.72622" lon="5.60726">
        <ele>363.46269950539</ele>
        <time>2015-04-26T12:09:16Z</time>
      </trkpt>
      <trkpt lat="45.72618" lon="5.60734">
        <ele>363.3739346492</ele>
        <time>2015-04-26T12:09:21Z</time>
      </trkpt>
      <trkpt lat="45.72613" lon="5.60742">
        <ele>363.3739346492</ele>
        <time>2015-04-26T12:09:26Z</time>
      </trkpt>
      <trkpt lat="45.72609" lon="5.6075">
        <ele>362.6179659691</ele>
        <time>2015-04-26T12:09:31Z</time>
      </trkpt>
      <trkpt lat="45.72603" lon="5.60759">
        <ele>362.6179659691</ele>
        <time>2015-04-26T12:09:36Z</time>
      </trkpt>
      <trkpt lat="45.726" lon="5.60767">
        <ele>361.79641395081</ele>
        <time>2015-04-26T12:09:41Z</time>
      </trkpt>
      <trkpt lat="45.72597" lon="5.60775">
        <ele>361.79641395081</ele>
        <time>2015-04-26T12:09:46Z</time>
      </trkpt>
      <trkpt lat="45.72595" lon="5.60786">
        <ele>361.26519277757</ele>
        <time>2015-04-26T12:09:51Z</time>
      </trkpt>
      <trkpt lat="45.72594" lon="5.60796">
        <ele>361.26519277757</ele>
        <time>2015-04-26T12:09:56Z</time>
      </trkpt>
      <trkpt lat="45.72593" lon="5.60803">
        <ele>360.33010859149</ele>
        <time>2015-04-26T12:10:01Z</time>
      </trkpt>
      <trkpt lat="45.72592" lon="5.60811">
        <ele>360.33010859149</ele>
        <time>2015-04-26T12:10:06Z</time>
      </trkpt>
      <trkpt lat="45.72591" lon="5.6082">
        <ele>358.98320619444</ele>
        <time>2015-04-26T12:10:11Z</time>
      </trkpt>
      <trkpt lat="45.7259" lon="5.60831">
        <ele>358.98320619444</ele>
        <time>2015-04-26T12:10:16Z</time>
      </trkpt>
      <trkpt lat="45.72589" lon="5.60842">
        <ele>357.69383956568</ele>
        <time>2015-04-26T12:10:21Z</time>
      </trkpt>
      <trkpt lat="45.72592" lon="5.60851">
        <ele>357.69383956568</ele>
        <time>2015-04-26T12:10:26Z</time>
      </trkpt>
      <trkpt lat="45.72592" lon="5.60858">
        <ele>356.40672894166</ele>
        <time>2015-04-26T12:10:31Z</time>
      </trkpt>
      <trkpt lat="45.72591" lon="5.60866">
        <ele>356.40672894166</ele>
        <time>2015-04-26T12:10:36Z</time>
      </trkpt>
      <trkpt lat="45.7259" lon="5.60875">
        <ele>355.73352721789</ele>
        <time>2015-04-26T12:10:41Z</time>
      </trkpt>
      <trkpt lat="45.7259" lon="5.60884">
        <ele>355.73352721789</ele>
        <time>2015-04-26T12:10:46Z</time>
      </trkpt>
      <trkpt lat="45.7259" lon="5.60895">
        <ele>354.84130604909</ele>
        <time>2015-04-26T12:10:51Z</time>
      </trkpt>
      <trkpt lat="45.72591" lon="5.60904">
        <ele>354.84130604909</ele>
        <time>2015-04-26T12:10:56Z</time>
      </trkpt>
      <trkpt lat="45.7259" lon="5.60915">
        <ele>354.29910985965</ele>
        <time>2015-04-26T12:11:01Z</time>
      </trkpt>
      <trkpt lat="45.72591" lon="5.60925">
        <ele>354.29910985965</ele>
        <time>2015-04-26T12:11:06Z</time>
      </trkpt>
      <trkpt lat="45.72592" lon="5.60935">
        <ele>353.06231420085</ele>
        <time>2015-04-26T12:11:11Z</time>
      </trkpt>
      <trkpt lat="45.72591" lon="5.60946">
        <ele>353.06231420085</ele>
        <time>2015-04-26T12:11:16Z</time>
      </trkpt>
      <trkpt lat="45.7259" lon="5.60956">
        <ele>351.23131836146</ele>
        <time>2015-04-26T12:11:21Z</time>
      </trkpt>
      <trkpt lat="45.72589" lon="5.60964">
        <ele>351.23131836146</ele>
        <time>2015-04-26T12:11:26Z</time>
      </trkpt>
      <trkpt lat="45.72588" lon="5.60972">
        <ele>348.81424851244</ele>
        <time>2015-04-26T12:11:31Z</time>
      </trkpt>
      <trkpt lat="45.72586" lon="5.60982">
        <ele>348.81424851244</ele>
        <time>2015-04-26T12:11:36Z</time>
      </trkpt>
      <trkpt lat="45.72585" lon="5.60993">
        <ele>346.35337645444</ele>
        <time>2015-04-26T12:11:41Z</time>
      </trkpt>
      <trkpt lat="45.72583" lon="5.61003">
        <ele>346.35337645444</ele>
        <time>2015-04-26T12:11:46Z</time>
      </trkpt>
      <trkpt lat="45.72581" lon="5.61011">
        <ele>343.18383064113</ele>
        <time>2015-04-26T12:11:51Z</time>
      </trkpt>
      <trkpt lat="45.72578" lon="5.6102">
        <ele>343.18383064113</ele>
        <time>2015-04-26T12:11:56Z</time>
      </trkpt>
      <trkpt lat="45.72578" lon="5.61028">
        <ele>340.43516446903</ele>
        <time>2015-04-26T12:12:01Z</time>
      </trkpt>
      <trkpt lat="45.72579" lon="5.61031">
        <ele>340.43516446903</ele>
        <time>2015-04-26T12:12:06Z</time>
      </trkpt>
      <trkpt lat="45.72582" lon="5.61036">
        <ele>340.43516446903</ele>
        <time>2015-04-26T12:12:11Z</time>
      </trkpt>
      <trkpt lat="45.72583" lon="5.61043">
        <ele>337.07740478279</ele>
        <time>2015-04-26T12:12:16Z</time>
      </trkpt>
      <trkpt lat="45.72589" lon="5.61051">
        <ele>337.07740478279</ele>
        <time>2015-04-26T12:12:21Z</time>
      </trkpt>
      <trkpt lat="45.72596" lon="5.61057">
        <ele>334.29060697963</ele>
        <time>2015-04-26T12:12:26Z</time>
      </trkpt>
      <trkpt lat="45.72602" lon="5.61065">
        <ele>334.29060697963</ele>
        <time>2015-04-26T12:12:31Z</time>
      </trkpt>
      <trkpt lat="45.72608" lon="5.61071">
        <ele>331.72522409379</ele>
        <time>2015-04-26T12:12:36Z</time>
      </trkpt>
      <trkpt lat="45.72613" lon="5.61081">
        <ele>331.72522409379</ele>
        <time>2015-04-26T12:12:41Z</time>
      </trkpt>
      <trkpt lat="45.72624" lon="5.61098">
        <ele>330.00768440028</ele>
        <time>2015-04-26T12:12:46Z</time>
      </trkpt>
      <trkpt lat="45.72629" lon="5.61113">
        <ele>328.54849727117</ele>
        <time>2015-04-26T12:12:51Z</time>
      </trkpt>
      <trkpt lat="45.7263" lon="5.61125">
        <ele>328.54849727117</ele>
        <time>2015-04-26T12:12:56Z</time>
      </trkpt>
      <trkpt lat="45.72626" lon="5.61134">
        <ele>326.16643375871</ele>
        <time>2015-04-26T12:13:01Z</time>
      </trkpt>
      <trkpt lat="45.72621" lon="5.61143">
        <ele>326.16643375871</ele>
        <time>2015-04-26T12:13:06Z</time>
      </trkpt>
      <trkpt lat="45.72616" lon="5.61153">
        <ele>324.00311888252</ele>
        <time>2015-04-26T12:13:11Z</time>
      </trkpt>
      <trkpt lat="45.72611" lon="5.61164">
        <ele>322.19315818412</ele>
        <time>2015-04-26T12:13:16Z</time>
      </trkpt>
      <trkpt lat="45.72609" lon="5.61174">
        <ele>322.19315818412</ele>
        <time>2015-04-26T12:13:21Z</time>
      </trkpt>
      <trkpt lat="45.72608" lon="5.61185">
        <ele>320.65829086894</ele>
        <time>2015-04-26T12:13:26Z</time>
      </trkpt>
      <trkpt lat="45.7261" lon="5.61194">
        <ele>320.65829086894</ele>
        <time>2015-04-26T12:13:31Z</time>
      </trkpt>
      <trkpt lat="45.72613" lon="5.61203">
        <ele>318.6909129835</ele>
        <time>2015-04-26T12:13:36Z</time>
      </trkpt>
      <trkpt lat="45.72613" lon="5.61209">
        <ele>318.6909129835</ele>
        <time>2015-04-26T12:13:41Z</time>
      </trkpt>
      <trkpt lat="45.72611" lon="5.61221">
        <ele>316.99102997079</ele>
        <time>2015-04-26T12:13:46Z</time>
      </trkpt>
      <trkpt lat="45.72609" lon="5.61231">
        <ele>316.99102997079</ele>
        <time>2015-04-26T12:13:51Z</time>
      </trkpt>
      <trkpt lat="45.72606" lon="5.61239">
        <ele>315.62980500813</ele>
        <time>2015-04-26T12:13:56Z</time>
      </trkpt>
      <trkpt lat="45.72603" lon="5.61248">
        <ele>315.62980500813</ele>
        <time>2015-04-26T12:14:01Z</time>
      </trkpt>
      <trkpt lat="45.72601" lon="5.61253">
        <ele>314.59994816943</ele>
        <time>2015-04-26T12:14:06Z</time>
      </trkpt>
      <trkpt lat="45.726" lon="5.61261">
        <ele>314.59994816943</ele>
        <time>2015-04-26T12:14:11Z</time>
      </trkpt>
      <trkpt lat="45.72598" lon="5.61272">
        <ele>313.73504025725</ele>
        <time>2015-04-26T12:14:16Z</time>
      </trkpt>
      <trkpt lat="45.72595" lon="5.61281">
        <ele>313.73504025725</ele>
        <time>2015-04-26T12:14:21Z</time>
      </trkpt>
      <trkpt lat="45.72591" lon="5.61289">
        <ele>312.46229740922</ele>
        <time>2015-04-26T12:14:26Z</time>
      </trkpt>
      <trkpt lat="45.72588" lon="5.61295">
        <ele>312.46229740922</ele>
        <time>2015-04-26T12:14:31Z</time>
      </trkpt>
      <trkpt lat="45.72584" lon="5.61306">
        <ele>310.94369399666</ele>
        <time>2015-04-26T12:14:36Z</time>
      </trkpt>
      <trkpt lat="45.72581" lon="5.61316">
        <ele>310.94369399666</ele>
        <time>2015-04-26T12:14:41Z</time>
      </trkpt>
      <trkpt lat="45.72577" lon="5.61327">
        <ele>310.16565409753</ele>
        <time>2015-04-26T12:14:46Z</time>
      </trkpt>
      <trkpt lat="45.72575" lon="5.61338">
        <ele>310.16565409753</ele>
        <time>2015-04-26T12:14:51Z</time>
      </trkpt>
      <trkpt lat="45.72576" lon="5.61347">
        <ele>309.36819569458</ele>
        <time>2015-04-26T12:14:56Z</time>
      </trkpt>
      <trkpt lat="45.72581" lon="5.61356">
        <ele>309.36819569458</ele>
        <time>2015-04-26T12:15:01Z</time>
      </trkpt>
      <trkpt lat="45.72587" lon="5.61361">
        <ele>308.58201869128</ele>
        <time>2015-04-26T12:15:06Z</time>
      </trkpt>
      <trkpt lat="45.72597" lon="5.61373">
        <ele>308.2821247613</ele>
        <time>2015-04-26T12:15:11Z</time>
      </trkpt>
      <trkpt lat="45.72618" lon="5.61387">
        <ele>308.27302602324</ele>
        <time>2015-04-26T12:15:16Z</time>
      </trkpt>
      <trkpt lat="45.72638" lon="5.61407">
        <ele>307.98354961707</ele>
        <time>2015-04-26T12:15:21Z</time>
      </trkpt>
      <trkpt lat="45.72656" lon="5.61421">
        <ele>307.53365172882</ele>
        <time>2015-04-26T12:15:26Z</time>
      </trkpt>
      <trkpt lat="45.72666" lon="5.61432">
        <ele>307.12129113264</ele>
        <time>2015-04-26T12:15:31Z</time>
      </trkpt>
      <trkpt lat="45.72678" lon="5.61443">
        <ele>306.79998961323</ele>
        <time>2015-04-26T12:15:36Z</time>
      </trkpt>
      <trkpt lat="45.72691" lon="5.61456">
        <ele>306.87840426637</ele>
        <time>2015-04-26T12:15:41Z</time>
      </trkpt>
      <trkpt lat="45.72694" lon="5.61463">
        <ele>306.87840426637</ele>
        <time>2015-04-26T12:15:46Z</time>
      </trkpt>
      <trkpt lat="45.72699" lon="5.61469">
        <ele>307.18017602708</ele>
        <time>2015-04-26T12:15:51Z</time>
      </trkpt>
      <trkpt lat="45.72703" lon="5.61474">
        <ele>307.18017602708</ele>
        <time>2015-04-26T12:15:56Z</time>
      </trkpt>
      <trkpt lat="45.72707" lon="5.6148">
        <ele>306.82066509862</ele>
        <time>2015-04-26T12:16:01Z</time>
      </trkpt>
      <trkpt lat="45.72712" lon="5.61481">
        <ele>306.82066509862</ele>
        <time>2015-04-26T12:16:06Z</time>
      </trkpt>
      <trkpt lat="45.72719" lon="5.61485">
        <ele>306.46637491446</ele>
        <time>2015-04-26T12:16:11Z</time>
      </trkpt>
      <trkpt lat="45.72731" lon="5.61494">
        <ele>306.63392483899</ele>
        <time>2015-04-26T12:16:16Z</time>
      </trkpt>
      <trkpt lat="45.72757" lon="5.61515">
        <ele>307.52668941935</ele>
        <time>2015-04-26T12:16:21Z</time>
      </trkpt>
      <trkpt lat="45.72779" lon="5.61543">
        <ele>308.59609507777</ele>
        <time>2015-04-26T12:16:26Z</time>
      </trkpt>
      <trkpt lat="45.72792" lon="5.61559">
        <ele>310.12598989501</ele>
        <time>2015-04-26T12:16:31Z</time>
      </trkpt>
      <trkpt lat="45.72796" lon="5.61562">
        <ele>310.12598989501</ele>
        <time>2015-04-26T12:16:36Z</time>
      </trkpt>
      <trkpt lat="45.72802" lon="5.61562">
        <ele>312.363693646</ele>
        <time>2015-04-26T12:16:41Z</time>
      </trkpt>
      <trkpt lat="45.72808" lon="5.61561">
        <ele>312.363693646</ele>
        <time>2015-04-26T12:16:46Z</time>
      </trkpt>
      <trkpt lat="45.72814" lon="5.61563">
        <ele>314.91674082229</ele>
        <time>2015-04-26T12:16:51Z</time>
      </trkpt>
      <trkpt lat="45.7282" lon="5.61562">
        <ele>314.91674082229</ele>
        <time>2015-04-26T12:16:56Z</time>
      </trkpt>
      <trkpt lat="45.72825" lon="5.6156">
        <ele>317.13245668279</ele>
        <time>2015-04-26T12:17:01Z</time>
      </trkpt>
      <trkpt lat="45.72831" lon="5.6156">
        <ele>317.13245668279</ele>
        <time>2015-04-26T12:17:06Z</time>
      </trkpt>
      <trkpt lat="45.72838" lon="5.6156">
        <ele>318.40714526526</ele>
        <time>2015-04-26T12:17:11Z</time>
      </trkpt>
      <trkpt lat="45.72844" lon="5.61558">
        <ele>318.40714526526</ele>
        <time>2015-04-26T12:17:16Z</time>
      </trkpt>
      <trkpt lat="45.7285" lon="5.61556">
        <ele>318.91916836914</ele>
        <time>2015-04-26T12:17:21Z</time>
      </trkpt>
      <trkpt lat="45.72857" lon="5.61556">
        <ele>318.91916836914</ele>
        <time>2015-04-26T12:17:26Z</time>
      </trkpt>
      <trkpt lat="45.72864" lon="5.61552">
        <ele>320.17627555911</ele>
        <time>2015-04-26T12:17:31Z</time>
      </trkpt>
      <trkpt lat="45.7287" lon="5.6155">
        <ele>320.17627555911</ele>
        <time>2015-04-26T12:17:36Z</time>
      </trkpt>
      <trkpt lat="45.72875" lon="5.61548">
        <ele>320.70567983126</ele>
        <time>2015-04-26T12:17:41Z</time>
      </trkpt>
      <trkpt lat="45.72883" lon="5.61546">
        <ele>320.70567983126</ele>
        <time>2015-04-26T12:17:46Z</time>
      </trkpt>
      <trkpt lat="45.72887" lon="5.6154">
        <ele>321.72454489248</ele>
        <time>2015-04-26T12:17:51Z</time>
      </trkpt>
      <trkpt lat="45.7289" lon="5.61537">
        <ele>321.72454489248</ele>
        <time>2015-04-26T12:17:56Z</time>
      </trkpt>
      <trkpt lat="45.72896" lon="5.61536">
        <ele>322.71651517989</ele>
        <time>2015-04-26T12:18:01Z</time>
      </trkpt>
      <trkpt lat="45.72901" lon="5.61533">
        <ele>322.71651517989</ele>
        <time>2015-04-26T12:18:06Z</time>
      </trkpt>
      <trkpt lat="45.72906" lon="5.61531">
        <ele>323.5924786743</ele>
        <time>2015-04-26T12:18:11Z</time>
      </trkpt>
      <trkpt lat="45.7291" lon="5.61528">
        <ele>323.5924786743</ele>
        <time>2015-04-26T12:18:16Z</time>
      </trkpt>
      <trkpt lat="45.72917" lon="5.61527">
        <ele>324.111811396</ele>
        <time>2015-04-26T12:18:21Z</time>
      </trkpt>
      <trkpt lat="45.72925" lon="5.61526">
        <ele>324.111811396</ele>
        <time>2015-04-26T12:18:26Z</time>
      </trkpt>
      <trkpt lat="45.72931" lon="5.61524">
        <ele>324.52827268344</ele>
        <time>2015-04-26T12:18:31Z</time>
      </trkpt>
      <trkpt lat="45.72937" lon="5.61523">
        <ele>324.52827268344</ele>
        <time>2015-04-26T12:18:36Z</time>
      </trkpt>
      <trkpt lat="45.72945" lon="5.61523">
        <ele>325.12064251689</ele>
        <time>2015-04-26T12:18:41Z</time>
      </trkpt>
      <trkpt lat="45.72955" lon="5.61524">
        <ele>326.24774540211</ele>
        <time>2015-04-26T12:18:46Z</time>
      </trkpt>
      <trkpt lat="45.72966" lon="5.6152">
        <ele>326.95809530203</ele>
        <time>2015-04-26T12:18:51Z</time>
      </trkpt>
      <trkpt lat="45.72971" lon="5.61517">
        <ele>326.95809530203</ele>
        <time>2015-04-26T12:18:56Z</time>
      </trkpt>
      <trkpt lat="45.72979" lon="5.61517">
        <ele>327.063140598</ele>
        <time>2015-04-26T12:19:01Z</time>
      </trkpt>
      <trkpt lat="45.72985" lon="5.61515">
        <ele>327.063140598</ele>
        <time>2015-04-26T12:19:06Z</time>
      </trkpt>
      <trkpt lat="45.7299" lon="5.6151">
        <ele>328.26345929293</ele>
        <time>2015-04-26T12:19:11Z</time>
      </trkpt>
      <trkpt lat="45.72995" lon="5.61506">
        <ele>328.26345929293</ele>
        <time>2015-04-26T12:19:16Z</time>
      </trkpt>
      <trkpt lat="45.73002" lon="5.61503">
        <ele>329.56658945051</ele>
        <time>2015-04-26T12:19:21Z</time>
      </trkpt>
      <trkpt lat="45.73008" lon="5.615">
        <ele>329.56658945051</ele>
        <time>2015-04-26T12:19:26Z</time>
      </trkpt>
      <trkpt lat="45.73016" lon="5.61498">
        <ele>330.00958599579</ele>
        <time>2015-04-26T12:19:31Z</time>
      </trkpt>
      <trkpt lat="45.73022" lon="5.61494">
        <ele>330.00958599579</ele>
        <time>2015-04-26T12:19:36Z</time>
      </trkpt>
      <trkpt lat="45.73029" lon="5.61494">
        <ele>329.79802911409</ele>
        <time>2015-04-26T12:19:41Z</time>
      </trkpt>
      <trkpt lat="45.73036" lon="5.61494">
        <ele>329.79802911409</ele>
        <time>2015-04-26T12:19:46Z</time>
      </trkpt>
      <trkpt lat="45.73042" lon="5.6149">
        <ele>329.4702260914</ele>
        <time>2015-04-26T12:19:51Z</time>
      </trkpt>
      <trkpt lat="45.73049" lon="5.61483">
        <ele>329.4702260914</ele>
        <time>2015-04-26T12:19:56Z</time>
      </trkpt>
      <trkpt lat="45.73053" lon="5.61474">
        <ele>329.03540697453</ele>
        <time>2015-04-26T12:20:01Z</time>
      </trkpt>
      <trkpt lat="45.73059" lon="5.61468">
        <ele>329.03540697453</ele>
        <time>2015-04-26T12:20:06Z</time>
      </trkpt>
      <trkpt lat="45.73064" lon="5.61464">
        <ele>328.68987685262</ele>
        <time>2015-04-26T12:20:11Z</time>
      </trkpt>
      <trkpt lat="45.73076" lon="5.61459">
        <ele>328.16862250588</ele>
        <time>2015-04-26T12:20:16Z</time>
      </trkpt>
      <trkpt lat="45.73084" lon="5.61457">
        <ele>327.50048862154</ele>
        <time>2015-04-26T12:20:21Z</time>
      </trkpt>
      <trkpt lat="45.7309" lon="5.61454">
        <ele>327.50048862154</ele>
        <time>2015-04-26T12:20:26Z</time>
      </trkpt>
      <trkpt lat="45.73096" lon="5.61451">
        <ele>326.56857624662</ele>
        <time>2015-04-26T12:20:31Z</time>
      </trkpt>
      <trkpt lat="45.73103" lon="5.61448">
        <ele>326.56857624662</ele>
        <time>2015-04-26T12:20:36Z</time>
      </trkpt>
      <trkpt lat="45.73109" lon="5.61447">
        <ele>325.42389820425</ele>
        <time>2015-04-26T12:20:41Z</time>
      </trkpt>
      <trkpt lat="45.73113" lon="5.61443">
        <ele>325.42389820425</ele>
        <time>2015-04-26T12:20:46Z</time>
      </trkpt>
      <trkpt lat="45.73117" lon="5.6144">
        <ele>323.35057537877</ele>
        <time>2015-04-26T12:20:51Z</time>
      </trkpt>
      <trkpt lat="45.73122" lon="5.61437">
        <ele>323.35057537877</ele>
        <time>2015-04-26T12:20:56Z</time>
      </trkpt>
      <trkpt lat="45.73129" lon="5.61431">
        <ele>321.89285560434</ele>
        <time>2015-04-26T12:21:01Z</time>
      </trkpt>
      <trkpt lat="45.73136" lon="5.61425">
        <ele>321.89285560434</ele>
        <time>2015-04-26T12:21:06Z</time>
      </trkpt>
      <trkpt lat="45.73145" lon="5.61417">
        <ele>321.41341655751</ele>
        <time>2015-04-26T12:21:11Z</time>
      </trkpt>
      <trkpt lat="45.73151" lon="5.61409">
        <ele>321.41341655751</ele>
        <time>2015-04-26T12:21:16Z</time>
      </trkpt>
      <trkpt lat="45.73158" lon="5.61405">
        <ele>320.8332662998</ele>
        <time>2015-04-26T12:21:21Z</time>
      </trkpt>
      <trkpt lat="45.73164" lon="5.614">
        <ele>320.8332662998</ele>
        <time>2015-04-26T12:21:26Z</time>
      </trkpt>
      <trkpt lat="45.73168" lon="5.61394">
        <ele>320.19055419533</ele>
        <time>2015-04-26T12:21:31Z</time>
      </trkpt>
      <trkpt lat="45.73171" lon="5.61389">
        <ele>320.19055419533</ele>
        <time>2015-04-26T12:21:36Z</time>
      </trkpt>
      <trkpt lat="45.73178" lon="5.61384">
        <ele>319.67931472356</ele>
        <time>2015-04-26T12:21:41Z</time>
      </trkpt>
      <trkpt lat="45.73185" lon="5.61383">
        <ele>319.67931472356</ele>
        <time>2015-04-26T12:21:46Z</time>
      </trkpt>
      <trkpt lat="45.7319" lon="5.61379">
        <ele>319.76716821289</ele>
        <time>2015-04-26T12:21:51Z</time>
      </trkpt>
      <trkpt lat="45.73198" lon="5.61376">
        <ele>319.76716821289</ele>
        <time>2015-04-26T12:21:56Z</time>
      </trkpt>
      <trkpt lat="45.73205" lon="5.61372">
        <ele>319.9489641988</ele>
        <time>2015-04-26T12:22:01Z</time>
      </trkpt>
      <trkpt lat="45.7321" lon="5.61367">
        <ele>319.9489641988</ele>
        <time>2015-04-26T12:22:06Z</time>
      </trkpt>
      <trkpt lat="45.73216" lon="5.61366">
        <ele>319.77079007856</ele>
        <time>2015-04-26T12:22:11Z</time>
      </trkpt>
      <trkpt lat="45.73223" lon="5.61365">
        <ele>319.77079007856</ele>
        <time>2015-04-26T12:22:16Z</time>
      </trkpt>
      <trkpt lat="45.73227" lon="5.6136">
        <ele>319.04364628799</ele>
        <time>2015-04-26T12:22:21Z</time>
      </trkpt>
      <trkpt lat="45.73231" lon="5.61359">
        <ele>319.04364628799</ele>
        <time>2015-04-26T12:22:26Z</time>
      </trkpt>
      <trkpt lat="45.73233" lon="5.61359">
        <ele>319.04364628799</ele>
        <time>2015-04-26T12:22:31Z</time>
      </trkpt>
      <trkpt lat="45.73238" lon="5.61359">
        <ele>318.1127367545</ele>
        <time>2015-04-26T12:22:36Z</time>
      </trkpt>
      <trkpt lat="45.73245" lon="5.61356">
        <ele>318.1127367545</ele>
        <time>2015-04-26T12:22:41Z</time>
      </trkpt>
      <trkpt lat="45.73254" lon="5.61352">
        <ele>317.68755553054</ele>
        <time>2015-04-26T12:22:46Z</time>
      </trkpt>
      <trkpt lat="45.73263" lon="5.61348">
        <ele>317.54495444548</ele>
        <time>2015-04-26T12:22:51Z</time>
      </trkpt>
      <trkpt lat="45.73272" lon="5.61344">
        <ele>317.70793435237</ele>
        <time>2015-04-26T12:22:56Z</time>
      </trkpt>
      <trkpt lat="45.73279" lon="5.6134">
        <ele>317.70793435237</ele>
        <time>2015-04-26T12:23:01Z</time>
      </trkpt>
      <trkpt lat="45.73282" lon="5.61334">
        <ele>318.45632177854</ele>
        <time>2015-04-26T12:23:06Z</time>
      </trkpt>
      <trkpt lat="45.73286" lon="5.6133">
        <ele>318.45632177854</ele>
        <time>2015-04-26T12:23:11Z</time>
      </trkpt>
      <trkpt lat="45.7329" lon="5.61325">
        <ele>319.58656608079</ele>
        <time>2015-04-26T12:23:16Z</time>
      </trkpt>
      <trkpt lat="45.73297" lon="5.61325">
        <ele>319.58656608079</ele>
        <time>2015-04-26T12:23:21Z</time>
      </trkpt>
      <trkpt lat="45.73303" lon="5.61322">
        <ele>320.26048046095</ele>
        <time>2015-04-26T12:23:26Z</time>
      </trkpt>
      <trkpt lat="45.73307" lon="5.61319">
        <ele>320.26048046095</ele>
        <time>2015-04-26T12:23:31Z</time>
      </trkpt>
      <trkpt lat="45.73313" lon="5.61315">
        <ele>321.01413259622</ele>
        <time>2015-04-26T12:23:36Z</time>
      </trkpt>
      <trkpt lat="45.73321" lon="5.61309">
        <ele>321.01413259622</ele>
        <time>2015-04-26T12:23:41Z</time>
      </trkpt>
      <trkpt lat="45.73332" lon="5.61307">
        <ele>322.35839700944</ele>
        <time>2015-04-26T12:23:46Z</time>
      </trkpt>
      <trkpt lat="45.73341" lon="5.61307">
        <ele>322.81946772428</ele>
        <time>2015-04-26T12:23:51Z</time>
      </trkpt>
      <trkpt lat="45.73348" lon="5.61305">
        <ele>322.81946772428</ele>
        <time>2015-04-26T12:23:56Z</time>
      </trkpt>
      <trkpt lat="45.73353" lon="5.61307">
        <ele>322.86450404546</ele>
        <time>2015-04-26T12:24:01Z</time>
      </trkpt>
      <trkpt lat="45.73357" lon="5.61308">
        <ele>322.86450404546</ele>
        <time>2015-04-26T12:24:06Z</time>
      </trkpt>
      <trkpt lat="45.73363" lon="5.61306">
        <ele>321.87551651048</ele>
        <time>2015-04-26T12:24:11Z</time>
      </trkpt>
      <trkpt lat="45.73372" lon="5.61305">
        <ele>321.87551651048</ele>
        <time>2015-04-26T12:24:16Z</time>
      </trkpt>
      <trkpt lat="45.73379" lon="5.613">
        <ele>321.83359431193</ele>
        <time>2015-04-26T12:24:21Z</time>
      </trkpt>
      <trkpt lat="45.73383" lon="5.61296">
        <ele>321.83359431193</ele>
        <time>2015-04-26T12:24:26Z</time>
      </trkpt>
      <trkpt lat="45.7339" lon="5.61291">
        <ele>322.43880646476</ele>
        <time>2015-04-26T12:24:31Z</time>
      </trkpt>
      <trkpt lat="45.73397" lon="5.61286">
        <ele>322.43880646476</ele>
        <time>2015-04-26T12:24:36Z</time>
      </trkpt>
      <trkpt lat="45.73403" lon="5.61281">
        <ele>324.14641841825</ele>
        <time>2015-04-26T12:24:41Z</time>
      </trkpt>
      <trkpt lat="45.73407" lon="5.61275">
        <ele>324.14641841825</ele>
        <time>2015-04-26T12:24:46Z</time>
      </trkpt>
      <trkpt lat="45.73412" lon="5.6127">
        <ele>325.57378541105</ele>
        <time>2015-04-26T12:24:51Z</time>
      </trkpt>
      <trkpt lat="45.7342" lon="5.61267">
        <ele>325.57378541105</ele>
        <time>2015-04-26T12:24:56Z</time>
      </trkpt>
      <trkpt lat="45.73424" lon="5.61263">
        <ele>326.70881783354</ele>
        <time>2015-04-26T12:25:01Z</time>
      </trkpt>
      <trkpt lat="45.73429" lon="5.6126">
        <ele>326.70881783354</ele>
        <time>2015-04-26T12:25:06Z</time>
      </trkpt>
      <trkpt lat="45.73436" lon="5.61257">
        <ele>326.90707443296</ele>
        <time>2015-04-26T12:25:11Z</time>
      </trkpt>
      <trkpt lat="45.73441" lon="5.61256">
        <ele>326.90707443296</ele>
        <time>2015-04-26T12:25:16Z</time>
      </trkpt>
      <trkpt lat="45.73446" lon="5.61254">
        <ele>325.47323615221</ele>
        <time>2015-04-26T12:25:21Z</time>
      </trkpt>
      <trkpt lat="45.7345" lon="5.61251">
        <ele>325.47323615221</ele>
        <time>2015-04-26T12:25:26Z</time>
      </trkpt>
      <trkpt lat="45.73455" lon="5.61248">
        <ele>324.54901550287</ele>
        <time>2015-04-26T12:25:31Z</time>
      </trkpt>
      <trkpt lat="45.7346" lon="5.61245">
        <ele>324.54901550287</ele>
        <time>2015-04-26T12:25:36Z</time>
      </trkpt>
      <trkpt lat="45.73463" lon="5.6124">
        <ele>323.16310966567</ele>
        <time>2015-04-26T12:25:41Z</time>
      </trkpt>
      <trkpt lat="45.73468" lon="5.61236">
        <ele>323.16310966567</ele>
        <time>2015-04-26T12:25:46Z</time>
      </trkpt>
      <trkpt lat="45.7347" lon="5.61232">
        <ele>323.16310966567</ele>
        <time>2015-04-26T12:25:51Z</time>
      </trkpt>
      <trkpt lat="45.73475" lon="5.61231">
        <ele>320.86361625365</ele>
        <time>2015-04-26T12:25:56Z</time>
      </trkpt>
      <trkpt lat="45.73482" lon="5.61231">
        <ele>320.86361625365</ele>
        <time>2015-04-26T12:26:01Z</time>
      </trkpt>
      <trkpt lat="45.73487" lon="5.61229">
        <ele>317.6378959611</ele>
        <time>2015-04-26T12:26:06Z</time>
      </trkpt>
      <trkpt lat="45.7349" lon="5.61224">
        <ele>317.6378959611</ele>
        <time>2015-04-26T12:26:11Z</time>
      </trkpt>
      <trkpt lat="45.73494" lon="5.61222">
        <ele>314.64411068737</ele>
        <time>2015-04-26T12:26:16Z</time>
      </trkpt>
      <trkpt lat="45.73496" lon="5.61221">
        <ele>314.64411068737</ele>
        <time>2015-04-26T12:26:21Z</time>
      </trkpt>
      <trkpt lat="45.73497" lon="5.6122">
        <ele>314.64411068737</ele>
        <time>2015-04-26T12:26:26Z</time>
      </trkpt>
      <trkpt lat="45.73501" lon="5.61218">
        <ele>314.64411068737</ele>
        <time>2015-04-26T12:26:31Z</time>
      </trkpt>
      <trkpt lat="45.73507" lon="5.61209">
        <ele>312.37820327331</ele>
        <time>2015-04-26T12:26:36Z</time>
      </trkpt>
      <trkpt lat="45.73516" lon="5.61205">
        <ele>310.60584460266</ele>
        <time>2015-04-26T12:26:41Z</time>
      </trkpt>
      <trkpt lat="45.73521" lon="5.61201">
        <ele>310.60584460266</ele>
        <time>2015-04-26T12:26:46Z</time>
      </trkpt>
      <trkpt lat="45.73525" lon="5.61196">
        <ele>308.27260825184</ele>
        <time>2015-04-26T12:26:51Z</time>
      </trkpt>
      <trkpt lat="45.73532" lon="5.61192">
        <ele>308.27260825184</ele>
        <time>2015-04-26T12:26:56Z</time>
      </trkpt>
      <trkpt lat="45.73538" lon="5.6119">
        <ele>305.93058211832</ele>
        <time>2015-04-26T12:27:01Z</time>
      </trkpt>
      <trkpt lat="45.73544" lon="5.61186">
        <ele>305.93058211832</ele>
        <time>2015-04-26T12:27:06Z</time>
      </trkpt>
      <trkpt lat="45.7355" lon="5.61179">
        <ele>304.04798390395</ele>
        <time>2015-04-26T12:27:11Z</time>
      </trkpt>
      <trkpt lat="45.73557" lon="5.61174">
        <ele>304.04798390395</ele>
        <time>2015-04-26T12:27:16Z</time>
      </trkpt>
      <trkpt lat="45.73564" lon="5.6117">
        <ele>303.53280208904</ele>
        <time>2015-04-26T12:27:21Z</time>
      </trkpt>
      <trkpt lat="45.73569" lon="5.61168">
        <ele>303.53280208904</ele>
        <time>2015-04-26T12:27:26Z</time>
      </trkpt>
      <trkpt lat="45.73573" lon="5.61161">
        <ele>303.85331804183</ele>
        <time>2015-04-26T12:27:31Z</time>
      </trkpt>
      <trkpt lat="45.7358" lon="5.61158">
        <ele>303.85331804183</ele>
        <time>2015-04-26T12:27:36Z</time>
      </trkpt>
      <trkpt lat="45.73585" lon="5.61155">
        <ele>303.21741449815</ele>
        <time>2015-04-26T12:27:41Z</time>
      </trkpt>
      <trkpt lat="45.73594" lon="5.61161">
        <ele>301.55241792891</ele>
        <time>2015-04-26T12:27:46Z</time>
      </trkpt>
      <trkpt lat="45.73601" lon="5.6116">
        <ele>301.55241792891</ele>
        <time>2015-04-26T12:27:51Z</time>
      </trkpt>
      <trkpt lat="45.73608" lon="5.61158">
        <ele>299.18287289774</ele>
        <time>2015-04-26T12:27:56Z</time>
      </trkpt>
      <trkpt lat="45.73618" lon="5.61153">
        <ele>296.65633956714</ele>
        <time>2015-04-26T12:28:01Z</time>
      </trkpt>
      <trkpt lat="45.73625" lon="5.61144">
        <ele>293.57257869023</ele>
        <time>2015-04-26T12:28:06Z</time>
      </trkpt>
      <trkpt lat="45.7363" lon="5.61139">
        <ele>293.57257869023</ele>
        <time>2015-04-26T12:28:11Z</time>
      </trkpt>
      <trkpt lat="45.73634" lon="5.61137">
        <ele>289.33160965742</ele>
        <time>2015-04-26T12:28:16Z</time>
      </trkpt>
      <trkpt lat="45.7364" lon="5.61134">
        <ele>289.33160965742</ele>
        <time>2015-04-26T12:28:21Z</time>
      </trkpt>
      <trkpt lat="45.73646" lon="5.6113">
        <ele>285.85934309096</ele>
        <time>2015-04-26T12:28:26Z</time>
      </trkpt>
      <trkpt lat="45.73652" lon="5.61126">
        <ele>285.85934309096</ele>
        <time>2015-04-26T12:28:31Z</time>
      </trkpt>
      <trkpt lat="45.73655" lon="5.61124">
        <ele>281.62334282104</ele>
        <time>2015-04-26T12:28:36Z</time>
      </trkpt>
      <trkpt lat="45.7366" lon="5.61121">
        <ele>281.62334282104</ele>
        <time>2015-04-26T12:28:41Z</time>
      </trkpt>
      <trkpt lat="45.73665" lon="5.61117">
        <ele>278.50586071492</ele>
        <time>2015-04-26T12:28:46Z</time>
      </trkpt>
      <trkpt lat="45.7367" lon="5.61113">
        <ele>278.50586071492</ele>
        <time>2015-04-26T12:28:51Z</time>
      </trkpt>
      <trkpt lat="45.73677" lon="5.61109">
        <ele>275.91295649589</ele>
        <time>2015-04-26T12:28:56Z</time>
      </trkpt>
      <trkpt lat="45.7369" lon="5.61108">
        <ele>274.44554742813</ele>
        <time>2015-04-26T12:29:01Z</time>
      </trkpt>
      <trkpt lat="45.73705" lon="5.61105">
        <ele>274.80117253841</ele>
        <time>2015-04-26T12:29:06Z</time>
      </trkpt>
      <trkpt lat="45.73721" lon="5.611">
        <ele>277.04439492585</ele>
        <time>2015-04-26T12:29:11Z</time>
      </trkpt>
      <trkpt lat="45.73736" lon="5.611">
        <ele>280.32168632327</ele>
        <time>2015-04-26T12:29:16Z</time>
      </trkpt>
      <trkpt lat="45.73749" lon="5.611">
        <ele>284.1994756984</ele>
        <time>2015-04-26T12:29:21Z</time>
      </trkpt>
      <trkpt lat="45.73755" lon="5.61099">
        <ele>284.1994756984</ele>
        <time>2015-04-26T12:29:26Z</time>
      </trkpt>
      <trkpt lat="45.73761" lon="5.61095">
        <ele>288.14457835343</ele>
        <time>2015-04-26T12:29:31Z</time>
      </trkpt>
      <trkpt lat="45.7377" lon="5.61093">
        <ele>292.02303075493</ele>
        <time>2015-04-26T12:29:36Z</time>
      </trkpt>
      <trkpt lat="45.7379" lon="5.61083">
        <ele>296.48910619173</ele>
        <time>2015-04-26T12:29:41Z</time>
      </trkpt>
      <trkpt lat="45.73816" lon="5.61076">
        <ele>300.28838266316</ele>
        <time>2015-04-26T12:29:46Z</time>
      </trkpt>
      <trkpt lat="45.73851" lon="5.61071">
        <ele>304.09075747348</ele>
        <time>2015-04-26T12:29:51Z</time>
      </trkpt>
      <trkpt lat="45.73885" lon="5.61065">
        <ele>307.40737458409</ele>
        <time>2015-04-26T12:29:56Z</time>
      </trkpt>
      <trkpt lat="45.73896" lon="5.61065">
        <ele>311.08380409868</ele>
        <time>2015-04-26T12:30:01Z</time>
      </trkpt>
      <trkpt lat="45.73899" lon="5.61065">
        <ele>311.08380409868</ele>
        <time>2015-04-26T12:30:06Z</time>
      </trkpt>
      <trkpt lat="45.73898" lon="5.61065">
        <ele>311.08380409868</ele>
        <time>2015-04-26T12:30:11Z</time>
      </trkpt>
      <trkpt lat="45.73898" lon="5.61065">
        <ele>311.08380409868</ele>
        <time>2015-04-26T12:30:16Z</time>
      </trkpt>
      <trkpt lat="45.73898" lon="5.61065">
        <ele>311.08380409868</ele>
        <time>2015-04-26T12:30:21Z</time>
      </trkpt>
      <trkpt lat="45.73898" lon="5.61071">
        <ele>311.08380409868</ele>
        <time>2015-04-26T12:30:26Z</time>
      </trkpt>
      <trkpt lat="45.73893" lon="5.61074">
        <ele>316.19089444636</ele>
        <time>2015-04-26T12:30:31Z</time>
      </trkpt>
      <trkpt lat="45.73891" lon="5.61079">
        <ele>316.19089444636</ele>
        <time>2015-04-26T12:30:36Z</time>
      </trkpt>
      <trkpt lat="45.73886" lon="5.61084">
        <ele>321.28154599917</ele>
        <time>2015-04-26T12:30:41Z</time>
      </trkpt>
      <trkpt lat="45.73886" lon="5.61089">
        <ele>321.28154599917</ele>
        <time>2015-04-26T12:30:46Z</time>
      </trkpt>
      <trkpt lat="45.73884" lon="5.61091">
        <ele>321.28154599917</ele>
        <time>2015-04-26T12:30:51Z</time>
      </trkpt>
      <trkpt lat="45.73881" lon="5.61098">
        <ele>326.29783333828</ele>
        <time>2015-04-26T12:30:56Z</time>
      </trkpt>
      <trkpt lat="45.73877" lon="5.61102">
        <ele>326.29783333828</ele>
        <time>2015-04-26T12:31:01Z</time>
      </trkpt>
      <trkpt lat="45.73872" lon="5.61107">
        <ele>331.71977050132</ele>
        <time>2015-04-26T12:31:06Z</time>
      </trkpt>
      <trkpt lat="45.7387" lon="5.61108">
        <ele>331.71977050132</ele>
        <time>2015-04-26T12:31:11Z</time>
      </trkpt>
      <trkpt lat="45.7387" lon="5.6111">
        <ele>331.71977050132</ele>
        <time>2015-04-26T12:31:16Z</time>
      </trkpt>
      <trkpt lat="45.73866" lon="5.61116">
        <ele>336.93925254819</ele>
        <time>2015-04-26T12:31:21Z</time>
      </trkpt>
      <trkpt lat="45.7386" lon="5.61121">
        <ele>336.93925254819</ele>
        <time>2015-04-26T12:31:26Z</time>
      </trkpt>
      <trkpt lat="45.73855" lon="5.61128">
        <ele>342.48897610191</ele>
        <time>2015-04-26T12:31:31Z</time>
      </trkpt>
      <trkpt lat="45.73849" lon="5.61134">
        <ele>342.48897610191</ele>
        <time>2015-04-26T12:31:36Z</time>
      </trkpt>
      <trkpt lat="45.73844" lon="5.61139">
        <ele>347.91078705954</ele>
        <time>2015-04-26T12:31:41Z</time>
      </trkpt>
      <trkpt lat="45.73841" lon="5.61141">
        <ele>347.91078705954</ele>
        <time>2015-04-26T12:31:46Z</time>
      </trkpt>
      <trkpt lat="45.73839" lon="5.61145">
        <ele>347.91078705954</ele>
        <time>2015-04-26T12:31:51Z</time>
      </trkpt>
      <trkpt lat="45.73834" lon="5.61149">
        <ele>353.22765240269</ele>
        <time>2015-04-26T12:31:56Z</time>
      </trkpt>
      <trkpt lat="45.73833" lon="5.61153">
        <ele>353.22765240269</ele>
        <time>2015-04-26T12:32:01Z</time>
      </trkpt>
      <trkpt lat="45.73835" lon="5.61157">
        <ele>353.22765240269</ele>
        <time>2015-04-26T12:32:06Z</time>
      </trkpt>
      <trkpt lat="45.73834" lon="5.61161">
        <ele>358.25977036655</ele>
        <time>2015-04-26T12:32:11Z</time>
      </trkpt>
      <trkpt lat="45.73833" lon="5.61162">
        <ele>358.25977036655</ele>
        <time>2015-04-26T12:32:16Z</time>
      </trkpt>
      <trkpt lat="45.73833" lon="5.61162">
        <ele>358.25977036655</ele>
        <time>2015-04-26T12:32:21Z</time>
      </trkpt>
      <trkpt lat="45.73837" lon="5.61167">
        <ele>358.25977036655</ele>
        <time>2015-04-26T12:32:26Z</time>
      </trkpt>
      <trkpt lat="45.73843" lon="5.61172">
        <ele>364.13874252908</ele>
        <time>2015-04-26T12:32:31Z</time>
      </trkpt>
      <trkpt lat="45.73848" lon="5.61178">
        <ele>364.13874252908</ele>
        <time>2015-04-26T12:32:36Z</time>
      </trkpt>
      <trkpt lat="45.73852" lon="5.61182">
        <ele>369.08649744973</ele>
        <time>2015-04-26T12:32:41Z</time>
      </trkpt>
      <trkpt lat="45.73858" lon="5.61182">
        <ele>369.08649744973</ele>
        <time>2015-04-26T12:32:46Z</time>
      </trkpt>
      <trkpt lat="45.73861" lon="5.61186">
        <ele>374.15348943621</ele>
        <time>2015-04-26T12:32:51Z</time>
      </trkpt>
      <trkpt lat="45.73863" lon="5.61187">
        <ele>374.15348943621</ele>
        <time>2015-04-26T12:32:56Z</time>
      </trkpt>
      <trkpt lat="45.73865" lon="5.61188">
        <ele>374.15348943621</ele>
        <time>2015-04-26T12:33:01Z</time>
      </trkpt>
      <trkpt lat="45.73867" lon="5.6119">
        <ele>374.15348943621</ele>
        <time>2015-04-26T12:33:06Z</time>
      </trkpt>
      <trkpt lat="45.73871" lon="5.61194">
        <ele>379.2899096021</ele>
        <time>2015-04-26T12:33:11Z</time>
      </trkpt>
      <trkpt lat="45.73876" lon="5.61197">
        <ele>379.2899096021</ele>
        <time>2015-04-26T12:33:16Z</time>
      </trkpt>
      <trkpt lat="45.73882" lon="5.61199">
        <ele>383.46988754208</ele>
        <time>2015-04-26T12:33:21Z</time>
      </trkpt>
      <trkpt lat="45.73887" lon="5.61201">
        <ele>383.46988754208</ele>
        <time>2015-04-26T12:33:26Z</time>
      </trkpt>
      <trkpt lat="45.73892" lon="5.61203">
        <ele>387.37448188286</ele>
        <time>2015-04-26T12:33:31Z</time>
      </trkpt>
      <trkpt lat="45.73898" lon="5.61205">
        <ele>387.37448188286</ele>
        <time>2015-04-26T12:33:36Z</time>
      </trkpt>
      <trkpt lat="45.73901" lon="5.61207">
        <ele>387.37448188286</ele>
        <time>2015-04-26T12:33:41Z</time>
      </trkpt>
      <trkpt lat="45.73905" lon="5.61208">
        <ele>391.43416451521</ele>
        <time>2015-04-26T12:33:46Z</time>
      </trkpt>
      <trkpt lat="45.7391" lon="5.61207">
        <ele>391.43416451521</ele>
        <time>2015-04-26T12:33:51Z</time>
      </trkpt>
      <trkpt lat="45.73913" lon="5.61207">
        <ele>391.43416451521</ele>
        <time>2015-04-26T12:33:56Z</time>
      </trkpt>
      <trkpt lat="45.73915" lon="5.61207">
        <ele>395.32721387493</ele>
        <time>2015-04-26T12:34:01Z</time>
      </trkpt>
      <trkpt lat="45.73916" lon="5.61206">
        <ele>395.32721387493</ele>
        <time>2015-04-26T12:34:06Z</time>
      </trkpt>
      <trkpt lat="45.73917" lon="5.61206">
        <ele>395.32721387493</ele>
        <time>2015-04-26T12:34:11Z</time>
      </trkpt>
      <trkpt lat="45.73917" lon="5.61206">
        <ele>395.32721387493</ele>
        <time>2015-04-26T12:34:16Z</time>
      </trkpt>
      <trkpt lat="45.73917" lon="5.61206">
        <ele>395.32721387493</ele>
        <time>2015-04-26T12:34:21Z</time>
      </trkpt>
      <trkpt lat="45.73917" lon="5.61207">
        <ele>395.32721387493</ele>
        <time>2015-04-26T12:34:26Z</time>
      </trkpt>
      <trkpt lat="45.73921" lon="5.61209">
        <ele>395.32721387493</ele>
        <time>2015-04-26T12:34:31Z</time>
      </trkpt>
      <trkpt lat="45.7392" lon="5.61215">
        <ele>400.09665498893</ele>
        <time>2015-04-26T12:34:36Z</time>
      </trkpt>
      <trkpt lat="45.73921" lon="5.61217">
        <ele>400.09665498893</ele>
        <time>2015-04-26T12:34:41Z</time>
      </trkpt>
      <trkpt lat="45.73921" lon="5.61216">
        <ele>400.09665498893</ele>
        <time>2015-04-26T12:34:46Z</time>
      </trkpt>
      <trkpt lat="45.73921" lon="5.61216">
        <ele>400.09665498893</ele>
        <time>2015-04-26T12:34:51Z</time>
      </trkpt>
      <trkpt lat="45.73922" lon="5.61219">
        <ele>400.09665498893</ele>
        <time>2015-04-26T12:34:56Z</time>
      </trkpt>
      <trkpt lat="45.73924" lon="5.61221">
        <ele>400.09665498893</ele>
        <time>2015-04-26T12:35:01Z</time>
      </trkpt>
      <trkpt lat="45.73927" lon="5.61224">
        <ele>404.24253639229</ele>
        <time>2015-04-26T12:35:06Z</time>
      </trkpt>
      <trkpt lat="45.73927" lon="5.61225">
        <ele>404.24253639229</ele>
        <time>2015-04-26T12:35:11Z</time>
      </trkpt>
      <trkpt lat="45.73928" lon="5.61224">
        <ele>404.24253639229</ele>
        <time>2015-04-26T12:35:16Z</time>
      </trkpt>
      <trkpt lat="45.73929" lon="5.61223">
        <ele>404.24253639229</ele>
        <time>2015-04-26T12:35:21Z</time>
      </trkpt>
      <trkpt lat="45.73929" lon="5.61222">
        <ele>404.24253639229</ele>
        <time>2015-04-26T12:35:26Z</time>
      </trkpt>
      <trkpt lat="45.73929" lon="5.61223">
        <ele>404.24253639229</ele>
        <time>2015-04-26T12:35:31Z</time>
      </trkpt>
      <trkpt lat="45.73929" lon="5.61223">
        <ele>404.24253639229</ele>
        <time>2015-04-26T12:35:36Z</time>
      </trkpt>
      <trkpt lat="45.73929" lon="5.61223">
        <ele>404.24253639229</ele>
        <time>2015-04-26T12:35:41Z</time>
      </trkpt>
      <trkpt lat="45.73931" lon="5.61225">
        <ele>404.24253639229</ele>
        <time>2015-04-26T12:35:46Z</time>
      </trkpt>
      <trkpt lat="45.73931" lon="5.61233">
        <ele>408.13539171699</ele>
        <time>2015-04-26T12:35:51Z</time>
      </trkpt>
      <trkpt lat="45.73928" lon="5.61238">
        <ele>408.13539171699</ele>
        <time>2015-04-26T12:35:56Z</time>
      </trkpt>
      <trkpt lat="45.73925" lon="5.61244">
        <ele>411.21172793421</ele>
        <time>2015-04-26T12:36:01Z</time>
      </trkpt>
      <trkpt lat="45.73922" lon="5.61249">
        <ele>411.21172793421</ele>
        <time>2015-04-26T12:36:06Z</time>
      </trkpt>
      <trkpt lat="45.73918" lon="5.61254">
        <ele>413.90323957135</ele>
        <time>2015-04-26T12:36:11Z</time>
      </trkpt>
      <trkpt lat="45.73915" lon="5.61256">
        <ele>413.90323957135</ele>
        <time>2015-04-26T12:36:16Z</time>
      </trkpt>
      <trkpt lat="45.73911" lon="5.61259">
        <ele>413.90323957135</ele>
        <time>2015-04-26T12:36:21Z</time>
      </trkpt>
      <trkpt lat="45.7391" lon="5.6126">
        <ele>416.23665116458</ele>
        <time>2015-04-26T12:36:26Z</time>
      </trkpt>
      <trkpt lat="45.73907" lon="5.61263">
        <ele>416.23665116458</ele>
        <time>2015-04-26T12:36:31Z</time>
      </trkpt>
      <trkpt lat="45.73904" lon="5.61266">
        <ele>416.23665116458</ele>
        <time>2015-04-26T12:36:36Z</time>
      </trkpt>
      <trkpt lat="45.73902" lon="5.61269">
        <ele>418.62715959282</ele>
        <time>2015-04-26T12:36:41Z</time>
      </trkpt>
      <trkpt lat="45.73902" lon="5.61272">
        <ele>418.62715959282</ele>
        <time>2015-04-26T12:36:46Z</time>
      </trkpt>
      <trkpt lat="45.73901" lon="5.61274">
        <ele>418.62715959282</ele>
        <time>2015-04-26T12:36:51Z</time>
      </trkpt>
      <trkpt lat="45.73901" lon="5.61274">
        <ele>418.62715959282</ele>
        <time>2015-04-26T12:36:56Z</time>
      </trkpt>
      <trkpt lat="45.73901" lon="5.61274">
        <ele>418.62715959282</ele>
        <time>2015-04-26T12:37:01Z</time>
      </trkpt>
      <trkpt lat="45.73901" lon="5.61274">
        <ele>418.62715959282</ele>
        <time>2015-04-26T12:37:06Z</time>
      </trkpt>
      <trkpt lat="45.73901" lon="5.61274">
        <ele>418.62715959282</ele>
        <time>2015-04-26T12:37:11Z</time>
      </trkpt>
      <trkpt lat="45.73901" lon="5.61274">
        <ele>418.62715959282</ele>
        <time>2015-04-26T12:37:16Z</time>
      </trkpt>
      <trkpt lat="45.73901" lon="5.61274">
        <ele>418.62715959282</ele>
        <time>2015-04-26T12:37:21Z</time>
      </trkpt>
      <trkpt lat="45.73901" lon="5.61274">
        <ele>418.62715959282</ele>
        <time>2015-04-26T12:37:26Z</time>
      </trkpt>
      <trkpt lat="45.73901" lon="5.61274">
        <ele>418.62715959282</ele>
        <time>2015-04-26T12:37:31Z</time>
      </trkpt>
      <trkpt lat="45.73901" lon="5.61275">
        <ele>418.62715959282</ele>
        <time>2015-04-26T12:37:36Z</time>
      </trkpt>
      <trkpt lat="45.73901" lon="5.61275">
        <ele>418.62715959282</ele>
        <time>2015-04-26T12:37:41Z</time>
      </trkpt>
      <trkpt lat="45.739" lon="5.61275">
        <ele>418.62715959282</ele>
        <time>2015-04-26T12:37:46Z</time>
      </trkpt>
      <trkpt lat="45.739" lon="5.61275">
        <ele>418.62715959282</ele>
        <time>2015-04-26T12:37:51Z</time>
      </trkpt>
      <trkpt lat="45.73901" lon="5.61275">
        <ele>418.62715959282</ele>
        <time>2015-04-26T12:37:56Z</time>
      </trkpt>
      <trkpt lat="45.73901" lon="5.61282">
        <ele>420.00408499249</ele>
        <time>2015-04-26T12:38:01Z</time>
      </trkpt>
      <trkpt lat="45.739" lon="5.61294">
        <ele>420.00408499249</ele>
        <time>2015-04-26T12:38:06Z</time>
      </trkpt>
      <trkpt lat="45.73901" lon="5.61304">
        <ele>420.4017103281</ele>
        <time>2015-04-26T12:38:11Z</time>
      </trkpt>
      <trkpt lat="45.73902" lon="5.61313">
        <ele>420.4017103281</ele>
        <time>2015-04-26T12:38:16Z</time>
      </trkpt>
      <trkpt lat="45.73904" lon="5.61321">
        <ele>420.15742814903</ele>
        <time>2015-04-26T12:38:21Z</time>
      </trkpt>
      <trkpt lat="45.73906" lon="5.6133">
        <ele>420.15742814903</ele>
        <time>2015-04-26T12:38:26Z</time>
      </trkpt>
      <trkpt lat="45.73907" lon="5.61336">
        <ele>419.15352508582</ele>
        <time>2015-04-26T12:38:31Z</time>
      </trkpt>
      <trkpt lat="45.73907" lon="5.61342">
        <ele>419.15352508582</ele>
        <time>2015-04-26T12:38:36Z</time>
      </trkpt>
      <trkpt lat="45.73905" lon="5.61346">
        <ele>419.15352508582</ele>
        <time>2015-04-26T12:38:41Z</time>
      </trkpt>
      <trkpt lat="45.73905" lon="5.6135">
        <ele>418.63788380329</ele>
        <time>2015-04-26T12:38:46Z</time>
      </trkpt>
      <trkpt lat="45.73904" lon="5.61355">
        <ele>418.63788380329</ele>
        <time>2015-04-26T12:38:51Z</time>
      </trkpt>
      <trkpt lat="45.73902" lon="5.61364">
        <ele>417.30117945235</ele>
        <time>2015-04-26T12:38:56Z</time>
      </trkpt>
      <trkpt lat="45.739" lon="5.6137">
        <ele>417.30117945235</ele>
        <time>2015-04-26T12:39:01Z</time>
      </trkpt>
      <trkpt lat="45.73897" lon="5.61375">
        <ele>415.92139781838</ele>
        <time>2015-04-26T12:39:06Z</time>
      </trkpt>
      <trkpt lat="45.7389" lon="5.6138">
        <ele>415.92139781838</ele>
        <time>2015-04-26T12:39:11Z</time>
      </trkpt>
      <trkpt lat="45.73885" lon="5.61388">
        <ele>413.76402213586</ele>
        <time>2015-04-26T12:39:16Z</time>
      </trkpt>
      <trkpt lat="45.73878" lon="5.61399">
        <ele>410.95770503159</ele>
        <time>2015-04-26T12:39:21Z</time>
      </trkpt>
      <trkpt lat="45.73871" lon="5.61409">
        <ele>408.09900193491</ele>
        <time>2015-04-26T12:39:26Z</time>
      </trkpt>
      <trkpt lat="45.73865" lon="5.61416">
        <ele>408.09900193491</ele>
        <time>2015-04-26T12:39:31Z</time>
      </trkpt>
      <trkpt lat="45.73859" lon="5.6142">
        <ele>404.35724833074</ele>
        <time>2015-04-26T12:39:36Z</time>
      </trkpt>
      <trkpt lat="45.73854" lon="5.61423">
        <ele>404.35724833074</ele>
        <time>2015-04-26T12:39:41Z</time>
      </trkpt>
      <trkpt lat="45.73849" lon="5.61428">
        <ele>401.47269231696</ele>
        <time>2015-04-26T12:39:46Z</time>
      </trkpt>
      <trkpt lat="45.73845" lon="5.61433">
        <ele>401.47269231696</ele>
        <time>2015-04-26T12:39:51Z</time>
      </trkpt>
      <trkpt lat="45.73841" lon="5.6144">
        <ele>399.2105587893</ele>
        <time>2015-04-26T12:39:56Z</time>
      </trkpt>
      <trkpt lat="45.73835" lon="5.61446">
        <ele>399.2105587893</ele>
        <time>2015-04-26T12:40:01Z</time>
      </trkpt>
      <trkpt lat="45.73827" lon="5.61452">
        <ele>396.94786902943</ele>
        <time>2015-04-26T12:40:06Z</time>
      </trkpt>
      <trkpt lat="45.73818" lon="5.61458">
        <ele>395.3321331466</ele>
        <time>2015-04-26T12:40:11Z</time>
      </trkpt>
      <trkpt lat="45.7381" lon="5.61464">
        <ele>394.39920451413</ele>
        <time>2015-04-26T12:40:16Z</time>
      </trkpt>
      <trkpt lat="45.73804" lon="5.61467">
        <ele>394.39920451413</ele>
        <time>2015-04-26T12:40:21Z</time>
      </trkpt>
      <trkpt lat="45.73799" lon="5.61467">
        <ele>392.94077190669</ele>
        <time>2015-04-26T12:40:26Z</time>
      </trkpt>
      <trkpt lat="45.73796" lon="5.61466">
        <ele>392.94077190669</ele>
        <time>2015-04-26T12:40:31Z</time>
      </trkpt>
      <trkpt lat="45.73793" lon="5.61466">
        <ele>392.94077190669</ele>
        <time>2015-04-26T12:40:36Z</time>
      </trkpt>
      <trkpt lat="45.73786" lon="5.61467">
        <ele>391.02019886879</ele>
        <time>2015-04-26T12:40:41Z</time>
      </trkpt>
      <trkpt lat="45.73779" lon="5.61471">
        <ele>391.02019886879</ele>
        <time>2015-04-26T12:40:46Z</time>
      </trkpt>
      <trkpt lat="45.73773" lon="5.61477">
        <ele>389.15836264522</ele>
        <time>2015-04-26T12:40:51Z</time>
      </trkpt>
      <trkpt lat="45.73767" lon="5.61485">
        <ele>389.15836264522</ele>
        <time>2015-04-26T12:40:56Z</time>
      </trkpt>
      <trkpt lat="45.73762" lon="5.61489">
        <ele>387.13127324655</ele>
        <time>2015-04-26T12:41:01Z</time>
      </trkpt>
      <trkpt lat="45.73755" lon="5.61491">
        <ele>387.13127324655</ele>
        <time>2015-04-26T12:41:06Z</time>
      </trkpt>
      <trkpt lat="45.73748" lon="5.61494">
        <ele>385.14947587199</ele>
        <time>2015-04-26T12:41:11Z</time>
      </trkpt>
      <trkpt lat="45.73743" lon="5.61496">
        <ele>385.14947587199</ele>
        <time>2015-04-26T12:41:16Z</time>
      </trkpt>
      <trkpt lat="45.73737" lon="5.61501">
        <ele>383.4076079965</ele>
        <time>2015-04-26T12:41:21Z</time>
      </trkpt>
      <trkpt lat="45.73733" lon="5.61503">
        <ele>383.4076079965</ele>
        <time>2015-04-26T12:41:26Z</time>
      </trkpt>
      <trkpt lat="45.7373" lon="5.61503">
        <ele>383.4076079965</ele>
        <time>2015-04-26T12:41:31Z</time>
      </trkpt>
      <trkpt lat="45.73725" lon="5.61506">
        <ele>380.44214512939</ele>
        <time>2015-04-26T12:41:36Z</time>
      </trkpt>
      <trkpt lat="45.73718" lon="5.61511">
        <ele>380.44214512939</ele>
        <time>2015-04-26T12:41:41Z</time>
      </trkpt>
      <trkpt lat="45.73712" lon="5.61514">
        <ele>377.63828470032</ele>
        <time>2015-04-26T12:41:46Z</time>
      </trkpt>
      <trkpt lat="45.73708" lon="5.6152">
        <ele>377.63828470032</ele>
        <time>2015-04-26T12:41:51Z</time>
      </trkpt>
      <trkpt lat="45.73704" lon="5.61523">
        <ele>374.70786175452</ele>
        <time>2015-04-26T12:41:56Z</time>
      </trkpt>
      <trkpt lat="45.73699" lon="5.61529">
        <ele>374.70786175452</ele>
        <time>2015-04-26T12:42:01Z</time>
      </trkpt>
      <trkpt lat="45.73689" lon="5.6154">
        <ele>372.32060747526</ele>
        <time>2015-04-26T12:42:06Z</time>
      </trkpt>
      <trkpt lat="45.73672" lon="5.61557">
        <ele>370.43226326899</ele>
        <time>2015-04-26T12:42:11Z</time>
      </trkpt>
      <trkpt lat="45.73658" lon="5.61573">
        <ele>369.00006300916</ele>
        <time>2015-04-26T12:42:16Z</time>
      </trkpt>
      <trkpt lat="45.73651" lon="5.61582">
        <ele>366.901909746</ele>
        <time>2015-04-26T12:42:21Z</time>
      </trkpt>
      <trkpt lat="45.73644" lon="5.6159">
        <ele>366.901909746</ele>
        <time>2015-04-26T12:42:26Z</time>
      </trkpt>
      <trkpt lat="45.73638" lon="5.61601">
        <ele>365.10279298778</ele>
        <time>2015-04-26T12:42:31Z</time>
      </trkpt>
      <trkpt lat="45.73633" lon="5.6161">
        <ele>365.10279298778</ele>
        <time>2015-04-26T12:42:36Z</time>
      </trkpt>
      <trkpt lat="45.73627" lon="5.61618">
        <ele>362.70864568699</ele>
        <time>2015-04-26T12:42:41Z</time>
      </trkpt>
      <trkpt lat="45.73624" lon="5.61623">
        <ele>362.70864568699</ele>
        <time>2015-04-26T12:42:46Z</time>
      </trkpt>
      <trkpt lat="45.7362" lon="5.61627">
        <ele>360.46321176864</ele>
        <time>2015-04-26T12:42:51Z</time>
      </trkpt>
      <trkpt lat="45.73612" lon="5.61635">
        <ele>358.88190655478</ele>
        <time>2015-04-26T12:42:56Z</time>
      </trkpt>
      <trkpt lat="45.73604" lon="5.61639">
        <ele>358.88190655478</ele>
        <time>2015-04-26T12:43:01Z</time>
      </trkpt>
      <trkpt lat="45.73598" lon="5.61644">
        <ele>356.84044810556</ele>
        <time>2015-04-26T12:43:06Z</time>
      </trkpt>
      <trkpt lat="45.73595" lon="5.6165">
        <ele>356.84044810556</ele>
        <time>2015-04-26T12:43:11Z</time>
      </trkpt>
      <trkpt lat="45.73591" lon="5.61657">
        <ele>354.79685821839</ele>
        <time>2015-04-26T12:43:16Z</time>
      </trkpt>
      <trkpt lat="45.73586" lon="5.61664">
        <ele>354.79685821839</ele>
        <time>2015-04-26T12:43:21Z</time>
      </trkpt>
      <trkpt lat="45.73579" lon="5.61676">
        <ele>352.94461569518</ele>
        <time>2015-04-26T12:43:26Z</time>
      </trkpt>
      <trkpt lat="45.73572" lon="5.61685">
        <ele>351.60624459821</ele>
        <time>2015-04-26T12:43:31Z</time>
      </trkpt>
      <trkpt lat="45.73565" lon="5.61694">
        <ele>350.92030712473</ele>
        <time>2015-04-26T12:43:36Z</time>
      </trkpt>
      <trkpt lat="45.73558" lon="5.61702">
        <ele>350.92030712473</ele>
        <time>2015-04-26T12:43:41Z</time>
      </trkpt>
      <trkpt lat="45.73552" lon="5.61705">
        <ele>350.27809714857</ele>
        <time>2015-04-26T12:43:46Z</time>
      </trkpt>
      <trkpt lat="45.73547" lon="5.61705">
        <ele>350.27809714857</ele>
        <time>2015-04-26T12:43:51Z</time>
      </trkpt>
      <trkpt lat="45.73542" lon="5.61707">
        <ele>349.59079118218</ele>
        <time>2015-04-26T12:43:56Z</time>
      </trkpt>
      <trkpt lat="45.73537" lon="5.61707">
        <ele>349.59079118218</ele>
        <time>2015-04-26T12:44:01Z</time>
      </trkpt>
      <trkpt lat="45.73534" lon="5.61704">
        <ele>349.59079118218</ele>
        <time>2015-04-26T12:44:06Z</time>
      </trkpt>
      <trkpt lat="45.73531" lon="5.61705">
        <ele>349.04976924273</ele>
        <time>2015-04-26T12:44:11Z</time>
      </trkpt>
      <trkpt lat="45.73529" lon="5.61709">
        <ele>349.04976924273</ele>
        <time>2015-04-26T12:44:16Z</time>
      </trkpt>
      <trkpt lat="45.73528" lon="5.61711">
        <ele>349.04976924273</ele>
        <time>2015-04-26T12:44:21Z</time>
      </trkpt>
      <trkpt lat="45.73528" lon="5.61715">
        <ele>349.04976924273</ele>
        <time>2015-04-26T12:44:26Z</time>
      </trkpt>
      <trkpt lat="45.73531" lon="5.61725">
        <ele>348.44260102452</ele>
        <time>2015-04-26T12:44:31Z</time>
      </trkpt>
      <trkpt lat="45.73535" lon="5.61733">
        <ele>348.44260102452</ele>
        <time>2015-04-26T12:44:36Z</time>
      </trkpt>
      <trkpt lat="45.73537" lon="5.61738">
        <ele>348.01916812216</ele>
        <time>2015-04-26T12:44:41Z</time>
      </trkpt>
      <trkpt lat="45.73542" lon="5.61739">
        <ele>348.01916812216</ele>
        <time>2015-04-26T12:44:46Z</time>
      </trkpt>
      <trkpt lat="45.73548" lon="5.6174">
        <ele>347.56353010361</ele>
        <time>2015-04-26T12:44:51Z</time>
      </trkpt>
      <trkpt lat="45.73554" lon="5.61738">
        <ele>347.56353010361</ele>
        <time>2015-04-26T12:44:56Z</time>
      </trkpt>
      <trkpt lat="45.73561" lon="5.61739">
        <ele>346.65934353639</ele>
        <time>2015-04-26T12:45:01Z</time>
      </trkpt>
      <trkpt lat="45.73566" lon="5.6174">
        <ele>346.65934353639</ele>
        <time>2015-04-26T12:45:06Z</time>
      </trkpt>
      <trkpt lat="45.73571" lon="5.61738">
        <ele>345.57043342237</ele>
        <time>2015-04-26T12:45:11Z</time>
      </trkpt>
      <trkpt lat="45.73577" lon="5.61737">
        <ele>345.57043342237</ele>
        <time>2015-04-26T12:45:16Z</time>
      </trkpt>
      <trkpt lat="45.73585" lon="5.61736">
        <ele>344.64247954793</ele>
        <time>2015-04-26T12:45:21Z</time>
      </trkpt>
      <trkpt lat="45.7359" lon="5.61734">
        <ele>344.64247954793</ele>
        <time>2015-04-26T12:45:26Z</time>
      </trkpt>
      <trkpt lat="45.73597" lon="5.61732">
        <ele>343.77724566137</ele>
        <time>2015-04-26T12:45:31Z</time>
      </trkpt>
      <trkpt lat="45.73602" lon="5.61731">
        <ele>343.77724566137</ele>
        <time>2015-04-26T12:45:36Z</time>
      </trkpt>
      <trkpt lat="45.73606" lon="5.6173">
        <ele>343.77724566137</ele>
        <time>2015-04-26T12:45:41Z</time>
      </trkpt>
      <trkpt lat="45.73612" lon="5.6173">
        <ele>342.03314091703</ele>
        <time>2015-04-26T12:45:46Z</time>
      </trkpt>
      <trkpt lat="45.73618" lon="5.61729">
        <ele>342.03314091703</ele>
        <time>2015-04-26T12:45:51Z</time>
      </trkpt>
      <trkpt lat="45.73624" lon="5.61726">
        <ele>340.03883349067</ele>
        <time>2015-04-26T12:45:56Z</time>
      </trkpt>
      <trkpt lat="45.7363" lon="5.61729">
        <ele>340.03883349067</ele>
        <time>2015-04-26T12:46:01Z</time>
      </trkpt>
      <trkpt lat="45.73631" lon="5.61736">
        <ele>338.26209781727</ele>
        <time>2015-04-26T12:46:06Z</time>
      </trkpt>
      <trkpt lat="45.73629" lon="5.61739">
        <ele>338.26209781727</ele>
        <time>2015-04-26T12:46:11Z</time>
      </trkpt>
      <trkpt lat="45.73624" lon="5.61742">
        <ele>338.26209781727</ele>
        <time>2015-04-26T12:46:16Z</time>
      </trkpt>
      <trkpt lat="45.7362" lon="5.61743">
        <ele>336.22771386437</ele>
        <time>2015-04-26T12:46:21Z</time>
      </trkpt>
      <trkpt lat="45.73617" lon="5.61747">
        <ele>336.22771386437</ele>
        <time>2015-04-26T12:46:26Z</time>
      </trkpt>
      <trkpt lat="45.73613" lon="5.61749">
        <ele>336.22771386437</ele>
        <time>2015-04-26T12:46:31Z</time>
      </trkpt>
      <trkpt lat="45.73608" lon="5.61749">
        <ele>334.59122025347</ele>
        <time>2015-04-26T12:46:36Z</time>
      </trkpt>
      <trkpt lat="45.73601" lon="5.61755">
        <ele>334.59122025347</ele>
        <time>2015-04-26T12:46:41Z</time>
      </trkpt>
      <trkpt lat="45.73599" lon="5.61762">
        <ele>332.38795603464</ele>
        <time>2015-04-26T12:46:46Z</time>
      </trkpt>
      <trkpt lat="45.73601" lon="5.61771">
        <ele>332.38795603464</ele>
        <time>2015-04-26T12:46:51Z</time>
      </trkpt>
      <trkpt lat="45.73602" lon="5.61781">
        <ele>330.29641160159</ele>
        <time>2015-04-26T12:46:56Z</time>
      </trkpt>
      <trkpt lat="45.73601" lon="5.61793">
        <ele>330.29641160159</ele>
        <time>2015-04-26T12:47:01Z</time>
      </trkpt>
      <trkpt lat="45.736" lon="5.61805">
        <ele>328.58453342839</ele>
        <time>2015-04-26T12:47:06Z</time>
      </trkpt>
      <trkpt lat="45.73596" lon="5.6182">
        <ele>327.38412353624</ele>
        <time>2015-04-26T12:47:11Z</time>
      </trkpt>
      <trkpt lat="45.7359" lon="5.61832">
        <ele>326.68606538778</ele>
        <time>2015-04-26T12:47:16Z</time>
      </trkpt>
      <trkpt lat="45.73587" lon="5.61836">
        <ele>326.68606538778</ele>
        <time>2015-04-26T12:47:21Z</time>
      </trkpt>
      <trkpt lat="45.73583" lon="5.61841">
        <ele>326.32188777673</ele>
        <time>2015-04-26T12:47:26Z</time>
      </trkpt>
      <trkpt lat="45.73578" lon="5.61846">
        <ele>326.32188777673</ele>
        <time>2015-04-26T12:47:31Z</time>
      </trkpt>
      <trkpt lat="45.73574" lon="5.61854">
        <ele>326.82621231614</ele>
        <time>2015-04-26T12:47:36Z</time>
      </trkpt>
      <trkpt lat="45.73563" lon="5.61867">
        <ele>327.09225262103</ele>
        <time>2015-04-26T12:47:41Z</time>
      </trkpt>
      <trkpt lat="45.73557" lon="5.61876">
        <ele>327.33450310795</ele>
        <time>2015-04-26T12:47:46Z</time>
      </trkpt>
      <trkpt lat="45.7355" lon="5.61883">
        <ele>327.33450310795</ele>
        <time>2015-04-26T12:47:51Z</time>
      </trkpt>
      <trkpt lat="45.73542" lon="5.61888">
        <ele>328.08319488917</ele>
        <time>2015-04-26T12:47:56Z</time>
      </trkpt>
      <trkpt lat="45.73537" lon="5.61889">
        <ele>328.08319488917</ele>
        <time>2015-04-26T12:48:01Z</time>
      </trkpt>
      <trkpt lat="45.73529" lon="5.61894">
        <ele>329.22291107234</ele>
        <time>2015-04-26T12:48:06Z</time>
      </trkpt>
      <trkpt lat="45.73521" lon="5.61896">
        <ele>329.22291107234</ele>
        <time>2015-04-26T12:48:11Z</time>
      </trkpt>
      <trkpt lat="45.73515" lon="5.61901">
        <ele>330.35740295153</ele>
        <time>2015-04-26T12:48:16Z</time>
      </trkpt>
      <trkpt lat="45.73507" lon="5.61909">
        <ele>331.42220623095</ele>
        <time>2015-04-26T12:48:21Z</time>
      </trkpt>
      <trkpt lat="45.735" lon="5.61916">
        <ele>331.42220623095</ele>
        <time>2015-04-26T12:48:26Z</time>
      </trkpt>
      <trkpt lat="45.73492" lon="5.61921">
        <ele>332.28577872366</ele>
        <time>2015-04-26T12:48:31Z</time>
      </trkpt>
      <trkpt lat="45.73488" lon="5.61927">
        <ele>332.28577872366</ele>
        <time>2015-04-26T12:48:36Z</time>
      </trkpt>
      <trkpt lat="45.73487" lon="5.6193">
        <ele>332.28577872366</ele>
        <time>2015-04-26T12:48:41Z</time>
      </trkpt>
      <trkpt lat="45.73483" lon="5.61935">
        <ele>331.83250024072</ele>
        <time>2015-04-26T12:48:46Z</time>
      </trkpt>
      <trkpt lat="45.73477" lon="5.61938">
        <ele>331.83250024072</ele>
        <time>2015-04-26T12:48:51Z</time>
      </trkpt>
      <trkpt lat="45.73469" lon="5.61941">
        <ele>331.62647169605</ele>
        <time>2015-04-26T12:48:56Z</time>
      </trkpt>
      <trkpt lat="45.73462" lon="5.61945">
        <ele>331.62647169605</ele>
        <time>2015-04-26T12:49:01Z</time>
      </trkpt>
      <trkpt lat="45.73455" lon="5.6195">
        <ele>331.76163887835</ele>
        <time>2015-04-26T12:49:06Z</time>
      </trkpt>
      <trkpt lat="45.73451" lon="5.61956">
        <ele>331.76163887835</ele>
        <time>2015-04-26T12:49:11Z</time>
      </trkpt>
      <trkpt lat="45.73447" lon="5.61964">
        <ele>331.96389823181</ele>
        <time>2015-04-26T12:49:16Z</time>
      </trkpt>
      <trkpt lat="45.7344" lon="5.6197">
        <ele>331.96389823181</ele>
        <time>2015-04-26T12:49:21Z</time>
      </trkpt>
      <trkpt lat="45.73434" lon="5.61974">
        <ele>332.12329585045</ele>
        <time>2015-04-26T12:49:26Z</time>
      </trkpt>
      <trkpt lat="45.73429" lon="5.61982">
        <ele>332.12329585045</ele>
        <time>2015-04-26T12:49:31Z</time>
      </trkpt>
      <trkpt lat="45.73424" lon="5.61988">
        <ele>332.31110465281</ele>
        <time>2015-04-26T12:49:36Z</time>
      </trkpt>
      <trkpt lat="45.7342" lon="5.61993">
        <ele>332.31110465281</ele>
        <time>2015-04-26T12:49:41Z</time>
      </trkpt>
      <trkpt lat="45.73415" lon="5.61996">
        <ele>331.85841487552</ele>
        <time>2015-04-26T12:49:46Z</time>
      </trkpt>
      <trkpt lat="45.73409" lon="5.62003">
        <ele>331.85841487552</ele>
        <time>2015-04-26T12:49:51Z</time>
      </trkpt>
      <trkpt lat="45.73405" lon="5.62013">
        <ele>331.58846510806</ele>
        <time>2015-04-26T12:49:56Z</time>
      </trkpt>
      <trkpt lat="45.73402" lon="5.62022">
        <ele>331.58846510806</ele>
        <time>2015-04-26T12:50:01Z</time>
      </trkpt>
      <trkpt lat="45.73397" lon="5.62027">
        <ele>330.89455300986</ele>
        <time>2015-04-26T12:50:06Z</time>
      </trkpt>
      <trkpt lat="45.73392" lon="5.62032">
        <ele>330.89455300986</ele>
        <time>2015-04-26T12:50:11Z</time>
      </trkpt>
      <trkpt lat="45.73385" lon="5.62035">
        <ele>330.23902381364</ele>
        <time>2015-04-26T12:50:16Z</time>
      </trkpt>
      <trkpt lat="45.73379" lon="5.62038">
        <ele>330.23902381364</ele>
        <time>2015-04-26T12:50:21Z</time>
      </trkpt>
      <trkpt lat="45.73374" lon="5.62044">
        <ele>329.32969316763</ele>
        <time>2015-04-26T12:50:26Z</time>
      </trkpt>
      <trkpt lat="45.73369" lon="5.6205">
        <ele>329.32969316763</ele>
        <time>2015-04-26T12:50:31Z</time>
      </trkpt>
      <trkpt lat="45.73369" lon="5.6206">
        <ele>328.87660234222</ele>
        <time>2015-04-26T12:50:36Z</time>
      </trkpt>
      <trkpt lat="45.73372" lon="5.62065">
        <ele>328.87660234222</ele>
        <time>2015-04-26T12:50:41Z</time>
      </trkpt>
      <trkpt lat="45.7337" lon="5.62075">
        <ele>328.0809201933</ele>
        <time>2015-04-26T12:50:46Z</time>
      </trkpt>
      <trkpt lat="45.73367" lon="5.62084">
        <ele>328.0809201933</ele>
        <time>2015-04-26T12:50:51Z</time>
      </trkpt>
      <trkpt lat="45.73365" lon="5.62096">
        <ele>327.34202165421</ele>
        <time>2015-04-26T12:50:56Z</time>
      </trkpt>
      <trkpt lat="45.73367" lon="5.62107">
        <ele>327.34202165421</ele>
        <time>2015-04-26T12:51:01Z</time>
      </trkpt>
      <trkpt lat="45.73371" lon="5.6211">
        <ele>326.5542983742</ele>
        <time>2015-04-26T12:51:06Z</time>
      </trkpt>
      <trkpt lat="45.73379" lon="5.62112">
        <ele>326.5542983742</ele>
        <time>2015-04-26T12:51:11Z</time>
      </trkpt>
      <trkpt lat="45.73386" lon="5.62112">
        <ele>325.89392470623</ele>
        <time>2015-04-26T12:51:16Z</time>
      </trkpt>
      <trkpt lat="45.73392" lon="5.62113">
        <ele>325.89392470623</ele>
        <time>2015-04-26T12:51:21Z</time>
      </trkpt>
      <trkpt lat="45.73399" lon="5.62113">
        <ele>325.52384886698</ele>
        <time>2015-04-26T12:51:26Z</time>
      </trkpt>
      <trkpt lat="45.73406" lon="5.62114">
        <ele>325.52384886698</ele>
        <time>2015-04-26T12:51:31Z</time>
      </trkpt>
      <trkpt lat="45.73412" lon="5.62114">
        <ele>324.83051454948</ele>
        <time>2015-04-26T12:51:36Z</time>
      </trkpt>
      <trkpt lat="45.73418" lon="5.62116">
        <ele>324.83051454948</ele>
        <time>2015-04-26T12:51:41Z</time>
      </trkpt>
      <trkpt lat="45.73427" lon="5.6212">
        <ele>324.62987768368</ele>
        <time>2015-04-26T12:51:46Z</time>
      </trkpt>
      <trkpt lat="45.73436" lon="5.62123">
        <ele>324.62987768368</ele>
        <time>2015-04-26T12:51:51Z</time>
      </trkpt>
      <trkpt lat="45.7344" lon="5.62125">
        <ele>324.06259174532</ele>
        <time>2015-04-26T12:51:56Z</time>
      </trkpt>
      <trkpt lat="45.73447" lon="5.62127">
        <ele>324.06259174532</ele>
        <time>2015-04-26T12:52:01Z</time>
      </trkpt>
      <trkpt lat="45.73455" lon="5.62129">
        <ele>324.35108604418</ele>
        <time>2015-04-26T12:52:06Z</time>
      </trkpt>
      <trkpt lat="45.73461" lon="5.6213">
        <ele>324.35108604418</ele>
        <time>2015-04-26T12:52:11Z</time>
      </trkpt>
      <trkpt lat="45.7347" lon="5.6213">
        <ele>324.49280879422</ele>
        <time>2015-04-26T12:52:16Z</time>
      </trkpt>
      <trkpt lat="45.73479" lon="5.62128">
        <ele>324.49280879422</ele>
        <time>2015-04-26T12:52:21Z</time>
      </trkpt>
      <trkpt lat="45.73486" lon="5.62128">
        <ele>324.84192165801</ele>
        <time>2015-04-26T12:52:26Z</time>
      </trkpt>
      <trkpt lat="45.73492" lon="5.62128">
        <ele>324.84192165801</ele>
        <time>2015-04-26T12:52:31Z</time>
      </trkpt>
      <trkpt lat="45.73499" lon="5.62128">
        <ele>325.09196666173</ele>
        <time>2015-04-26T12:52:36Z</time>
      </trkpt>
      <trkpt lat="45.73507" lon="5.62127">
        <ele>325.09196666173</ele>
        <time>2015-04-26T12:52:41Z</time>
      </trkpt>
      <trkpt lat="45.73515" lon="5.62127">
        <ele>325.11786876722</ele>
        <time>2015-04-26T12:52:46Z</time>
      </trkpt>
      <trkpt lat="45.73521" lon="5.62127">
        <ele>325.11786876722</ele>
        <time>2015-04-26T12:52:51Z</time>
      </trkpt>
      <trkpt lat="45.73529" lon="5.62127">
        <ele>325.13589785628</ele>
        <time>2015-04-26T12:52:56Z</time>
      </trkpt>
      <trkpt lat="45.73539" lon="5.62127">
        <ele>325.26006607134</ele>
        <time>2015-04-26T12:53:01Z</time>
      </trkpt>
      <trkpt lat="45.73548" lon="5.62128">
        <ele>325.26006607134</ele>
        <time>2015-04-26T12:53:06Z</time>
      </trkpt>
      <trkpt lat="45.73553" lon="5.62128">
        <ele>325.36520920565</ele>
        <time>2015-04-26T12:53:11Z</time>
      </trkpt>
      <trkpt lat="45.73559" lon="5.62129">
        <ele>325.36520920565</ele>
        <time>2015-04-26T12:53:16Z</time>
      </trkpt>
      <trkpt lat="45.73566" lon="5.6213">
        <ele>325.42195226441</ele>
        <time>2015-04-26T12:53:21Z</time>
      </trkpt>
      <trkpt lat="45.73574" lon="5.62132">
        <ele>325.42195226441</ele>
        <time>2015-04-26T12:53:26Z</time>
      </trkpt>
      <trkpt lat="45.73582" lon="5.62135">
        <ele>325.64827780917</ele>
        <time>2015-04-26T12:53:31Z</time>
      </trkpt>
      <trkpt lat="45.7359" lon="5.62136">
        <ele>325.64827780917</ele>
        <time>2015-04-26T12:53:36Z</time>
      </trkpt>
      <trkpt lat="45.73596" lon="5.62137">
        <ele>325.87106595102</ele>
        <time>2015-04-26T12:53:41Z</time>
      </trkpt>
      <trkpt lat="45.73603" lon="5.6214">
        <ele>325.87106595102</ele>
        <time>2015-04-26T12:53:46Z</time>
      </trkpt>
      <trkpt lat="45.7361" lon="5.62142">
        <ele>326.10293283767</ele>
        <time>2015-04-26T12:53:51Z</time>
      </trkpt>
      <trkpt lat="45.73618" lon="5.62141">
        <ele>326.10293283767</ele>
        <time>2015-04-26T12:53:56Z</time>
      </trkpt>
      <trkpt lat="45.73626" lon="5.62141">
        <ele>326.22591783847</ele>
        <time>2015-04-26T12:54:01Z</time>
      </trkpt>
      <trkpt lat="45.73635" lon="5.6214">
        <ele>326.22591783847</ele>
        <time>2015-04-26T12:54:06Z</time>
      </trkpt>
      <trkpt lat="45.73645" lon="5.62141">
        <ele>326.60667384719</ele>
        <time>2015-04-26T12:54:11Z</time>
      </trkpt>
      <trkpt lat="45.73653" lon="5.62141">
        <ele>326.60667384719</ele>
        <time>2015-04-26T12:54:16Z</time>
      </trkpt>
      <trkpt lat="45.73656" lon="5.6214">
        <ele>326.70519410293</ele>
        <time>2015-04-26T12:54:21Z</time>
      </trkpt>
      <trkpt lat="45.73661" lon="5.62139">
        <ele>326.70519410293</ele>
        <time>2015-04-26T12:54:26Z</time>
      </trkpt>
      <trkpt lat="45.73668" lon="5.62138">
        <ele>326.23817315064</ele>
        <time>2015-04-26T12:54:31Z</time>
      </trkpt>
      <trkpt lat="45.73675" lon="5.62138">
        <ele>326.23817315064</ele>
        <time>2015-04-26T12:54:36Z</time>
      </trkpt>
      <trkpt lat="45.73685" lon="5.62139">
        <ele>326.01119821476</ele>
        <time>2015-04-26T12:54:41Z</time>
      </trkpt>
      <trkpt lat="45.73693" lon="5.62141">
        <ele>326.01119821476</ele>
        <time>2015-04-26T12:54:46Z</time>
      </trkpt>
      <trkpt lat="45.73701" lon="5.62142">
        <ele>325.51630638045</ele>
        <time>2015-04-26T12:54:51Z</time>
      </trkpt>
      <trkpt lat="45.73709" lon="5.62143">
        <ele>325.51630638045</ele>
        <time>2015-04-26T12:54:56Z</time>
      </trkpt>
      <trkpt lat="45.73717" lon="5.62144">
        <ele>325.24920954862</ele>
        <time>2015-04-26T12:55:01Z</time>
      </trkpt>
      <trkpt lat="45.73724" lon="5.62146">
        <ele>325.24920954862</ele>
        <time>2015-04-26T12:55:06Z</time>
      </trkpt>
      <trkpt lat="45.73731" lon="5.62148">
        <ele>325.02012446463</ele>
        <time>2015-04-26T12:55:11Z</time>
      </trkpt>
      <trkpt lat="45.73738" lon="5.6215">
        <ele>325.02012446463</ele>
        <time>2015-04-26T12:55:16Z</time>
      </trkpt>
      <trkpt lat="45.73745" lon="5.62151">
        <ele>324.72521248857</ele>
        <time>2015-04-26T12:55:21Z</time>
      </trkpt>
      <trkpt lat="45.73753" lon="5.62153">
        <ele>324.72521248857</ele>
        <time>2015-04-26T12:55:26Z</time>
      </trkpt>
      <trkpt lat="45.73762" lon="5.62154">
        <ele>324.7728872774</ele>
        <time>2015-04-26T12:55:31Z</time>
      </trkpt>
      <trkpt lat="45.73772" lon="5.62155">
        <ele>324.69039128183</ele>
        <time>2015-04-26T12:55:36Z</time>
      </trkpt>
      <trkpt lat="45.73783" lon="5.62159">
        <ele>324.80389517108</ele>
        <time>2015-04-26T12:55:41Z</time>
      </trkpt>
      <trkpt lat="45.73793" lon="5.62162">
        <ele>325.09805903038</ele>
        <time>2015-04-26T12:55:46Z</time>
      </trkpt>
      <trkpt lat="45.738" lon="5.62162">
        <ele>325.09805903038</ele>
        <time>2015-04-26T12:55:51Z</time>
      </trkpt>
      <trkpt lat="45.73809" lon="5.62165">
        <ele>325.77437410316</ele>
        <time>2015-04-26T12:55:56Z</time>
      </trkpt>
      <trkpt lat="45.73817" lon="5.62165">
        <ele>325.77437410316</ele>
        <time>2015-04-26T12:56:01Z</time>
      </trkpt>
      <trkpt lat="45.73824" lon="5.62167">
        <ele>326.15383616743</ele>
        <time>2015-04-26T12:56:06Z</time>
      </trkpt>
      <trkpt lat="45.73831" lon="5.62169">
        <ele>326.15383616743</ele>
        <time>2015-04-26T12:56:11Z</time>
      </trkpt>
      <trkpt lat="45.73838" lon="5.62172">
        <ele>326.45845525855</ele>
        <time>2015-04-26T12:56:16Z</time>
      </trkpt>
      <trkpt lat="45.73846" lon="5.62173">
        <ele>326.45845525855</ele>
        <time>2015-04-26T12:56:21Z</time>
      </trkpt>
      <trkpt lat="45.73854" lon="5.62176">
        <ele>326.37538953929</ele>
        <time>2015-04-26T12:56:26Z</time>
      </trkpt>
      <trkpt lat="45.73862" lon="5.62178">
        <ele>326.37538953929</ele>
        <time>2015-04-26T12:56:31Z</time>
      </trkpt>
      <trkpt lat="45.73869" lon="5.62179">
        <ele>326.17794615571</ele>
        <time>2015-04-26T12:56:36Z</time>
      </trkpt>
      <trkpt lat="45.73875" lon="5.62179">
        <ele>326.17794615571</ele>
        <time>2015-04-26T12:56:41Z</time>
      </trkpt>
      <trkpt lat="45.73881" lon="5.62181">
        <ele>326.06207647186</ele>
        <time>2015-04-26T12:56:46Z</time>
      </trkpt>
      <trkpt lat="45.73887" lon="5.62181">
        <ele>326.06207647186</ele>
        <time>2015-04-26T12:56:51Z</time>
      </trkpt>
      <trkpt lat="45.73896" lon="5.62184">
        <ele>325.56064955088</ele>
        <time>2015-04-26T12:56:56Z</time>
      </trkpt>
      <trkpt lat="45.73904" lon="5.62184">
        <ele>325.56064955088</ele>
        <time>2015-04-26T12:57:01Z</time>
      </trkpt>
      <trkpt lat="45.73912" lon="5.62185">
        <ele>325.33721332554</ele>
        <time>2015-04-26T12:57:06Z</time>
      </trkpt>
      <trkpt lat="45.7392" lon="5.62183">
        <ele>325.33721332554</ele>
        <time>2015-04-26T12:57:11Z</time>
      </trkpt>
      <trkpt lat="45.73927" lon="5.62183">
        <ele>325.24203608093</ele>
        <time>2015-04-26T12:57:16Z</time>
      </trkpt>
      <trkpt lat="45.73932" lon="5.62183">
        <ele>325.24203608093</ele>
        <time>2015-04-26T12:57:21Z</time>
      </trkpt>
      <trkpt lat="45.7394" lon="5.62184">
        <ele>325.2369329721</ele>
        <time>2015-04-26T12:57:26Z</time>
      </trkpt>
      <trkpt lat="45.73948" lon="5.62183">
        <ele>325.2369329721</ele>
        <time>2015-04-26T12:57:31Z</time>
      </trkpt>
      <trkpt lat="45.73955" lon="5.62182">
        <ele>325.17100915031</ele>
        <time>2015-04-26T12:57:36Z</time>
      </trkpt>
      <trkpt lat="45.73962" lon="5.62184">
        <ele>325.17100915031</ele>
        <time>2015-04-26T12:57:41Z</time>
      </trkpt>
      <trkpt lat="45.73969" lon="5.62183">
        <ele>324.91906021953</ele>
        <time>2015-04-26T12:57:46Z</time>
      </trkpt>
      <trkpt lat="45.73975" lon="5.62183">
        <ele>324.91906021953</ele>
        <time>2015-04-26T12:57:51Z</time>
      </trkpt>
      <trkpt lat="45.73982" lon="5.62182">
        <ele>325.01412359117</ele>
        <time>2015-04-26T12:57:56Z</time>
      </trkpt>
      <trkpt lat="45.73991" lon="5.62182">
        <ele>325.01412359117</ele>
        <time>2015-04-26T12:58:01Z</time>
      </trkpt>
      <trkpt lat="45.73998" lon="5.62181">
        <ele>325.05563787268</ele>
        <time>2015-04-26T12:58:06Z</time>
      </trkpt>
      <trkpt lat="45.74006" lon="5.62179">
        <ele>325.05563787268</ele>
        <time>2015-04-26T12:58:11Z</time>
      </trkpt>
      <trkpt lat="45.74014" lon="5.62179">
        <ele>325.06173601346</ele>
        <time>2015-04-26T12:58:16Z</time>
      </trkpt>
      <trkpt lat="45.74018" lon="5.62186">
        <ele>325.06173601346</ele>
        <time>2015-04-26T12:58:21Z</time>
      </trkpt>
      <trkpt lat="45.74015" lon="5.62212">
        <ele>325.222269709</ele>
        <time>2015-04-26T12:58:26Z</time>
      </trkpt>
      <trkpt lat="45.74015" lon="5.62228">
        <ele>325.07863896954</ele>
        <time>2015-04-26T12:58:31Z</time>
      </trkpt>
      <trkpt lat="45.74014" lon="5.62251">
        <ele>324.48061190351</ele>
        <time>2015-04-26T12:58:36Z</time>
      </trkpt>
      <trkpt lat="45.74013" lon="5.6228">
        <ele>324.14053591156</ele>
        <time>2015-04-26T12:58:41Z</time>
      </trkpt>
      <trkpt lat="45.74017" lon="5.62303">
        <ele>323.85304876415</ele>
        <time>2015-04-26T12:58:46Z</time>
      </trkpt>
      <trkpt lat="45.74049" lon="5.62326">
        <ele>323.94653333719</ele>
        <time>2015-04-26T12:58:51Z</time>
      </trkpt>
      <trkpt lat="45.7408" lon="5.62345">
        <ele>324.2630300034</ele>
        <time>2015-04-26T12:58:56Z</time>
      </trkpt>
      <trkpt lat="45.7411" lon="5.62349">
        <ele>324.56909500688</ele>
        <time>2015-04-26T12:59:01Z</time>
      </trkpt>
      <trkpt lat="45.74143" lon="5.62347">
        <ele>325.18167997267</ele>
        <time>2015-04-26T12:59:06Z</time>
      </trkpt>
      <trkpt lat="45.74172" lon="5.62347">
        <ele>325.52893507296</ele>
        <time>2015-04-26T12:59:11Z</time>
      </trkpt>
      <trkpt lat="45.74196" lon="5.62324">
        <ele>326.06173001838</ele>
        <time>2015-04-26T12:59:16Z</time>
      </trkpt>
      <trkpt lat="45.74222" lon="5.62325">
        <ele>326.34705166927</ele>
        <time>2015-04-26T12:59:21Z</time>
      </trkpt>
      <trkpt lat="45.74249" lon="5.62325">
        <ele>326.53202873941</ele>
        <time>2015-04-26T12:59:26Z</time>
      </trkpt>
      <trkpt lat="45.74273" lon="5.62323">
        <ele>326.26330228654</ele>
        <time>2015-04-26T12:59:31Z</time>
      </trkpt>
      <trkpt lat="45.743" lon="5.62326">
        <ele>325.89208215036</ele>
        <time>2015-04-26T12:59:36Z</time>
      </trkpt>
      <trkpt lat="45.74315" lon="5.62346">
        <ele>325.52791286756</ele>
        <time>2015-04-26T12:59:41Z</time>
      </trkpt>
      <trkpt lat="45.74345" lon="5.62346">
        <ele>326.19459546864</ele>
        <time>2015-04-26T12:59:46Z</time>
      </trkpt>
      <trkpt lat="45.74356" lon="5.62354">
        <ele>326.96439718438</ele>
        <time>2015-04-26T12:59:51Z</time>
      </trkpt>
      <trkpt lat="45.74357" lon="5.62362">
        <ele>326.96439718438</ele>
        <time>2015-04-26T12:59:56Z</time>
      </trkpt>
      <trkpt lat="45.74365" lon="5.62365">
        <ele>327.13598025425</ele>
        <time>2015-04-26T13:00:01Z</time>
      </trkpt>
      <trkpt lat="45.7438" lon="5.62363">
        <ele>326.9114731421</ele>
        <time>2015-04-26T13:00:06Z</time>
      </trkpt>
      <trkpt lat="45.74414" lon="5.6236">
        <ele>326.75309158886</ele>
        <time>2015-04-26T13:00:11Z</time>
      </trkpt>
      <trkpt lat="45.7445" lon="5.6236">
        <ele>326.85834644182</ele>
        <time>2015-04-26T13:00:16Z</time>
      </trkpt>
      <trkpt lat="45.74487" lon="5.62358">
        <ele>327.17893333423</ele>
        <time>2015-04-26T13:00:21Z</time>
      </trkpt>
      <trkpt lat="45.74525" lon="5.62362">
        <ele>328.15948179528</ele>
        <time>2015-04-26T13:00:26Z</time>
      </trkpt>
      <trkpt lat="45.74561" lon="5.62361">
        <ele>330.03718970478</ele>
        <time>2015-04-26T13:00:31Z</time>
      </trkpt>
      <trkpt lat="45.74592" lon="5.62362">
        <ele>331.6602793518</ele>
        <time>2015-04-26T13:00:36Z</time>
      </trkpt>
      <trkpt lat="45.74622" lon="5.62356">
        <ele>332.76934846841</ele>
        <time>2015-04-26T13:00:41Z</time>
      </trkpt>
      <trkpt lat="45.7465" lon="5.62353">
        <ele>333.75961973097</ele>
        <time>2015-04-26T13:00:46Z</time>
      </trkpt>
      <trkpt lat="45.74687" lon="5.62353">
        <ele>334.69502830377</ele>
        <time>2015-04-26T13:00:51Z</time>
      </trkpt>
      <trkpt lat="45.74719" lon="5.62363">
        <ele>334.98651557874</ele>
        <time>2015-04-26T13:00:56Z</time>
      </trkpt>
      <trkpt lat="45.74748" lon="5.62363">
        <ele>335.96359817005</ele>
        <time>2015-04-26T13:01:01Z</time>
      </trkpt>
      <trkpt lat="45.74755" lon="5.62364">
        <ele>335.96359817005</ele>
        <time>2015-04-26T13:01:06Z</time>
      </trkpt>
      <trkpt lat="45.74761" lon="5.62367">
        <ele>336.69458926107</ele>
        <time>2015-04-26T13:01:11Z</time>
      </trkpt>
      <trkpt lat="45.74767" lon="5.62369">
        <ele>336.69458926107</ele>
        <time>2015-04-26T13:01:16Z</time>
      </trkpt>
      <trkpt lat="45.74775" lon="5.62371">
        <ele>337.8733883916</ele>
        <time>2015-04-26T13:01:21Z</time>
      </trkpt>
      <trkpt lat="45.74783" lon="5.62372">
        <ele>337.8733883916</ele>
        <time>2015-04-26T13:01:26Z</time>
      </trkpt>
      <trkpt lat="45.7479" lon="5.62372">
        <ele>339.26264357752</ele>
        <time>2015-04-26T13:01:31Z</time>
      </trkpt>
      <trkpt lat="45.74798" lon="5.62375">
        <ele>339.26264357752</ele>
        <time>2015-04-26T13:01:36Z</time>
      </trkpt>
      <trkpt lat="45.74806" lon="5.62377">
        <ele>340.69955237063</ele>
        <time>2015-04-26T13:01:41Z</time>
      </trkpt>
      <trkpt lat="45.74813" lon="5.62376">
        <ele>340.69955237063</ele>
        <time>2015-04-26T13:01:46Z</time>
      </trkpt>
      <trkpt lat="45.74817" lon="5.62376">
        <ele>341.55763393747</ele>
        <time>2015-04-26T13:01:51Z</time>
      </trkpt>
      <trkpt lat="45.74823" lon="5.62374">
        <ele>341.55763393747</ele>
        <time>2015-04-26T13:01:56Z</time>
      </trkpt>
      <trkpt lat="45.74832" lon="5.62376">
        <ele>342.51188520753</ele>
        <time>2015-04-26T13:02:01Z</time>
      </trkpt>
      <trkpt lat="45.74839" lon="5.62378">
        <ele>342.51188520753</ele>
        <time>2015-04-26T13:02:06Z</time>
      </trkpt>
      <trkpt lat="45.74846" lon="5.62378">
        <ele>343.42372713624</ele>
        <time>2015-04-26T13:02:11Z</time>
      </trkpt>
      <trkpt lat="45.74851" lon="5.62373">
        <ele>343.42372713624</ele>
        <time>2015-04-26T13:02:16Z</time>
      </trkpt>
      <trkpt lat="45.74858" lon="5.62375">
        <ele>344.87109375111</ele>
        <time>2015-04-26T13:02:21Z</time>
      </trkpt>
      <trkpt lat="45.74864" lon="5.62373">
        <ele>344.87109375111</ele>
        <time>2015-04-26T13:02:26Z</time>
      </trkpt>
      <trkpt lat="45.74873" lon="5.62378">
        <ele>346.4945438909</ele>
        <time>2015-04-26T13:02:31Z</time>
      </trkpt>
      <trkpt lat="45.74881" lon="5.6238">
        <ele>346.4945438909</ele>
        <time>2015-04-26T13:02:36Z</time>
      </trkpt>
      <trkpt lat="45.74886" lon="5.6238">
        <ele>347.49946363824</ele>
        <time>2015-04-26T13:02:41Z</time>
      </trkpt>
      <trkpt lat="45.74892" lon="5.62379">
        <ele>347.49946363824</ele>
        <time>2015-04-26T13:02:46Z</time>
      </trkpt>
      <trkpt lat="45.74903" lon="5.62383">
        <ele>347.29552954592</ele>
        <time>2015-04-26T13:02:51Z</time>
      </trkpt>
      <trkpt lat="45.74933" lon="5.62386">
        <ele>346.24714298148</ele>
        <time>2015-04-26T13:02:56Z</time>
      </trkpt>
      <trkpt lat="45.74975" lon="5.62381">
        <ele>345.35727730098</ele>
        <time>2015-04-26T13:03:01Z</time>
      </trkpt>
      <trkpt lat="45.75005" lon="5.62381">
        <ele>345.00720982155</ele>
        <time>2015-04-26T13:03:06Z</time>
      </trkpt>
      <trkpt lat="45.75037" lon="5.62375">
        <ele>345.23168749864</ele>
        <time>2015-04-26T13:03:11Z</time>
      </trkpt>
      <trkpt lat="45.75069" lon="5.62381">
        <ele>345.39840830285</ele>
        <time>2015-04-26T13:03:16Z</time>
      </trkpt>
      <trkpt lat="45.75102" lon="5.62383">
        <ele>345.77195648118</ele>
        <time>2015-04-26T13:03:21Z</time>
      </trkpt>
      <trkpt lat="45.75126" lon="5.62387">
        <ele>345.84753680428</ele>
        <time>2015-04-26T13:03:26Z</time>
      </trkpt>
      <trkpt lat="45.75158" lon="5.6239">
        <ele>345.80678312786</ele>
        <time>2015-04-26T13:03:31Z</time>
      </trkpt>
      <trkpt lat="45.75189" lon="5.62391">
        <ele>345.77508641606</ele>
        <time>2015-04-26T13:03:36Z</time>
      </trkpt>
      <trkpt lat="45.75213" lon="5.62384">
        <ele>345.86860371313</ele>
        <time>2015-04-26T13:03:41Z</time>
      </trkpt>
      <trkpt lat="45.75247" lon="5.62385">
        <ele>346.39636266717</ele>
        <time>2015-04-26T13:03:46Z</time>
      </trkpt>
      <trkpt lat="45.75265" lon="5.62386">
        <ele>346.64910069759</ele>
        <time>2015-04-26T13:03:51Z</time>
      </trkpt>
      <trkpt lat="45.75268" lon="5.62385">
        <ele>346.64910069759</ele>
        <time>2015-04-26T13:03:56Z</time>
      </trkpt>
      <trkpt lat="45.75274" lon="5.62388">
        <ele>346.79185615166</ele>
        <time>2015-04-26T13:04:01Z</time>
      </trkpt>
      <trkpt lat="45.7528" lon="5.62388">
        <ele>346.79185615166</ele>
        <time>2015-04-26T13:04:06Z</time>
      </trkpt>
      <trkpt lat="45.75286" lon="5.62387">
        <ele>346.89137754456</ele>
        <time>2015-04-26T13:04:11Z</time>
      </trkpt>
      <trkpt lat="45.75293" lon="5.62389">
        <ele>346.89137754456</ele>
        <time>2015-04-26T13:04:16Z</time>
      </trkpt>
      <trkpt lat="45.75299" lon="5.6239">
        <ele>346.87992120188</ele>
        <time>2015-04-26T13:04:21Z</time>
      </trkpt>
      <trkpt lat="45.75306" lon="5.62388">
        <ele>346.87992120188</ele>
        <time>2015-04-26T13:04:26Z</time>
      </trkpt>
      <trkpt lat="45.75312" lon="5.62389">
        <ele>346.98324088655</ele>
        <time>2015-04-26T13:04:31Z</time>
      </trkpt>
      <trkpt lat="45.75319" lon="5.62392">
        <ele>346.98324088655</ele>
        <time>2015-04-26T13:04:36Z</time>
      </trkpt>
      <trkpt lat="45.75328" lon="5.62392">
        <ele>347.2948808456</ele>
        <time>2015-04-26T13:04:41Z</time>
      </trkpt>
      <trkpt lat="45.75336" lon="5.62393">
        <ele>347.2948808456</ele>
        <time>2015-04-26T13:04:46Z</time>
      </trkpt>
      <trkpt lat="45.75342" lon="5.62396">
        <ele>347.62710139587</ele>
        <time>2015-04-26T13:04:51Z</time>
      </trkpt>
      <trkpt lat="45.75348" lon="5.62398">
        <ele>347.62710139587</ele>
        <time>2015-04-26T13:04:56Z</time>
      </trkpt>
      <trkpt lat="45.75355" lon="5.62398">
        <ele>347.69058932954</ele>
        <time>2015-04-26T13:05:01Z</time>
      </trkpt>
      <trkpt lat="45.75363" lon="5.62398">
        <ele>347.69058932954</ele>
        <time>2015-04-26T13:05:06Z</time>
      </trkpt>
      <trkpt lat="45.75369" lon="5.62396">
        <ele>347.78005250902</ele>
        <time>2015-04-26T13:05:11Z</time>
      </trkpt>
      <trkpt lat="45.75377" lon="5.624">
        <ele>347.78005250902</ele>
        <time>2015-04-26T13:05:16Z</time>
      </trkpt>
      <trkpt lat="45.75394" lon="5.62398">
        <ele>347.88023433045</ele>
        <time>2015-04-26T13:05:21Z</time>
      </trkpt>
      <trkpt lat="45.75433" lon="5.62406">
        <ele>347.44373504974</ele>
        <time>2015-04-26T13:05:26Z</time>
      </trkpt>
      <trkpt lat="45.75465" lon="5.62412">
        <ele>347.24743637268</ele>
        <time>2015-04-26T13:05:31Z</time>
      </trkpt>
      <trkpt lat="45.75492" lon="5.62418">
        <ele>347.11695954073</ele>
        <time>2015-04-26T13:05:36Z</time>
      </trkpt>
      <trkpt lat="45.7552" lon="5.62432">
        <ele>347.22197573312</ele>
        <time>2015-04-26T13:05:41Z</time>
      </trkpt>
      <trkpt lat="45.75548" lon="5.62446">
        <ele>346.99844206735</ele>
        <time>2015-04-26T13:05:46Z</time>
      </trkpt>
      <trkpt lat="45.75585" lon="5.62456">
        <ele>346.74606955753</ele>
        <time>2015-04-26T13:05:51Z</time>
      </trkpt>
      <trkpt lat="45.75611" lon="5.62459">
        <ele>347.07405259969</ele>
        <time>2015-04-26T13:05:56Z</time>
      </trkpt>
      <trkpt lat="45.75636" lon="5.62466">
        <ele>347.26257987476</ele>
        <time>2015-04-26T13:06:01Z</time>
      </trkpt>
      <trkpt lat="45.75669" lon="5.62467">
        <ele>347.65384957652</ele>
        <time>2015-04-26T13:06:06Z</time>
      </trkpt>
      <trkpt lat="45.75691" lon="5.62462">
        <ele>347.74288411087</ele>
        <time>2015-04-26T13:06:11Z</time>
      </trkpt>
      <trkpt lat="45.75725" lon="5.6246">
        <ele>348.05698245518</ele>
        <time>2015-04-26T13:06:16Z</time>
      </trkpt>
      <trkpt lat="45.75745" lon="5.62459">
        <ele>348.59406772957</ele>
        <time>2015-04-26T13:06:21Z</time>
      </trkpt>
      <trkpt lat="45.75768" lon="5.62468">
        <ele>348.7030602397</ele>
        <time>2015-04-26T13:06:26Z</time>
      </trkpt>
      <trkpt lat="45.75779" lon="5.62472">
        <ele>348.90594855451</ele>
        <time>2015-04-26T13:06:31Z</time>
      </trkpt>
      <trkpt lat="45.75786" lon="5.62473">
        <ele>348.90594855451</ele>
        <time>2015-04-26T13:06:36Z</time>
      </trkpt>
      <trkpt lat="45.75793" lon="5.62474">
        <ele>349.8013771365</ele>
        <time>2015-04-26T13:06:41Z</time>
      </trkpt>
      <trkpt lat="45.75799" lon="5.62472">
        <ele>349.8013771365</ele>
        <time>2015-04-26T13:06:46Z</time>
      </trkpt>
      <trkpt lat="45.75805" lon="5.62473">
        <ele>350.58740522996</ele>
        <time>2015-04-26T13:06:51Z</time>
      </trkpt>
      <trkpt lat="45.75811" lon="5.62476">
        <ele>350.58740522996</ele>
        <time>2015-04-26T13:06:56Z</time>
      </trkpt>
      <trkpt lat="45.75818" lon="5.62478">
        <ele>351.25625837657</ele>
        <time>2015-04-26T13:07:01Z</time>
      </trkpt>
      <trkpt lat="45.75825" lon="5.62479">
        <ele>351.25625837657</ele>
        <time>2015-04-26T13:07:06Z</time>
      </trkpt>
      <trkpt lat="45.75833" lon="5.62479">
        <ele>352.31984981926</ele>
        <time>2015-04-26T13:07:11Z</time>
      </trkpt>
      <trkpt lat="45.75843" lon="5.62478">
        <ele>353.35788498036</ele>
        <time>2015-04-26T13:07:16Z</time>
      </trkpt>
      <trkpt lat="45.7585" lon="5.62477">
        <ele>353.35788498036</ele>
        <time>2015-04-26T13:07:21Z</time>
      </trkpt>
      <trkpt lat="45.75857" lon="5.62479">
        <ele>354.13953691341</ele>
        <time>2015-04-26T13:07:26Z</time>
      </trkpt>
      <trkpt lat="45.75863" lon="5.62482">
        <ele>354.13953691341</ele>
        <time>2015-04-26T13:07:31Z</time>
      </trkpt>
      <trkpt lat="45.7587" lon="5.62487">
        <ele>354.86958093626</ele>
        <time>2015-04-26T13:07:36Z</time>
      </trkpt>
      <trkpt lat="45.75877" lon="5.62491">
        <ele>354.86958093626</ele>
        <time>2015-04-26T13:07:41Z</time>
      </trkpt>
      <trkpt lat="45.75885" lon="5.62494">
        <ele>355.53614762067</ele>
        <time>2015-04-26T13:07:46Z</time>
      </trkpt>
      <trkpt lat="45.75893" lon="5.62498">
        <ele>355.53614762067</ele>
        <time>2015-04-26T13:07:51Z</time>
      </trkpt>
      <trkpt lat="45.75901" lon="5.62502">
        <ele>356.01314049224</ele>
        <time>2015-04-26T13:07:56Z</time>
      </trkpt>
      <trkpt lat="45.75909" lon="5.62507">
        <ele>356.01314049224</ele>
        <time>2015-04-26T13:08:01Z</time>
      </trkpt>
      <trkpt lat="45.75914" lon="5.62511">
        <ele>355.42048070881</ele>
        <time>2015-04-26T13:08:06Z</time>
      </trkpt>
      <trkpt lat="45.75934" lon="5.62516">
        <ele>354.93448457819</ele>
        <time>2015-04-26T13:08:11Z</time>
      </trkpt>
      <trkpt lat="45.75972" lon="5.62522">
        <ele>354.6792193882</ele>
        <time>2015-04-26T13:08:16Z</time>
      </trkpt>
      <trkpt lat="45.76001" lon="5.62525">
        <ele>354.48077018018</ele>
        <time>2015-04-26T13:08:21Z</time>
      </trkpt>
      <trkpt lat="45.76033" lon="5.62545">
        <ele>354.4084121006</ele>
        <time>2015-04-26T13:08:26Z</time>
      </trkpt>
      <trkpt lat="45.76054" lon="5.62557">
        <ele>355.28976041438</ele>
        <time>2015-04-26T13:08:31Z</time>
      </trkpt>
      <trkpt lat="45.76056" lon="5.6256">
        <ele>355.28976041438</ele>
        <time>2015-04-26T13:08:36Z</time>
      </trkpt>
      <trkpt lat="45.76055" lon="5.62563">
        <ele>355.28976041438</ele>
        <time>2015-04-26T13:08:41Z</time>
      </trkpt>
      <trkpt lat="45.76059" lon="5.62565">
        <ele>356.53430786635</ele>
        <time>2015-04-26T13:08:46Z</time>
      </trkpt>
      <trkpt lat="45.76069" lon="5.62571">
        <ele>357.79565949873</ele>
        <time>2015-04-26T13:08:51Z</time>
      </trkpt>
      <trkpt lat="45.76078" lon="5.6258">
        <ele>358.98339998075</ele>
        <time>2015-04-26T13:08:56Z</time>
      </trkpt>
      <trkpt lat="45.76085" lon="5.62589">
        <ele>359.63928252706</ele>
        <time>2015-04-26T13:09:01Z</time>
      </trkpt>
      <trkpt lat="45.76089" lon="5.62598">
        <ele>359.63928252706</ele>
        <time>2015-04-26T13:09:06Z</time>
      </trkpt>
      <trkpt lat="45.76091" lon="5.62607">
        <ele>359.55639503912</ele>
        <time>2015-04-26T13:09:11Z</time>
      </trkpt>
      <trkpt lat="45.76095" lon="5.62614">
        <ele>359.55639503912</ele>
        <time>2015-04-26T13:09:16Z</time>
      </trkpt>
      <trkpt lat="45.761" lon="5.62622">
        <ele>359.49624623724</ele>
        <time>2015-04-26T13:09:21Z</time>
      </trkpt>
      <trkpt lat="45.76103" lon="5.62629">
        <ele>359.49624623724</ele>
        <time>2015-04-26T13:09:26Z</time>
      </trkpt>
      <trkpt lat="45.76106" lon="5.62635">
        <ele>358.997053681</ele>
        <time>2015-04-26T13:09:31Z</time>
      </trkpt>
      <trkpt lat="45.76109" lon="5.62641">
        <ele>358.997053681</ele>
        <time>2015-04-26T13:09:36Z</time>
      </trkpt>
      <trkpt lat="45.76115" lon="5.62645">
        <ele>358.95802085634</ele>
        <time>2015-04-26T13:09:41Z</time>
      </trkpt>
      <trkpt lat="45.76119" lon="5.6265">
        <ele>358.95802085634</ele>
        <time>2015-04-26T13:09:46Z</time>
      </trkpt>
      <trkpt lat="45.76126" lon="5.62657">
        <ele>358.8419537075</ele>
        <time>2015-04-26T13:09:51Z</time>
      </trkpt>
      <trkpt lat="45.76131" lon="5.62661">
        <ele>358.8419537075</ele>
        <time>2015-04-26T13:09:56Z</time>
      </trkpt>
      <trkpt lat="45.76135" lon="5.62665">
        <ele>359.04482587477</ele>
        <time>2015-04-26T13:10:01Z</time>
      </trkpt>
      <trkpt lat="45.7614" lon="5.62671">
        <ele>359.04482587477</ele>
        <time>2015-04-26T13:10:06Z</time>
      </trkpt>
      <trkpt lat="45.76147" lon="5.62678">
        <ele>359.42823682938</ele>
        <time>2015-04-26T13:10:11Z</time>
      </trkpt>
      <trkpt lat="45.76158" lon="5.62688">
        <ele>359.64727579953</ele>
        <time>2015-04-26T13:10:16Z</time>
      </trkpt>
      <trkpt lat="45.76165" lon="5.62698">
        <ele>359.44046927627</ele>
        <time>2015-04-26T13:10:21Z</time>
      </trkpt>
      <trkpt lat="45.7617" lon="5.6271">
        <ele>358.98466135379</ele>
        <time>2015-04-26T13:10:26Z</time>
      </trkpt>
      <trkpt lat="45.76174" lon="5.6272">
        <ele>358.98466135379</ele>
        <time>2015-04-26T13:10:31Z</time>
      </trkpt>
      <trkpt lat="45.76176" lon="5.62728">
        <ele>358.25704873895</ele>
        <time>2015-04-26T13:10:36Z</time>
      </trkpt>
      <trkpt lat="45.7618" lon="5.62734">
        <ele>358.25704873895</ele>
        <time>2015-04-26T13:10:41Z</time>
      </trkpt>
      <trkpt lat="45.76182" lon="5.62741">
        <ele>357.97221784356</ele>
        <time>2015-04-26T13:10:46Z</time>
      </trkpt>
      <trkpt lat="45.76186" lon="5.62748">
        <ele>357.97221784356</ele>
        <time>2015-04-26T13:10:51Z</time>
      </trkpt>
      <trkpt lat="45.76191" lon="5.62755">
        <ele>358.28661196596</ele>
        <time>2015-04-26T13:10:56Z</time>
      </trkpt>
      <trkpt lat="45.76195" lon="5.62759">
        <ele>358.28661196596</ele>
        <time>2015-04-26T13:11:01Z</time>
      </trkpt>
      <trkpt lat="45.76204" lon="5.62763">
        <ele>358.91114665495</ele>
        <time>2015-04-26T13:11:06Z</time>
      </trkpt>
      <trkpt lat="45.76208" lon="5.62767">
        <ele>358.91114665495</ele>
        <time>2015-04-26T13:11:11Z</time>
      </trkpt>
      <trkpt lat="45.76213" lon="5.62769">
        <ele>359.288859801</ele>
        <time>2015-04-26T13:11:16Z</time>
      </trkpt>
      <trkpt lat="45.7622" lon="5.62771">
        <ele>359.288859801</ele>
        <time>2015-04-26T13:11:21Z</time>
      </trkpt>
      <trkpt lat="45.76226" lon="5.62772">
        <ele>359.8699216539</ele>
        <time>2015-04-26T13:11:26Z</time>
      </trkpt>
      <trkpt lat="45.76232" lon="5.62777">
        <ele>359.8699216539</ele>
        <time>2015-04-26T13:11:31Z</time>
      </trkpt>
      <trkpt lat="45.76238" lon="5.62781">
        <ele>359.67296749847</ele>
        <time>2015-04-26T13:11:36Z</time>
      </trkpt>
      <trkpt lat="45.76245" lon="5.62787">
        <ele>359.67296749847</ele>
        <time>2015-04-26T13:11:41Z</time>
      </trkpt>
      <trkpt lat="45.76254" lon="5.62804">
        <ele>359.20317888091</ele>
        <time>2015-04-26T13:11:46Z</time>
      </trkpt>
      <trkpt lat="45.76259" lon="5.62819">
        <ele>358.74203051833</ele>
        <time>2015-04-26T13:11:51Z</time>
      </trkpt>
      <trkpt lat="45.76261" lon="5.62829">
        <ele>358.74203051833</ele>
        <time>2015-04-26T13:11:56Z</time>
      </trkpt>
      <trkpt lat="45.76259" lon="5.62838">
        <ele>357.65678542125</ele>
        <time>2015-04-26T13:12:01Z</time>
      </trkpt>
      <trkpt lat="45.76259" lon="5.62847">
        <ele>357.65678542125</ele>
        <time>2015-04-26T13:12:06Z</time>
      </trkpt>
      <trkpt lat="45.76259" lon="5.62855">
        <ele>356.5302109998</ele>
        <time>2015-04-26T13:12:11Z</time>
      </trkpt>
      <trkpt lat="45.76258" lon="5.62864">
        <ele>356.5302109998</ele>
        <time>2015-04-26T13:12:16Z</time>
      </trkpt>
      <trkpt lat="45.76255" lon="5.62872">
        <ele>355.70059123234</ele>
        <time>2015-04-26T13:12:21Z</time>
      </trkpt>
      <trkpt lat="45.76249" lon="5.62873">
        <ele>355.70059123234</ele>
        <time>2015-04-26T13:12:26Z</time>
      </trkpt>
      <trkpt lat="45.76244" lon="5.62872">
        <ele>354.60140735361</ele>
        <time>2015-04-26T13:12:31Z</time>
      </trkpt>
      <trkpt lat="45.76239" lon="5.62874">
        <ele>354.60140735361</ele>
        <time>2015-04-26T13:12:36Z</time>
      </trkpt>
      <trkpt lat="45.76233" lon="5.62876">
        <ele>353.890176301</ele>
        <time>2015-04-26T13:12:41Z</time>
      </trkpt>
      <trkpt lat="45.76226" lon="5.6288">
        <ele>353.890176301</ele>
        <time>2015-04-26T13:12:46Z</time>
      </trkpt>
      <trkpt lat="45.7622" lon="5.62886">
        <ele>353.12296046285</ele>
        <time>2015-04-26T13:12:51Z</time>
      </trkpt>
      <trkpt lat="45.76217" lon="5.6289">
        <ele>353.12296046285</ele>
        <time>2015-04-26T13:12:56Z</time>
      </trkpt>
      <trkpt lat="45.76212" lon="5.62893">
        <ele>352.1911654251</ele>
        <time>2015-04-26T13:13:01Z</time>
      </trkpt>
      <trkpt lat="45.76206" lon="5.62898">
        <ele>352.1911654251</ele>
        <time>2015-04-26T13:13:06Z</time>
      </trkpt>
      <trkpt lat="45.76199" lon="5.62904">
        <ele>351.91688547242</ele>
        <time>2015-04-26T13:13:11Z</time>
      </trkpt>
      <trkpt lat="45.76192" lon="5.62911">
        <ele>351.91688547242</ele>
        <time>2015-04-26T13:13:16Z</time>
      </trkpt>
      <trkpt lat="45.76184" lon="5.6292">
        <ele>351.95026095097</ele>
        <time>2015-04-26T13:13:21Z</time>
      </trkpt>
      <trkpt lat="45.76179" lon="5.6293">
        <ele>351.95026095097</ele>
        <time>2015-04-26T13:13:26Z</time>
      </trkpt>
      <trkpt lat="45.76175" lon="5.62941">
        <ele>352.00944066222</ele>
        <time>2015-04-26T13:13:31Z</time>
      </trkpt>
      <trkpt lat="45.76169" lon="5.6295">
        <ele>352.49605789243</ele>
        <time>2015-04-26T13:13:36Z</time>
      </trkpt>
      <trkpt lat="45.76164" lon="5.62962">
        <ele>352.49605789243</ele>
        <time>2015-04-26T13:13:41Z</time>
      </trkpt>
      <trkpt lat="45.76163" lon="5.62972">
        <ele>352.59927701318</ele>
        <time>2015-04-26T13:13:46Z</time>
      </trkpt>
      <trkpt lat="45.76162" lon="5.62982">
        <ele>352.59927701318</ele>
        <time>2015-04-26T13:13:51Z</time>
      </trkpt>
      <trkpt lat="45.76162" lon="5.62994">
        <ele>352.46234099725</ele>
        <time>2015-04-26T13:13:56Z</time>
      </trkpt>
      <trkpt lat="45.76165" lon="5.63002">
        <ele>352.46234099725</ele>
        <time>2015-04-26T13:14:01Z</time>
      </trkpt>
      <trkpt lat="45.76168" lon="5.63011">
        <ele>352.18977621436</ele>
        <time>2015-04-26T13:14:06Z</time>
      </trkpt>
      <trkpt lat="45.7617" lon="5.63022">
        <ele>352.18977621436</ele>
        <time>2015-04-26T13:14:11Z</time>
      </trkpt>
      <trkpt lat="45.76168" lon="5.63032">
        <ele>352.1958137018</ele>
        <time>2015-04-26T13:14:16Z</time>
      </trkpt>
      <trkpt lat="45.76167" lon="5.63047">
        <ele>352.50315698953</ele>
        <time>2015-04-26T13:14:21Z</time>
      </trkpt>
      <trkpt lat="45.76168" lon="5.63066">
        <ele>352.88697219188</ele>
        <time>2015-04-26T13:14:26Z</time>
      </trkpt>
      <trkpt lat="45.76171" lon="5.63078">
        <ele>352.88697219188</ele>
        <time>2015-04-26T13:14:31Z</time>
      </trkpt>
      <trkpt lat="45.7617" lon="5.6309">
        <ele>353.05222899341</ele>
        <time>2015-04-26T13:14:36Z</time>
      </trkpt>
      <trkpt lat="45.76173" lon="5.63097">
        <ele>353.05222899341</ele>
        <time>2015-04-26T13:14:41Z</time>
      </trkpt>
      <trkpt lat="45.76179" lon="5.63101">
        <ele>353.77816873025</ele>
        <time>2015-04-26T13:14:46Z</time>
      </trkpt>
      <trkpt lat="45.76185" lon="5.63105">
        <ele>353.77816873025</ele>
        <time>2015-04-26T13:14:51Z</time>
      </trkpt>
      <trkpt lat="45.76189" lon="5.63105">
        <ele>355.51138818694</ele>
        <time>2015-04-26T13:14:56Z</time>
      </trkpt>
      <trkpt lat="45.76193" lon="5.63106">
        <ele>355.51138818694</ele>
        <time>2015-04-26T13:15:01Z</time>
      </trkpt>
      <trkpt lat="45.76198" lon="5.63105">
        <ele>357.03438682286</ele>
        <time>2015-04-26T13:15:06Z</time>
      </trkpt>
      <trkpt lat="45.76205" lon="5.63103">
        <ele>357.03438682286</ele>
        <time>2015-04-26T13:15:11Z</time>
      </trkpt>
      <trkpt lat="45.7621" lon="5.631">
        <ele>358.87697207715</ele>
        <time>2015-04-26T13:15:16Z</time>
      </trkpt>
      <trkpt lat="45.76217" lon="5.631">
        <ele>358.87697207715</ele>
        <time>2015-04-26T13:15:21Z</time>
      </trkpt>
      <trkpt lat="45.76223" lon="5.63099">
        <ele>360.31861749243</ele>
        <time>2015-04-26T13:15:26Z</time>
      </trkpt>
      <trkpt lat="45.76229" lon="5.631">
        <ele>360.31861749243</ele>
        <time>2015-04-26T13:15:31Z</time>
      </trkpt>
      <trkpt lat="45.76235" lon="5.63099">
        <ele>361.52872382291</ele>
        <time>2015-04-26T13:15:36Z</time>
      </trkpt>
      <trkpt lat="45.7624" lon="5.631">
        <ele>361.52872382291</ele>
        <time>2015-04-26T13:15:41Z</time>
      </trkpt>
      <trkpt lat="45.76246" lon="5.63099">
        <ele>362.00202351435</ele>
        <time>2015-04-26T13:15:46Z</time>
      </trkpt>
      <trkpt lat="45.76253" lon="5.63099">
        <ele>362.00202351435</ele>
        <time>2015-04-26T13:15:51Z</time>
      </trkpt>
      <trkpt lat="45.76262" lon="5.63102">
        <ele>362.59829988076</ele>
        <time>2015-04-26T13:15:56Z</time>
      </trkpt>
      <trkpt lat="45.76272" lon="5.63106">
        <ele>363.39332500303</ele>
        <time>2015-04-26T13:16:01Z</time>
      </trkpt>
      <trkpt lat="45.76279" lon="5.63108">
        <ele>363.39332500303</ele>
        <time>2015-04-26T13:16:06Z</time>
      </trkpt>
      <trkpt lat="45.76284" lon="5.63113">
        <ele>363.98123130175</ele>
        <time>2015-04-26T13:16:11Z</time>
      </trkpt>
      <trkpt lat="45.7629" lon="5.63118">
        <ele>363.98123130175</ele>
        <time>2015-04-26T13:16:16Z</time>
      </trkpt>
      <trkpt lat="45.76297" lon="5.63124">
        <ele>364.6639217845</ele>
        <time>2015-04-26T13:16:21Z</time>
      </trkpt>
      <trkpt lat="45.76303" lon="5.6313">
        <ele>364.6639217845</ele>
        <time>2015-04-26T13:16:26Z</time>
      </trkpt>
      <trkpt lat="45.76308" lon="5.63137">
        <ele>364.98594202089</ele>
        <time>2015-04-26T13:16:31Z</time>
      </trkpt>
      <trkpt lat="45.76314" lon="5.63141">
        <ele>364.98594202089</ele>
        <time>2015-04-26T13:16:36Z</time>
      </trkpt>
      <trkpt lat="45.7632" lon="5.63145">
        <ele>364.87222594605</ele>
        <time>2015-04-26T13:16:41Z</time>
      </trkpt>
      <trkpt lat="45.76327" lon="5.6315">
        <ele>364.87222594605</ele>
        <time>2015-04-26T13:16:46Z</time>
      </trkpt>
      <trkpt lat="45.76333" lon="5.63157">
        <ele>364.38419374821</ele>
        <time>2015-04-26T13:16:51Z</time>
      </trkpt>
      <trkpt lat="45.76339" lon="5.63164">
        <ele>364.38419374821</ele>
        <time>2015-04-26T13:16:56Z</time>
      </trkpt>
      <trkpt lat="45.76345" lon="5.63172">
        <ele>363.72395942272</ele>
        <time>2015-04-26T13:17:01Z</time>
      </trkpt>
      <trkpt lat="45.76349" lon="5.6318">
        <ele>363.72395942272</ele>
        <time>2015-04-26T13:17:06Z</time>
      </trkpt>
      <trkpt lat="45.76352" lon="5.63188">
        <ele>362.32993082084</ele>
        <time>2015-04-26T13:17:11Z</time>
      </trkpt>
      <trkpt lat="45.76355" lon="5.63197">
        <ele>362.32993082084</ele>
        <time>2015-04-26T13:17:16Z</time>
      </trkpt>
      <trkpt lat="45.76359" lon="5.63206">
        <ele>360.95203225814</ele>
        <time>2015-04-26T13:17:21Z</time>
      </trkpt>
      <trkpt lat="45.76365" lon="5.63213">
        <ele>360.95203225814</ele>
        <time>2015-04-26T13:17:26Z</time>
      </trkpt>
      <trkpt lat="45.7637" lon="5.63219">
        <ele>360.35712403599</ele>
        <time>2015-04-26T13:17:31Z</time>
      </trkpt>
      <trkpt lat="45.76377" lon="5.6322">
        <ele>360.35712403599</ele>
        <time>2015-04-26T13:17:36Z</time>
      </trkpt>
      <trkpt lat="45.76387" lon="5.63222">
        <ele>359.88448496988</ele>
        <time>2015-04-26T13:17:41Z</time>
      </trkpt>
      <trkpt lat="45.76403" lon="5.6322">
        <ele>359.18098214738</ele>
        <time>2015-04-26T13:17:46Z</time>
      </trkpt>
      <trkpt lat="45.76413" lon="5.6322">
        <ele>358.58297077203</ele>
        <time>2015-04-26T13:17:51Z</time>
      </trkpt>
      <trkpt lat="45.76421" lon="5.63222">
        <ele>358.58297077203</ele>
        <time>2015-04-26T13:17:56Z</time>
      </trkpt>
      <trkpt lat="45.7643" lon="5.63225">
        <ele>358.41619641494</ele>
        <time>2015-04-26T13:18:01Z</time>
      </trkpt>
      <trkpt lat="45.76435" lon="5.6323">
        <ele>358.41619641494</ele>
        <time>2015-04-26T13:18:06Z</time>
      </trkpt>
      <trkpt lat="45.76438" lon="5.63237">
        <ele>357.612188638</ele>
        <time>2015-04-26T13:18:11Z</time>
      </trkpt>
      <trkpt lat="45.7644" lon="5.63246">
        <ele>357.612188638</ele>
        <time>2015-04-26T13:18:16Z</time>
      </trkpt>
      <trkpt lat="45.76443" lon="5.63257">
        <ele>356.72471768675</ele>
        <time>2015-04-26T13:18:21Z</time>
      </trkpt>
      <trkpt lat="45.76445" lon="5.63266">
        <ele>356.72471768675</ele>
        <time>2015-04-26T13:18:26Z</time>
      </trkpt>
      <trkpt lat="45.76445" lon="5.63279">
        <ele>355.9932671971</ele>
        <time>2015-04-26T13:18:31Z</time>
      </trkpt>
      <trkpt lat="45.76444" lon="5.63291">
        <ele>355.9932671971</ele>
        <time>2015-04-26T13:18:36Z</time>
      </trkpt>
      <trkpt lat="45.76443" lon="5.63302">
        <ele>355.35103423027</ele>
        <time>2015-04-26T13:18:41Z</time>
      </trkpt>
      <trkpt lat="45.76442" lon="5.63313">
        <ele>355.35103423027</ele>
        <time>2015-04-26T13:18:46Z</time>
      </trkpt>
      <trkpt lat="45.76443" lon="5.63322">
        <ele>354.59172277651</ele>
        <time>2015-04-26T13:18:51Z</time>
      </trkpt>
      <trkpt lat="45.76443" lon="5.63332">
        <ele>354.59172277651</ele>
        <time>2015-04-26T13:18:56Z</time>
      </trkpt>
      <trkpt lat="45.76444" lon="5.63343">
        <ele>353.89916587433</ele>
        <time>2015-04-26T13:19:01Z</time>
      </trkpt>
      <trkpt lat="45.76445" lon="5.63353">
        <ele>353.89916587433</ele>
        <time>2015-04-26T13:19:06Z</time>
      </trkpt>
      <trkpt lat="45.76445" lon="5.63363">
        <ele>353.03994744865</ele>
        <time>2015-04-26T13:19:11Z</time>
      </trkpt>
      <trkpt lat="45.76446" lon="5.63373">
        <ele>353.03994744865</ele>
        <time>2015-04-26T13:19:16Z</time>
      </trkpt>
      <trkpt lat="45.76447" lon="5.63383">
        <ele>352.12967154965</ele>
        <time>2015-04-26T13:19:21Z</time>
      </trkpt>
      <trkpt lat="45.76448" lon="5.63393">
        <ele>352.12967154965</ele>
        <time>2015-04-26T13:19:26Z</time>
      </trkpt>
      <trkpt lat="45.76449" lon="5.63403">
        <ele>351.11701767726</ele>
        <time>2015-04-26T13:19:31Z</time>
      </trkpt>
      <trkpt lat="45.7645" lon="5.63414">
        <ele>351.11701767726</ele>
        <time>2015-04-26T13:19:36Z</time>
      </trkpt>
      <trkpt lat="45.76451" lon="5.63425">
        <ele>350.27171042869</ele>
        <time>2015-04-26T13:19:41Z</time>
      </trkpt>
      <trkpt lat="45.76451" lon="5.63437">
        <ele>350.27171042869</ele>
        <time>2015-04-26T13:19:46Z</time>
      </trkpt>
      <trkpt lat="45.7645" lon="5.63447">
        <ele>349.38197544304</ele>
        <time>2015-04-26T13:19:51Z</time>
      </trkpt>
      <trkpt lat="45.76446" lon="5.63457">
        <ele>349.38197544304</ele>
        <time>2015-04-26T13:19:56Z</time>
      </trkpt>
      <trkpt lat="45.76441" lon="5.63465">
        <ele>348.58311282553</ele>
        <time>2015-04-26T13:20:01Z</time>
      </trkpt>
      <trkpt lat="45.76436" lon="5.63472">
        <ele>348.58311282553</ele>
        <time>2015-04-26T13:20:06Z</time>
      </trkpt>
      <trkpt lat="45.76431" lon="5.6348">
        <ele>348.20192029072</ele>
        <time>2015-04-26T13:20:12Z</time>
      </trkpt>
      <trkpt lat="45.76426" lon="5.63485">
        <ele>348.20192029072</ele>
        <time>2015-04-26T13:20:16Z</time>
      </trkpt>
      <trkpt lat="45.76426" lon="5.63487">
        <ele>348.20192029072</ele>
        <time>2015-04-26T13:20:21Z</time>
      </trkpt>
      <trkpt lat="45.76427" lon="5.63486">
        <ele>348.20192029072</ele>
        <time>2015-04-26T13:20:26Z</time>
      </trkpt>
      <trkpt lat="45.76425" lon="5.63487">
        <ele>348.00674229085</ele>
        <time>2015-04-26T13:20:31Z</time>
      </trkpt>
      <trkpt lat="45.76424" lon="5.63488">
        <ele>348.00674229085</ele>
        <time>2015-04-26T13:20:36Z</time>
      </trkpt>
      <trkpt lat="45.76422" lon="5.6349">
        <ele>348.00674229085</ele>
        <time>2015-04-26T13:20:41Z</time>
      </trkpt>
      <trkpt lat="45.76417" lon="5.63497">
        <ele>348.02734575605</ele>
        <time>2015-04-26T13:20:46Z</time>
      </trkpt>
      <trkpt lat="45.76413" lon="5.63502">
        <ele>348.02734575605</ele>
        <time>2015-04-26T13:20:51Z</time>
      </trkpt>
      <trkpt lat="45.76409" lon="5.63508">
        <ele>347.32510119126</ele>
        <time>2015-04-26T13:20:56Z</time>
      </trkpt>
      <trkpt lat="45.76405" lon="5.63515">
        <ele>347.32510119126</ele>
        <time>2015-04-26T13:21:01Z</time>
      </trkpt>
      <trkpt lat="45.76401" lon="5.63522">
        <ele>346.76163545238</ele>
        <time>2015-04-26T13:21:06Z</time>
      </trkpt>
      <trkpt lat="45.76399" lon="5.63525">
        <ele>346.76163545238</ele>
        <time>2015-04-26T13:21:11Z</time>
      </trkpt>
      <trkpt lat="45.76399" lon="5.63524">
        <ele>346.76163545238</ele>
        <time>2015-04-26T13:21:16Z</time>
      </trkpt>
      <trkpt lat="45.76398" lon="5.63524">
        <ele>346.76163545238</ele>
        <time>2015-04-26T13:21:21Z</time>
      </trkpt>
      <trkpt lat="45.76398" lon="5.63525">
        <ele>346.76163545238</ele>
        <time>2015-04-26T13:21:26Z</time>
      </trkpt>
      <trkpt lat="45.76397" lon="5.63524">
        <ele>346.76163545238</ele>
        <time>2015-04-26T13:21:31Z</time>
      </trkpt>
      <trkpt lat="45.76397" lon="5.63523">
        <ele>346.76163545238</ele>
        <time>2015-04-26T13:21:36Z</time>
      </trkpt>
      <trkpt lat="45.76397" lon="5.63523">
        <ele>346.76163545238</ele>
        <time>2015-04-26T13:21:41Z</time>
      </trkpt>
      <trkpt lat="45.76397" lon="5.63523">
        <ele>346.76163545238</ele>
        <time>2015-04-26T13:21:46Z</time>
      </trkpt>
      <trkpt lat="45.76397" lon="5.63523">
        <ele>346.76163545238</ele>
        <time>2015-04-26T13:21:51Z</time>
      </trkpt>
      <trkpt lat="45.76397" lon="5.63524">
        <ele>346.76163545238</ele>
        <time>2015-04-26T13:21:56Z</time>
      </trkpt>
      <trkpt lat="45.76397" lon="5.63524">
        <ele>346.76163545238</ele>
        <time>2015-04-26T13:22:01Z</time>
      </trkpt>
      <trkpt lat="45.76396" lon="5.63524">
        <ele>346.76163545238</ele>
        <time>2015-04-26T13:22:06Z</time>
      </trkpt>
      <trkpt lat="45.76395" lon="5.63523">
        <ele>346.78897140727</ele>
        <time>2015-04-26T13:22:11Z</time>
      </trkpt>
      <trkpt lat="45.76394" lon="5.63515">
        <ele>346.78897140727</ele>
        <time>2015-04-26T13:22:16Z</time>
      </trkpt>
      <trkpt lat="45.76392" lon="5.63508">
        <ele>346.57045155553</ele>
        <time>2015-04-26T13:22:21Z</time>
      </trkpt>
      <trkpt lat="45.76392" lon="5.63509">
        <ele>346.57045155553</ele>
        <time>2015-04-26T13:22:26Z</time>
      </trkpt>
      <trkpt lat="45.76391" lon="5.63506">
        <ele>346.57045155553</ele>
        <time>2015-04-26T13:22:31Z</time>
      </trkpt>
      <trkpt lat="45.76391" lon="5.63504">
        <ele>346.57045155553</ele>
        <time>2015-04-26T13:22:36Z</time>
      </trkpt>
      <trkpt lat="45.76391" lon="5.63503">
        <ele>346.57045155553</ele>
        <time>2015-04-26T13:22:41Z</time>
      </trkpt>
      <trkpt lat="45.76391" lon="5.63504">
        <ele>346.57045155553</ele>
        <time>2015-04-26T13:22:46Z</time>
      </trkpt>
      <trkpt lat="45.7639" lon="5.63504">
        <ele>346.57045155553</ele>
        <time>2015-04-26T13:22:51Z</time>
      </trkpt>
      <trkpt lat="45.76391" lon="5.63504">
        <ele>346.57045155553</ele>
        <time>2015-04-26T13:22:56Z</time>
      </trkpt>
      <trkpt lat="45.76391" lon="5.63506">
        <ele>346.57045155553</ele>
        <time>2015-04-26T13:23:01Z</time>
      </trkpt>
      <trkpt lat="45.7639" lon="5.63506">
        <ele>346.57045155553</ele>
        <time>2015-04-26T13:23:06Z</time>
      </trkpt>
      <trkpt lat="45.7639" lon="5.63506">
        <ele>346.57045155553</ele>
        <time>2015-04-26T13:23:11Z</time>
      </trkpt>
      <trkpt lat="45.7639" lon="5.63505">
        <ele>346.57045155553</ele>
        <time>2015-04-26T13:23:16Z</time>
      </trkpt>
      <trkpt lat="45.76391" lon="5.63503">
        <ele>346.23942098504</ele>
        <time>2015-04-26T13:23:21Z</time>
      </trkpt>
      <trkpt lat="45.76391" lon="5.63503">
        <ele>346.23942098504</ele>
        <time>2015-04-26T13:23:26Z</time>
      </trkpt>
      <trkpt lat="45.76391" lon="5.63505">
        <ele>346.23942098504</ele>
        <time>2015-04-26T13:23:31Z</time>
      </trkpt>
      <trkpt lat="45.76393" lon="5.63506">
        <ele>346.23942098504</ele>
        <time>2015-04-26T13:23:36Z</time>
      </trkpt>
      <trkpt lat="45.76394" lon="5.63507">
        <ele>346.23942098504</ele>
        <time>2015-04-26T13:23:41Z</time>
      </trkpt>
      <trkpt lat="45.76394" lon="5.63506">
        <ele>346.23942098504</ele>
        <time>2015-04-26T13:23:46Z</time>
      </trkpt>
      <trkpt lat="45.76394" lon="5.63505">
        <ele>346.23942098504</ele>
        <time>2015-04-26T13:23:51Z</time>
      </trkpt>
      <trkpt lat="45.76394" lon="5.63504">
        <ele>346.23942098504</ele>
        <time>2015-04-26T13:23:56Z</time>
      </trkpt>
      <trkpt lat="45.76394" lon="5.63504">
        <ele>346.23942098504</ele>
        <time>2015-04-26T13:24:01Z</time>
      </trkpt>
      <trkpt lat="45.76394" lon="5.63505">
        <ele>346.23942098504</ele>
        <time>2015-04-26T13:24:06Z</time>
      </trkpt>
      <trkpt lat="45.76395" lon="5.63506">
        <ele>346.04940076056</ele>
        <time>2015-04-26T13:24:11Z</time>
      </trkpt>
      <trkpt lat="45.76397" lon="5.63507">
        <ele>346.04940076056</ele>
        <time>2015-04-26T13:24:16Z</time>
      </trkpt>
      <trkpt lat="45.76402" lon="5.63503">
        <ele>346.04940076056</ele>
        <time>2015-04-26T13:24:21Z</time>
      </trkpt>
      <trkpt lat="45.76403" lon="5.635">
        <ele>345.77369644519</ele>
        <time>2015-04-26T13:24:26Z</time>
      </trkpt>
      <trkpt lat="45.76404" lon="5.63501">
        <ele>345.77369644519</ele>
        <time>2015-04-26T13:24:31Z</time>
      </trkpt>
      <trkpt lat="45.76404" lon="5.63502">
        <ele>345.77369644519</ele>
        <time>2015-04-26T13:24:36Z</time>
      </trkpt>
      <trkpt lat="45.764" lon="5.63505">
        <ele>345.77369644519</ele>
        <time>2015-04-26T13:24:41Z</time>
      </trkpt>
      <trkpt lat="45.76396" lon="5.63506">
        <ele>345.80773659479</ele>
        <time>2015-04-26T13:24:46Z</time>
      </trkpt>
      <trkpt lat="45.76395" lon="5.63505">
        <ele>345.80773659479</ele>
        <time>2015-04-26T13:24:51Z</time>
      </trkpt>
      <trkpt lat="45.76396" lon="5.63504">
        <ele>345.80773659479</ele>
        <time>2015-04-26T13:24:56Z</time>
      </trkpt>
      <trkpt lat="45.76396" lon="5.63504">
        <ele>345.80773659479</ele>
        <time>2015-04-26T13:25:01Z</time>
      </trkpt>
      <trkpt lat="45.76396" lon="5.63504">
        <ele>345.80773659479</ele>
        <time>2015-04-26T13:25:06Z</time>
      </trkpt>
      <trkpt lat="45.76396" lon="5.63504">
        <ele>345.80773659479</ele>
        <time>2015-04-26T13:25:11Z</time>
      </trkpt>
      <trkpt lat="45.76394" lon="5.63506">
        <ele>345.80773659479</ele>
        <time>2015-04-26T13:25:16Z</time>
      </trkpt>
      <trkpt lat="45.76394" lon="5.6351">
        <ele>345.80773659479</ele>
        <time>2015-04-26T13:25:21Z</time>
      </trkpt>
      <trkpt lat="45.76392" lon="5.63507">
        <ele>345.80773659479</ele>
        <time>2015-04-26T13:25:26Z</time>
      </trkpt>
      <trkpt lat="45.76392" lon="5.63508">
        <ele>345.80773659479</ele>
        <time>2015-04-26T13:25:31Z</time>
      </trkpt>
      <trkpt lat="45.76392" lon="5.63507">
        <ele>345.80773659479</ele>
        <time>2015-04-26T13:25:36Z</time>
      </trkpt>
      <trkpt lat="45.76393" lon="5.63507">
        <ele>345.86849934957</ele>
        <time>2015-04-26T13:25:41Z</time>
      </trkpt>
      <trkpt lat="45.76393" lon="5.63507">
        <ele>345.86849934957</ele>
        <time>2015-04-26T13:25:46Z</time>
      </trkpt>
      <trkpt lat="45.76393" lon="5.63507">
        <ele>345.86849934957</ele>
        <time>2015-04-26T13:25:51Z</time>
      </trkpt>
      <trkpt lat="45.76393" lon="5.63507">
        <ele>345.86849934957</ele>
        <time>2015-04-26T13:25:56Z</time>
      </trkpt>
      <trkpt lat="45.76393" lon="5.63507">
        <ele>345.86849934957</ele>
        <time>2015-04-26T13:26:01Z</time>
      </trkpt>
      <trkpt lat="45.76393" lon="5.63507">
        <ele>345.86849934957</ele>
        <time>2015-04-26T13:26:06Z</time>
      </trkpt>
      <trkpt lat="45.76393" lon="5.63507">
        <ele>345.86849934957</ele>
        <time>2015-04-26T13:26:11Z</time>
      </trkpt>
      <trkpt lat="45.76393" lon="5.63507">
        <ele>345.86849934957</ele>
        <time>2015-04-26T13:26:16Z</time>
      </trkpt>
      <trkpt lat="45.76393" lon="5.63507">
        <ele>345.86849934957</ele>
        <time>2015-04-26T13:26:21Z</time>
      </trkpt>
      <trkpt lat="45.76393" lon="5.63507">
        <ele>345.86849934957</ele>
        <time>2015-04-26T13:26:26Z</time>
      </trkpt>
      <trkpt lat="45.76393" lon="5.63507">
        <ele>345.86849934957</ele>
        <time>2015-04-26T13:26:31Z</time>
      </trkpt>
      <trkpt lat="45.76393" lon="5.63507">
        <ele>345.86849934957</ele>
        <time>2015-04-26T13:26:36Z</time>
      </trkpt>
      <trkpt lat="45.76393" lon="5.63509">
        <ele>345.86849934957</ele>
        <time>2015-04-26T13:26:41Z</time>
      </trkpt>
      <trkpt lat="45.7639" lon="5.63518">
        <ele>345.86849934957</ele>
        <time>2015-04-26T13:26:46Z</time>
      </trkpt>
      <trkpt lat="45.76389" lon="5.63523">
        <ele>346.19803908819</ele>
        <time>2015-04-26T13:26:51Z</time>
      </trkpt>
      <trkpt lat="45.76388" lon="5.63525">
        <ele>346.19803908819</ele>
        <time>2015-04-26T13:26:56Z</time>
      </trkpt>
      <trkpt lat="45.76388" lon="5.63526">
        <ele>346.19803908819</ele>
        <time>2015-04-26T13:27:01Z</time>
      </trkpt>
      <trkpt lat="45.76388" lon="5.63527">
        <ele>346.19803908819</ele>
        <time>2015-04-26T13:27:06Z</time>
      </trkpt>
      <trkpt lat="45.76388" lon="5.63527">
        <ele>346.19803908819</ele>
        <time>2015-04-26T13:27:11Z</time>
      </trkpt>
      <trkpt lat="45.76389" lon="5.63522">
        <ele>346.19803908819</ele>
        <time>2015-04-26T13:27:16Z</time>
      </trkpt>
      <trkpt lat="45.7639" lon="5.63513">
        <ele>346.76045225534</ele>
        <time>2015-04-26T13:27:21Z</time>
      </trkpt>
      <trkpt lat="45.76391" lon="5.63506">
        <ele>346.76045225534</ele>
        <time>2015-04-26T13:27:26Z</time>
      </trkpt>
      <trkpt lat="45.76391" lon="5.6351">
        <ele>346.76045225534</ele>
        <time>2015-04-26T13:27:31Z</time>
      </trkpt>
      <trkpt lat="45.7639" lon="5.63518">
        <ele>347.14711426827</ele>
        <time>2015-04-26T13:27:36Z</time>
      </trkpt>
      <trkpt lat="45.7639" lon="5.63527">
        <ele>347.14711426827</ele>
        <time>2015-04-26T13:27:41Z</time>
      </trkpt>
      <trkpt lat="45.7639" lon="5.63528">
        <ele>347.14711426827</ele>
        <time>2015-04-26T13:27:46Z</time>
      </trkpt>
      <trkpt lat="45.76391" lon="5.63528">
        <ele>347.14711426827</ele>
        <time>2015-04-26T13:27:51Z</time>
      </trkpt>
      <trkpt lat="45.76389" lon="5.63529">
        <ele>347.14711426827</ele>
        <time>2015-04-26T13:27:56Z</time>
      </trkpt>
      <trkpt lat="45.7639" lon="5.6353">
        <ele>347.52752401398</ele>
        <time>2015-04-26T13:28:01Z</time>
      </trkpt>
      <trkpt lat="45.7639" lon="5.6353">
        <ele>347.52752401398</ele>
        <time>2015-04-26T13:28:06Z</time>
      </trkpt>
      <trkpt lat="45.7639" lon="5.63531">
        <ele>347.52752401398</ele>
        <time>2015-04-26T13:28:11Z</time>
      </trkpt>
      <trkpt lat="45.7639" lon="5.63531">
        <ele>347.52752401398</ele>
        <time>2015-04-26T13:28:16Z</time>
      </trkpt>
      <trkpt lat="45.76389" lon="5.63531">
        <ele>347.52752401398</ele>
        <time>2015-04-26T13:28:21Z</time>
      </trkpt>
      <trkpt lat="45.76389" lon="5.63532">
        <ele>347.52752401398</ele>
        <time>2015-04-26T13:28:26Z</time>
      </trkpt>
      <trkpt lat="45.76389" lon="5.63532">
        <ele>347.52752401398</ele>
        <time>2015-04-26T13:28:31Z</time>
      </trkpt>
      <trkpt lat="45.76389" lon="5.63532">
        <ele>347.52752401398</ele>
        <time>2015-04-26T13:28:36Z</time>
      </trkpt>
      <trkpt lat="45.76389" lon="5.63532">
        <ele>347.52752401398</ele>
        <time>2015-04-26T13:28:41Z</time>
      </trkpt>
      <trkpt lat="45.76389" lon="5.63532">
        <ele>347.52752401398</ele>
        <time>2015-04-26T13:28:46Z</time>
      </trkpt>
      <trkpt lat="45.76389" lon="5.63532">
        <ele>347.52752401398</ele>
        <time>2015-04-26T13:28:51Z</time>
      </trkpt>
      <trkpt lat="45.76389" lon="5.63532">
        <ele>347.52752401398</ele>
        <time>2015-04-26T13:28:56Z</time>
      </trkpt>
      <trkpt lat="45.76389" lon="5.63532">
        <ele>347.52752401398</ele>
        <time>2015-04-26T13:29:01Z</time>
      </trkpt>
      <trkpt lat="45.76389" lon="5.63532">
        <ele>347.52752401398</ele>
        <time>2015-04-26T13:29:06Z</time>
      </trkpt>
      <trkpt lat="45.76389" lon="5.63532">
        <ele>347.52752401398</ele>
        <time>2015-04-26T13:29:11Z</time>
      </trkpt>
      <trkpt lat="45.76389" lon="5.63532">
        <ele>347.52752401398</ele>
        <time>2015-04-26T13:29:16Z</time>
      </trkpt>
      <trkpt lat="45.76389" lon="5.63531">
        <ele>347.52752401398</ele>
        <time>2015-04-26T13:29:21Z</time>
      </trkpt>
      <trkpt lat="45.76389" lon="5.63531">
        <ele>347.52752401398</ele>
        <time>2015-04-26T13:29:26Z</time>
      </trkpt>
      <trkpt lat="45.76389" lon="5.63531">
        <ele>347.52752401398</ele>
        <time>2015-04-26T13:29:31Z</time>
      </trkpt>
      <trkpt lat="45.76389" lon="5.63531">
        <ele>347.52752401398</ele>
        <time>2015-04-26T13:29:36Z</time>
      </trkpt>
      <trkpt lat="45.76389" lon="5.63531">
        <ele>347.52752401398</ele>
        <time>2015-04-26T13:29:41Z</time>
      </trkpt>
      <trkpt lat="45.76389" lon="5.63531">
        <ele>347.52752401398</ele>
        <time>2015-04-26T13:29:46Z</time>
      </trkpt>
      <trkpt lat="45.76389" lon="5.63531">
        <ele>347.52752401398</ele>
        <time>2015-04-26T13:29:51Z</time>
      </trkpt>
      <trkpt lat="45.76389" lon="5.63531">
        <ele>347.52752401398</ele>
        <time>2015-04-26T13:29:56Z</time>
      </trkpt>
      <trkpt lat="45.76389" lon="5.63531">
        <ele>347.52752401398</ele>
        <time>2015-04-26T13:30:01Z</time>
      </trkpt>
      <trkpt lat="45.76389" lon="5.63531">
        <ele>347.52752401398</ele>
        <time>2015-04-26T13:30:06Z</time>
      </trkpt>
      <trkpt lat="45.76389" lon="5.63531">
        <ele>347.52752401398</ele>
        <time>2015-04-26T13:30:11Z</time>
      </trkpt>
      <trkpt lat="45.76389" lon="5.63531">
        <ele>347.52752401398</ele>
        <time>2015-04-26T13:30:16Z</time>
      </trkpt>
      <trkpt lat="45.76389" lon="5.63531">
        <ele>347.52752401398</ele>
        <time>2015-04-26T13:30:21Z</time>
      </trkpt>
      <trkpt lat="45.76389" lon="5.63531">
        <ele>347.52752401398</ele>
        <time>2015-04-26T13:30:26Z</time>
      </trkpt>
      <trkpt lat="45.76389" lon="5.63531">
        <ele>347.52752401398</ele>
        <time>2015-04-26T13:30:31Z</time>
      </trkpt>
      <trkpt lat="45.76389" lon="5.63531">
        <ele>347.52752401398</ele>
        <time>2015-04-26T13:30:36Z</time>
      </trkpt>
      <trkpt lat="45.76389" lon="5.63531">
        <ele>347.52752401398</ele>
        <time>2015-04-26T13:30:41Z</time>
      </trkpt>
      <trkpt lat="45.76389" lon="5.63531">
        <ele>347.52752401398</ele>
        <time>2015-04-26T13:30:46Z</time>
      </trkpt>
      <trkpt lat="45.76389" lon="5.63531">
        <ele>347.52752401398</ele>
        <time>2015-04-26T13:30:51Z</time>
      </trkpt>
      <trkpt lat="45.76389" lon="5.63531">
        <ele>347.52752401398</ele>
        <time>2015-04-26T13:30:56Z</time>
      </trkpt>
      <trkpt lat="45.76389" lon="5.63531">
        <ele>347.52752401398</ele>
        <time>2015-04-26T13:31:01Z</time>
      </trkpt>
      <trkpt lat="45.76389" lon="5.63531">
        <ele>347.52752401398</ele>
        <time>2015-04-26T13:31:06Z</time>
      </trkpt>
      <trkpt lat="45.76389" lon="5.63531">
        <ele>347.52752401398</ele>
        <time>2015-04-26T13:31:11Z</time>
      </trkpt>
      <trkpt lat="45.76389" lon="5.63531">
        <ele>347.52752401398</ele>
        <time>2015-04-26T13:31:16Z</time>
      </trkpt>
      <trkpt lat="45.76389" lon="5.63531">
        <ele>347.52752401398</ele>
        <time>2015-04-26T13:31:21Z</time>
      </trkpt>
      <trkpt lat="45.76389" lon="5.63531">
        <ele>347.52752401398</ele>
        <time>2015-04-26T13:31:26Z</time>
      </trkpt>
      <trkpt lat="45.76389" lon="5.63531">
        <ele>347.52752401398</ele>
        <time>2015-04-26T13:31:31Z</time>
      </trkpt>
      <trkpt lat="45.76389" lon="5.63531">
        <ele>347.52752401398</ele>
        <time>2015-04-26T13:31:36Z</time>
      </trkpt>
      <trkpt lat="45.76389" lon="5.63531">
        <ele>347.52752401398</ele>
        <time>2015-04-26T13:31:41Z</time>
      </trkpt>
      <trkpt lat="45.76389" lon="5.63531">
        <ele>347.52752401398</ele>
        <time>2015-04-26T13:31:46Z</time>
      </trkpt>
      <trkpt lat="45.76389" lon="5.63531">
        <ele>347.52752401398</ele>
        <time>2015-04-26T13:31:51Z</time>
      </trkpt>
      <trkpt lat="45.76389" lon="5.63531">
        <ele>347.52752401398</ele>
        <time>2015-04-26T13:31:56Z</time>
      </trkpt>
      <trkpt lat="45.76389" lon="5.63531">
        <ele>347.52752401398</ele>
        <time>2015-04-26T13:32:01Z</time>
      </trkpt>
      <trkpt lat="45.76389" lon="5.63531">
        <ele>347.52752401398</ele>
        <time>2015-04-26T13:32:06Z</time>
      </trkpt>
      <trkpt lat="45.76389" lon="5.63531">
        <ele>347.52752401398</ele>
        <time>2015-04-26T13:32:11Z</time>
      </trkpt>
      <trkpt lat="45.76389" lon="5.63531">
        <ele>347.52752401398</ele>
        <time>2015-04-26T13:32:16Z</time>
      </trkpt>
      <trkpt lat="45.76389" lon="5.63531">
        <ele>347.52752401398</ele>
        <time>2015-04-26T13:32:21Z</time>
      </trkpt>
      <trkpt lat="45.76389" lon="5.63531">
        <ele>347.52752401398</ele>
        <time>2015-04-26T13:32:26Z</time>
      </trkpt>
      <trkpt lat="45.76389" lon="5.63531">
        <ele>347.52752401398</ele>
        <time>2015-04-26T13:32:31Z</time>
      </trkpt>
      <trkpt lat="45.76389" lon="5.63531">
        <ele>347.52752401398</ele>
        <time>2015-04-26T13:32:36Z</time>
      </trkpt>
      <trkpt lat="45.76389" lon="5.63531">
        <ele>347.52752401398</ele>
        <time>2015-04-26T13:32:41Z</time>
      </trkpt>
      <trkpt lat="45.76389" lon="5.63531">
        <ele>347.52752401398</ele>
        <time>2015-04-26T13:32:46Z</time>
      </trkpt>
      <trkpt lat="45.76389" lon="5.63531">
        <ele>347.52752401398</ele>
        <time>2015-04-26T13:32:51Z</time>
      </trkpt>
      <trkpt lat="45.76389" lon="5.63531">
        <ele>347.52752401398</ele>
        <time>2015-04-26T13:32:56Z</time>
      </trkpt>
      <trkpt lat="45.76389" lon="5.63531">
        <ele>347.52752401398</ele>
        <time>2015-04-26T13:33:01Z</time>
      </trkpt>
      <trkpt lat="45.76389" lon="5.63531">
        <ele>347.52752401398</ele>
        <time>2015-04-26T13:33:06Z</time>
      </trkpt>
      <trkpt lat="45.76389" lon="5.63531">
        <ele>347.52752401398</ele>
        <time>2015-04-26T13:33:11Z</time>
      </trkpt>
      <trkpt lat="45.76389" lon="5.63531">
        <ele>347.52752401398</ele>
        <time>2015-04-26T13:33:16Z</time>
      </trkpt>
      <trkpt lat="45.76389" lon="5.63531">
        <ele>347.52752401398</ele>
        <time>2015-04-26T13:33:21Z</time>
      </trkpt>
      <trkpt lat="45.76389" lon="5.63531">
        <ele>347.52752401398</ele>
        <time>2015-04-26T13:33:26Z</time>
      </trkpt>
      <trkpt lat="45.76389" lon="5.63531">
        <ele>347.52752401398</ele>
        <time>2015-04-26T13:33:31Z</time>
      </trkpt>
      <trkpt lat="45.76389" lon="5.63531">
        <ele>347.52752401398</ele>
        <time>2015-04-26T13:33:36Z</time>
      </trkpt>
      <trkpt lat="45.76389" lon="5.63531">
        <ele>347.52752401398</ele>
        <time>2015-04-26T13:33:41Z</time>
      </trkpt>
      <trkpt lat="45.76389" lon="5.63531">
        <ele>347.52752401398</ele>
        <time>2015-04-26T13:33:46Z</time>
      </trkpt>
      <trkpt lat="45.76389" lon="5.63531">
        <ele>347.52752401398</ele>
        <time>2015-04-26T13:33:51Z</time>
      </trkpt>
      <trkpt lat="45.76389" lon="5.63531">
        <ele>347.52752401398</ele>
        <time>2015-04-26T13:33:56Z</time>
      </trkpt>
      <trkpt lat="45.76389" lon="5.63531">
        <ele>347.52752401398</ele>
        <time>2015-04-26T13:34:01Z</time>
      </trkpt>
      <trkpt lat="45.76389" lon="5.63531">
        <ele>347.52752401398</ele>
        <time>2015-04-26T13:34:06Z</time>
      </trkpt>
      <trkpt lat="45.76389" lon="5.63531">
        <ele>347.52752401398</ele>
        <time>2015-04-26T13:34:11Z</time>
      </trkpt>
      <trkpt lat="45.76389" lon="5.63531">
        <ele>347.52752401398</ele>
        <time>2015-04-26T13:34:16Z</time>
      </trkpt>
      <trkpt lat="45.76389" lon="5.63531">
        <ele>347.52752401398</ele>
        <time>2015-04-26T13:34:21Z</time>
      </trkpt>
      <trkpt lat="45.76389" lon="5.63531">
        <ele>347.52752401398</ele>
        <time>2015-04-26T13:34:26Z</time>
      </trkpt>
      <trkpt lat="45.76389" lon="5.63531">
        <ele>347.52752401398</ele>
        <time>2015-04-26T13:34:31Z</time>
      </trkpt>
      <trkpt lat="45.76389" lon="5.63531">
        <ele>347.52752401398</ele>
        <time>2015-04-26T13:34:36Z</time>
      </trkpt>
      <trkpt lat="45.76389" lon="5.63531">
        <ele>347.52752401398</ele>
        <time>2015-04-26T13:34:41Z</time>
      </trkpt>
      <trkpt lat="45.76389" lon="5.63531">
        <ele>347.52752401398</ele>
        <time>2015-04-26T13:34:46Z</time>
      </trkpt>
      <trkpt lat="45.76389" lon="5.63531">
        <ele>347.52752401398</ele>
        <time>2015-04-26T13:34:51Z</time>
      </trkpt>
      <trkpt lat="45.76389" lon="5.63531">
        <ele>347.52752401398</ele>
        <time>2015-04-26T13:34:56Z</time>
      </trkpt>
      <trkpt lat="45.76389" lon="5.63531">
        <ele>347.52752401398</ele>
        <time>2015-04-26T13:35:01Z</time>
      </trkpt>
      <trkpt lat="45.76389" lon="5.63531">
        <ele>347.52752401398</ele>
        <time>2015-04-26T13:35:06Z</time>
      </trkpt>
      <trkpt lat="45.76389" lon="5.63531">
        <ele>347.52752401398</ele>
        <time>2015-04-26T13:35:11Z</time>
      </trkpt>
      <trkpt lat="45.76389" lon="5.63531">
        <ele>347.52752401398</ele>
        <time>2015-04-26T13:35:16Z</time>
      </trkpt>
      <trkpt lat="45.76389" lon="5.63531">
        <ele>347.52752401398</ele>
        <time>2015-04-26T13:35:21Z</time>
      </trkpt>
      <trkpt lat="45.76389" lon="5.63531">
        <ele>347.52752401398</ele>
        <time>2015-04-26T13:35:26Z</time>
      </trkpt>
      <trkpt lat="45.76389" lon="5.63531">
        <ele>347.52752401398</ele>
        <time>2015-04-26T13:35:31Z</time>
      </trkpt>
      <trkpt lat="45.76389" lon="5.63531">
        <ele>347.52752401398</ele>
        <time>2015-04-26T13:35:36Z</time>
      </trkpt>
      <trkpt lat="45.76389" lon="5.63531">
        <ele>347.52752401398</ele>
        <time>2015-04-26T13:35:41Z</time>
      </trkpt>
      <trkpt lat="45.76389" lon="5.63531">
        <ele>347.52752401398</ele>
        <time>2015-04-26T13:35:46Z</time>
      </trkpt>
      <trkpt lat="45.76389" lon="5.63531">
        <ele>347.52752401398</ele>
        <time>2015-04-26T13:35:51Z</time>
      </trkpt>
      <trkpt lat="45.76389" lon="5.63531">
        <ele>347.52752401398</ele>
        <time>2015-04-26T13:35:56Z</time>
      </trkpt>
      <trkpt lat="45.76389" lon="5.63531">
        <ele>347.52752401398</ele>
        <time>2015-04-26T13:36:01Z</time>
      </trkpt>
      <trkpt lat="45.76389" lon="5.63531">
        <ele>347.52752401398</ele>
        <time>2015-04-26T13:36:06Z</time>
      </trkpt>
      <trkpt lat="45.76389" lon="5.63531">
        <ele>347.52752401398</ele>
        <time>2015-04-26T13:36:11Z</time>
      </trkpt>
      <trkpt lat="45.76389" lon="5.63531">
        <ele>347.52752401398</ele>
        <time>2015-04-26T13:36:16Z</time>
      </trkpt>
      <trkpt lat="45.76389" lon="5.63531">
        <ele>347.52752401398</ele>
        <time>2015-04-26T13:36:21Z</time>
      </trkpt>
      <trkpt lat="45.76389" lon="5.63531">
        <ele>347.52752401398</ele>
        <time>2015-04-26T13:36:26Z</time>
      </trkpt>
      <trkpt lat="45.76389" lon="5.63531">
        <ele>347.52752401398</ele>
        <time>2015-04-26T13:36:31Z</time>
      </trkpt>
      <trkpt lat="45.76389" lon="5.63531">
        <ele>347.52752401398</ele>
        <time>2015-04-26T13:36:36Z</time>
      </trkpt>
      <trkpt lat="45.76389" lon="5.63531">
        <ele>347.52752401398</ele>
        <time>2015-04-26T13:36:41Z</time>
      </trkpt>
      <trkpt lat="45.76389" lon="5.63531">
        <ele>347.52752401398</ele>
        <time>2015-04-26T13:36:46Z</time>
      </trkpt>
      <trkpt lat="45.76389" lon="5.63531">
        <ele>347.52752401398</ele>
        <time>2015-04-26T13:36:51Z</time>
      </trkpt>
      <trkpt lat="45.76389" lon="5.63531">
        <ele>347.52752401398</ele>
        <time>2015-04-26T13:36:56Z</time>
      </trkpt>
      <trkpt lat="45.76389" lon="5.63531">
        <ele>347.52752401398</ele>
        <time>2015-04-26T13:37:01Z</time>
      </trkpt>
      <trkpt lat="45.76389" lon="5.63531">
        <ele>347.52752401398</ele>
        <time>2015-04-26T13:37:06Z</time>
      </trkpt>
      <trkpt lat="45.76389" lon="5.63531">
        <ele>347.52752401398</ele>
        <time>2015-04-26T13:37:11Z</time>
      </trkpt>
      <trkpt lat="45.76389" lon="5.63531">
        <ele>347.52752401398</ele>
        <time>2015-04-26T13:37:16Z</time>
      </trkpt>
      <trkpt lat="45.76389" lon="5.63531">
        <ele>347.52752401398</ele>
        <time>2015-04-26T13:37:21Z</time>
      </trkpt>
      <trkpt lat="45.76389" lon="5.63531">
        <ele>347.52752401398</ele>
        <time>2015-04-26T13:37:26Z</time>
      </trkpt>
      <trkpt lat="45.76389" lon="5.63531">
        <ele>347.52752401398</ele>
        <time>2015-04-26T13:37:31Z</time>
      </trkpt>
      <trkpt lat="45.76389" lon="5.63531">
        <ele>347.52752401398</ele>
        <time>2015-04-26T13:37:36Z</time>
      </trkpt>
      <trkpt lat="45.76389" lon="5.63531">
        <ele>347.52752401398</ele>
        <time>2015-04-26T13:37:41Z</time>
      </trkpt>
      <trkpt lat="45.76389" lon="5.63531">
        <ele>347.52752401398</ele>
        <time>2015-04-26T13:37:46Z</time>
      </trkpt>
      <trkpt lat="45.76389" lon="5.63531">
        <ele>347.52752401398</ele>
        <time>2015-04-26T13:37:51Z</time>
      </trkpt>
      <trkpt lat="45.76389" lon="5.63531">
        <ele>347.52752401398</ele>
        <time>2015-04-26T13:37:56Z</time>
      </trkpt>
      <trkpt lat="45.76389" lon="5.63531">
        <ele>347.52752401398</ele>
        <time>2015-04-26T13:38:01Z</time>
      </trkpt>
      <trkpt lat="45.76389" lon="5.63531">
        <ele>347.52752401398</ele>
        <time>2015-04-26T13:38:06Z</time>
      </trkpt>
      <trkpt lat="45.76389" lon="5.63531">
        <ele>347.52752401398</ele>
        <time>2015-04-26T13:38:11Z</time>
      </trkpt>
      <trkpt lat="45.76389" lon="5.63531">
        <ele>347.52752401398</ele>
        <time>2015-04-26T13:38:16Z</time>
      </trkpt>
      <trkpt lat="45.76389" lon="5.63531">
        <ele>347.52752401398</ele>
        <time>2015-04-26T13:38:21Z</time>
      </trkpt>
      <trkpt lat="45.76389" lon="5.63531">
        <ele>347.52752401398</ele>
        <time>2015-04-26T13:38:26Z</time>
      </trkpt>
      <trkpt lat="45.76389" lon="5.63531">
        <ele>347.52752401398</ele>
        <time>2015-04-26T13:38:31Z</time>
      </trkpt>
      <trkpt lat="45.76389" lon="5.63531">
        <ele>347.52752401398</ele>
        <time>2015-04-26T13:38:36Z</time>
      </trkpt>
      <trkpt lat="45.76389" lon="5.63531">
        <ele>347.52752401398</ele>
        <time>2015-04-26T13:38:41Z</time>
      </trkpt>
      <trkpt lat="45.76389" lon="5.63531">
        <ele>347.52752401398</ele>
        <time>2015-04-26T13:38:46Z</time>
      </trkpt>
      <trkpt lat="45.76389" lon="5.63531">
        <ele>347.52752401398</ele>
        <time>2015-04-26T13:38:51Z</time>
      </trkpt>
      <trkpt lat="45.76389" lon="5.63531">
        <ele>347.52752401398</ele>
        <time>2015-04-26T13:38:56Z</time>
      </trkpt>
      <trkpt lat="45.76389" lon="5.63531">
        <ele>347.52752401398</ele>
        <time>2015-04-26T13:39:01Z</time>
      </trkpt>
      <trkpt lat="45.76389" lon="5.63531">
        <ele>347.52752401398</ele>
        <time>2015-04-26T13:39:11Z</time>
      </trkpt>
      <trkpt lat="45.76389" lon="5.63531">
        <ele>347.52752401398</ele>
        <time>2015-04-26T13:39:16Z</time>
      </trkpt>
      <trkpt lat="45.76389" lon="5.63531">
        <ele>347.52752401398</ele>
        <time>2015-04-26T13:39:21Z</time>
      </trkpt>
      <trkpt lat="45.76389" lon="5.63531">
        <ele>347.52752401398</ele>
        <time>2015-04-26T13:39:26Z</time>
      </trkpt>
      <trkpt lat="45.76389" lon="5.63531">
        <ele>347.52752401398</ele>
        <time>2015-04-26T13:39:31Z</time>
      </trkpt>
      <trkpt lat="45.76389" lon="5.63531">
        <ele>347.52752401398</ele>
        <time>2015-04-26T13:39:36Z</time>
      </trkpt>
      <trkpt lat="45.76389" lon="5.63531">
        <ele>347.52752401398</ele>
        <time>2015-04-26T13:39:41Z</time>
      </trkpt>
      <trkpt lat="45.76389" lon="5.63531">
        <ele>347.52752401398</ele>
        <time>2015-04-26T13:39:46Z</time>
      </trkpt>
      <trkpt lat="45.76389" lon="5.63531">
        <ele>347.52752401398</ele>
        <time>2015-04-26T13:39:51Z</time>
      </trkpt>
      <trkpt lat="45.76389" lon="5.63531">
        <ele>347.52752401398</ele>
        <time>2015-04-26T13:40:01Z</time>
      </trkpt>
      <trkpt lat="45.76389" lon="5.63531">
        <ele>347.52752401398</ele>
        <time>2015-04-26T13:40:06Z</time>
      </trkpt>
      <trkpt lat="45.76389" lon="5.63531">
        <ele>347.52752401398</ele>
        <time>2015-04-26T13:40:11Z</time>
      </trkpt>
      <trkpt lat="45.76389" lon="5.63531">
        <ele>347.52752401398</ele>
        <time>2015-04-26T13:40:16Z</time>
      </trkpt>
      <trkpt lat="45.76389" lon="5.63531">
        <ele>347.52752401398</ele>
        <time>2015-04-26T13:40:21Z</time>
      </trkpt>
      <trkpt lat="45.76389" lon="5.63531">
        <ele>347.52752401398</ele>
        <time>2015-04-26T13:40:26Z</time>
      </trkpt>
      <trkpt lat="45.76389" lon="5.63531">
        <ele>347.52752401398</ele>
        <time>2015-04-26T13:40:31Z</time>
      </trkpt>
      <trkpt lat="45.76389" lon="5.63531">
        <ele>347.52752401398</ele>
        <time>2015-04-26T13:40:36Z</time>
      </trkpt>
      <trkpt lat="45.76389" lon="5.63531">
        <ele>347.52752401398</ele>
        <time>2015-04-26T13:40:41Z</time>
      </trkpt>
      <trkpt lat="45.76389" lon="5.63531">
        <ele>347.52752401398</ele>
        <time>2015-04-26T13:40:46Z</time>
      </trkpt>
      <trkpt lat="45.76389" lon="5.63531">
        <ele>347.52752401398</ele>
        <time>2015-04-26T13:40:51Z</time>
      </trkpt>
      <trkpt lat="45.76389" lon="5.63531">
        <ele>347.52752401398</ele>
        <time>2015-04-26T13:40:56Z</time>
      </trkpt>
      <trkpt lat="45.76389" lon="5.63531">
        <ele>347.52752401398</ele>
        <time>2015-04-26T13:41:01Z</time>
      </trkpt>
      <trkpt lat="45.76389" lon="5.63531">
        <ele>347.52752401398</ele>
        <time>2015-04-26T13:41:06Z</time>
      </trkpt>
      <trkpt lat="45.76389" lon="5.63531">
        <ele>347.52752401398</ele>
        <time>2015-04-26T13:41:11Z</time>
      </trkpt>
      <trkpt lat="45.76389" lon="5.63531">
        <ele>347.52752401398</ele>
        <time>2015-04-26T13:41:16Z</time>
      </trkpt>
      <trkpt lat="45.76389" lon="5.63531">
        <ele>347.52752401398</ele>
        <time>2015-04-26T13:41:21Z</time>
      </trkpt>
      <trkpt lat="45.76389" lon="5.63531">
        <ele>347.52752401398</ele>
        <time>2015-04-26T13:41:26Z</time>
      </trkpt>
      <trkpt lat="45.76389" lon="5.63531">
        <ele>347.52752401398</ele>
        <time>2015-04-26T13:41:31Z</time>
      </trkpt>
      <trkpt lat="45.76389" lon="5.63531">
        <ele>347.52752401398</ele>
        <time>2015-04-26T13:41:36Z</time>
      </trkpt>
      <trkpt lat="45.76389" lon="5.63531">
        <ele>347.52752401398</ele>
        <time>2015-04-26T13:41:41Z</time>
      </trkpt>
      <trkpt lat="45.76389" lon="5.63531">
        <ele>347.52752401398</ele>
        <time>2015-04-26T13:41:46Z</time>
      </trkpt>
      <trkpt lat="45.76389" lon="5.63531">
        <ele>347.52752401398</ele>
        <time>2015-04-26T13:41:51Z</time>
      </trkpt>
      <trkpt lat="45.76389" lon="5.63531">
        <ele>347.52752401398</ele>
        <time>2015-04-26T13:41:56Z</time>
      </trkpt>
      <trkpt lat="45.76389" lon="5.63531">
        <ele>347.52752401398</ele>
        <time>2015-04-26T13:42:01Z</time>
      </trkpt>
      <trkpt lat="45.76389" lon="5.63531">
        <ele>347.52752401398</ele>
        <time>2015-04-26T13:42:06Z</time>
      </trkpt>
      <trkpt lat="45.76389" lon="5.63531">
        <ele>347.52752401398</ele>
        <time>2015-04-26T13:42:11Z</time>
      </trkpt>
      <trkpt lat="45.76389" lon="5.63531">
        <ele>347.52752401398</ele>
        <time>2015-04-26T13:42:16Z</time>
      </trkpt>
      <trkpt lat="45.76389" lon="5.63531">
        <ele>347.52752401398</ele>
        <time>2015-04-26T13:42:21Z</time>
      </trkpt>
      <trkpt lat="45.76389" lon="5.63531">
        <ele>347.52752401398</ele>
        <time>2015-04-26T13:42:26Z</time>
      </trkpt>
      <trkpt lat="45.76389" lon="5.63531">
        <ele>347.52752401398</ele>
        <time>2015-04-26T13:42:31Z</time>
      </trkpt>
      <trkpt lat="45.76389" lon="5.63531">
        <ele>347.52752401398</ele>
        <time>2015-04-26T13:42:36Z</time>
      </trkpt>
      <trkpt lat="45.76389" lon="5.63531">
        <ele>347.52752401398</ele>
        <time>2015-04-26T13:42:41Z</time>
      </trkpt>
      <trkpt lat="45.76389" lon="5.63531">
        <ele>347.52752401398</ele>
        <time>2015-04-26T13:42:46Z</time>
      </trkpt>
      <trkpt lat="45.76389" lon="5.63531">
        <ele>347.52752401398</ele>
        <time>2015-04-26T13:42:51Z</time>
      </trkpt>
      <trkpt lat="45.76389" lon="5.63531">
        <ele>347.52752401398</ele>
        <time>2015-04-26T13:42:56Z</time>
      </trkpt>
      <trkpt lat="45.76389" lon="5.63531">
        <ele>347.52752401398</ele>
        <time>2015-04-26T13:43:01Z</time>
      </trkpt>
      <trkpt lat="45.76389" lon="5.63531">
        <ele>347.52752401398</ele>
        <time>2015-04-26T13:43:06Z</time>
      </trkpt>
      <trkpt lat="45.76389" lon="5.63531">
        <ele>347.52752401398</ele>
        <time>2015-04-26T13:43:11Z</time>
      </trkpt>
      <trkpt lat="45.76389" lon="5.63531">
        <ele>347.52752401398</ele>
        <time>2015-04-26T13:43:16Z</time>
      </trkpt>
      <trkpt lat="45.76389" lon="5.6353">
        <ele>347.52752401398</ele>
        <time>2015-04-26T13:43:21Z</time>
      </trkpt>
      <trkpt lat="45.76389" lon="5.6353">
        <ele>347.52752401398</ele>
        <time>2015-04-26T13:43:26Z</time>
      </trkpt>
      <trkpt lat="45.76389" lon="5.6353">
        <ele>347.52752401398</ele>
        <time>2015-04-26T13:43:31Z</time>
      </trkpt>
      <trkpt lat="45.76389" lon="5.6353">
        <ele>347.52752401398</ele>
        <time>2015-04-26T13:43:36Z</time>
      </trkpt>
      <trkpt lat="45.76389" lon="5.6353">
        <ele>347.52752401398</ele>
        <time>2015-04-26T13:43:41Z</time>
      </trkpt>
      <trkpt lat="45.76389" lon="5.6353">
        <ele>347.52752401398</ele>
        <time>2015-04-26T13:43:46Z</time>
      </trkpt>
      <trkpt lat="45.76389" lon="5.6353">
        <ele>347.52752401398</ele>
        <time>2015-04-26T13:43:51Z</time>
      </trkpt>
      <trkpt lat="45.76389" lon="5.63531">
        <ele>347.52752401398</ele>
        <time>2015-04-26T13:43:56Z</time>
      </trkpt>
      <trkpt lat="45.76389" lon="5.63531">
        <ele>347.52752401398</ele>
        <time>2015-04-26T13:44:01Z</time>
      </trkpt>
      <trkpt lat="45.76389" lon="5.63531">
        <ele>347.52752401398</ele>
        <time>2015-04-26T13:44:06Z</time>
      </trkpt>
      <trkpt lat="45.76389" lon="5.63531">
        <ele>347.52752401398</ele>
        <time>2015-04-26T13:44:11Z</time>
      </trkpt>
      <trkpt lat="45.76389" lon="5.63531">
        <ele>347.52752401398</ele>
        <time>2015-04-26T13:44:16Z</time>
      </trkpt>
      <trkpt lat="45.7639" lon="5.6353">
        <ele>347.52752401398</ele>
        <time>2015-04-26T13:44:21Z</time>
      </trkpt>
      <trkpt lat="45.7639" lon="5.63531">
        <ele>347.52752401398</ele>
        <time>2015-04-26T13:44:26Z</time>
      </trkpt>
      <trkpt lat="45.7639" lon="5.6353">
        <ele>348.73606805097</ele>
        <time>2015-04-26T13:44:31Z</time>
      </trkpt>
      <trkpt lat="45.7639" lon="5.63529">
        <ele>348.73606805097</ele>
        <time>2015-04-26T13:44:36Z</time>
      </trkpt>
      <trkpt lat="45.7639" lon="5.63529">
        <ele>348.73606805097</ele>
        <time>2015-04-26T13:44:41Z</time>
      </trkpt>
      <trkpt lat="45.7639" lon="5.63529">
        <ele>348.73606805097</ele>
        <time>2015-04-26T13:44:46Z</time>
      </trkpt>
      <trkpt lat="45.7639" lon="5.63529">
        <ele>348.73606805097</ele>
        <time>2015-04-26T13:44:51Z</time>
      </trkpt>
      <trkpt lat="45.7639" lon="5.63529">
        <ele>348.73606805097</ele>
        <time>2015-04-26T13:44:56Z</time>
      </trkpt>
      <trkpt lat="45.7639" lon="5.63529">
        <ele>348.73606805097</ele>
        <time>2015-04-26T13:45:01Z</time>
      </trkpt>
      <trkpt lat="45.7639" lon="5.6353">
        <ele>348.73606805097</ele>
        <time>2015-04-26T13:45:06Z</time>
      </trkpt>
      <trkpt lat="45.7639" lon="5.6353">
        <ele>348.73606805097</ele>
        <time>2015-04-26T13:45:11Z</time>
      </trkpt>
      <trkpt lat="45.7639" lon="5.6353">
        <ele>348.73606805097</ele>
        <time>2015-04-26T13:45:16Z</time>
      </trkpt>
      <trkpt lat="45.7639" lon="5.6353">
        <ele>348.73606805097</ele>
        <time>2015-04-26T13:45:21Z</time>
      </trkpt>
      <trkpt lat="45.7639" lon="5.6353">
        <ele>348.73606805097</ele>
        <time>2015-04-26T13:45:26Z</time>
      </trkpt>
      <trkpt lat="45.7639" lon="5.6353">
        <ele>348.73606805097</ele>
        <time>2015-04-26T13:45:31Z</time>
      </trkpt>
      <trkpt lat="45.7639" lon="5.6353">
        <ele>348.73606805097</ele>
        <time>2015-04-26T13:45:36Z</time>
      </trkpt>
      <trkpt lat="45.7639" lon="5.6353">
        <ele>348.73606805097</ele>
        <time>2015-04-26T13:45:41Z</time>
      </trkpt>
      <trkpt lat="45.7639" lon="5.6353">
        <ele>348.73606805097</ele>
        <time>2015-04-26T13:45:46Z</time>
      </trkpt>
      <trkpt lat="45.7639" lon="5.6353">
        <ele>348.73606805097</ele>
        <time>2015-04-26T13:45:51Z</time>
      </trkpt>
      <trkpt lat="45.7639" lon="5.6353">
        <ele>348.73606805097</ele>
        <time>2015-04-26T13:45:56Z</time>
      </trkpt>
      <trkpt lat="45.7639" lon="5.6353">
        <ele>348.73606805097</ele>
        <time>2015-04-26T13:46:01Z</time>
      </trkpt>
      <trkpt lat="45.7639" lon="5.6353">
        <ele>348.73606805097</ele>
        <time>2015-04-26T13:46:06Z</time>
      </trkpt>
      <trkpt lat="45.7639" lon="5.6353">
        <ele>348.73606805097</ele>
        <time>2015-04-26T13:46:11Z</time>
      </trkpt>
      <trkpt lat="45.7639" lon="5.6353">
        <ele>348.73606805097</ele>
        <time>2015-04-26T13:46:16Z</time>
      </trkpt>
      <trkpt lat="45.7639" lon="5.6353">
        <ele>348.73606805097</ele>
        <time>2015-04-26T13:46:21Z</time>
      </trkpt>
      <trkpt lat="45.7639" lon="5.6353">
        <ele>348.73606805097</ele>
        <time>2015-04-26T13:46:26Z</time>
      </trkpt>
      <trkpt lat="45.7639" lon="5.6353">
        <ele>348.73606805097</ele>
        <time>2015-04-26T13:46:31Z</time>
      </trkpt>
      <trkpt lat="45.7639" lon="5.6353">
        <ele>348.73606805097</ele>
        <time>2015-04-26T13:46:36Z</time>
      </trkpt>
      <trkpt lat="45.7639" lon="5.6353">
        <ele>348.73606805097</ele>
        <time>2015-04-26T13:46:41Z</time>
      </trkpt>
      <trkpt lat="45.7639" lon="5.6353">
        <ele>348.73606805097</ele>
        <time>2015-04-26T13:46:46Z</time>
      </trkpt>
      <trkpt lat="45.7639" lon="5.6353">
        <ele>348.73606805097</ele>
        <time>2015-04-26T13:46:51Z</time>
      </trkpt>
      <trkpt lat="45.7639" lon="5.6353">
        <ele>348.73606805097</ele>
        <time>2015-04-26T13:46:56Z</time>
      </trkpt>
      <trkpt lat="45.7639" lon="5.6353">
        <ele>348.73606805097</ele>
        <time>2015-04-26T13:47:01Z</time>
      </trkpt>
      <trkpt lat="45.7639" lon="5.6353">
        <ele>348.73606805097</ele>
        <time>2015-04-26T13:47:06Z</time>
      </trkpt>
      <trkpt lat="45.7639" lon="5.6353">
        <ele>348.73606805097</ele>
        <time>2015-04-26T13:47:11Z</time>
      </trkpt>
      <trkpt lat="45.7639" lon="5.6353">
        <ele>348.73606805097</ele>
        <time>2015-04-26T13:47:16Z</time>
      </trkpt>
      <trkpt lat="45.7639" lon="5.6353">
        <ele>348.73606805097</ele>
        <time>2015-04-26T13:47:21Z</time>
      </trkpt>
      <trkpt lat="45.7639" lon="5.6353">
        <ele>348.73606805097</ele>
        <time>2015-04-26T13:47:26Z</time>
      </trkpt>
      <trkpt lat="45.7639" lon="5.6353">
        <ele>348.73606805097</ele>
        <time>2015-04-26T13:47:31Z</time>
      </trkpt>
      <trkpt lat="45.7639" lon="5.6353">
        <ele>348.73606805097</ele>
        <time>2015-04-26T13:47:36Z</time>
      </trkpt>
      <trkpt lat="45.7639" lon="5.6353">
        <ele>348.73606805097</ele>
        <time>2015-04-26T13:47:41Z</time>
      </trkpt>
      <trkpt lat="45.7639" lon="5.6353">
        <ele>348.73606805097</ele>
        <time>2015-04-26T13:47:46Z</time>
      </trkpt>
      <trkpt lat="45.7639" lon="5.6353">
        <ele>348.73606805097</ele>
        <time>2015-04-26T13:47:51Z</time>
      </trkpt>
      <trkpt lat="45.7639" lon="5.6353">
        <ele>348.73606805097</ele>
        <time>2015-04-26T13:47:56Z</time>
      </trkpt>
      <trkpt lat="45.7639" lon="5.6353">
        <ele>348.73606805097</ele>
        <time>2015-04-26T13:48:01Z</time>
      </trkpt>
      <trkpt lat="45.7639" lon="5.6353">
        <ele>348.73606805097</ele>
        <time>2015-04-26T13:48:06Z</time>
      </trkpt>
      <trkpt lat="45.7639" lon="5.6353">
        <ele>348.73606805097</ele>
        <time>2015-04-26T13:48:11Z</time>
      </trkpt>
      <trkpt lat="45.7639" lon="5.6353">
        <ele>348.73606805097</ele>
        <time>2015-04-26T13:48:16Z</time>
      </trkpt>
      <trkpt lat="45.7639" lon="5.6353">
        <ele>348.73606805097</ele>
        <time>2015-04-26T13:48:21Z</time>
      </trkpt>
      <trkpt lat="45.7639" lon="5.6353">
        <ele>348.73606805097</ele>
        <time>2015-04-26T13:48:26Z</time>
      </trkpt>
      <trkpt lat="45.7639" lon="5.6353">
        <ele>348.73606805097</ele>
        <time>2015-04-26T13:48:31Z</time>
      </trkpt>
      <trkpt lat="45.7639" lon="5.6353">
        <ele>348.73606805097</ele>
        <time>2015-04-26T13:48:36Z</time>
      </trkpt>
      <trkpt lat="45.7639" lon="5.6353">
        <ele>348.73606805097</ele>
        <time>2015-04-26T13:48:41Z</time>
      </trkpt>
      <trkpt lat="45.7639" lon="5.6353">
        <ele>348.73606805097</ele>
        <time>2015-04-26T13:48:46Z</time>
      </trkpt>
      <trkpt lat="45.7639" lon="5.6353">
        <ele>348.73606805097</ele>
        <time>2015-04-26T13:48:51Z</time>
      </trkpt>
      <trkpt lat="45.7639" lon="5.6353">
        <ele>348.73606805097</ele>
        <time>2015-04-26T13:48:56Z</time>
      </trkpt>
      <trkpt lat="45.7639" lon="5.6353">
        <ele>348.73606805097</ele>
        <time>2015-04-26T13:49:01Z</time>
      </trkpt>
      <trkpt lat="45.7639" lon="5.6353">
        <ele>348.73606805097</ele>
        <time>2015-04-26T13:49:06Z</time>
      </trkpt>
      <trkpt lat="45.7639" lon="5.6353">
        <ele>348.73606805097</ele>
        <time>2015-04-26T13:49:16Z</time>
      </trkpt>
      <trkpt lat="45.7639" lon="5.6353">
        <ele>348.73606805097</ele>
        <time>2015-04-26T13:49:21Z</time>
      </trkpt>
      <trkpt lat="45.7639" lon="5.6353">
        <ele>348.73606805097</ele>
        <time>2015-04-26T13:49:26Z</time>
      </trkpt>
      <trkpt lat="45.7639" lon="5.6353">
        <ele>348.73606805097</ele>
        <time>2015-04-26T13:49:31Z</time>
      </trkpt>
      <trkpt lat="45.7639" lon="5.6353">
        <ele>348.73606805097</ele>
        <time>2015-04-26T13:49:36Z</time>
      </trkpt>
      <trkpt lat="45.7639" lon="5.6353">
        <ele>348.73606805097</ele>
        <time>2015-04-26T13:49:41Z</time>
      </trkpt>
      <trkpt lat="45.7639" lon="5.6353">
        <ele>348.73606805097</ele>
        <time>2015-04-26T13:49:46Z</time>
      </trkpt>
      <trkpt lat="45.7639" lon="5.6353">
        <ele>348.73606805097</ele>
        <time>2015-04-26T13:49:51Z</time>
      </trkpt>
      <trkpt lat="45.7639" lon="5.6353">
        <ele>348.73606805097</ele>
        <time>2015-04-26T13:49:56Z</time>
      </trkpt>
      <trkpt lat="45.7639" lon="5.6353">
        <ele>348.73606805097</ele>
        <time>2015-04-26T13:50:01Z</time>
      </trkpt>
      <trkpt lat="45.7639" lon="5.6353">
        <ele>348.73606805097</ele>
        <time>2015-04-26T13:50:06Z</time>
      </trkpt>
      <trkpt lat="45.7639" lon="5.6353">
        <ele>348.73606805097</ele>
        <time>2015-04-26T13:50:11Z</time>
      </trkpt>
      <trkpt lat="45.7639" lon="5.6353">
        <ele>348.73606805097</ele>
        <time>2015-04-26T13:50:16Z</time>
      </trkpt>
      <trkpt lat="45.7639" lon="5.6353">
        <ele>348.73606805097</ele>
        <time>2015-04-26T13:50:21Z</time>
      </trkpt>
      <trkpt lat="45.7639" lon="5.6353">
        <ele>348.73606805097</ele>
        <time>2015-04-26T13:50:26Z</time>
      </trkpt>
      <trkpt lat="45.7639" lon="5.6353">
        <ele>348.73606805097</ele>
        <time>2015-04-26T13:50:31Z</time>
      </trkpt>
      <trkpt lat="45.7639" lon="5.6353">
        <ele>348.73606805097</ele>
        <time>2015-04-26T13:50:36Z</time>
      </trkpt>
      <trkpt lat="45.7639" lon="5.6353">
        <ele>348.73606805097</ele>
        <time>2015-04-26T13:50:41Z</time>
      </trkpt>
      <trkpt lat="45.76389" lon="5.6353">
        <ele>348.73606805097</ele>
        <time>2015-04-26T13:50:46Z</time>
      </trkpt>
      <trkpt lat="45.76389" lon="5.63526">
        <ele>348.73606805097</ele>
        <time>2015-04-26T13:50:51Z</time>
      </trkpt>
      <trkpt lat="45.76389" lon="5.63526">
        <ele>348.73606805097</ele>
        <time>2015-04-26T13:50:56Z</time>
      </trkpt>
      <trkpt lat="45.76389" lon="5.63526">
        <ele>348.73606805097</ele>
        <time>2015-04-26T13:51:01Z</time>
      </trkpt>
      <trkpt lat="45.76389" lon="5.63527">
        <ele>348.73606805097</ele>
        <time>2015-04-26T13:51:06Z</time>
      </trkpt>
      <trkpt lat="45.76389" lon="5.63526">
        <ele>348.73606805097</ele>
        <time>2015-04-26T13:51:11Z</time>
      </trkpt>
      <trkpt lat="45.76389" lon="5.63527">
        <ele>348.73606805097</ele>
        <time>2015-04-26T13:51:16Z</time>
      </trkpt>
      <trkpt lat="45.7639" lon="5.63527">
        <ele>348.73606805097</ele>
        <time>2015-04-26T13:51:21Z</time>
      </trkpt>
      <trkpt lat="45.7639" lon="5.63527">
        <ele>348.73606805097</ele>
        <time>2015-04-26T13:51:26Z</time>
      </trkpt>
      <trkpt lat="45.7639" lon="5.63527">
        <ele>348.73606805097</ele>
        <time>2015-04-26T13:51:31Z</time>
      </trkpt>
      <trkpt lat="45.7639" lon="5.63527">
        <ele>348.73606805097</ele>
        <time>2015-04-26T13:51:36Z</time>
      </trkpt>
      <trkpt lat="45.76391" lon="5.63527">
        <ele>348.73606805097</ele>
        <time>2015-04-26T13:51:41Z</time>
      </trkpt>
      <trkpt lat="45.7639" lon="5.63527">
        <ele>348.73606805097</ele>
        <time>2015-04-26T13:51:46Z</time>
      </trkpt>
      <trkpt lat="45.7639" lon="5.63527">
        <ele>348.73606805097</ele>
        <time>2015-04-26T13:51:51Z</time>
      </trkpt>
      <trkpt lat="45.76391" lon="5.63528">
        <ele>349.56920022906</ele>
        <time>2015-04-26T13:51:56Z</time>
      </trkpt>
      <trkpt lat="45.76391" lon="5.63529">
        <ele>349.56920022906</ele>
        <time>2015-04-26T13:52:01Z</time>
      </trkpt>
      <trkpt lat="45.76391" lon="5.63529">
        <ele>349.56920022906</ele>
        <time>2015-04-26T13:52:06Z</time>
      </trkpt>
      <trkpt lat="45.76391" lon="5.63529">
        <ele>349.56920022906</ele>
        <time>2015-04-26T13:52:11Z</time>
      </trkpt>
      <trkpt lat="45.76391" lon="5.63529">
        <ele>349.56920022906</ele>
        <time>2015-04-26T13:52:16Z</time>
      </trkpt>
      <trkpt lat="45.76391" lon="5.6353">
        <ele>349.56920022906</ele>
        <time>2015-04-26T13:52:21Z</time>
      </trkpt>
      <trkpt lat="45.7639" lon="5.6353">
        <ele>349.56920022906</ele>
        <time>2015-04-26T13:52:26Z</time>
      </trkpt>
      <trkpt lat="45.7639" lon="5.6353">
        <ele>349.56920022906</ele>
        <time>2015-04-26T13:52:31Z</time>
      </trkpt>
      <trkpt lat="45.7639" lon="5.6353">
        <ele>349.56920022906</ele>
        <time>2015-04-26T13:52:36Z</time>
      </trkpt>
      <trkpt lat="45.7639" lon="5.6353">
        <ele>349.56920022906</ele>
        <time>2015-04-26T13:52:41Z</time>
      </trkpt>
      <trkpt lat="45.7639" lon="5.6353">
        <ele>349.56920022906</ele>
        <time>2015-04-26T13:52:46Z</time>
      </trkpt>
      <trkpt lat="45.7639" lon="5.6353">
        <ele>349.56920022906</ele>
        <time>2015-04-26T13:52:51Z</time>
      </trkpt>
      <trkpt lat="45.76389" lon="5.6353">
        <ele>349.56920022906</ele>
        <time>2015-04-26T13:52:56Z</time>
      </trkpt>
      <trkpt lat="45.76389" lon="5.6353">
        <ele>349.56920022906</ele>
        <time>2015-04-26T13:53:01Z</time>
      </trkpt>
      <trkpt lat="45.76389" lon="5.6353">
        <ele>349.56920022906</ele>
        <time>2015-04-26T13:53:06Z</time>
      </trkpt>
      <trkpt lat="45.76389" lon="5.6353">
        <ele>349.56920022906</ele>
        <time>2015-04-26T13:53:11Z</time>
      </trkpt>
      <trkpt lat="45.76388" lon="5.63529">
        <ele>349.56920022906</ele>
        <time>2015-04-26T13:53:16Z</time>
      </trkpt>
      <trkpt lat="45.76387" lon="5.6353">
        <ele>349.56920022906</ele>
        <time>2015-04-26T13:53:21Z</time>
      </trkpt>
      <trkpt lat="45.76387" lon="5.63531">
        <ele>349.56920022906</ele>
        <time>2015-04-26T13:53:26Z</time>
      </trkpt>
      <trkpt lat="45.76387" lon="5.63531">
        <ele>349.56920022906</ele>
        <time>2015-04-26T13:53:31Z</time>
      </trkpt>
      <trkpt lat="45.76388" lon="5.63529">
        <ele>349.56920022906</ele>
        <time>2015-04-26T13:53:36Z</time>
      </trkpt>
      <trkpt lat="45.76387" lon="5.63528">
        <ele>349.9648654223</ele>
        <time>2015-04-26T13:53:41Z</time>
      </trkpt>
      <trkpt lat="45.76387" lon="5.63528">
        <ele>349.9648654223</ele>
        <time>2015-04-26T13:53:46Z</time>
      </trkpt>
      <trkpt lat="45.76388" lon="5.63528">
        <ele>349.9648654223</ele>
        <time>2015-04-26T13:53:51Z</time>
      </trkpt>
      <trkpt lat="45.76388" lon="5.63528">
        <ele>349.9648654223</ele>
        <time>2015-04-26T13:53:56Z</time>
      </trkpt>
      <trkpt lat="45.76388" lon="5.63529">
        <ele>349.9648654223</ele>
        <time>2015-04-26T13:54:01Z</time>
      </trkpt>
      <trkpt lat="45.76388" lon="5.63529">
        <ele>349.9648654223</ele>
        <time>2015-04-26T13:54:06Z</time>
      </trkpt>
      <trkpt lat="45.76388" lon="5.63529">
        <ele>349.9648654223</ele>
        <time>2015-04-26T13:54:11Z</time>
      </trkpt>
      <trkpt lat="45.76386" lon="5.6353">
        <ele>349.9648654223</ele>
        <time>2015-04-26T13:54:16Z</time>
      </trkpt>
      <trkpt lat="45.76386" lon="5.63529">
        <ele>349.9648654223</ele>
        <time>2015-04-26T13:54:21Z</time>
      </trkpt>
      <trkpt lat="45.76386" lon="5.63529">
        <ele>349.9648654223</ele>
        <time>2015-04-26T13:54:26Z</time>
      </trkpt>
      <trkpt lat="45.76387" lon="5.63529">
        <ele>349.9648654223</ele>
        <time>2015-04-26T13:54:31Z</time>
      </trkpt>
      <trkpt lat="45.76388" lon="5.63529">
        <ele>349.9648654223</ele>
        <time>2015-04-26T13:54:36Z</time>
      </trkpt>
      <trkpt lat="45.76389" lon="5.63529">
        <ele>349.9648654223</ele>
        <time>2015-04-26T13:54:41Z</time>
      </trkpt>
      <trkpt lat="45.76389" lon="5.63529">
        <ele>349.9648654223</ele>
        <time>2015-04-26T13:54:46Z</time>
      </trkpt>
      <trkpt lat="45.76389" lon="5.63529">
        <ele>349.9648654223</ele>
        <time>2015-04-26T13:54:51Z</time>
      </trkpt>
      <trkpt lat="45.76389" lon="5.63529">
        <ele>349.9648654223</ele>
        <time>2015-04-26T13:54:56Z</time>
      </trkpt>
      <trkpt lat="45.76389" lon="5.63529">
        <ele>349.9648654223</ele>
        <time>2015-04-26T13:55:01Z</time>
      </trkpt>
      <trkpt lat="45.76389" lon="5.63529">
        <ele>349.9648654223</ele>
        <time>2015-04-26T13:55:06Z</time>
      </trkpt>
      <trkpt lat="45.76389" lon="5.63529">
        <ele>349.9648654223</ele>
        <time>2015-04-26T13:55:11Z</time>
      </trkpt>
      <trkpt lat="45.76389" lon="5.63529">
        <ele>349.9648654223</ele>
        <time>2015-04-26T13:55:16Z</time>
      </trkpt>
      <trkpt lat="45.76389" lon="5.63529">
        <ele>349.9648654223</ele>
        <time>2015-04-26T13:55:21Z</time>
      </trkpt>
      <trkpt lat="45.76389" lon="5.63529">
        <ele>349.9648654223</ele>
        <time>2015-04-26T13:55:26Z</time>
      </trkpt>
      <trkpt lat="45.76389" lon="5.63529">
        <ele>349.9648654223</ele>
        <time>2015-04-26T13:55:31Z</time>
      </trkpt>
      <trkpt lat="45.76389" lon="5.63529">
        <ele>349.9648654223</ele>
        <time>2015-04-26T13:55:36Z</time>
      </trkpt>
      <trkpt lat="45.76389" lon="5.63529">
        <ele>349.9648654223</ele>
        <time>2015-04-26T13:55:41Z</time>
      </trkpt>
      <trkpt lat="45.76389" lon="5.63529">
        <ele>349.9648654223</ele>
        <time>2015-04-26T13:55:46Z</time>
      </trkpt>
      <trkpt lat="45.76389" lon="5.63529">
        <ele>349.9648654223</ele>
        <time>2015-04-26T13:55:51Z</time>
      </trkpt>
      <trkpt lat="45.76389" lon="5.63529">
        <ele>349.9648654223</ele>
        <time>2015-04-26T13:55:56Z</time>
      </trkpt>
      <trkpt lat="45.7639" lon="5.63529">
        <ele>349.9648654223</ele>
        <time>2015-04-26T13:56:01Z</time>
      </trkpt>
      <trkpt lat="45.76391" lon="5.63528">
        <ele>350.64501688582</ele>
        <time>2015-04-26T13:56:06Z</time>
      </trkpt>
      <trkpt lat="45.76391" lon="5.63528">
        <ele>350.64501688582</ele>
        <time>2015-04-26T13:56:11Z</time>
      </trkpt>
      <trkpt lat="45.76391" lon="5.63528">
        <ele>350.64501688582</ele>
        <time>2015-04-26T13:56:16Z</time>
      </trkpt>
      <trkpt lat="45.76391" lon="5.63528">
        <ele>350.64501688582</ele>
        <time>2015-04-26T13:56:21Z</time>
      </trkpt>
      <trkpt lat="45.76391" lon="5.63528">
        <ele>350.64501688582</ele>
        <time>2015-04-26T13:56:26Z</time>
      </trkpt>
      <trkpt lat="45.76391" lon="5.63528">
        <ele>350.64501688582</ele>
        <time>2015-04-26T13:56:31Z</time>
      </trkpt>
      <trkpt lat="45.76391" lon="5.63528">
        <ele>350.64501688582</ele>
        <time>2015-04-26T13:56:36Z</time>
      </trkpt>
      <trkpt lat="45.76391" lon="5.63528">
        <ele>350.64501688582</ele>
        <time>2015-04-26T13:56:41Z</time>
      </trkpt>
      <trkpt lat="45.76391" lon="5.63528">
        <ele>350.64501688582</ele>
        <time>2015-04-26T13:56:46Z</time>
      </trkpt>
      <trkpt lat="45.76391" lon="5.63528">
        <ele>350.64501688582</ele>
        <time>2015-04-26T13:56:51Z</time>
      </trkpt>
      <trkpt lat="45.76391" lon="5.63528">
        <ele>350.64501688582</ele>
        <time>2015-04-26T13:56:56Z</time>
      </trkpt>
      <trkpt lat="45.76392" lon="5.63528">
        <ele>350.64501688582</ele>
        <time>2015-04-26T13:57:01Z</time>
      </trkpt>
      <trkpt lat="45.76392" lon="5.63527">
        <ele>350.64501688582</ele>
        <time>2015-04-26T13:57:06Z</time>
      </trkpt>
      <trkpt lat="45.76392" lon="5.63527">
        <ele>350.64501688582</ele>
        <time>2015-04-26T13:57:11Z</time>
      </trkpt>
      <trkpt lat="45.76392" lon="5.63527">
        <ele>350.64501688582</ele>
        <time>2015-04-26T13:57:16Z</time>
      </trkpt>
      <trkpt lat="45.76391" lon="5.63528">
        <ele>350.64501688582</ele>
        <time>2015-04-26T13:57:21Z</time>
      </trkpt>
      <trkpt lat="45.7639" lon="5.63528">
        <ele>350.64501688582</ele>
        <time>2015-04-26T13:57:26Z</time>
      </trkpt>
      <trkpt lat="45.76391" lon="5.63527">
        <ele>350.64501688582</ele>
        <time>2015-04-26T13:57:31Z</time>
      </trkpt>
      <trkpt lat="45.7639" lon="5.63528">
        <ele>350.64501688582</ele>
        <time>2015-04-26T13:57:36Z</time>
      </trkpt>
      <trkpt lat="45.7639" lon="5.63529">
        <ele>350.64501688582</ele>
        <time>2015-04-26T13:57:41Z</time>
      </trkpt>
      <trkpt lat="45.7639" lon="5.63529">
        <ele>350.64501688582</ele>
        <time>2015-04-26T13:57:46Z</time>
      </trkpt>
      <trkpt lat="45.76391" lon="5.6353">
        <ele>350.64501688582</ele>
        <time>2015-04-26T13:57:51Z</time>
      </trkpt>
      <trkpt lat="45.76391" lon="5.6353">
        <ele>350.64501688582</ele>
        <time>2015-04-26T13:57:56Z</time>
      </trkpt>
      <trkpt lat="45.76391" lon="5.6353">
        <ele>350.64501688582</ele>
        <time>2015-04-26T13:58:01Z</time>
      </trkpt>
      <trkpt lat="45.76391" lon="5.6353">
        <ele>350.64501688582</ele>
        <time>2015-04-26T13:58:06Z</time>
      </trkpt>
      <trkpt lat="45.7639" lon="5.63529">
        <ele>351.60048281567</ele>
        <time>2015-04-26T13:58:11Z</time>
      </trkpt>
      <trkpt lat="45.7639" lon="5.63529">
        <ele>351.60048281567</ele>
        <time>2015-04-26T13:58:16Z</time>
      </trkpt>
      <trkpt lat="45.7639" lon="5.63529">
        <ele>351.60048281567</ele>
        <time>2015-04-26T13:58:21Z</time>
      </trkpt>
      <trkpt lat="45.7639" lon="5.63529">
        <ele>351.60048281567</ele>
        <time>2015-04-26T13:58:26Z</time>
      </trkpt>
      <trkpt lat="45.7639" lon="5.63529">
        <ele>351.60048281567</ele>
        <time>2015-04-26T13:58:31Z</time>
      </trkpt>
      <trkpt lat="45.7639" lon="5.63529">
        <ele>351.60048281567</ele>
        <time>2015-04-26T13:58:36Z</time>
      </trkpt>
      <trkpt lat="45.7639" lon="5.63529">
        <ele>351.60048281567</ele>
        <time>2015-04-26T13:58:41Z</time>
      </trkpt>
      <trkpt lat="45.7639" lon="5.63529">
        <ele>351.60048281567</ele>
        <time>2015-04-26T13:58:46Z</time>
      </trkpt>
      <trkpt lat="45.7639" lon="5.63529">
        <ele>351.60048281567</ele>
        <time>2015-04-26T13:58:51Z</time>
      </trkpt>
      <trkpt lat="45.7639" lon="5.63529">
        <ele>351.60048281567</ele>
        <time>2015-04-26T13:58:56Z</time>
      </trkpt>
      <trkpt lat="45.7639" lon="5.6353">
        <ele>351.60048281567</ele>
        <time>2015-04-26T13:59:01Z</time>
      </trkpt>
      <trkpt lat="45.7639" lon="5.63529">
        <ele>351.60048281567</ele>
        <time>2015-04-26T13:59:06Z</time>
      </trkpt>
      <trkpt lat="45.76391" lon="5.63529">
        <ele>351.60048281567</ele>
        <time>2015-04-26T13:59:11Z</time>
      </trkpt>
      <trkpt lat="45.76391" lon="5.63529">
        <ele>351.60048281567</ele>
        <time>2015-04-26T13:59:16Z</time>
      </trkpt>
      <trkpt lat="45.76391" lon="5.63529">
        <ele>351.60048281567</ele>
        <time>2015-04-26T13:59:21Z</time>
      </trkpt>
      <trkpt lat="45.76391" lon="5.63529">
        <ele>351.60048281567</ele>
        <time>2015-04-26T13:59:26Z</time>
      </trkpt>
      <trkpt lat="45.76391" lon="5.63529">
        <ele>351.60048281567</ele>
        <time>2015-04-26T13:59:31Z</time>
      </trkpt>
      <trkpt lat="45.76391" lon="5.63529">
        <ele>351.60048281567</ele>
        <time>2015-04-26T13:59:36Z</time>
      </trkpt>
      <trkpt lat="45.76391" lon="5.63529">
        <ele>351.60048281567</ele>
        <time>2015-04-26T13:59:41Z</time>
      </trkpt>
      <trkpt lat="45.76391" lon="5.63529">
        <ele>351.60048281567</ele>
        <time>2015-04-26T13:59:46Z</time>
      </trkpt>
      <trkpt lat="45.76391" lon="5.63529">
        <ele>351.60048281567</ele>
        <time>2015-04-26T13:59:51Z</time>
      </trkpt>
      <trkpt lat="45.76391" lon="5.63529">
        <ele>351.60048281567</ele>
        <time>2015-04-26T13:59:56Z</time>
      </trkpt>
      <trkpt lat="45.76392" lon="5.63529">
        <ele>351.60048281567</ele>
        <time>2015-04-26T14:00:01Z</time>
      </trkpt>
      <trkpt lat="45.76392" lon="5.63528">
        <ele>351.60048281567</ele>
        <time>2015-04-26T14:00:06Z</time>
      </trkpt>
      <trkpt lat="45.76391" lon="5.63529">
        <ele>351.60048281567</ele>
        <time>2015-04-26T14:00:11Z</time>
      </trkpt>
      <trkpt lat="45.76391" lon="5.6353">
        <ele>351.60048281567</ele>
        <time>2015-04-26T14:00:16Z</time>
      </trkpt>
      <trkpt lat="45.76392" lon="5.6353">
        <ele>351.60048281567</ele>
        <time>2015-04-26T14:00:21Z</time>
      </trkpt>
      <trkpt lat="45.7639" lon="5.6353">
        <ele>351.60048281567</ele>
        <time>2015-04-26T14:00:26Z</time>
      </trkpt>
      <trkpt lat="45.76391" lon="5.6353">
        <ele>351.60048281567</ele>
        <time>2015-04-26T14:00:31Z</time>
      </trkpt>
      <trkpt lat="45.7639" lon="5.63531">
        <ele>351.60048281567</ele>
        <time>2015-04-26T14:00:36Z</time>
      </trkpt>
      <trkpt lat="45.7639" lon="5.63532">
        <ele>351.60048281567</ele>
        <time>2015-04-26T14:00:41Z</time>
      </trkpt>
      <trkpt lat="45.76391" lon="5.63532">
        <ele>351.60048281567</ele>
        <time>2015-04-26T14:00:46Z</time>
      </trkpt>
      <trkpt lat="45.76391" lon="5.63531">
        <ele>352.00059430786</ele>
        <time>2015-04-26T14:00:51Z</time>
      </trkpt>
      <trkpt lat="45.76391" lon="5.63531">
        <ele>352.00059430786</ele>
        <time>2015-04-26T14:00:56Z</time>
      </trkpt>
      <trkpt lat="45.76391" lon="5.6353">
        <ele>352.00059430786</ele>
        <time>2015-04-26T14:01:01Z</time>
      </trkpt>
      <trkpt lat="45.76391" lon="5.63528">
        <ele>352.00059430786</ele>
        <time>2015-04-26T14:01:06Z</time>
      </trkpt>
      <trkpt lat="45.76391" lon="5.63527">
        <ele>352.00059430786</ele>
        <time>2015-04-26T14:01:11Z</time>
      </trkpt>
      <trkpt lat="45.76391" lon="5.63527">
        <ele>352.00059430786</ele>
        <time>2015-04-26T14:01:16Z</time>
      </trkpt>
      <trkpt lat="45.76391" lon="5.63527">
        <ele>352.00059430786</ele>
        <time>2015-04-26T14:01:21Z</time>
      </trkpt>
      <trkpt lat="45.76391" lon="5.63527">
        <ele>352.00059430786</ele>
        <time>2015-04-26T14:01:26Z</time>
      </trkpt>
      <trkpt lat="45.76391" lon="5.63527">
        <ele>352.00059430786</ele>
        <time>2015-04-26T14:01:31Z</time>
      </trkpt>
      <trkpt lat="45.76391" lon="5.63527">
        <ele>352.00059430786</ele>
        <time>2015-04-26T14:01:36Z</time>
      </trkpt>
      <trkpt lat="45.76391" lon="5.63527">
        <ele>352.00059430786</ele>
        <time>2015-04-26T14:01:41Z</time>
      </trkpt>
      <trkpt lat="45.7639" lon="5.63527">
        <ele>352.00059430786</ele>
        <time>2015-04-26T14:01:46Z</time>
      </trkpt>
      <trkpt lat="45.7639" lon="5.63527">
        <ele>352.00059430786</ele>
        <time>2015-04-26T14:01:51Z</time>
      </trkpt>
      <trkpt lat="45.7639" lon="5.63527">
        <ele>352.00059430786</ele>
        <time>2015-04-26T14:01:56Z</time>
      </trkpt>
      <trkpt lat="45.7639" lon="5.63527">
        <ele>352.00059430786</ele>
        <time>2015-04-26T14:02:01Z</time>
      </trkpt>
      <trkpt lat="45.7639" lon="5.63527">
        <ele>352.00059430786</ele>
        <time>2015-04-26T14:02:06Z</time>
      </trkpt>
      <trkpt lat="45.7639" lon="5.63527">
        <ele>352.00059430786</ele>
        <time>2015-04-26T14:02:11Z</time>
      </trkpt>
      <trkpt lat="45.7639" lon="5.63527">
        <ele>352.00059430786</ele>
        <time>2015-04-26T14:02:16Z</time>
      </trkpt>
      <trkpt lat="45.7639" lon="5.63527">
        <ele>352.00059430786</ele>
        <time>2015-04-26T14:02:21Z</time>
      </trkpt>
      <trkpt lat="45.7639" lon="5.63527">
        <ele>352.00059430786</ele>
        <time>2015-04-26T14:02:26Z</time>
      </trkpt>
      <trkpt lat="45.7639" lon="5.63527">
        <ele>352.00059430786</ele>
        <time>2015-04-26T14:02:31Z</time>
      </trkpt>
      <trkpt lat="45.7639" lon="5.63527">
        <ele>352.00059430786</ele>
        <time>2015-04-26T14:02:36Z</time>
      </trkpt>
      <trkpt lat="45.7639" lon="5.63527">
        <ele>352.00059430786</ele>
        <time>2015-04-26T14:02:41Z</time>
      </trkpt>
      <trkpt lat="45.7639" lon="5.63527">
        <ele>352.00059430786</ele>
        <time>2015-04-26T14:02:46Z</time>
      </trkpt>
      <trkpt lat="45.7639" lon="5.63527">
        <ele>352.00059430786</ele>
        <time>2015-04-26T14:02:51Z</time>
      </trkpt>
      <trkpt lat="45.76389" lon="5.63528">
        <ele>352.00059430786</ele>
        <time>2015-04-26T14:02:56Z</time>
      </trkpt>
      <trkpt lat="45.76388" lon="5.63528">
        <ele>352.00059430786</ele>
        <time>2015-04-26T14:03:01Z</time>
      </trkpt>
      <trkpt lat="45.76388" lon="5.63528">
        <ele>352.00059430786</ele>
        <time>2015-04-26T14:03:06Z</time>
      </trkpt>
      <trkpt lat="45.76388" lon="5.63527">
        <ele>352.00059430786</ele>
        <time>2015-04-26T14:03:11Z</time>
      </trkpt>
      <trkpt lat="45.76389" lon="5.63527">
        <ele>351.58168828818</ele>
        <time>2015-04-26T14:03:16Z</time>
      </trkpt>
      <trkpt lat="45.76389" lon="5.63528">
        <ele>351.58168828818</ele>
        <time>2015-04-26T14:03:21Z</time>
      </trkpt>
      <trkpt lat="45.76389" lon="5.63529">
        <ele>351.58168828818</ele>
        <time>2015-04-26T14:03:26Z</time>
      </trkpt>
      <trkpt lat="45.76389" lon="5.63529">
        <ele>351.58168828818</ele>
        <time>2015-04-26T14:03:31Z</time>
      </trkpt>
      <trkpt lat="45.76389" lon="5.63529">
        <ele>351.58168828818</ele>
        <time>2015-04-26T14:03:36Z</time>
      </trkpt>
      <trkpt lat="45.76389" lon="5.63529">
        <ele>351.58168828818</ele>
        <time>2015-04-26T14:03:41Z</time>
      </trkpt>
      <trkpt lat="45.76389" lon="5.63529">
        <ele>351.58168828818</ele>
        <time>2015-04-26T14:03:46Z</time>
      </trkpt>
      <trkpt lat="45.76389" lon="5.6353">
        <ele>351.58168828818</ele>
        <time>2015-04-26T14:03:51Z</time>
      </trkpt>
      <trkpt lat="45.7639" lon="5.63532">
        <ele>351.58168828818</ele>
        <time>2015-04-26T14:03:56Z</time>
      </trkpt>
      <trkpt lat="45.76389" lon="5.63532">
        <ele>351.58168828818</ele>
        <time>2015-04-26T14:04:01Z</time>
      </trkpt>
      <trkpt lat="45.76389" lon="5.63532">
        <ele>351.58168828818</ele>
        <time>2015-04-26T14:04:06Z</time>
      </trkpt>
      <trkpt lat="45.76389" lon="5.63533">
        <ele>351.58168828818</ele>
        <time>2015-04-26T14:04:11Z</time>
      </trkpt>
      <trkpt lat="45.7639" lon="5.63533">
        <ele>351.58168828818</ele>
        <time>2015-04-26T14:04:16Z</time>
      </trkpt>
      <trkpt lat="45.76389" lon="5.63532">
        <ele>351.58168828818</ele>
        <time>2015-04-26T14:04:21Z</time>
      </trkpt>
      <trkpt lat="45.76389" lon="5.63532">
        <ele>351.58168828818</ele>
        <time>2015-04-26T14:04:26Z</time>
      </trkpt>
      <trkpt lat="45.76389" lon="5.63533">
        <ele>351.58168828818</ele>
        <time>2015-04-26T14:04:31Z</time>
      </trkpt>
      <trkpt lat="45.76389" lon="5.63532">
        <ele>351.58168828818</ele>
        <time>2015-04-26T14:04:36Z</time>
      </trkpt>
      <trkpt lat="45.76389" lon="5.63531">
        <ele>351.58168828818</ele>
        <time>2015-04-26T14:04:41Z</time>
      </trkpt>
      <trkpt lat="45.76389" lon="5.6353">
        <ele>351.58168828818</ele>
        <time>2015-04-26T14:04:46Z</time>
      </trkpt>
      <trkpt lat="45.76389" lon="5.6353">
        <ele>351.58168828818</ele>
        <time>2015-04-26T14:04:51Z</time>
      </trkpt>
      <trkpt lat="45.76388" lon="5.63532">
        <ele>352.85433395251</ele>
        <time>2015-04-26T14:04:56Z</time>
      </trkpt>
      <trkpt lat="45.76387" lon="5.63532">
        <ele>352.85433395251</ele>
        <time>2015-04-26T14:05:01Z</time>
      </trkpt>
      <trkpt lat="45.76387" lon="5.63532">
        <ele>352.85433395251</ele>
        <time>2015-04-26T14:05:06Z</time>
      </trkpt>
      <trkpt lat="45.76387" lon="5.63532">
        <ele>352.85433395251</ele>
        <time>2015-04-26T14:05:11Z</time>
      </trkpt>
      <trkpt lat="45.76387" lon="5.63532">
        <ele>352.85433395251</ele>
        <time>2015-04-26T14:05:16Z</time>
      </trkpt>
      <trkpt lat="45.76387" lon="5.63532">
        <ele>352.85433395251</ele>
        <time>2015-04-26T14:05:21Z</time>
      </trkpt>
      <trkpt lat="45.76387" lon="5.63532">
        <ele>352.85433395251</ele>
        <time>2015-04-26T14:05:26Z</time>
      </trkpt>
      <trkpt lat="45.76387" lon="5.63532">
        <ele>352.85433395251</ele>
        <time>2015-04-26T14:05:31Z</time>
      </trkpt>
      <trkpt lat="45.76387" lon="5.63532">
        <ele>352.85433395251</ele>
        <time>2015-04-26T14:05:36Z</time>
      </trkpt>
      <trkpt lat="45.76387" lon="5.63532">
        <ele>352.85433395251</ele>
        <time>2015-04-26T14:05:41Z</time>
      </trkpt>
      <trkpt lat="45.76387" lon="5.63532">
        <ele>352.85433395251</ele>
        <time>2015-04-26T14:05:46Z</time>
      </trkpt>
      <trkpt lat="45.76387" lon="5.63532">
        <ele>352.85433395251</ele>
        <time>2015-04-26T14:05:51Z</time>
      </trkpt>
      <trkpt lat="45.76387" lon="5.63532">
        <ele>352.85433395251</ele>
        <time>2015-04-26T14:05:56Z</time>
      </trkpt>
      <trkpt lat="45.76386" lon="5.63532">
        <ele>352.85433395251</ele>
        <time>2015-04-26T14:06:01Z</time>
      </trkpt>
      <trkpt lat="45.76386" lon="5.63531">
        <ele>352.85433395251</ele>
        <time>2015-04-26T14:06:06Z</time>
      </trkpt>
      <trkpt lat="45.76386" lon="5.63531">
        <ele>352.85433395251</ele>
        <time>2015-04-26T14:06:11Z</time>
      </trkpt>
      <trkpt lat="45.76386" lon="5.63531">
        <ele>352.85433395251</ele>
        <time>2015-04-26T14:06:16Z</time>
      </trkpt>
      <trkpt lat="45.76386" lon="5.63531">
        <ele>352.85433395251</ele>
        <time>2015-04-26T14:06:21Z</time>
      </trkpt>
      <trkpt lat="45.76386" lon="5.63531">
        <ele>352.85433395251</ele>
        <time>2015-04-26T14:06:26Z</time>
      </trkpt>
      <trkpt lat="45.76386" lon="5.63531">
        <ele>352.85433395251</ele>
        <time>2015-04-26T14:06:31Z</time>
      </trkpt>
      <trkpt lat="45.76386" lon="5.63531">
        <ele>352.85433395251</ele>
        <time>2015-04-26T14:06:36Z</time>
      </trkpt>
      <trkpt lat="45.76386" lon="5.63531">
        <ele>352.85433395251</ele>
        <time>2015-04-26T14:06:41Z</time>
      </trkpt>
      <trkpt lat="45.76386" lon="5.63531">
        <ele>352.85433395251</ele>
        <time>2015-04-26T14:06:46Z</time>
      </trkpt>
      <trkpt lat="45.76387" lon="5.63531">
        <ele>352.85433395251</ele>
        <time>2015-04-26T14:06:51Z</time>
      </trkpt>
      <trkpt lat="45.76387" lon="5.63531">
        <ele>352.85433395251</ele>
        <time>2015-04-26T14:06:56Z</time>
      </trkpt>
      <trkpt lat="45.76387" lon="5.63531">
        <ele>352.85433395251</ele>
        <time>2015-04-26T14:07:01Z</time>
      </trkpt>
      <trkpt lat="45.76387" lon="5.6353">
        <ele>352.85433395251</ele>
        <time>2015-04-26T14:07:06Z</time>
      </trkpt>
      <trkpt lat="45.76387" lon="5.63531">
        <ele>352.85433395251</ele>
        <time>2015-04-26T14:07:11Z</time>
      </trkpt>
      <trkpt lat="45.76387" lon="5.63531">
        <ele>352.85433395251</ele>
        <time>2015-04-26T14:07:16Z</time>
      </trkpt>
      <trkpt lat="45.76387" lon="5.63531">
        <ele>352.85433395251</ele>
        <time>2015-04-26T14:07:21Z</time>
      </trkpt>
      <trkpt lat="45.76387" lon="5.63531">
        <ele>352.85433395251</ele>
        <time>2015-04-26T14:07:26Z</time>
      </trkpt>
      <trkpt lat="45.76389" lon="5.6353">
        <ele>352.85433395251</ele>
        <time>2015-04-26T14:07:31Z</time>
      </trkpt>
      <trkpt lat="45.7639" lon="5.6353">
        <ele>352.85433395251</ele>
        <time>2015-04-26T14:07:36Z</time>
      </trkpt>
      <trkpt lat="45.7639" lon="5.6353">
        <ele>352.85433395251</ele>
        <time>2015-04-26T14:07:41Z</time>
      </trkpt>
      <trkpt lat="45.7639" lon="5.6353">
        <ele>353.21137352402</ele>
        <time>2015-04-26T14:07:46Z</time>
      </trkpt>
      <trkpt lat="45.7639" lon="5.63531">
        <ele>353.21137352402</ele>
        <time>2015-04-26T14:07:51Z</time>
      </trkpt>
      <trkpt lat="45.7639" lon="5.63531">
        <ele>353.21137352402</ele>
        <time>2015-04-26T14:07:56Z</time>
      </trkpt>
      <trkpt lat="45.7639" lon="5.63532">
        <ele>353.21137352402</ele>
        <time>2015-04-26T14:08:01Z</time>
      </trkpt>
      <trkpt lat="45.7639" lon="5.63532">
        <ele>353.21137352402</ele>
        <time>2015-04-26T14:08:06Z</time>
      </trkpt>
      <trkpt lat="45.7639" lon="5.63531">
        <ele>353.21137352402</ele>
        <time>2015-04-26T14:08:11Z</time>
      </trkpt>
      <trkpt lat="45.7639" lon="5.63532">
        <ele>353.21137352402</ele>
        <time>2015-04-26T14:08:16Z</time>
      </trkpt>
      <trkpt lat="45.7639" lon="5.63532">
        <ele>353.21137352402</ele>
        <time>2015-04-26T14:08:21Z</time>
      </trkpt>
      <trkpt lat="45.7639" lon="5.63533">
        <ele>353.21137352402</ele>
        <time>2015-04-26T14:08:26Z</time>
      </trkpt>
      <trkpt lat="45.7639" lon="5.63533">
        <ele>353.21137352402</ele>
        <time>2015-04-26T14:08:31Z</time>
      </trkpt>
      <trkpt lat="45.7639" lon="5.63533">
        <ele>353.21137352402</ele>
        <time>2015-04-26T14:08:36Z</time>
      </trkpt>
      <trkpt lat="45.7639" lon="5.63533">
        <ele>353.21137352402</ele>
        <time>2015-04-26T14:08:41Z</time>
      </trkpt>
      <trkpt lat="45.7639" lon="5.63533">
        <ele>353.21137352402</ele>
        <time>2015-04-26T14:08:46Z</time>
      </trkpt>
      <trkpt lat="45.7639" lon="5.63533">
        <ele>353.21137352402</ele>
        <time>2015-04-26T14:08:51Z</time>
      </trkpt>
      <trkpt lat="45.7639" lon="5.63533">
        <ele>353.21137352402</ele>
        <time>2015-04-26T14:08:56Z</time>
      </trkpt>
      <trkpt lat="45.7639" lon="5.63532">
        <ele>353.21137352402</ele>
        <time>2015-04-26T14:09:01Z</time>
      </trkpt>
      <trkpt lat="45.7639" lon="5.63532">
        <ele>353.21137352402</ele>
        <time>2015-04-26T14:09:06Z</time>
      </trkpt>
      <trkpt lat="45.76391" lon="5.63532">
        <ele>353.21137352402</ele>
        <time>2015-04-26T14:09:11Z</time>
      </trkpt>
      <trkpt lat="45.76391" lon="5.63532">
        <ele>353.21137352402</ele>
        <time>2015-04-26T14:09:16Z</time>
      </trkpt>
      <trkpt lat="45.76391" lon="5.63532">
        <ele>353.21137352402</ele>
        <time>2015-04-26T14:09:21Z</time>
      </trkpt>
      <trkpt lat="45.76391" lon="5.63532">
        <ele>353.21137352402</ele>
        <time>2015-04-26T14:09:26Z</time>
      </trkpt>
      <trkpt lat="45.76391" lon="5.63532">
        <ele>353.21137352402</ele>
        <time>2015-04-26T14:09:31Z</time>
      </trkpt>
      <trkpt lat="45.7639" lon="5.63531">
        <ele>353.21137352402</ele>
        <time>2015-04-26T14:09:36Z</time>
      </trkpt>
      <trkpt lat="45.7639" lon="5.63529">
        <ele>353.21137352402</ele>
        <time>2015-04-26T14:09:41Z</time>
      </trkpt>
      <trkpt lat="45.76389" lon="5.63529">
        <ele>353.21137352402</ele>
        <time>2015-04-26T14:09:46Z</time>
      </trkpt>
      <trkpt lat="45.76388" lon="5.63529">
        <ele>353.21137352402</ele>
        <time>2015-04-26T14:09:51Z</time>
      </trkpt>
      <trkpt lat="45.76389" lon="5.6353">
        <ele>353.68404213451</ele>
        <time>2015-04-26T14:09:56Z</time>
      </trkpt>
      <trkpt lat="45.76388" lon="5.6353">
        <ele>353.68404213451</ele>
        <time>2015-04-26T14:10:01Z</time>
      </trkpt>
      <trkpt lat="45.76388" lon="5.63531">
        <ele>353.68404213451</ele>
        <time>2015-04-26T14:10:06Z</time>
      </trkpt>
      <trkpt lat="45.76388" lon="5.63532">
        <ele>353.68404213451</ele>
        <time>2015-04-26T14:10:11Z</time>
      </trkpt>
      <trkpt lat="45.76388" lon="5.63533">
        <ele>353.68404213451</ele>
        <time>2015-04-26T14:10:16Z</time>
      </trkpt>
      <trkpt lat="45.76387" lon="5.63532">
        <ele>353.68404213451</ele>
        <time>2015-04-26T14:10:21Z</time>
      </trkpt>
      <trkpt lat="45.76388" lon="5.63531">
        <ele>353.68404213451</ele>
        <time>2015-04-26T14:10:26Z</time>
      </trkpt>
      <trkpt lat="45.76392" lon="5.6353">
        <ele>353.68404213451</ele>
        <time>2015-04-26T14:10:31Z</time>
      </trkpt>
      <trkpt lat="45.76395" lon="5.63536">
        <ele>353.74320036523</ele>
        <time>2015-04-26T14:10:36Z</time>
      </trkpt>
      <trkpt lat="45.76396" lon="5.63537">
        <ele>353.74320036523</ele>
        <time>2015-04-26T14:10:41Z</time>
      </trkpt>
      <trkpt lat="45.76396" lon="5.63538">
        <ele>353.74320036523</ele>
        <time>2015-04-26T14:10:46Z</time>
      </trkpt>
      <trkpt lat="45.76396" lon="5.63539">
        <ele>353.74320036523</ele>
        <time>2015-04-26T14:10:51Z</time>
      </trkpt>
      <trkpt lat="45.76395" lon="5.63538">
        <ele>353.74320036523</ele>
        <time>2015-04-26T14:10:56Z</time>
      </trkpt>
      <trkpt lat="45.76395" lon="5.63537">
        <ele>353.74320036523</ele>
        <time>2015-04-26T14:11:01Z</time>
      </trkpt>
      <trkpt lat="45.76395" lon="5.63537">
        <ele>353.74320036523</ele>
        <time>2015-04-26T14:11:06Z</time>
      </trkpt>
      <trkpt lat="45.76397" lon="5.63537">
        <ele>353.74320036523</ele>
        <time>2015-04-26T14:11:11Z</time>
      </trkpt>
      <trkpt lat="45.76397" lon="5.63538">
        <ele>353.74320036523</ele>
        <time>2015-04-26T14:11:16Z</time>
      </trkpt>
      <trkpt lat="45.76397" lon="5.63538">
        <ele>353.74320036523</ele>
        <time>2015-04-26T14:11:21Z</time>
      </trkpt>
      <trkpt lat="45.76398" lon="5.63538">
        <ele>353.74320036523</ele>
        <time>2015-04-26T14:11:26Z</time>
      </trkpt>
      <trkpt lat="45.76398" lon="5.63538">
        <ele>353.74320036523</ele>
        <time>2015-04-26T14:11:31Z</time>
      </trkpt>
      <trkpt lat="45.76397" lon="5.63538">
        <ele>354.26884619208</ele>
        <time>2015-04-26T14:11:36Z</time>
      </trkpt>
      <trkpt lat="45.76396" lon="5.63538">
        <ele>354.26884619208</ele>
        <time>2015-04-26T14:11:41Z</time>
      </trkpt>
      <trkpt lat="45.76396" lon="5.63538">
        <ele>354.26884619208</ele>
        <time>2015-04-26T14:11:46Z</time>
      </trkpt>
      <trkpt lat="45.76396" lon="5.63538">
        <ele>354.26884619208</ele>
        <time>2015-04-26T14:11:51Z</time>
      </trkpt>
      <trkpt lat="45.76395" lon="5.63538">
        <ele>354.26884619208</ele>
        <time>2015-04-26T14:11:56Z</time>
      </trkpt>
      <trkpt lat="45.76396" lon="5.63538">
        <ele>354.26884619208</ele>
        <time>2015-04-26T14:12:01Z</time>
      </trkpt>
      <trkpt lat="45.76396" lon="5.63538">
        <ele>354.26884619208</ele>
        <time>2015-04-26T14:12:06Z</time>
      </trkpt>
      <trkpt lat="45.76396" lon="5.63538">
        <ele>354.26884619208</ele>
        <time>2015-04-26T14:12:11Z</time>
      </trkpt>
      <trkpt lat="45.76397" lon="5.63539">
        <ele>354.26884619208</ele>
        <time>2015-04-26T14:12:16Z</time>
      </trkpt>
      <trkpt lat="45.76397" lon="5.63539">
        <ele>354.26884619208</ele>
        <time>2015-04-26T14:12:21Z</time>
      </trkpt>
      <trkpt lat="45.76397" lon="5.63539">
        <ele>354.26884619208</ele>
        <time>2015-04-26T14:12:26Z</time>
      </trkpt>
      <trkpt lat="45.76397" lon="5.63539">
        <ele>354.26884619208</ele>
        <time>2015-04-26T14:12:31Z</time>
      </trkpt>
      <trkpt lat="45.76397" lon="5.63539">
        <ele>354.26884619208</ele>
        <time>2015-04-26T14:12:36Z</time>
      </trkpt>
      <trkpt lat="45.76397" lon="5.63539">
        <ele>354.26884619208</ele>
        <time>2015-04-26T14:12:41Z</time>
      </trkpt>
      <trkpt lat="45.76397" lon="5.63539">
        <ele>354.26884619208</ele>
        <time>2015-04-26T14:12:46Z</time>
      </trkpt>
      <trkpt lat="45.76397" lon="5.63539">
        <ele>354.26884619208</ele>
        <time>2015-04-26T14:12:51Z</time>
      </trkpt>
      <trkpt lat="45.76396" lon="5.63539">
        <ele>354.26884619208</ele>
        <time>2015-04-26T14:12:56Z</time>
      </trkpt>
      <trkpt lat="45.76396" lon="5.63538">
        <ele>354.26884619208</ele>
        <time>2015-04-26T14:13:01Z</time>
      </trkpt>
      <trkpt lat="45.76396" lon="5.63538">
        <ele>354.26884619208</ele>
        <time>2015-04-26T14:13:06Z</time>
      </trkpt>
      <trkpt lat="45.76396" lon="5.63538">
        <ele>354.26884619208</ele>
        <time>2015-04-26T14:13:11Z</time>
      </trkpt>
      <trkpt lat="45.76396" lon="5.63538">
        <ele>354.26884619208</ele>
        <time>2015-04-26T14:13:16Z</time>
      </trkpt>
      <trkpt lat="45.76396" lon="5.63538">
        <ele>354.26884619208</ele>
        <time>2015-04-26T14:13:21Z</time>
      </trkpt>
      <trkpt lat="45.76396" lon="5.63538">
        <ele>354.26884619208</ele>
        <time>2015-04-26T14:13:26Z</time>
      </trkpt>
      <trkpt lat="45.76396" lon="5.63538">
        <ele>354.26884619208</ele>
        <time>2015-04-26T14:13:31Z</time>
      </trkpt>
      <trkpt lat="45.76396" lon="5.63536">
        <ele>354.26884619208</ele>
        <time>2015-04-26T14:13:36Z</time>
      </trkpt>
      <trkpt lat="45.76397" lon="5.63537">
        <ele>354.26884619208</ele>
        <time>2015-04-26T14:13:41Z</time>
      </trkpt>
      <trkpt lat="45.76397" lon="5.63536">
        <ele>354.26884619208</ele>
        <time>2015-04-26T14:13:46Z</time>
      </trkpt>
      <trkpt lat="45.76397" lon="5.63536">
        <ele>354.26884619208</ele>
        <time>2015-04-26T14:13:51Z</time>
      </trkpt>
      <trkpt lat="45.76397" lon="5.63536">
        <ele>354.26884619208</ele>
        <time>2015-04-26T14:13:56Z</time>
      </trkpt>
      <trkpt lat="45.76397" lon="5.63536">
        <ele>354.26884619208</ele>
        <time>2015-04-26T14:14:01Z</time>
      </trkpt>
      <trkpt lat="45.76397" lon="5.63536">
        <ele>354.26884619208</ele>
        <time>2015-04-26T14:14:06Z</time>
      </trkpt>
      <trkpt lat="45.76397" lon="5.63536">
        <ele>354.26884619208</ele>
        <time>2015-04-26T14:14:11Z</time>
      </trkpt>
      <trkpt lat="45.76397" lon="5.63537">
        <ele>354.26884619208</ele>
        <time>2015-04-26T14:14:16Z</time>
      </trkpt>
      <trkpt lat="45.76396" lon="5.63536">
        <ele>354.26884619208</ele>
        <time>2015-04-26T14:14:21Z</time>
      </trkpt>
      <trkpt lat="45.76396" lon="5.63536">
        <ele>354.26884619208</ele>
        <time>2015-04-26T14:14:26Z</time>
      </trkpt>
      <trkpt lat="45.76396" lon="5.63536">
        <ele>354.26884619208</ele>
        <time>2015-04-26T14:14:31Z</time>
      </trkpt>
      <trkpt lat="45.76396" lon="5.63536">
        <ele>354.26884619208</ele>
        <time>2015-04-26T14:14:36Z</time>
      </trkpt>
      <trkpt lat="45.76396" lon="5.63536">
        <ele>354.26884619208</ele>
        <time>2015-04-26T14:14:41Z</time>
      </trkpt>
      <trkpt lat="45.76396" lon="5.63536">
        <ele>354.26884619208</ele>
        <time>2015-04-26T14:14:46Z</time>
      </trkpt>
      <trkpt lat="45.76396" lon="5.63536">
        <ele>354.26884619208</ele>
        <time>2015-04-26T14:14:51Z</time>
      </trkpt>
      <trkpt lat="45.76396" lon="5.63536">
        <ele>354.26884619208</ele>
        <time>2015-04-26T14:14:56Z</time>
      </trkpt>
      <trkpt lat="45.76396" lon="5.63536">
        <ele>354.26884619208</ele>
        <time>2015-04-26T14:15:01Z</time>
      </trkpt>
      <trkpt lat="45.76396" lon="5.63536">
        <ele>354.26884619208</ele>
        <time>2015-04-26T14:15:06Z</time>
      </trkpt>
      <trkpt lat="45.76396" lon="5.63536">
        <ele>354.26884619208</ele>
        <time>2015-04-26T14:15:11Z</time>
      </trkpt>
      <trkpt lat="45.76396" lon="5.63536">
        <ele>354.26884619208</ele>
        <time>2015-04-26T14:15:16Z</time>
      </trkpt>
      <trkpt lat="45.76396" lon="5.63536">
        <ele>354.26884619208</ele>
        <time>2015-04-26T14:15:21Z</time>
      </trkpt>
      <trkpt lat="45.76396" lon="5.63536">
        <ele>354.26884619208</ele>
        <time>2015-04-26T14:15:26Z</time>
      </trkpt>
      <trkpt lat="45.76396" lon="5.63536">
        <ele>354.97983199608</ele>
        <time>2015-04-26T14:15:31Z</time>
      </trkpt>
      <trkpt lat="45.76396" lon="5.63536">
        <ele>354.97983199608</ele>
        <time>2015-04-26T14:15:36Z</time>
      </trkpt>
      <trkpt lat="45.76396" lon="5.63536">
        <ele>354.97983199608</ele>
        <time>2015-04-26T14:15:41Z</time>
      </trkpt>
      <trkpt lat="45.76396" lon="5.63536">
        <ele>354.97983199608</ele>
        <time>2015-04-26T14:15:46Z</time>
      </trkpt>
      <trkpt lat="45.76396" lon="5.63536">
        <ele>354.97983199608</ele>
        <time>2015-04-26T14:15:51Z</time>
      </trkpt>
      <trkpt lat="45.76396" lon="5.63536">
        <ele>354.97983199608</ele>
        <time>2015-04-26T14:15:56Z</time>
      </trkpt>
      <trkpt lat="45.76396" lon="5.63536">
        <ele>354.97983199608</ele>
        <time>2015-04-26T14:16:01Z</time>
      </trkpt>
      <trkpt lat="45.76396" lon="5.63536">
        <ele>354.97983199608</ele>
        <time>2015-04-26T14:16:06Z</time>
      </trkpt>
      <trkpt lat="45.76396" lon="5.63536">
        <ele>354.97983199608</ele>
        <time>2015-04-26T14:16:11Z</time>
      </trkpt>
      <trkpt lat="45.76396" lon="5.63536">
        <ele>354.97983199608</ele>
        <time>2015-04-26T14:16:16Z</time>
      </trkpt>
      <trkpt lat="45.76396" lon="5.63536">
        <ele>354.97983199608</ele>
        <time>2015-04-26T14:16:21Z</time>
      </trkpt>
      <trkpt lat="45.76396" lon="5.63536">
        <ele>354.97983199608</ele>
        <time>2015-04-26T14:16:26Z</time>
      </trkpt>
      <trkpt lat="45.76397" lon="5.63536">
        <ele>354.97983199608</ele>
        <time>2015-04-26T14:16:31Z</time>
      </trkpt>
      <trkpt lat="45.76397" lon="5.63537">
        <ele>354.97983199608</ele>
        <time>2015-04-26T14:16:36Z</time>
      </trkpt>
      <trkpt lat="45.76397" lon="5.63537">
        <ele>354.97983199608</ele>
        <time>2015-04-26T14:16:41Z</time>
      </trkpt>
      <trkpt lat="45.76397" lon="5.63537">
        <ele>354.97983199608</ele>
        <time>2015-04-26T14:16:46Z</time>
      </trkpt>
      <trkpt lat="45.76397" lon="5.63537">
        <ele>354.97983199608</ele>
        <time>2015-04-26T14:16:51Z</time>
      </trkpt>
      <trkpt lat="45.76398" lon="5.63537">
        <ele>354.97983199608</ele>
        <time>2015-04-26T14:16:56Z</time>
      </trkpt>
      <trkpt lat="45.76398" lon="5.63538">
        <ele>354.97983199608</ele>
        <time>2015-04-26T14:17:01Z</time>
      </trkpt>
      <trkpt lat="45.76397" lon="5.63537">
        <ele>354.97983199608</ele>
        <time>2015-04-26T14:17:06Z</time>
      </trkpt>
      <trkpt lat="45.76397" lon="5.63537">
        <ele>354.97983199608</ele>
        <time>2015-04-26T14:17:11Z</time>
      </trkpt>
      <trkpt lat="45.76397" lon="5.63537">
        <ele>354.97983199608</ele>
        <time>2015-04-26T14:17:16Z</time>
      </trkpt>
      <trkpt lat="45.76397" lon="5.63537">
        <ele>354.97983199608</ele>
        <time>2015-04-26T14:17:21Z</time>
      </trkpt>
      <trkpt lat="45.76396" lon="5.63537">
        <ele>354.97983199608</ele>
        <time>2015-04-26T14:17:26Z</time>
      </trkpt>
      <trkpt lat="45.76396" lon="5.63536">
        <ele>354.97983199608</ele>
        <time>2015-04-26T14:17:31Z</time>
      </trkpt>
      <trkpt lat="45.76396" lon="5.63536">
        <ele>354.97983199608</ele>
        <time>2015-04-26T14:17:36Z</time>
      </trkpt>
      <trkpt lat="45.76397" lon="5.63537">
        <ele>354.97983199608</ele>
        <time>2015-04-26T14:17:41Z</time>
      </trkpt>
      <trkpt lat="45.76397" lon="5.63537">
        <ele>354.97983199608</ele>
        <time>2015-04-26T14:17:46Z</time>
      </trkpt>
      <trkpt lat="45.76397" lon="5.63537">
        <ele>354.97983199608</ele>
        <time>2015-04-26T14:17:51Z</time>
      </trkpt>
      <trkpt lat="45.76397" lon="5.63537">
        <ele>354.97983199608</ele>
        <time>2015-04-26T14:17:56Z</time>
      </trkpt>
      <trkpt lat="45.76397" lon="5.63536">
        <ele>354.97983199608</ele>
        <time>2015-04-26T14:18:01Z</time>
      </trkpt>
      <trkpt lat="45.76397" lon="5.63535">
        <ele>354.97983199608</ele>
        <time>2015-04-26T14:18:06Z</time>
      </trkpt>
      <trkpt lat="45.76398" lon="5.63535">
        <ele>354.97983199608</ele>
        <time>2015-04-26T14:18:11Z</time>
      </trkpt>
      <trkpt lat="45.76398" lon="5.63536">
        <ele>354.97983199608</ele>
        <time>2015-04-26T14:18:16Z</time>
      </trkpt>
      <trkpt lat="45.76398" lon="5.63536">
        <ele>354.97983199608</ele>
        <time>2015-04-26T14:18:21Z</time>
      </trkpt>
      <trkpt lat="45.76398" lon="5.63536">
        <ele>354.97983199608</ele>
        <time>2015-04-26T14:18:26Z</time>
      </trkpt>
      <trkpt lat="45.76399" lon="5.63535">
        <ele>355.28374013542</ele>
        <time>2015-04-26T14:18:31Z</time>
      </trkpt>
      <trkpt lat="45.764" lon="5.63535">
        <ele>355.28374013542</ele>
        <time>2015-04-26T14:18:36Z</time>
      </trkpt>
      <trkpt lat="45.76401" lon="5.63535">
        <ele>355.28374013542</ele>
        <time>2015-04-26T14:18:41Z</time>
      </trkpt>
      <trkpt lat="45.764" lon="5.63535">
        <ele>355.28374013542</ele>
        <time>2015-04-26T14:18:46Z</time>
      </trkpt>
      <trkpt lat="45.764" lon="5.63535">
        <ele>355.28374013542</ele>
        <time>2015-04-26T14:18:51Z</time>
      </trkpt>
      <trkpt lat="45.764" lon="5.63534">
        <ele>355.28374013542</ele>
        <time>2015-04-26T14:18:56Z</time>
      </trkpt>
      <trkpt lat="45.764" lon="5.63534">
        <ele>355.28374013542</ele>
        <time>2015-04-26T14:19:01Z</time>
      </trkpt>
      <trkpt lat="45.764" lon="5.63534">
        <ele>355.28374013542</ele>
        <time>2015-04-26T14:19:06Z</time>
      </trkpt>
      <trkpt lat="45.764" lon="5.63534">
        <ele>355.28374013542</ele>
        <time>2015-04-26T14:19:11Z</time>
      </trkpt>
      <trkpt lat="45.764" lon="5.63534">
        <ele>355.28374013542</ele>
        <time>2015-04-26T14:19:16Z</time>
      </trkpt>
      <trkpt lat="45.764" lon="5.63536">
        <ele>355.28374013542</ele>
        <time>2015-04-26T14:19:21Z</time>
      </trkpt>
      <trkpt lat="45.764" lon="5.63536">
        <ele>355.28374013542</ele>
        <time>2015-04-26T14:19:26Z</time>
      </trkpt>
      <trkpt lat="45.764" lon="5.63536">
        <ele>355.28374013542</ele>
        <time>2015-04-26T14:19:31Z</time>
      </trkpt>
      <trkpt lat="45.764" lon="5.63536">
        <ele>355.28374013542</ele>
        <time>2015-04-26T14:19:36Z</time>
      </trkpt>
      <trkpt lat="45.764" lon="5.63532">
        <ele>355.28374013542</ele>
        <time>2015-04-26T14:19:41Z</time>
      </trkpt>
      <trkpt lat="45.764" lon="5.63534">
        <ele>355.28374013542</ele>
        <time>2015-04-26T14:19:46Z</time>
      </trkpt>
      <trkpt lat="45.764" lon="5.63532">
        <ele>356.03074594501</ele>
        <time>2015-04-26T14:19:51Z</time>
      </trkpt>
      <trkpt lat="45.76399" lon="5.63523">
        <ele>356.03074594501</ele>
        <time>2015-04-26T14:19:56Z</time>
      </trkpt>
      <trkpt lat="45.76398" lon="5.63517">
        <ele>356.63832794589</ele>
        <time>2015-04-26T14:20:01Z</time>
      </trkpt>
      <trkpt lat="45.76396" lon="5.63513">
        <ele>356.63832794589</ele>
        <time>2015-04-26T14:20:06Z</time>
      </trkpt>
      <trkpt lat="45.76396" lon="5.63511">
        <ele>356.63832794589</ele>
        <time>2015-04-26T14:20:11Z</time>
      </trkpt>
      <trkpt lat="45.76396" lon="5.63511">
        <ele>356.63832794589</ele>
        <time>2015-04-26T14:20:16Z</time>
      </trkpt>
      <trkpt lat="45.76395" lon="5.63511">
        <ele>356.63832794589</ele>
        <time>2015-04-26T14:20:21Z</time>
      </trkpt>
      <trkpt lat="45.76394" lon="5.63511">
        <ele>356.63832794589</ele>
        <time>2015-04-26T14:20:26Z</time>
      </trkpt>
      <trkpt lat="45.76393" lon="5.63511">
        <ele>356.63832794589</ele>
        <time>2015-04-26T14:20:31Z</time>
      </trkpt>
      <trkpt lat="45.76393" lon="5.63511">
        <ele>356.63832794589</ele>
        <time>2015-04-26T14:20:36Z</time>
      </trkpt>
      <trkpt lat="45.76393" lon="5.63511">
        <ele>356.63832794589</ele>
        <time>2015-04-26T14:20:41Z</time>
      </trkpt>
      <trkpt lat="45.76393" lon="5.63511">
        <ele>356.63832794589</ele>
        <time>2015-04-26T14:20:46Z</time>
      </trkpt>
      <trkpt lat="45.76393" lon="5.63511">
        <ele>356.63832794589</ele>
        <time>2015-04-26T14:20:51Z</time>
      </trkpt>
      <trkpt lat="45.76393" lon="5.63511">
        <ele>356.63832794589</ele>
        <time>2015-04-26T14:20:56Z</time>
      </trkpt>
      <trkpt lat="45.76393" lon="5.63511">
        <ele>356.63832794589</ele>
        <time>2015-04-26T14:21:01Z</time>
      </trkpt>
      <trkpt lat="45.76393" lon="5.63511">
        <ele>356.63832794589</ele>
        <time>2015-04-26T14:21:06Z</time>
      </trkpt>
      <trkpt lat="45.76393" lon="5.63511">
        <ele>356.63832794589</ele>
        <time>2015-04-26T14:21:11Z</time>
      </trkpt>
      <trkpt lat="45.76392" lon="5.6351">
        <ele>356.86983743614</ele>
        <time>2015-04-26T14:21:16Z</time>
      </trkpt>
      <trkpt lat="45.76392" lon="5.63509">
        <ele>356.86983743614</ele>
        <time>2015-04-26T14:21:21Z</time>
      </trkpt>
      <trkpt lat="45.76392" lon="5.63508">
        <ele>356.86983743614</ele>
        <time>2015-04-26T14:21:26Z</time>
      </trkpt>
      <trkpt lat="45.76392" lon="5.63508">
        <ele>356.86983743614</ele>
        <time>2015-04-26T14:21:31Z</time>
      </trkpt>
      <trkpt lat="45.76392" lon="5.63508">
        <ele>356.86983743614</ele>
        <time>2015-04-26T14:21:36Z</time>
      </trkpt>
      <trkpt lat="45.76392" lon="5.63508">
        <ele>356.86983743614</ele>
        <time>2015-04-26T14:21:41Z</time>
      </trkpt>
      <trkpt lat="45.76392" lon="5.63507">
        <ele>356.86983743614</ele>
        <time>2015-04-26T14:21:46Z</time>
      </trkpt>
      <trkpt lat="45.76392" lon="5.63508">
        <ele>356.86983743614</ele>
        <time>2015-04-26T14:21:51Z</time>
      </trkpt>
      <trkpt lat="45.76392" lon="5.63509">
        <ele>356.86983743614</ele>
        <time>2015-04-26T14:21:56Z</time>
      </trkpt>
      <trkpt lat="45.76391" lon="5.63509">
        <ele>356.86983743614</ele>
        <time>2015-04-26T14:22:01Z</time>
      </trkpt>
      <trkpt lat="45.76392" lon="5.63509">
        <ele>356.86983743614</ele>
        <time>2015-04-26T14:22:06Z</time>
      </trkpt>
      <trkpt lat="45.76392" lon="5.63508">
        <ele>356.86983743614</ele>
        <time>2015-04-26T14:22:11Z</time>
      </trkpt>
      <trkpt lat="45.76392" lon="5.63507">
        <ele>356.86983743614</ele>
        <time>2015-04-26T14:22:16Z</time>
      </trkpt>
      <trkpt lat="45.76392" lon="5.63507">
        <ele>356.86983743614</ele>
        <time>2015-04-26T14:22:21Z</time>
      </trkpt>
      <trkpt lat="45.76392" lon="5.63506">
        <ele>356.86983743614</ele>
        <time>2015-04-26T14:22:26Z</time>
      </trkpt>
      <trkpt lat="45.76392" lon="5.63506">
        <ele>356.86983743614</ele>
        <time>2015-04-26T14:22:31Z</time>
      </trkpt>
      <trkpt lat="45.76391" lon="5.63505">
        <ele>356.86983743614</ele>
        <time>2015-04-26T14:22:36Z</time>
      </trkpt>
      <trkpt lat="45.76391" lon="5.63505">
        <ele>356.86983743614</ele>
        <time>2015-04-26T14:22:41Z</time>
      </trkpt>
      <trkpt lat="45.76391" lon="5.63506">
        <ele>356.86983743614</ele>
        <time>2015-04-26T14:22:46Z</time>
      </trkpt>
      <trkpt lat="45.76391" lon="5.63506">
        <ele>356.78093211141</ele>
        <time>2015-04-26T14:22:51Z</time>
      </trkpt>
      <trkpt lat="45.76391" lon="5.63505">
        <ele>356.78093211141</ele>
        <time>2015-04-26T14:22:56Z</time>
      </trkpt>
      <trkpt lat="45.76392" lon="5.63505">
        <ele>356.78093211141</ele>
        <time>2015-04-26T14:23:01Z</time>
      </trkpt>
      <trkpt lat="45.76392" lon="5.63505">
        <ele>356.78093211141</ele>
        <time>2015-04-26T14:23:06Z</time>
      </trkpt>
      <trkpt lat="45.76392" lon="5.63506">
        <ele>356.78093211141</ele>
        <time>2015-04-26T14:23:11Z</time>
      </trkpt>
      <trkpt lat="45.76393" lon="5.63507">
        <ele>356.78093211141</ele>
        <time>2015-04-26T14:23:16Z</time>
      </trkpt>
      <trkpt lat="45.76392" lon="5.63508">
        <ele>356.78093211141</ele>
        <time>2015-04-26T14:23:21Z</time>
      </trkpt>
      <trkpt lat="45.76392" lon="5.63509">
        <ele>356.78093211141</ele>
        <time>2015-04-26T14:23:26Z</time>
      </trkpt>
      <trkpt lat="45.76392" lon="5.6351">
        <ele>356.78093211141</ele>
        <time>2015-04-26T14:23:31Z</time>
      </trkpt>
      <trkpt lat="45.76392" lon="5.6351">
        <ele>356.78093211141</ele>
        <time>2015-04-26T14:23:36Z</time>
      </trkpt>
      <trkpt lat="45.76393" lon="5.6351">
        <ele>356.78093211141</ele>
        <time>2015-04-26T14:23:41Z</time>
      </trkpt>
      <trkpt lat="45.76393" lon="5.6351">
        <ele>356.78093211141</ele>
        <time>2015-04-26T14:23:46Z</time>
      </trkpt>
      <trkpt lat="45.76392" lon="5.63509">
        <ele>356.78093211141</ele>
        <time>2015-04-26T14:23:51Z</time>
      </trkpt>
      <trkpt lat="45.76393" lon="5.6351">
        <ele>356.78093211141</ele>
        <time>2015-04-26T14:23:56Z</time>
      </trkpt>
      <trkpt lat="45.76393" lon="5.6351">
        <ele>356.78093211141</ele>
        <time>2015-04-26T14:24:01Z</time>
      </trkpt>
      <trkpt lat="45.76393" lon="5.6351">
        <ele>356.78093211141</ele>
        <time>2015-04-26T14:24:06Z</time>
      </trkpt>
      <trkpt lat="45.76393" lon="5.63511">
        <ele>356.56824558406</ele>
        <time>2015-04-26T14:24:11Z</time>
      </trkpt>
      <trkpt lat="45.76392" lon="5.63511">
        <ele>356.56824558406</ele>
        <time>2015-04-26T14:24:16Z</time>
      </trkpt>
      <trkpt lat="45.76393" lon="5.6351">
        <ele>356.56824558406</ele>
        <time>2015-04-26T14:24:21Z</time>
      </trkpt>
      <trkpt lat="45.76393" lon="5.63509">
        <ele>356.56824558406</ele>
        <time>2015-04-26T14:24:26Z</time>
      </trkpt>
      <trkpt lat="45.76393" lon="5.6351">
        <ele>356.56824558406</ele>
        <time>2015-04-26T14:24:31Z</time>
      </trkpt>
      <trkpt lat="45.76393" lon="5.6351">
        <ele>356.56824558406</ele>
        <time>2015-04-26T14:24:36Z</time>
      </trkpt>
      <trkpt lat="45.76393" lon="5.6351">
        <ele>356.56824558406</ele>
        <time>2015-04-26T14:24:41Z</time>
      </trkpt>
      <trkpt lat="45.76393" lon="5.6351">
        <ele>356.56824558406</ele>
        <time>2015-04-26T14:24:46Z</time>
      </trkpt>
      <trkpt lat="45.76393" lon="5.6351">
        <ele>356.56824558406</ele>
        <time>2015-04-26T14:24:51Z</time>
      </trkpt>
      <trkpt lat="45.76392" lon="5.6351">
        <ele>356.56824558406</ele>
        <time>2015-04-26T14:24:56Z</time>
      </trkpt>
      <trkpt lat="45.76392" lon="5.6351">
        <ele>356.56824558406</ele>
        <time>2015-04-26T14:25:01Z</time>
      </trkpt>
      <trkpt lat="45.76391" lon="5.63511">
        <ele>356.56824558406</ele>
        <time>2015-04-26T14:25:06Z</time>
      </trkpt>
      <trkpt lat="45.76392" lon="5.63512">
        <ele>356.56824558406</ele>
        <time>2015-04-26T14:25:11Z</time>
      </trkpt>
      <trkpt lat="45.76391" lon="5.63512">
        <ele>356.56824558406</ele>
        <time>2015-04-26T14:25:16Z</time>
      </trkpt>
      <trkpt lat="45.7639" lon="5.63512">
        <ele>356.56824558406</ele>
        <time>2015-04-26T14:25:21Z</time>
      </trkpt>
      <trkpt lat="45.76389" lon="5.63513">
        <ele>356.56824558406</ele>
        <time>2015-04-26T14:25:26Z</time>
      </trkpt>
      <trkpt lat="45.76389" lon="5.63513">
        <ele>356.56824558406</ele>
        <time>2015-04-26T14:25:31Z</time>
      </trkpt>
      <trkpt lat="45.76389" lon="5.63513">
        <ele>356.56824558406</ele>
        <time>2015-04-26T14:25:36Z</time>
      </trkpt>
      <trkpt lat="45.76389" lon="5.63513">
        <ele>356.56824558406</ele>
        <time>2015-04-26T14:25:41Z</time>
      </trkpt>
      <trkpt lat="45.76389" lon="5.63513">
        <ele>356.56824558406</ele>
        <time>2015-04-26T14:25:46Z</time>
      </trkpt>
      <trkpt lat="45.76389" lon="5.63513">
        <ele>356.56824558406</ele>
        <time>2015-04-26T14:25:51Z</time>
      </trkpt>
      <trkpt lat="45.76389" lon="5.63513">
        <ele>356.56824558406</ele>
        <time>2015-04-26T14:25:56Z</time>
      </trkpt>
      <trkpt lat="45.7639" lon="5.63513">
        <ele>356.56824558406</ele>
        <time>2015-04-26T14:26:01Z</time>
      </trkpt>
      <trkpt lat="45.76394" lon="5.63517">
        <ele>356.51524324487</ele>
        <time>2015-04-26T14:26:06Z</time>
      </trkpt>
      <trkpt lat="45.76397" lon="5.63525">
        <ele>356.51524324487</ele>
        <time>2015-04-26T14:26:11Z</time>
      </trkpt>
      <trkpt lat="45.764" lon="5.63535">
        <ele>356.37977713589</ele>
        <time>2015-04-26T14:26:16Z</time>
      </trkpt>
      <trkpt lat="45.76401" lon="5.63546">
        <ele>356.37977713589</ele>
        <time>2015-04-26T14:26:21Z</time>
      </trkpt>
      <trkpt lat="45.76402" lon="5.63555">
        <ele>356.28362776332</ele>
        <time>2015-04-26T14:26:26Z</time>
      </trkpt>
      <trkpt lat="45.76404" lon="5.63567">
        <ele>356.06574591208</ele>
        <time>2015-04-26T14:26:31Z</time>
      </trkpt>
      <trkpt lat="45.76406" lon="5.63578">
        <ele>356.06574591208</ele>
        <time>2015-04-26T14:26:36Z</time>
      </trkpt>
      <trkpt lat="45.7641" lon="5.63589">
        <ele>355.87992129943</ele>
        <time>2015-04-26T14:26:41Z</time>
      </trkpt>
      <trkpt lat="45.76415" lon="5.63604">
        <ele>355.73888552312</ele>
        <time>2015-04-26T14:26:46Z</time>
      </trkpt>
      <trkpt lat="45.76418" lon="5.63613">
        <ele>355.73888552312</ele>
        <time>2015-04-26T14:26:51Z</time>
      </trkpt>
      <trkpt lat="45.76421" lon="5.6362">
        <ele>355.38052277592</ele>
        <time>2015-04-26T14:26:56Z</time>
      </trkpt>
      <trkpt lat="45.76424" lon="5.63629">
        <ele>355.38052277592</ele>
        <time>2015-04-26T14:27:01Z</time>
      </trkpt>
      <trkpt lat="45.76425" lon="5.63641">
        <ele>355.13904688632</ele>
        <time>2015-04-26T14:27:06Z</time>
      </trkpt>
      <trkpt lat="45.76425" lon="5.63651">
        <ele>355.13904688632</ele>
        <time>2015-04-26T14:27:11Z</time>
      </trkpt>
      <trkpt lat="45.76422" lon="5.63661">
        <ele>354.67530824838</ele>
        <time>2015-04-26T14:27:16Z</time>
      </trkpt>
      <trkpt lat="45.76419" lon="5.63671">
        <ele>354.67530824838</ele>
        <time>2015-04-26T14:27:21Z</time>
      </trkpt>
      <trkpt lat="45.76416" lon="5.63681">
        <ele>354.39626182936</ele>
        <time>2015-04-26T14:27:26Z</time>
      </trkpt>
      <trkpt lat="45.76413" lon="5.63689">
        <ele>354.39626182936</ele>
        <time>2015-04-26T14:27:31Z</time>
      </trkpt>
      <trkpt lat="45.76409" lon="5.63697">
        <ele>354.24612368545</ele>
        <time>2015-04-26T14:27:36Z</time>
      </trkpt>
      <trkpt lat="45.76405" lon="5.63705">
        <ele>354.24612368545</ele>
        <time>2015-04-26T14:27:41Z</time>
      </trkpt>
      <trkpt lat="45.76401" lon="5.63713">
        <ele>353.99991635368</ele>
        <time>2015-04-26T14:27:46Z</time>
      </trkpt>
      <trkpt lat="45.76397" lon="5.63721">
        <ele>353.99991635368</ele>
        <time>2015-04-26T14:27:51Z</time>
      </trkpt>
      <trkpt lat="45.76393" lon="5.63729">
        <ele>353.80973699914</ele>
        <time>2015-04-26T14:27:56Z</time>
      </trkpt>
      <trkpt lat="45.76389" lon="5.63737">
        <ele>353.80973699914</ele>
        <time>2015-04-26T14:28:01Z</time>
      </trkpt>
      <trkpt lat="45.76385" lon="5.63746">
        <ele>353.48489469438</ele>
        <time>2015-04-26T14:28:06Z</time>
      </trkpt>
      <trkpt lat="45.76382" lon="5.63754">
        <ele>353.48489469438</ele>
        <time>2015-04-26T14:28:11Z</time>
      </trkpt>
      <trkpt lat="45.76377" lon="5.63761">
        <ele>352.99319030738</ele>
        <time>2015-04-26T14:28:16Z</time>
      </trkpt>
      <trkpt lat="45.76374" lon="5.63769">
        <ele>352.99319030738</ele>
        <time>2015-04-26T14:28:21Z</time>
      </trkpt>
      <trkpt lat="45.7637" lon="5.63778">
        <ele>352.72317251803</ele>
        <time>2015-04-26T14:28:26Z</time>
      </trkpt>
      <trkpt lat="45.76366" lon="5.63786">
        <ele>352.72317251803</ele>
        <time>2015-04-26T14:28:31Z</time>
      </trkpt>
      <trkpt lat="45.76362" lon="5.63794">
        <ele>352.29924752469</ele>
        <time>2015-04-26T14:28:36Z</time>
      </trkpt>
      <trkpt lat="45.76358" lon="5.63801">
        <ele>352.29924752469</ele>
        <time>2015-04-26T14:28:41Z</time>
      </trkpt>
      <trkpt lat="45.76353" lon="5.63809">
        <ele>352.09438623743</ele>
        <time>2015-04-26T14:28:46Z</time>
      </trkpt>
      <trkpt lat="45.76349" lon="5.63817">
        <ele>352.09438623743</ele>
        <time>2015-04-26T14:28:51Z</time>
      </trkpt>
      <trkpt lat="45.76345" lon="5.63825">
        <ele>352.02119750019</ele>
        <time>2015-04-26T14:28:56Z</time>
      </trkpt>
      <trkpt lat="45.76341" lon="5.63831">
        <ele>352.02119750019</ele>
        <time>2015-04-26T14:29:01Z</time>
      </trkpt>
      <trkpt lat="45.76342" lon="5.63832">
        <ele>352.02119750019</ele>
        <time>2015-04-26T14:29:06Z</time>
      </trkpt>
      <trkpt lat="45.76338" lon="5.63841">
        <ele>351.86862328279</ele>
        <time>2015-04-26T14:29:11Z</time>
      </trkpt>
      <trkpt lat="45.76334" lon="5.6385">
        <ele>351.86862328279</ele>
        <time>2015-04-26T14:29:16Z</time>
      </trkpt>
      <trkpt lat="45.76331" lon="5.63858">
        <ele>351.85923714233</ele>
        <time>2015-04-26T14:29:21Z</time>
      </trkpt>
      <trkpt lat="45.76329" lon="5.63867">
        <ele>351.85923714233</ele>
        <time>2015-04-26T14:29:26Z</time>
      </trkpt>
      <trkpt lat="45.76329" lon="5.63876">
        <ele>351.44946450917</ele>
        <time>2015-04-26T14:29:31Z</time>
      </trkpt>
      <trkpt lat="45.76329" lon="5.63886">
        <ele>351.44946450917</ele>
        <time>2015-04-26T14:29:36Z</time>
      </trkpt>
      <trkpt lat="45.76328" lon="5.63897">
        <ele>351.11672181369</ele>
        <time>2015-04-26T14:29:41Z</time>
      </trkpt>
      <trkpt lat="45.76327" lon="5.63907">
        <ele>351.11672181369</ele>
        <time>2015-04-26T14:29:46Z</time>
      </trkpt>
      <trkpt lat="45.76329" lon="5.63917">
        <ele>351.41840890432</ele>
        <time>2015-04-26T14:29:51Z</time>
      </trkpt>
      <trkpt lat="45.76328" lon="5.63928">
        <ele>351.41840890432</ele>
        <time>2015-04-26T14:29:56Z</time>
      </trkpt>
      <trkpt lat="45.76326" lon="5.6394">
        <ele>352.33597122707</ele>
        <time>2015-04-26T14:30:01Z</time>
      </trkpt>
      <trkpt lat="45.76324" lon="5.6395">
        <ele>352.33597122707</ele>
        <time>2015-04-26T14:30:06Z</time>
      </trkpt>
      <trkpt lat="45.76324" lon="5.6396">
        <ele>353.34608684537</ele>
        <time>2015-04-26T14:30:11Z</time>
      </trkpt>
      <trkpt lat="45.76323" lon="5.6397">
        <ele>353.34608684537</ele>
        <time>2015-04-26T14:30:16Z</time>
      </trkpt>
      <trkpt lat="45.76321" lon="5.63979">
        <ele>354.07889796274</ele>
        <time>2015-04-26T14:30:21Z</time>
      </trkpt>
      <trkpt lat="45.76318" lon="5.63988">
        <ele>354.07889796274</ele>
        <time>2015-04-26T14:30:26Z</time>
      </trkpt>
      <trkpt lat="45.76314" lon="5.63994">
        <ele>354.71129321968</ele>
        <time>2015-04-26T14:30:31Z</time>
      </trkpt>
      <trkpt lat="45.76309" lon="5.63998">
        <ele>354.71129321968</ele>
        <time>2015-04-26T14:30:36Z</time>
      </trkpt>
      <trkpt lat="45.76305" lon="5.64003">
        <ele>355.01835353504</ele>
        <time>2015-04-26T14:30:41Z</time>
      </trkpt>
      <trkpt lat="45.76303" lon="5.64003">
        <ele>355.01835353504</ele>
        <time>2015-04-26T14:30:46Z</time>
      </trkpt>
      <trkpt lat="45.76303" lon="5.64003">
        <ele>355.01835353504</ele>
        <time>2015-04-26T14:30:51Z</time>
      </trkpt>
      <trkpt lat="45.76302" lon="5.64004">
        <ele>355.01835353504</ele>
        <time>2015-04-26T14:30:56Z</time>
      </trkpt>
      <trkpt lat="45.76302" lon="5.64004">
        <ele>355.01835353504</ele>
        <time>2015-04-26T14:31:01Z</time>
      </trkpt>
      <trkpt lat="45.76298" lon="5.64004">
        <ele>355.01835353504</ele>
        <time>2015-04-26T14:31:06Z</time>
      </trkpt>
      <trkpt lat="45.76292" lon="5.64004">
        <ele>355.51316047608</ele>
        <time>2015-04-26T14:31:11Z</time>
      </trkpt>
      <trkpt lat="45.76286" lon="5.64006">
        <ele>355.51316047608</ele>
        <time>2015-04-26T14:31:16Z</time>
      </trkpt>
      <trkpt lat="45.76279" lon="5.64004">
        <ele>356.1662026491</ele>
        <time>2015-04-26T14:31:21Z</time>
      </trkpt>
      <trkpt lat="45.76272" lon="5.64002">
        <ele>356.1662026491</ele>
        <time>2015-04-26T14:31:26Z</time>
      </trkpt>
      <trkpt lat="45.76266" lon="5.64003">
        <ele>356.84883159748</ele>
        <time>2015-04-26T14:31:31Z</time>
      </trkpt>
      <trkpt lat="45.7626" lon="5.63999">
        <ele>356.84883159748</ele>
        <time>2015-04-26T14:31:36Z</time>
      </trkpt>
      <trkpt lat="45.76254" lon="5.63993">
        <ele>358.01823185795</ele>
        <time>2015-04-26T14:31:41Z</time>
      </trkpt>
      <trkpt lat="45.76249" lon="5.63987">
        <ele>358.01823185795</ele>
        <time>2015-04-26T14:31:46Z</time>
      </trkpt>
      <trkpt lat="45.76243" lon="5.63982">
        <ele>360.13989884838</ele>
        <time>2015-04-26T14:31:51Z</time>
      </trkpt>
      <trkpt lat="45.76239" lon="5.63978">
        <ele>360.13989884838</ele>
        <time>2015-04-26T14:31:56Z</time>
      </trkpt>
      <trkpt lat="45.76231" lon="5.63974">
        <ele>362.07168575637</ele>
        <time>2015-04-26T14:32:01Z</time>
      </trkpt>
      <trkpt lat="45.76222" lon="5.63968">
        <ele>363.62059238935</ele>
        <time>2015-04-26T14:32:06Z</time>
      </trkpt>
      <trkpt lat="45.76217" lon="5.63966">
        <ele>363.62059238935</ele>
        <time>2015-04-26T14:32:11Z</time>
      </trkpt>
      <trkpt lat="45.7621" lon="5.63964">
        <ele>364.46481386124</ele>
        <time>2015-04-26T14:32:16Z</time>
      </trkpt>
      <trkpt lat="45.76202" lon="5.6396">
        <ele>364.46481386124</ele>
        <time>2015-04-26T14:32:21Z</time>
      </trkpt>
      <trkpt lat="45.76195" lon="5.63959">
        <ele>364.95672356909</ele>
        <time>2015-04-26T14:32:26Z</time>
      </trkpt>
      <trkpt lat="45.7619" lon="5.63955">
        <ele>364.95672356909</ele>
        <time>2015-04-26T14:32:31Z</time>
      </trkpt>
      <trkpt lat="45.76186" lon="5.63953">
        <ele>365.66885228916</ele>
        <time>2015-04-26T14:32:36Z</time>
      </trkpt>
      <trkpt lat="45.76179" lon="5.63948">
        <ele>365.66885228916</ele>
        <time>2015-04-26T14:32:41Z</time>
      </trkpt>
      <trkpt lat="45.76171" lon="5.63945">
        <ele>366.42497659203</ele>
        <time>2015-04-26T14:32:46Z</time>
      </trkpt>
      <trkpt lat="45.76159" lon="5.63942">
        <ele>367.06176020376</ele>
        <time>2015-04-26T14:32:51Z</time>
      </trkpt>
      <trkpt lat="45.7615" lon="5.63938">
        <ele>367.06176020376</ele>
        <time>2015-04-26T14:32:56Z</time>
      </trkpt>
      <trkpt lat="45.76143" lon="5.63933">
        <ele>367.77413145411</ele>
        <time>2015-04-26T14:33:01Z</time>
      </trkpt>
      <trkpt lat="45.76137" lon="5.63931">
        <ele>367.77413145411</ele>
        <time>2015-04-26T14:33:06Z</time>
      </trkpt>
      <trkpt lat="45.7613" lon="5.63927">
        <ele>368.48315087231</ele>
        <time>2015-04-26T14:33:11Z</time>
      </trkpt>
      <trkpt lat="45.76125" lon="5.63924">
        <ele>368.48315087231</ele>
        <time>2015-04-26T14:33:16Z</time>
      </trkpt>
      <trkpt lat="45.76119" lon="5.63921">
        <ele>368.95722728363</ele>
        <time>2015-04-26T14:33:21Z</time>
      </trkpt>
      <trkpt lat="45.76112" lon="5.63918">
        <ele>368.95722728363</ele>
        <time>2015-04-26T14:33:26Z</time>
      </trkpt>
      <trkpt lat="45.76105" lon="5.63914">
        <ele>369.44365747642</ele>
        <time>2015-04-26T14:33:31Z</time>
      </trkpt>
      <trkpt lat="45.76098" lon="5.63914">
        <ele>369.44365747642</ele>
        <time>2015-04-26T14:33:36Z</time>
      </trkpt>
      <trkpt lat="45.76092" lon="5.63911">
        <ele>369.62397277888</ele>
        <time>2015-04-26T14:33:41Z</time>
      </trkpt>
      <trkpt lat="45.76085" lon="5.63909">
        <ele>369.62397277888</ele>
        <time>2015-04-26T14:33:46Z</time>
      </trkpt>
      <trkpt lat="45.7608" lon="5.63909">
        <ele>370.35690246406</ele>
        <time>2015-04-26T14:33:51Z</time>
      </trkpt>
      <trkpt lat="45.76074" lon="5.63908">
        <ele>370.35690246406</ele>
        <time>2015-04-26T14:33:56Z</time>
      </trkpt>
      <trkpt lat="45.76068" lon="5.6391">
        <ele>370.736084068</ele>
        <time>2015-04-26T14:34:01Z</time>
      </trkpt>
      <trkpt lat="45.76061" lon="5.63906">
        <ele>370.736084068</ele>
        <time>2015-04-26T14:34:06Z</time>
      </trkpt>
      <trkpt lat="45.76054" lon="5.63904">
        <ele>371.06125532963</ele>
        <time>2015-04-26T14:34:11Z</time>
      </trkpt>
      <trkpt lat="45.76047" lon="5.63906">
        <ele>371.06125532963</ele>
        <time>2015-04-26T14:34:16Z</time>
      </trkpt>
      <trkpt lat="45.76044" lon="5.63908">
        <ele>370.18362980137</ele>
        <time>2015-04-26T14:34:21Z</time>
      </trkpt>
      <trkpt lat="45.76037" lon="5.63912">
        <ele>370.18362980137</ele>
        <time>2015-04-26T14:34:26Z</time>
      </trkpt>
      <trkpt lat="45.76029" lon="5.63911">
        <ele>369.82356746854</ele>
        <time>2015-04-26T14:34:31Z</time>
      </trkpt>
      <trkpt lat="45.76023" lon="5.6391">
        <ele>369.82356746854</ele>
        <time>2015-04-26T14:34:36Z</time>
      </trkpt>
      <trkpt lat="45.76014" lon="5.6391">
        <ele>369.71459579901</ele>
        <time>2015-04-26T14:34:41Z</time>
      </trkpt>
      <trkpt lat="45.75995" lon="5.63904">
        <ele>369.19121171804</ele>
        <time>2015-04-26T14:34:46Z</time>
      </trkpt>
      <trkpt lat="45.75985" lon="5.63904">
        <ele>368.47381909093</ele>
        <time>2015-04-26T14:34:51Z</time>
      </trkpt>
      <trkpt lat="45.75976" lon="5.63903">
        <ele>368.47381909093</ele>
        <time>2015-04-26T14:34:56Z</time>
      </trkpt>
      <trkpt lat="45.75968" lon="5.63901">
        <ele>367.78159022073</ele>
        <time>2015-04-26T14:35:01Z</time>
      </trkpt>
      <trkpt lat="45.75962" lon="5.63897">
        <ele>367.78159022073</ele>
        <time>2015-04-26T14:35:06Z</time>
      </trkpt>
      <trkpt lat="45.75956" lon="5.63893">
        <ele>367.1878219025</ele>
        <time>2015-04-26T14:35:11Z</time>
      </trkpt>
      <trkpt lat="45.75949" lon="5.63892">
        <ele>367.1878219025</ele>
        <time>2015-04-26T14:35:16Z</time>
      </trkpt>
      <trkpt lat="45.75945" lon="5.63892">
        <ele>366.16928074488</ele>
        <time>2015-04-26T14:35:21Z</time>
      </trkpt>
      <trkpt lat="45.75939" lon="5.63891">
        <ele>366.16928074488</ele>
        <time>2015-04-26T14:35:26Z</time>
      </trkpt>
      <trkpt lat="45.75933" lon="5.63891">
        <ele>365.49610619415</ele>
        <time>2015-04-26T14:35:31Z</time>
      </trkpt>
      <trkpt lat="45.75927" lon="5.63894">
        <ele>365.49610619415</ele>
        <time>2015-04-26T14:35:36Z</time>
      </trkpt>
      <trkpt lat="45.7592" lon="5.63896">
        <ele>364.58386364142</ele>
        <time>2015-04-26T14:35:41Z</time>
      </trkpt>
      <trkpt lat="45.75914" lon="5.63897">
        <ele>364.58386364142</ele>
        <time>2015-04-26T14:35:46Z</time>
      </trkpt>
      <trkpt lat="45.75911" lon="5.639">
        <ele>362.96373703787</ele>
        <time>2015-04-26T14:35:51Z</time>
      </trkpt>
      <trkpt lat="45.75906" lon="5.63902">
        <ele>362.96373703787</ele>
        <time>2015-04-26T14:35:56Z</time>
      </trkpt>
      <trkpt lat="45.75899" lon="5.63903">
        <ele>361.31294143591</ele>
        <time>2015-04-26T14:36:01Z</time>
      </trkpt>
      <trkpt lat="45.7589" lon="5.63901">
        <ele>361.31294143591</ele>
        <time>2015-04-26T14:36:06Z</time>
      </trkpt>
      <trkpt lat="45.75882" lon="5.63899">
        <ele>359.99957057058</ele>
        <time>2015-04-26T14:36:11Z</time>
      </trkpt>
      <trkpt lat="45.75875" lon="5.63897">
        <ele>359.99957057058</ele>
        <time>2015-04-26T14:36:16Z</time>
      </trkpt>
      <trkpt lat="45.75868" lon="5.63898">
        <ele>358.65751725365</ele>
        <time>2015-04-26T14:36:21Z</time>
      </trkpt>
      <trkpt lat="45.75862" lon="5.63896">
        <ele>358.65751725365</ele>
        <time>2015-04-26T14:36:26Z</time>
      </trkpt>
      <trkpt lat="45.75854" lon="5.63895">
        <ele>357.52401450194</ele>
        <time>2015-04-26T14:36:31Z</time>
      </trkpt>
      <trkpt lat="45.75848" lon="5.63897">
        <ele>357.52401450194</ele>
        <time>2015-04-26T14:36:36Z</time>
      </trkpt>
      <trkpt lat="45.75838" lon="5.63898">
        <ele>356.83260876756</ele>
        <time>2015-04-26T14:36:41Z</time>
      </trkpt>
      <trkpt lat="45.7583" lon="5.63898">
        <ele>356.83260876756</ele>
        <time>2015-04-26T14:36:46Z</time>
      </trkpt>
      <trkpt lat="45.75825" lon="5.63897">
        <ele>355.51576949596</ele>
        <time>2015-04-26T14:36:51Z</time>
      </trkpt>
      <trkpt lat="45.75817" lon="5.63896">
        <ele>355.51576949596</ele>
        <time>2015-04-26T14:36:56Z</time>
      </trkpt>
      <trkpt lat="45.75809" lon="5.63897">
        <ele>354.43066849239</ele>
        <time>2015-04-26T14:37:01Z</time>
      </trkpt>
      <trkpt lat="45.75802" lon="5.63896">
        <ele>354.43066849239</ele>
        <time>2015-04-26T14:37:06Z</time>
      </trkpt>
      <trkpt lat="45.75794" lon="5.63894">
        <ele>353.36198347767</ele>
        <time>2015-04-26T14:37:11Z</time>
      </trkpt>
      <trkpt lat="45.75787" lon="5.63894">
        <ele>353.36198347767</ele>
        <time>2015-04-26T14:37:16Z</time>
      </trkpt>
      <trkpt lat="45.7578" lon="5.63892">
        <ele>352.23976221083</ele>
        <time>2015-04-26T14:37:21Z</time>
      </trkpt>
      <trkpt lat="45.75774" lon="5.6389">
        <ele>352.23976221083</ele>
        <time>2015-04-26T14:37:26Z</time>
      </trkpt>
      <trkpt lat="45.75767" lon="5.63888">
        <ele>351.37392654072</ele>
        <time>2015-04-26T14:37:31Z</time>
      </trkpt>
      <trkpt lat="45.75758" lon="5.63888">
        <ele>351.37392654072</ele>
        <time>2015-04-26T14:37:36Z</time>
      </trkpt>
      <trkpt lat="45.75748" lon="5.63892">
        <ele>350.57524059633</ele>
        <time>2015-04-26T14:37:41Z</time>
      </trkpt>
      <trkpt lat="45.75737" lon="5.63895">
        <ele>350.07158787344</ele>
        <time>2015-04-26T14:37:46Z</time>
      </trkpt>
      <trkpt lat="45.75725" lon="5.63896">
        <ele>349.52555838194</ele>
        <time>2015-04-26T14:37:51Z</time>
      </trkpt>
      <trkpt lat="45.75715" lon="5.63893">
        <ele>349.37392519455</ele>
        <time>2015-04-26T14:37:56Z</time>
      </trkpt>
      <trkpt lat="45.75708" lon="5.6389">
        <ele>349.37392519455</ele>
        <time>2015-04-26T14:38:01Z</time>
      </trkpt>
      <trkpt lat="45.75702" lon="5.63886">
        <ele>349.47255262671</ele>
        <time>2015-04-26T14:38:06Z</time>
      </trkpt>
      <trkpt lat="45.75696" lon="5.63882">
        <ele>349.47255262671</ele>
        <time>2015-04-26T14:38:11Z</time>
      </trkpt>
      <trkpt lat="45.75691" lon="5.63876">
        <ele>349.74474735517</ele>
        <time>2015-04-26T14:38:16Z</time>
      </trkpt>
      <trkpt lat="45.75687" lon="5.63869">
        <ele>349.74474735517</ele>
        <time>2015-04-26T14:38:21Z</time>
      </trkpt>
      <trkpt lat="45.75678" lon="5.63851">
        <ele>350.20534974561</ele>
        <time>2015-04-26T14:38:26Z</time>
      </trkpt>
      <trkpt lat="45.75667" lon="5.63829">
        <ele>351.31425673611</ele>
        <time>2015-04-26T14:38:31Z</time>
      </trkpt>
      <trkpt lat="45.75655" lon="5.63805">
        <ele>352.58780537123</ele>
        <time>2015-04-26T14:38:36Z</time>
      </trkpt>
      <trkpt lat="45.75648" lon="5.63796">
        <ele>353.21707793245</ele>
        <time>2015-04-26T14:38:41Z</time>
      </trkpt>
      <trkpt lat="45.75636" lon="5.63783">
        <ele>353.11726495695</ele>
        <time>2015-04-26T14:38:46Z</time>
      </trkpt>
      <trkpt lat="45.75626" lon="5.63775">
        <ele>351.46242804249</ele>
        <time>2015-04-26T14:38:51Z</time>
      </trkpt>
      <trkpt lat="45.75617" lon="5.63768">
        <ele>350.37386392044</ele>
        <time>2015-04-26T14:38:56Z</time>
      </trkpt>
      <trkpt lat="45.75612" lon="5.63771">
        <ele>350.37386392044</ele>
        <time>2015-04-26T14:39:01Z</time>
      </trkpt>
      <trkpt lat="45.75604" lon="5.63769">
        <ele>349.04849116425</ele>
        <time>2015-04-26T14:39:06Z</time>
      </trkpt>
      <trkpt lat="45.75597" lon="5.6377">
        <ele>349.04849116425</ele>
        <time>2015-04-26T14:39:11Z</time>
      </trkpt>
      <trkpt lat="45.7559" lon="5.63772">
        <ele>348.11191181366</ele>
        <time>2015-04-26T14:39:16Z</time>
      </trkpt>
      <trkpt lat="45.75583" lon="5.63776">
        <ele>348.11191181366</ele>
        <time>2015-04-26T14:39:21Z</time>
      </trkpt>
      <trkpt lat="45.75577" lon="5.6378">
        <ele>347.37885589594</ele>
        <time>2015-04-26T14:39:26Z</time>
      </trkpt>
      <trkpt lat="45.75563" lon="5.6379">
        <ele>347.00850972899</ele>
        <time>2015-04-26T14:39:31Z</time>
      </trkpt>
      <trkpt lat="45.75553" lon="5.63798">
        <ele>347.40671073611</ele>
        <time>2015-04-26T14:39:36Z</time>
      </trkpt>
      <trkpt lat="45.7554" lon="5.63808">
        <ele>347.21795829367</ele>
        <time>2015-04-26T14:39:41Z</time>
      </trkpt>
      <trkpt lat="45.75523" lon="5.63819">
        <ele>347.24873123947</ele>
        <time>2015-04-26T14:39:46Z</time>
      </trkpt>
      <trkpt lat="45.75503" lon="5.63832">
        <ele>347.33772305564</ele>
        <time>2015-04-26T14:39:51Z</time>
      </trkpt>
      <trkpt lat="45.75495" lon="5.63836">
        <ele>347.33772305564</ele>
        <time>2015-04-26T14:39:56Z</time>
      </trkpt>
      <trkpt lat="45.75487" lon="5.63837">
        <ele>348.02702775328</ele>
        <time>2015-04-26T14:40:01Z</time>
      </trkpt>
      <trkpt lat="45.75479" lon="5.63835">
        <ele>348.02702775328</ele>
        <time>2015-04-26T14:40:06Z</time>
      </trkpt>
      <trkpt lat="45.75471" lon="5.63833">
        <ele>348.79403161322</ele>
        <time>2015-04-26T14:40:11Z</time>
      </trkpt>
      <trkpt lat="45.75464" lon="5.63833">
        <ele>348.79403161322</ele>
        <time>2015-04-26T14:40:16Z</time>
      </trkpt>
      <trkpt lat="45.75457" lon="5.63831">
        <ele>349.02458839743</ele>
        <time>2015-04-26T14:40:21Z</time>
      </trkpt>
      <trkpt lat="45.75454" lon="5.63831">
        <ele>349.02458839743</ele>
        <time>2015-04-26T14:40:26Z</time>
      </trkpt>
      <trkpt lat="45.75449" lon="5.63831">
        <ele>349.02458839743</ele>
        <time>2015-04-26T14:40:31Z</time>
      </trkpt>
      <trkpt lat="45.75441" lon="5.63829">
        <ele>349.07348461616</ele>
        <time>2015-04-26T14:40:36Z</time>
      </trkpt>
      <trkpt lat="45.75437" lon="5.63827">
        <ele>349.07348461616</ele>
        <time>2015-04-26T14:40:41Z</time>
      </trkpt>
      <trkpt lat="45.75428" lon="5.63825">
        <ele>348.96732788442</ele>
        <time>2015-04-26T14:40:46Z</time>
      </trkpt>
      <trkpt lat="45.75419" lon="5.63823">
        <ele>348.96732788442</ele>
        <time>2015-04-26T14:40:51Z</time>
      </trkpt>
      <trkpt lat="45.75413" lon="5.63822">
        <ele>349.17796249918</ele>
        <time>2015-04-26T14:40:56Z</time>
      </trkpt>
      <trkpt lat="45.7541" lon="5.6382">
        <ele>349.17796249918</ele>
        <time>2015-04-26T14:41:01Z</time>
      </trkpt>
      <trkpt lat="45.75407" lon="5.63819">
        <ele>349.17796249918</ele>
        <time>2015-04-26T14:41:06Z</time>
      </trkpt>
      <trkpt lat="45.75402" lon="5.63817">
        <ele>349.78142007747</ele>
        <time>2015-04-26T14:41:11Z</time>
      </trkpt>
      <trkpt lat="45.75396" lon="5.63814">
        <ele>349.78142007747</ele>
        <time>2015-04-26T14:41:16Z</time>
      </trkpt>
      <trkpt lat="45.75393" lon="5.63812">
        <ele>350.48678656461</ele>
        <time>2015-04-26T14:41:21Z</time>
      </trkpt>
      <trkpt lat="45.75385" lon="5.63811">
        <ele>350.48678656461</ele>
        <time>2015-04-26T14:41:26Z</time>
      </trkpt>
      <trkpt lat="45.75375" lon="5.6381">
        <ele>350.37575531919</ele>
        <time>2015-04-26T14:41:31Z</time>
      </trkpt>
      <trkpt lat="45.75365" lon="5.63809">
        <ele>350.01208404652</ele>
        <time>2015-04-26T14:41:36Z</time>
      </trkpt>
      <trkpt lat="45.75357" lon="5.6381">
        <ele>350.01208404652</ele>
        <time>2015-04-26T14:41:41Z</time>
      </trkpt>
      <trkpt lat="45.75348" lon="5.63807">
        <ele>349.7459206861</ele>
        <time>2015-04-26T14:41:46Z</time>
      </trkpt>
      <trkpt lat="45.75339" lon="5.63806">
        <ele>349.13765611454</ele>
        <time>2015-04-26T14:41:51Z</time>
      </trkpt>
      <trkpt lat="45.75325" lon="5.63801">
        <ele>348.66003721431</ele>
        <time>2015-04-26T14:41:56Z</time>
      </trkpt>
      <trkpt lat="45.75312" lon="5.63796">
        <ele>348.31840505469</ele>
        <time>2015-04-26T14:42:01Z</time>
      </trkpt>
      <trkpt lat="45.75303" lon="5.63792">
        <ele>348.31840505469</ele>
        <time>2015-04-26T14:42:06Z</time>
      </trkpt>
      <trkpt lat="45.75297" lon="5.63791">
        <ele>347.69942308019</ele>
        <time>2015-04-26T14:42:11Z</time>
      </trkpt>
      <trkpt lat="45.75288" lon="5.6379">
        <ele>347.1270562313</ele>
        <time>2015-04-26T14:42:16Z</time>
      </trkpt>
      <trkpt lat="45.7528" lon="5.63787">
        <ele>347.1270562313</ele>
        <time>2015-04-26T14:42:21Z</time>
      </trkpt>
      <trkpt lat="45.75273" lon="5.63787">
        <ele>345.87816204465</ele>
        <time>2015-04-26T14:42:26Z</time>
      </trkpt>
      <trkpt lat="45.75267" lon="5.63785">
        <ele>345.87816204465</ele>
        <time>2015-04-26T14:42:31Z</time>
      </trkpt>
      <trkpt lat="45.75265" lon="5.63785">
        <ele>345.87816204465</ele>
        <time>2015-04-26T14:42:36Z</time>
      </trkpt>
      <trkpt lat="45.75261" lon="5.6378">
        <ele>344.62485706715</ele>
        <time>2015-04-26T14:42:41Z</time>
      </trkpt>
      <trkpt lat="45.75255" lon="5.63773">
        <ele>344.62485706715</ele>
        <time>2015-04-26T14:42:46Z</time>
      </trkpt>
      <trkpt lat="45.75247" lon="5.63767">
        <ele>344.06195286115</ele>
        <time>2015-04-26T14:42:51Z</time>
      </trkpt>
      <trkpt lat="45.7524" lon="5.63765">
        <ele>344.06195286115</ele>
        <time>2015-04-26T14:42:56Z</time>
      </trkpt>
      <trkpt lat="45.75237" lon="5.63758">
        <ele>343.02988841026</ele>
        <time>2015-04-26T14:43:01Z</time>
      </trkpt>
      <trkpt lat="45.75233" lon="5.63752">
        <ele>343.02988841026</ele>
        <time>2015-04-26T14:43:06Z</time>
      </trkpt>
      <trkpt lat="45.75229" lon="5.6375">
        <ele>342.24256685262</ele>
        <time>2015-04-26T14:43:11Z</time>
      </trkpt>
      <trkpt lat="45.75223" lon="5.63747">
        <ele>342.24256685262</ele>
        <time>2015-04-26T14:43:16Z</time>
      </trkpt>
      <trkpt lat="45.75216" lon="5.63744">
        <ele>341.72665790243</ele>
        <time>2015-04-26T14:43:21Z</time>
      </trkpt>
      <trkpt lat="45.75208" lon="5.63741">
        <ele>341.72665790243</ele>
        <time>2015-04-26T14:43:26Z</time>
      </trkpt>
      <trkpt lat="45.75201" lon="5.63734">
        <ele>341.56373851003</ele>
        <time>2015-04-26T14:43:31Z</time>
      </trkpt>
      <trkpt lat="45.7519" lon="5.6373">
        <ele>341.52575205298</ele>
        <time>2015-04-26T14:43:36Z</time>
      </trkpt>
      <trkpt lat="45.75176" lon="5.63723">
        <ele>342.68361978597</ele>
        <time>2015-04-26T14:43:41Z</time>
      </trkpt>
      <trkpt lat="45.75165" lon="5.63717">
        <ele>343.95103052259</ele>
        <time>2015-04-26T14:43:46Z</time>
      </trkpt>
      <trkpt lat="45.75157" lon="5.63717">
        <ele>343.95103052259</ele>
        <time>2015-04-26T14:43:51Z</time>
      </trkpt>
      <trkpt lat="45.75148" lon="5.63715">
        <ele>345.02731141111</ele>
        <time>2015-04-26T14:43:56Z</time>
      </trkpt>
      <trkpt lat="45.7514" lon="5.6371">
        <ele>345.02731141111</ele>
        <time>2015-04-26T14:44:01Z</time>
      </trkpt>
      <trkpt lat="45.75134" lon="5.63706">
        <ele>345.77853542453</ele>
        <time>2015-04-26T14:44:06Z</time>
      </trkpt>
      <trkpt lat="45.75129" lon="5.63699">
        <ele>345.77853542453</ele>
        <time>2015-04-26T14:44:11Z</time>
      </trkpt>
      <trkpt lat="45.75122" lon="5.63694">
        <ele>345.99507952262</ele>
        <time>2015-04-26T14:44:16Z</time>
      </trkpt>
      <trkpt lat="45.75115" lon="5.6369">
        <ele>345.99507952262</ele>
        <time>2015-04-26T14:44:21Z</time>
      </trkpt>
      <trkpt lat="45.75107" lon="5.63688">
        <ele>346.65154818303</ele>
        <time>2015-04-26T14:44:26Z</time>
      </trkpt>
      <trkpt lat="45.75101" lon="5.63683">
        <ele>346.65154818303</ele>
        <time>2015-04-26T14:44:31Z</time>
      </trkpt>
      <trkpt lat="45.75096" lon="5.6368">
        <ele>347.6121520218</ele>
        <time>2015-04-26T14:44:36Z</time>
      </trkpt>
      <trkpt lat="45.75089" lon="5.63678">
        <ele>347.6121520218</ele>
        <time>2015-04-26T14:44:41Z</time>
      </trkpt>
      <trkpt lat="45.75083" lon="5.63677">
        <ele>348.47645202666</ele>
        <time>2015-04-26T14:44:46Z</time>
      </trkpt>
      <trkpt lat="45.75075" lon="5.63677">
        <ele>348.47645202666</ele>
        <time>2015-04-26T14:44:51Z</time>
      </trkpt>
      <trkpt lat="45.75066" lon="5.63677">
        <ele>349.98339759686</ele>
        <time>2015-04-26T14:44:56Z</time>
      </trkpt>
      <trkpt lat="45.75059" lon="5.63678">
        <ele>349.98339759686</ele>
        <time>2015-04-26T14:45:01Z</time>
      </trkpt>
      <trkpt lat="45.75051" lon="5.63675">
        <ele>351.30273893151</ele>
        <time>2015-04-26T14:45:06Z</time>
      </trkpt>
      <trkpt lat="45.75036" lon="5.63673">
        <ele>352.76104888978</ele>
        <time>2015-04-26T14:45:11Z</time>
      </trkpt>
      <trkpt lat="45.75027" lon="5.63675">
        <ele>354.06973477502</ele>
        <time>2015-04-26T14:45:16Z</time>
      </trkpt>
      <trkpt lat="45.7502" lon="5.63674">
        <ele>354.06973477502</ele>
        <time>2015-04-26T14:45:21Z</time>
      </trkpt>
      <trkpt lat="45.75011" lon="5.63672">
        <ele>355.72569102614</ele>
        <time>2015-04-26T14:45:26Z</time>
      </trkpt>
      <trkpt lat="45.75004" lon="5.63671">
        <ele>355.72569102614</ele>
        <time>2015-04-26T14:45:31Z</time>
      </trkpt>
      <trkpt lat="45.74996" lon="5.63671">
        <ele>357.38139988159</ele>
        <time>2015-04-26T14:45:36Z</time>
      </trkpt>
      <trkpt lat="45.74989" lon="5.63669">
        <ele>357.38139988159</ele>
        <time>2015-04-26T14:45:41Z</time>
      </trkpt>
      <trkpt lat="45.74982" lon="5.63668">
        <ele>358.80143260733</ele>
        <time>2015-04-26T14:45:46Z</time>
      </trkpt>
      <trkpt lat="45.74977" lon="5.63667">
        <ele>358.80143260733</ele>
        <time>2015-04-26T14:45:51Z</time>
      </trkpt>
      <trkpt lat="45.74972" lon="5.63663">
        <ele>360.17192686224</ele>
        <time>2015-04-26T14:45:56Z</time>
      </trkpt>
      <trkpt lat="45.74964" lon="5.63662">
        <ele>360.17192686224</ele>
        <time>2015-04-26T14:46:01Z</time>
      </trkpt>
      <trkpt lat="45.74956" lon="5.6366">
        <ele>361.68000207817</ele>
        <time>2015-04-26T14:46:06Z</time>
      </trkpt>
      <trkpt lat="45.74949" lon="5.63655">
        <ele>361.68000207817</ele>
        <time>2015-04-26T14:46:11Z</time>
      </trkpt>
      <trkpt lat="45.74942" lon="5.63655">
        <ele>362.59085448818</ele>
        <time>2015-04-26T14:46:16Z</time>
      </trkpt>
      <trkpt lat="45.74935" lon="5.63654">
        <ele>362.59085448818</ele>
        <time>2015-04-26T14:46:21Z</time>
      </trkpt>
      <trkpt lat="45.74923" lon="5.63652">
        <ele>363.13334446505</ele>
        <time>2015-04-26T14:46:26Z</time>
      </trkpt>
      <trkpt lat="45.74915" lon="5.63653">
        <ele>363.13334446505</ele>
        <time>2015-04-26T14:46:31Z</time>
      </trkpt>
      <trkpt lat="45.74913" lon="5.63651">
        <ele>364.2268090338</ele>
        <time>2015-04-26T14:46:36Z</time>
      </trkpt>
      <trkpt lat="45.7491" lon="5.63649">
        <ele>364.2268090338</ele>
        <time>2015-04-26T14:46:41Z</time>
      </trkpt>
      <trkpt lat="45.74905" lon="5.63644">
        <ele>365.32373680916</ele>
        <time>2015-04-26T14:46:46Z</time>
      </trkpt>
      <trkpt lat="45.74902" lon="5.63639">
        <ele>365.32373680916</ele>
        <time>2015-04-26T14:46:51Z</time>
      </trkpt>
      <trkpt lat="45.74901" lon="5.63635">
        <ele>365.32373680916</ele>
        <time>2015-04-26T14:46:56Z</time>
      </trkpt>
      <trkpt lat="45.749" lon="5.63631">
        <ele>366.43573461649</ele>
        <time>2015-04-26T14:47:01Z</time>
      </trkpt>
      <trkpt lat="45.74899" lon="5.63628">
        <ele>366.43573461649</ele>
        <time>2015-04-26T14:47:06Z</time>
      </trkpt>
      <trkpt lat="45.74899" lon="5.63624">
        <ele>366.43573461649</ele>
        <time>2015-04-26T14:47:11Z</time>
      </trkpt>
      <trkpt lat="45.74899" lon="5.63616">
        <ele>367.11246452505</ele>
        <time>2015-04-26T14:47:16Z</time>
      </trkpt>
      <trkpt lat="45.74893" lon="5.63609">
        <ele>367.11246452505</ele>
        <time>2015-04-26T14:47:21Z</time>
      </trkpt>
      <trkpt lat="45.74887" lon="5.63604">
        <ele>366.85152682552</ele>
        <time>2015-04-26T14:47:26Z</time>
      </trkpt>
      <trkpt lat="45.74873" lon="5.63594">
        <ele>366.6312665409</ele>
        <time>2015-04-26T14:47:31Z</time>
      </trkpt>
      <trkpt lat="45.74858" lon="5.63585">
        <ele>366.57993432837</ele>
        <time>2015-04-26T14:47:36Z</time>
      </trkpt>
      <trkpt lat="45.7485" lon="5.63578">
        <ele>366.26834178244</ele>
        <time>2015-04-26T14:47:41Z</time>
      </trkpt>
      <trkpt lat="45.74842" lon="5.63579">
        <ele>366.26834178244</ele>
        <time>2015-04-26T14:47:46Z</time>
      </trkpt>
      <trkpt lat="45.74837" lon="5.6358">
        <ele>366.32281606482</ele>
        <time>2015-04-26T14:47:51Z</time>
      </trkpt>
      <trkpt lat="45.74831" lon="5.63579">
        <ele>366.32281606482</ele>
        <time>2015-04-26T14:47:56Z</time>
      </trkpt>
      <trkpt lat="45.74827" lon="5.63578">
        <ele>366.2851061677</ele>
        <time>2015-04-26T14:48:01Z</time>
      </trkpt>
      <trkpt lat="45.74823" lon="5.63577">
        <ele>366.2851061677</ele>
        <time>2015-04-26T14:48:06Z</time>
      </trkpt>
      <trkpt lat="45.74821" lon="5.63577">
        <ele>366.2851061677</ele>
        <time>2015-04-26T14:48:11Z</time>
      </trkpt>
      <trkpt lat="45.74817" lon="5.63578">
        <ele>365.99033238372</ele>
        <time>2015-04-26T14:48:16Z</time>
      </trkpt>
      <trkpt lat="45.74812" lon="5.63579">
        <ele>365.99033238372</ele>
        <time>2015-04-26T14:48:21Z</time>
      </trkpt>
      <trkpt lat="45.74806" lon="5.6358">
        <ele>365.08473251125</ele>
        <time>2015-04-26T14:48:26Z</time>
      </trkpt>
      <trkpt lat="45.74798" lon="5.63583">
        <ele>365.08473251125</ele>
        <time>2015-04-26T14:48:31Z</time>
      </trkpt>
      <trkpt lat="45.74791" lon="5.63582">
        <ele>363.8043078595</ele>
        <time>2015-04-26T14:48:36Z</time>
      </trkpt>
      <trkpt lat="45.74782" lon="5.63583">
        <ele>362.57054723409</ele>
        <time>2015-04-26T14:48:41Z</time>
      </trkpt>
      <trkpt lat="45.74773" lon="5.63587">
        <ele>360.85153704391</ele>
        <time>2015-04-26T14:48:46Z</time>
      </trkpt>
      <trkpt lat="45.74767" lon="5.6359">
        <ele>360.85153704391</ele>
        <time>2015-04-26T14:48:51Z</time>
      </trkpt>
      <trkpt lat="45.74762" lon="5.63591">
        <ele>359.48160904219</ele>
        <time>2015-04-26T14:48:56Z</time>
      </trkpt>
      <trkpt lat="45.74756" lon="5.63592">
        <ele>359.48160904219</ele>
        <time>2015-04-26T14:49:01Z</time>
      </trkpt>
      <trkpt lat="45.74742" lon="5.63592">
        <ele>357.82050875628</ele>
        <time>2015-04-26T14:49:06Z</time>
      </trkpt>
      <trkpt lat="45.74717" lon="5.63588">
        <ele>356.6304344372</ele>
        <time>2015-04-26T14:49:11Z</time>
      </trkpt>
      <trkpt lat="45.74693" lon="5.63578">
        <ele>355.78037383617</ele>
        <time>2015-04-26T14:49:16Z</time>
      </trkpt>
      <trkpt lat="45.74672" lon="5.63571">
        <ele>354.9173437714</ele>
        <time>2015-04-26T14:49:21Z</time>
      </trkpt>
      <trkpt lat="45.74652" lon="5.63562">
        <ele>353.82954518197</ele>
        <time>2015-04-26T14:49:26Z</time>
      </trkpt>
      <trkpt lat="45.74641" lon="5.63558">
        <ele>352.71039112501</ele>
        <time>2015-04-26T14:49:31Z</time>
      </trkpt>
      <trkpt lat="45.74633" lon="5.63558">
        <ele>352.71039112501</ele>
        <time>2015-04-26T14:49:36Z</time>
      </trkpt>
      <trkpt lat="45.74626" lon="5.63558">
        <ele>352.44523815526</ele>
        <time>2015-04-26T14:49:41Z</time>
      </trkpt>
      <trkpt lat="45.74621" lon="5.63559">
        <ele>352.44523815526</ele>
        <time>2015-04-26T14:49:46Z</time>
      </trkpt>
      <trkpt lat="45.74614" lon="5.63563">
        <ele>352.97284862408</ele>
        <time>2015-04-26T14:49:51Z</time>
      </trkpt>
      <trkpt lat="45.74608" lon="5.63567">
        <ele>352.97284862408</ele>
        <time>2015-04-26T14:49:56Z</time>
      </trkpt>
      <trkpt lat="45.74602" lon="5.63571">
        <ele>353.57126698622</ele>
        <time>2015-04-26T14:50:01Z</time>
      </trkpt>
      <trkpt lat="45.746" lon="5.63572">
        <ele>353.57126698622</ele>
        <time>2015-04-26T14:50:06Z</time>
      </trkpt>
      <trkpt lat="45.74598" lon="5.63573">
        <ele>353.57126698622</ele>
        <time>2015-04-26T14:50:11Z</time>
      </trkpt>
      <trkpt lat="45.74595" lon="5.63575">
        <ele>353.57126698622</ele>
        <time>2015-04-26T14:50:16Z</time>
      </trkpt>
      <trkpt lat="45.74591" lon="5.63575">
        <ele>354.06127521911</ele>
        <time>2015-04-26T14:50:21Z</time>
      </trkpt>
      <trkpt lat="45.74581" lon="5.63578">
        <ele>354.40675567825</ele>
        <time>2015-04-26T14:50:26Z</time>
      </trkpt>
      <trkpt lat="45.74572" lon="5.63579">
        <ele>354.40675567825</ele>
        <time>2015-04-26T14:50:31Z</time>
      </trkpt>
      <trkpt lat="45.74565" lon="5.63581">
        <ele>355.03574417734</ele>
        <time>2015-04-26T14:50:36Z</time>
      </trkpt>
      <trkpt lat="45.74558" lon="5.6358">
        <ele>355.03574417734</ele>
        <time>2015-04-26T14:50:41Z</time>
      </trkpt>
      <trkpt lat="45.74553" lon="5.63579">
        <ele>355.62342881655</ele>
        <time>2015-04-26T14:50:46Z</time>
      </trkpt>
      <trkpt lat="45.74547" lon="5.63578">
        <ele>355.62342881655</ele>
        <time>2015-04-26T14:50:51Z</time>
      </trkpt>
      <trkpt lat="45.74542" lon="5.63576">
        <ele>356.21479483954</ele>
        <time>2015-04-26T14:50:56Z</time>
      </trkpt>
      <trkpt lat="45.74535" lon="5.63572">
        <ele>356.21479483954</ele>
        <time>2015-04-26T14:51:01Z</time>
      </trkpt>
      <trkpt lat="45.74527" lon="5.6357">
        <ele>356.88029607236</ele>
        <time>2015-04-26T14:51:06Z</time>
      </trkpt>
      <trkpt lat="45.74518" lon="5.63569">
        <ele>357.84349419465</ele>
        <time>2015-04-26T14:51:11Z</time>
      </trkpt>
      <trkpt lat="45.74509" lon="5.63569">
        <ele>358.63334707942</ele>
        <time>2015-04-26T14:51:16Z</time>
      </trkpt>
      <trkpt lat="45.74502" lon="5.63568">
        <ele>358.63334707942</ele>
        <time>2015-04-26T14:51:21Z</time>
      </trkpt>
      <trkpt lat="45.74494" lon="5.6357">
        <ele>359.20298515051</ele>
        <time>2015-04-26T14:51:26Z</time>
      </trkpt>
      <trkpt lat="45.74486" lon="5.63571">
        <ele>359.20298515051</ele>
        <time>2015-04-26T14:51:31Z</time>
      </trkpt>
      <trkpt lat="45.74478" lon="5.63573">
        <ele>359.63928974181</ele>
        <time>2015-04-26T14:51:36Z</time>
      </trkpt>
      <trkpt lat="45.74472" lon="5.6358">
        <ele>359.63928974181</ele>
        <time>2015-04-26T14:51:41Z</time>
      </trkpt>
      <trkpt lat="45.74466" lon="5.63592">
        <ele>360.57075275797</ele>
        <time>2015-04-26T14:51:46Z</time>
      </trkpt>
      <trkpt lat="45.7446" lon="5.63602">
        <ele>360.57075275797</ele>
        <time>2015-04-26T14:51:51Z</time>
      </trkpt>
      <trkpt lat="45.74453" lon="5.63609">
        <ele>361.71364362831</ele>
        <time>2015-04-26T14:51:56Z</time>
      </trkpt>
      <trkpt lat="45.74448" lon="5.63617">
        <ele>361.71364362831</ele>
        <time>2015-04-26T14:52:01Z</time>
      </trkpt>
      <trkpt lat="45.74442" lon="5.63621">
        <ele>362.19922170527</ele>
        <time>2015-04-26T14:52:06Z</time>
      </trkpt>
      <trkpt lat="45.74434" lon="5.63622">
        <ele>362.19922170527</ele>
        <time>2015-04-26T14:52:11Z</time>
      </trkpt>
      <trkpt lat="45.74427" lon="5.63625">
        <ele>362.7808204772</ele>
        <time>2015-04-26T14:52:16Z</time>
      </trkpt>
      <trkpt lat="45.7442" lon="5.63628">
        <ele>362.7808204772</ele>
        <time>2015-04-26T14:52:21Z</time>
      </trkpt>
      <trkpt lat="45.74414" lon="5.63629">
        <ele>363.89678244999</ele>
        <time>2015-04-26T14:52:26Z</time>
      </trkpt>
      <trkpt lat="45.74408" lon="5.63626">
        <ele>363.89678244999</ele>
        <time>2015-04-26T14:52:31Z</time>
      </trkpt>
      <trkpt lat="45.74402" lon="5.63621">
        <ele>364.2944938869</ele>
        <time>2015-04-26T14:52:36Z</time>
      </trkpt>
      <trkpt lat="45.74394" lon="5.63618">
        <ele>364.2944938869</ele>
        <time>2015-04-26T14:52:41Z</time>
      </trkpt>
      <trkpt lat="45.74385" lon="5.63618">
        <ele>364.47267462987</ele>
        <time>2015-04-26T14:52:46Z</time>
      </trkpt>
      <trkpt lat="45.74377" lon="5.63614">
        <ele>364.47267462987</ele>
        <time>2015-04-26T14:52:51Z</time>
      </trkpt>
      <trkpt lat="45.74374" lon="5.63612">
        <ele>365.75871917622</ele>
        <time>2015-04-26T14:52:56Z</time>
      </trkpt>
      <trkpt lat="45.74368" lon="5.63612">
        <ele>365.75871917622</ele>
        <time>2015-04-26T14:53:01Z</time>
      </trkpt>
      <trkpt lat="45.7436" lon="5.63611">
        <ele>367.33305739407</ele>
        <time>2015-04-26T14:53:06Z</time>
      </trkpt>
      <trkpt lat="45.74352" lon="5.63612">
        <ele>367.33305739407</ele>
        <time>2015-04-26T14:53:11Z</time>
      </trkpt>
      <trkpt lat="45.74343" lon="5.63611">
        <ele>368.47878440747</ele>
        <time>2015-04-26T14:53:16Z</time>
      </trkpt>
      <trkpt lat="45.74335" lon="5.6361">
        <ele>368.47878440747</ele>
        <time>2015-04-26T14:53:21Z</time>
      </trkpt>
      <trkpt lat="45.74328" lon="5.63608">
        <ele>369.77225852075</ele>
        <time>2015-04-26T14:53:26Z</time>
      </trkpt>
      <trkpt lat="45.74321" lon="5.63606">
        <ele>369.77225852075</ele>
        <time>2015-04-26T14:53:31Z</time>
      </trkpt>
      <trkpt lat="45.74315" lon="5.63606">
        <ele>371.93447867294</ele>
        <time>2015-04-26T14:53:36Z</time>
      </trkpt>
      <trkpt lat="45.74306" lon="5.63606">
        <ele>371.93447867294</ele>
        <time>2015-04-26T14:53:41Z</time>
      </trkpt>
      <trkpt lat="45.7429" lon="5.6361">
        <ele>374.14675557368</ele>
        <time>2015-04-26T14:53:46Z</time>
      </trkpt>
      <trkpt lat="45.74277" lon="5.63613">
        <ele>375.95309996058</ele>
        <time>2015-04-26T14:53:51Z</time>
      </trkpt>
      <trkpt lat="45.74269" lon="5.63614">
        <ele>375.95309996058</ele>
        <time>2015-04-26T14:53:56Z</time>
      </trkpt>
      <trkpt lat="45.74262" lon="5.63615">
        <ele>377.36456659005</ele>
        <time>2015-04-26T14:54:01Z</time>
      </trkpt>
      <trkpt lat="45.74253" lon="5.63616">
        <ele>378.14759839917</ele>
        <time>2015-04-26T14:54:06Z</time>
      </trkpt>
      <trkpt lat="45.74242" lon="5.63618">
        <ele>378.82260978848</ele>
        <time>2015-04-26T14:54:11Z</time>
      </trkpt>
      <trkpt lat="45.74234" lon="5.6362">
        <ele>378.82260978848</ele>
        <time>2015-04-26T14:54:16Z</time>
      </trkpt>
      <trkpt lat="45.74218" lon="5.63623">
        <ele>379.06515001577</ele>
        <time>2015-04-26T14:54:21Z</time>
      </trkpt>
      <trkpt lat="45.74204" lon="5.63625">
        <ele>379.51261846029</ele>
        <time>2015-04-26T14:54:26Z</time>
      </trkpt>
      <trkpt lat="45.74188" lon="5.63628">
        <ele>379.65984661443</ele>
        <time>2015-04-26T14:54:31Z</time>
      </trkpt>
      <trkpt lat="45.74155" lon="5.63631">
        <ele>380.3222764209</ele>
        <time>2015-04-26T14:54:36Z</time>
      </trkpt>
      <trkpt lat="45.74138" lon="5.63634">
        <ele>380.92824391379</ele>
        <time>2015-04-26T14:54:41Z</time>
      </trkpt>
      <trkpt lat="45.7412" lon="5.63638">
        <ele>381.00594063053</ele>
        <time>2015-04-26T14:54:46Z</time>
      </trkpt>
      <trkpt lat="45.74106" lon="5.63635">
        <ele>381.05647449183</ele>
        <time>2015-04-26T14:54:51Z</time>
      </trkpt>
      <trkpt lat="45.74099" lon="5.63635">
        <ele>381.05647449183</ele>
        <time>2015-04-26T14:54:56Z</time>
      </trkpt>
      <trkpt lat="45.74089" lon="5.63636">
        <ele>381.65955574159</ele>
        <time>2015-04-26T14:55:01Z</time>
      </trkpt>
      <trkpt lat="45.74085" lon="5.63636">
        <ele>381.65955574159</ele>
        <time>2015-04-26T14:55:06Z</time>
      </trkpt>
      <trkpt lat="45.74078" lon="5.63637">
        <ele>382.41408034093</ele>
        <time>2015-04-26T14:55:11Z</time>
      </trkpt>
      <trkpt lat="45.74073" lon="5.63639">
        <ele>382.41408034093</ele>
        <time>2015-04-26T14:55:16Z</time>
      </trkpt>
      <trkpt lat="45.74068" lon="5.63639">
        <ele>382.24187752618</ele>
        <time>2015-04-26T14:55:21Z</time>
      </trkpt>
      <trkpt lat="45.74061" lon="5.6364">
        <ele>382.24187752618</ele>
        <time>2015-04-26T14:55:26Z</time>
      </trkpt>
      <trkpt lat="45.74055" lon="5.63638">
        <ele>381.74624429932</ele>
        <time>2015-04-26T14:55:31Z</time>
      </trkpt>
      <trkpt lat="45.74049" lon="5.63638">
        <ele>381.74624429932</ele>
        <time>2015-04-26T14:55:36Z</time>
      </trkpt>
      <trkpt lat="45.74041" lon="5.63638">
        <ele>381.18445921869</ele>
        <time>2015-04-26T14:55:41Z</time>
      </trkpt>
      <trkpt lat="45.74034" lon="5.63637">
        <ele>381.18445921869</ele>
        <time>2015-04-26T14:55:46Z</time>
      </trkpt>
      <trkpt lat="45.74028" lon="5.63638">
        <ele>380.18983605621</ele>
        <time>2015-04-26T14:55:51Z</time>
      </trkpt>
      <trkpt lat="45.74025" lon="5.63643">
        <ele>380.18983605621</ele>
        <time>2015-04-26T14:55:56Z</time>
      </trkpt>
      <trkpt lat="45.74025" lon="5.63649">
        <ele>380.18983605621</ele>
        <time>2015-04-26T14:56:01Z</time>
      </trkpt>
      <trkpt lat="45.74021" lon="5.63655">
        <ele>377.9194527354</ele>
        <time>2015-04-26T14:56:06Z</time>
      </trkpt>
      <trkpt lat="45.74018" lon="5.63673">
        <ele>375.97370810719</ele>
        <time>2015-04-26T14:56:11Z</time>
      </trkpt>
      <trkpt lat="45.74015" lon="5.63695">
        <ele>374.66719670663</ele>
        <time>2015-04-26T14:56:16Z</time>
      </trkpt>
      <trkpt lat="45.74013" lon="5.63706">
        <ele>374.66719670663</ele>
        <time>2015-04-26T14:56:21Z</time>
      </trkpt>
      <trkpt lat="45.74011" lon="5.63717">
        <ele>373.46813130534</ele>
        <time>2015-04-26T14:56:26Z</time>
      </trkpt>
      <trkpt lat="45.74011" lon="5.63726">
        <ele>373.46813130534</ele>
        <time>2015-04-26T14:56:31Z</time>
      </trkpt>
      <trkpt lat="45.74011" lon="5.63734">
        <ele>372.11400627895</ele>
        <time>2015-04-26T14:56:36Z</time>
      </trkpt>
      <trkpt lat="45.7401" lon="5.63743">
        <ele>372.11400627895</ele>
        <time>2015-04-26T14:56:41Z</time>
      </trkpt>
      <trkpt lat="45.74011" lon="5.63752">
        <ele>371.11134190772</ele>
        <time>2015-04-26T14:56:46Z</time>
      </trkpt>
      <trkpt lat="45.74014" lon="5.63758">
        <ele>371.11134190772</ele>
        <time>2015-04-26T14:56:51Z</time>
      </trkpt>
      <trkpt lat="45.74017" lon="5.63766">
        <ele>370.33752905049</ele>
        <time>2015-04-26T14:56:56Z</time>
      </trkpt>
      <trkpt lat="45.74014" lon="5.6378">
        <ele>370.00969421272</ele>
        <time>2015-04-26T14:57:01Z</time>
      </trkpt>
      <trkpt lat="45.74006" lon="5.63792">
        <ele>370.57266494119</ele>
        <time>2015-04-26T14:57:06Z</time>
      </trkpt>
      <trkpt lat="45.74001" lon="5.63806">
        <ele>371.42722996767</ele>
        <time>2015-04-26T14:57:11Z</time>
      </trkpt>
      <trkpt lat="45.74" lon="5.6382">
        <ele>372.6225657898</ele>
        <time>2015-04-26T14:57:16Z</time>
      </trkpt>
      <trkpt lat="45.73998" lon="5.63831">
        <ele>372.6225657898</ele>
        <time>2015-04-26T14:57:21Z</time>
      </trkpt>
      <trkpt lat="45.73999" lon="5.63835">
        <ele>374.26085615782</ele>
        <time>2015-04-26T14:57:26Z</time>
      </trkpt>
      <trkpt lat="45.74" lon="5.63836">
        <ele>374.26085615782</ele>
        <time>2015-04-26T14:57:31Z</time>
      </trkpt>
      <trkpt lat="45.74001" lon="5.63839">
        <ele>374.26085615782</ele>
        <time>2015-04-26T14:57:36Z</time>
      </trkpt>
      <trkpt lat="45.74001" lon="5.63841">
        <ele>374.26085615782</ele>
        <time>2015-04-26T14:57:41Z</time>
      </trkpt>
      <trkpt lat="45.74002" lon="5.63846">
        <ele>374.26085615782</ele>
        <time>2015-04-26T14:57:46Z</time>
      </trkpt>
      <trkpt lat="45.74005" lon="5.63851">
        <ele>375.02318870182</ele>
        <time>2015-04-26T14:57:51Z</time>
      </trkpt>
      <trkpt lat="45.74001" lon="5.63858">
        <ele>375.02318870182</ele>
        <time>2015-04-26T14:57:56Z</time>
      </trkpt>
      <trkpt lat="45.73993" lon="5.63858">
        <ele>375.30399262061</ele>
        <time>2015-04-26T14:58:01Z</time>
      </trkpt>
      <trkpt lat="45.73985" lon="5.63861">
        <ele>375.30399262061</ele>
        <time>2015-04-26T14:58:06Z</time>
      </trkpt>
      <trkpt lat="45.73981" lon="5.63862">
        <ele>375.36915648923</ele>
        <time>2015-04-26T14:58:11Z</time>
      </trkpt>
      <trkpt lat="45.73976" lon="5.63865">
        <ele>375.36915648923</ele>
        <time>2015-04-26T14:58:16Z</time>
      </trkpt>
      <trkpt lat="45.73971" lon="5.63869">
        <ele>375.33590778644</ele>
        <time>2015-04-26T14:58:21Z</time>
      </trkpt>
      <trkpt lat="45.73964" lon="5.6387">
        <ele>375.33590778644</ele>
        <time>2015-04-26T14:58:26Z</time>
      </trkpt>
      <trkpt lat="45.73958" lon="5.63871">
        <ele>374.89518367575</ele>
        <time>2015-04-26T14:58:31Z</time>
      </trkpt>
      <trkpt lat="45.73952" lon="5.6387">
        <ele>374.89518367575</ele>
        <time>2015-04-26T14:58:36Z</time>
      </trkpt>
      <trkpt lat="45.73945" lon="5.63867">
        <ele>374.71286915762</ele>
        <time>2015-04-26T14:58:41Z</time>
      </trkpt>
      <trkpt lat="45.73938" lon="5.63865">
        <ele>374.71286915762</ele>
        <time>2015-04-26T14:58:46Z</time>
      </trkpt>
      <trkpt lat="45.73935" lon="5.63863">
        <ele>374.59815299455</ele>
        <time>2015-04-26T14:58:51Z</time>
      </trkpt>
      <trkpt lat="45.73929" lon="5.63861">
        <ele>374.59815299455</ele>
        <time>2015-04-26T14:58:56Z</time>
      </trkpt>
      <trkpt lat="45.7392" lon="5.63858">
        <ele>374.66223966062</ele>
        <time>2015-04-26T14:59:01Z</time>
      </trkpt>
      <trkpt lat="45.73912" lon="5.63856">
        <ele>374.66223966062</ele>
        <time>2015-04-26T14:59:06Z</time>
      </trkpt>
      <trkpt lat="45.73903" lon="5.63856">
        <ele>374.71940669432</ele>
        <time>2015-04-26T14:59:11Z</time>
      </trkpt>
      <trkpt lat="45.73896" lon="5.63859">
        <ele>374.71940669432</ele>
        <time>2015-04-26T14:59:16Z</time>
      </trkpt>
      <trkpt lat="45.73889" lon="5.63859">
        <ele>374.55432721314</ele>
        <time>2015-04-26T14:59:21Z</time>
      </trkpt>
      <trkpt lat="45.7388" lon="5.63854">
        <ele>374.44364963675</ele>
        <time>2015-04-26T14:59:26Z</time>
      </trkpt>
      <trkpt lat="45.73853" lon="5.63836">
        <ele>374.47058201224</ele>
        <time>2015-04-26T14:59:31Z</time>
      </trkpt>
      <trkpt lat="45.73833" lon="5.63826">
        <ele>374.4956359997</ele>
        <time>2015-04-26T14:59:36Z</time>
      </trkpt>
      <trkpt lat="45.7382" lon="5.6382">
        <ele>374.879523531</ele>
        <time>2015-04-26T14:59:41Z</time>
      </trkpt>
      <trkpt lat="45.73805" lon="5.63806">
        <ele>375.22045779167</ele>
        <time>2015-04-26T14:59:46Z</time>
      </trkpt>
      <trkpt lat="45.73788" lon="5.63792">
        <ele>375.76594137829</ele>
        <time>2015-04-26T14:59:51Z</time>
      </trkpt>
      <trkpt lat="45.73773" lon="5.6378">
        <ele>376.70146894254</ele>
        <time>2015-04-26T14:59:56Z</time>
      </trkpt>
      <trkpt lat="45.73762" lon="5.63764">
        <ele>377.73664547051</ele>
        <time>2015-04-26T15:00:01Z</time>
      </trkpt>
      <trkpt lat="45.73746" lon="5.63751">
        <ele>378.6021217729</ele>
        <time>2015-04-26T15:00:06Z</time>
      </trkpt>
      <trkpt lat="45.73728" lon="5.63746">
        <ele>380.12964606851</ele>
        <time>2015-04-26T15:00:11Z</time>
      </trkpt>
      <trkpt lat="45.7372" lon="5.63739">
        <ele>380.94076222069</ele>
        <time>2015-04-26T15:00:16Z</time>
      </trkpt>
      <trkpt lat="45.73707" lon="5.63728">
        <ele>381.51845645514</ele>
        <time>2015-04-26T15:00:21Z</time>
      </trkpt>
      <trkpt lat="45.73692" lon="5.63716">
        <ele>381.50388773674</ele>
        <time>2015-04-26T15:00:26Z</time>
      </trkpt>
      <trkpt lat="45.73677" lon="5.63705">
        <ele>381.21475917605</ele>
        <time>2015-04-26T15:00:31Z</time>
      </trkpt>
      <trkpt lat="45.73664" lon="5.63693">
        <ele>381.00387119838</ele>
        <time>2015-04-26T15:00:36Z</time>
      </trkpt>
      <trkpt lat="45.73659" lon="5.63689">
        <ele>381.00387119838</ele>
        <time>2015-04-26T15:00:41Z</time>
      </trkpt>
      <trkpt lat="45.73653" lon="5.63687">
        <ele>380.95291724805</ele>
        <time>2015-04-26T15:00:46Z</time>
      </trkpt>
      <trkpt lat="45.73647" lon="5.63685">
        <ele>380.95291724805</ele>
        <time>2015-04-26T15:00:51Z</time>
      </trkpt>
      <trkpt lat="45.73641" lon="5.63684">
        <ele>380.80569938878</ele>
        <time>2015-04-26T15:00:56Z</time>
      </trkpt>
      <trkpt lat="45.73634" lon="5.63683">
        <ele>380.80569938878</ele>
        <time>2015-04-26T15:01:01Z</time>
      </trkpt>
      <trkpt lat="45.73627" lon="5.63681">
        <ele>380.55569803872</ele>
        <time>2015-04-26T15:01:06Z</time>
      </trkpt>
      <trkpt lat="45.73619" lon="5.63679">
        <ele>380.55569803872</ele>
        <time>2015-04-26T15:01:11Z</time>
      </trkpt>
      <trkpt lat="45.73611" lon="5.63676">
        <ele>380.37010120267</ele>
        <time>2015-04-26T15:01:16Z</time>
      </trkpt>
      <trkpt lat="45.73605" lon="5.63668">
        <ele>380.37010120267</ele>
        <time>2015-04-26T15:01:21Z</time>
      </trkpt>
      <trkpt lat="45.73602" lon="5.6366">
        <ele>379.97130450363</ele>
        <time>2015-04-26T15:01:26Z</time>
      </trkpt>
      <trkpt lat="45.73602" lon="5.6365">
        <ele>379.97130450363</ele>
        <time>2015-04-26T15:01:31Z</time>
      </trkpt>
      <trkpt lat="45.73602" lon="5.63643">
        <ele>378.88652586415</ele>
        <time>2015-04-26T15:01:36Z</time>
      </trkpt>
      <trkpt lat="45.73604" lon="5.63637">
        <ele>378.88652586415</ele>
        <time>2015-04-26T15:01:41Z</time>
      </trkpt>
      <trkpt lat="45.73607" lon="5.6363">
        <ele>378.16397583319</ele>
        <time>2015-04-26T15:01:46Z</time>
      </trkpt>
      <trkpt lat="45.73611" lon="5.63625">
        <ele>378.16397583319</ele>
        <time>2015-04-26T15:01:51Z</time>
      </trkpt>
      <trkpt lat="45.73615" lon="5.63621">
        <ele>377.72182357701</ele>
        <time>2015-04-26T15:01:56Z</time>
      </trkpt>
      <trkpt lat="45.73618" lon="5.63617">
        <ele>377.72182357701</ele>
        <time>2015-04-26T15:02:01Z</time>
      </trkpt>
      <trkpt lat="45.73621" lon="5.63612">
        <ele>377.72182357701</ele>
        <time>2015-04-26T15:02:06Z</time>
      </trkpt>
      <trkpt lat="45.73625" lon="5.63611">
        <ele>377.5987338421</ele>
        <time>2015-04-26T15:02:11Z</time>
      </trkpt>
      <trkpt lat="45.7363" lon="5.63606">
        <ele>377.5987338421</ele>
        <time>2015-04-26T15:02:16Z</time>
      </trkpt>
      <trkpt lat="45.73633" lon="5.63602">
        <ele>377.4693361209</ele>
        <time>2015-04-26T15:02:21Z</time>
      </trkpt>
      <trkpt lat="45.73638" lon="5.63599">
        <ele>377.4693361209</ele>
        <time>2015-04-26T15:02:26Z</time>
      </trkpt>
      <trkpt lat="45.73643" lon="5.63596">
        <ele>377.36361095322</ele>
        <time>2015-04-26T15:02:31Z</time>
      </trkpt>
      <trkpt lat="45.73646" lon="5.63595">
        <ele>377.36361095322</ele>
        <time>2015-04-26T15:02:36Z</time>
      </trkpt>
      <trkpt lat="45.73649" lon="5.63591">
        <ele>377.36361095322</ele>
        <time>2015-04-26T15:02:41Z</time>
      </trkpt>
      <trkpt lat="45.73654" lon="5.63585">
        <ele>375.98342068904</ele>
        <time>2015-04-26T15:02:46Z</time>
      </trkpt>
      <trkpt lat="45.73659" lon="5.63579">
        <ele>375.98342068904</ele>
        <time>2015-04-26T15:02:51Z</time>
      </trkpt>
      <trkpt lat="45.73666" lon="5.63571">
        <ele>374.26237755064</ele>
        <time>2015-04-26T15:02:56Z</time>
      </trkpt>
      <trkpt lat="45.73668" lon="5.63555">
        <ele>372.5332179591</ele>
        <time>2015-04-26T15:03:01Z</time>
      </trkpt>
      <trkpt lat="45.73666" lon="5.63532">
        <ele>370.97451108311</ele>
        <time>2015-04-26T15:03:06Z</time>
      </trkpt>
      <trkpt lat="45.73666" lon="5.63518">
        <ele>369.44853896786</ele>
        <time>2015-04-26T15:03:11Z</time>
      </trkpt>
      <trkpt lat="45.73665" lon="5.63511">
        <ele>369.44853896786</ele>
        <time>2015-04-26T15:03:16Z</time>
      </trkpt>
      <trkpt lat="45.73664" lon="5.63504">
        <ele>368.28869728852</ele>
        <time>2015-04-26T15:03:21Z</time>
      </trkpt>
      <trkpt lat="45.73663" lon="5.63495">
        <ele>368.28869728852</ele>
        <time>2015-04-26T15:03:26Z</time>
      </trkpt>
      <trkpt lat="45.73663" lon="5.63487">
        <ele>367.19752257797</ele>
        <time>2015-04-26T15:03:31Z</time>
      </trkpt>
      <trkpt lat="45.73664" lon="5.63478">
        <ele>367.19752257797</ele>
        <time>2015-04-26T15:03:36Z</time>
      </trkpt>
      <trkpt lat="45.73665" lon="5.63471">
        <ele>365.95677512131</ele>
        <time>2015-04-26T15:03:41Z</time>
      </trkpt>
      <trkpt lat="45.73664" lon="5.63464">
        <ele>365.95677512131</ele>
        <time>2015-04-26T15:03:46Z</time>
      </trkpt>
      <trkpt lat="45.73665" lon="5.63457">
        <ele>364.23488198731</ele>
        <time>2015-04-26T15:03:51Z</time>
      </trkpt>
      <trkpt lat="45.73666" lon="5.63448">
        <ele>364.23488198731</ele>
        <time>2015-04-26T15:03:56Z</time>
      </trkpt>
      <trkpt lat="45.73667" lon="5.63438">
        <ele>362.74907768796</ele>
        <time>2015-04-26T15:04:01Z</time>
      </trkpt>
      <trkpt lat="45.73665" lon="5.6343">
        <ele>362.74907768796</ele>
        <time>2015-04-26T15:04:06Z</time>
      </trkpt>
      <trkpt lat="45.73654" lon="5.63413">
        <ele>361.52906488181</ele>
        <time>2015-04-26T15:04:11Z</time>
      </trkpt>
      <trkpt lat="45.7364" lon="5.63403">
        <ele>360.93297885598</ele>
        <time>2015-04-26T15:04:16Z</time>
      </trkpt>
      <trkpt lat="45.73631" lon="5.63399">
        <ele>360.45495514033</ele>
        <time>2015-04-26T15:04:21Z</time>
      </trkpt>
      <trkpt lat="45.73624" lon="5.63397">
        <ele>360.45495514033</ele>
        <time>2015-04-26T15:04:26Z</time>
      </trkpt>
      <trkpt lat="45.73616" lon="5.63397">
        <ele>360.28877604506</ele>
        <time>2015-04-26T15:04:31Z</time>
      </trkpt>
      <trkpt lat="45.73607" lon="5.63395">
        <ele>360.28877604506</ele>
        <time>2015-04-26T15:04:36Z</time>
      </trkpt>
      <trkpt lat="45.73598" lon="5.63391">
        <ele>360.82919277559</ele>
        <time>2015-04-26T15:04:41Z</time>
      </trkpt>
      <trkpt lat="45.73589" lon="5.6339">
        <ele>361.83463061207</ele>
        <time>2015-04-26T15:04:46Z</time>
      </trkpt>
      <trkpt lat="45.73584" lon="5.6339">
        <ele>361.83463061207</ele>
        <time>2015-04-26T15:04:51Z</time>
      </trkpt>
      <trkpt lat="45.73577" lon="5.63389">
        <ele>362.7916668773</ele>
        <time>2015-04-26T15:04:56Z</time>
      </trkpt>
      <trkpt lat="45.73569" lon="5.63388">
        <ele>362.7916668773</ele>
        <time>2015-04-26T15:05:01Z</time>
      </trkpt>
      <trkpt lat="45.7356" lon="5.63387">
        <ele>363.51289891414</ele>
        <time>2015-04-26T15:05:06Z</time>
      </trkpt>
      <trkpt lat="45.73552" lon="5.63385">
        <ele>363.51289891414</ele>
        <time>2015-04-26T15:05:11Z</time>
      </trkpt>
      <trkpt lat="45.73544" lon="5.63382">
        <ele>364.5314573101</ele>
        <time>2015-04-26T15:05:16Z</time>
      </trkpt>
      <trkpt lat="45.73536" lon="5.63378">
        <ele>364.5314573101</ele>
        <time>2015-04-26T15:05:21Z</time>
      </trkpt>
      <trkpt lat="45.73528" lon="5.63374">
        <ele>366.02340573533</ele>
        <time>2015-04-26T15:05:26Z</time>
      </trkpt>
      <trkpt lat="45.73514" lon="5.63368">
        <ele>367.74702498652</ele>
        <time>2015-04-26T15:05:31Z</time>
      </trkpt>
      <trkpt lat="45.73498" lon="5.63363">
        <ele>369.4777076364</ele>
        <time>2015-04-26T15:05:36Z</time>
      </trkpt>
      <trkpt lat="45.73491" lon="5.63366">
        <ele>369.4777076364</ele>
        <time>2015-04-26T15:05:41Z</time>
      </trkpt>
      <trkpt lat="45.73485" lon="5.6337">
        <ele>371.51173657692</ele>
        <time>2015-04-26T15:05:46Z</time>
      </trkpt>
      <trkpt lat="45.73482" lon="5.63372">
        <ele>371.51173657692</ele>
        <time>2015-04-26T15:05:51Z</time>
      </trkpt>
      <trkpt lat="45.73477" lon="5.63376">
        <ele>373.77695068387</ele>
        <time>2015-04-26T15:05:56Z</time>
      </trkpt>
      <trkpt lat="45.73473" lon="5.63382">
        <ele>373.77695068387</ele>
        <time>2015-04-26T15:06:01Z</time>
      </trkpt>
      <trkpt lat="45.73468" lon="5.63389">
        <ele>376.92645395511</ele>
        <time>2015-04-26T15:06:06Z</time>
      </trkpt>
      <trkpt lat="45.73462" lon="5.63392">
        <ele>376.92645395511</ele>
        <time>2015-04-26T15:06:11Z</time>
      </trkpt>
      <trkpt lat="45.73456" lon="5.63393">
        <ele>379.86245693641</ele>
        <time>2015-04-26T15:06:16Z</time>
      </trkpt>
      <trkpt lat="45.7345" lon="5.63397">
        <ele>379.86245693641</ele>
        <time>2015-04-26T15:06:21Z</time>
      </trkpt>
      <trkpt lat="45.73443" lon="5.63402">
        <ele>382.20259528133</ele>
        <time>2015-04-26T15:06:26Z</time>
      </trkpt>
      <trkpt lat="45.73435" lon="5.63405">
        <ele>382.20259528133</ele>
        <time>2015-04-26T15:06:31Z</time>
      </trkpt>
      <trkpt lat="45.73429" lon="5.63408">
        <ele>383.94024189058</ele>
        <time>2015-04-26T15:06:36Z</time>
      </trkpt>
      <trkpt lat="45.73421" lon="5.63411">
        <ele>383.94024189058</ele>
        <time>2015-04-26T15:06:41Z</time>
      </trkpt>
      <trkpt lat="45.73414" lon="5.63412">
        <ele>385.46017071846</ele>
        <time>2015-04-26T15:06:46Z</time>
      </trkpt>
      <trkpt lat="45.73407" lon="5.63413">
        <ele>385.46017071846</ele>
        <time>2015-04-26T15:06:51Z</time>
      </trkpt>
      <trkpt lat="45.73399" lon="5.63415">
        <ele>386.7449445897</ele>
        <time>2015-04-26T15:06:56Z</time>
      </trkpt>
      <trkpt lat="45.73394" lon="5.63416">
        <ele>386.7449445897</ele>
        <time>2015-04-26T15:07:01Z</time>
      </trkpt>
      <trkpt lat="45.73387" lon="5.63415">
        <ele>387.63509216225</ele>
        <time>2015-04-26T15:07:06Z</time>
      </trkpt>
      <trkpt lat="45.73373" lon="5.63426">
        <ele>388.38761223555</ele>
        <time>2015-04-26T15:07:11Z</time>
      </trkpt>
      <trkpt lat="45.73362" lon="5.63447">
        <ele>389.02497945582</ele>
        <time>2015-04-26T15:07:16Z</time>
      </trkpt>
      <trkpt lat="45.73358" lon="5.63453">
        <ele>389.02497945582</ele>
        <time>2015-04-26T15:07:21Z</time>
      </trkpt>
      <trkpt lat="45.73354" lon="5.63458">
        <ele>389.45318323139</ele>
        <time>2015-04-26T15:07:26Z</time>
      </trkpt>
      <trkpt lat="45.73353" lon="5.63466">
        <ele>389.45318323139</ele>
        <time>2015-04-26T15:07:31Z</time>
      </trkpt>
      <trkpt lat="45.73351" lon="5.63472">
        <ele>389.97493235104</ele>
        <time>2015-04-26T15:07:36Z</time>
      </trkpt>
      <trkpt lat="45.73346" lon="5.63477">
        <ele>389.97493235104</ele>
        <time>2015-04-26T15:07:41Z</time>
      </trkpt>
      <trkpt lat="45.73339" lon="5.63479">
        <ele>390.38057886455</ele>
        <time>2015-04-26T15:07:46Z</time>
      </trkpt>
      <trkpt lat="45.73332" lon="5.63481">
        <ele>390.38057886455</ele>
        <time>2015-04-26T15:07:51Z</time>
      </trkpt>
      <trkpt lat="45.73326" lon="5.63482">
        <ele>390.80777083429</ele>
        <time>2015-04-26T15:07:56Z</time>
      </trkpt>
      <trkpt lat="45.73319" lon="5.63483">
        <ele>390.80777083429</ele>
        <time>2015-04-26T15:08:01Z</time>
      </trkpt>
      <trkpt lat="45.73313" lon="5.63485">
        <ele>390.98058003164</ele>
        <time>2015-04-26T15:08:06Z</time>
      </trkpt>
      <trkpt lat="45.73308" lon="5.63489">
        <ele>390.98058003164</ele>
        <time>2015-04-26T15:08:11Z</time>
      </trkpt>
      <trkpt lat="45.73304" lon="5.63493">
        <ele>390.91797190404</ele>
        <time>2015-04-26T15:08:16Z</time>
      </trkpt>
      <trkpt lat="45.73299" lon="5.63498">
        <ele>390.91797190404</ele>
        <time>2015-04-26T15:08:21Z</time>
      </trkpt>
      <trkpt lat="45.73294" lon="5.63504">
        <ele>390.68150316839</ele>
        <time>2015-04-26T15:08:26Z</time>
      </trkpt>
      <trkpt lat="45.73289" lon="5.63511">
        <ele>390.68150316839</ele>
        <time>2015-04-26T15:08:31Z</time>
      </trkpt>
      <trkpt lat="45.73284" lon="5.63516">
        <ele>389.86762087696</ele>
        <time>2015-04-26T15:08:36Z</time>
      </trkpt>
      <trkpt lat="45.73281" lon="5.63519">
        <ele>389.86762087696</ele>
        <time>2015-04-26T15:08:41Z</time>
      </trkpt>
      <trkpt lat="45.73277" lon="5.63522">
        <ele>389.86762087696</ele>
        <time>2015-04-26T15:08:46Z</time>
      </trkpt>
      <trkpt lat="45.73271" lon="5.63526">
        <ele>388.9975942215</ele>
        <time>2015-04-26T15:08:51Z</time>
      </trkpt>
      <trkpt lat="45.73265" lon="5.6353">
        <ele>388.9975942215</ele>
        <time>2015-04-26T15:08:56Z</time>
      </trkpt>
      <trkpt lat="45.73259" lon="5.63533">
        <ele>388.5113802582</ele>
        <time>2015-04-26T15:09:01Z</time>
      </trkpt>
      <trkpt lat="45.73253" lon="5.63534">
        <ele>388.5113802582</ele>
        <time>2015-04-26T15:09:06Z</time>
      </trkpt>
      <trkpt lat="45.73245" lon="5.63538">
        <ele>387.96532751098</ele>
        <time>2015-04-26T15:09:11Z</time>
      </trkpt>
      <trkpt lat="45.73239" lon="5.63542">
        <ele>387.96532751098</ele>
        <time>2015-04-26T15:09:16Z</time>
      </trkpt>
      <trkpt lat="45.73233" lon="5.63545">
        <ele>387.12150653446</ele>
        <time>2015-04-26T15:09:21Z</time>
      </trkpt>
      <trkpt lat="45.73228" lon="5.63547">
        <ele>387.12150653446</ele>
        <time>2015-04-26T15:09:26Z</time>
      </trkpt>
      <trkpt lat="45.73222" lon="5.63553">
        <ele>386.32235376764</ele>
        <time>2015-04-26T15:09:31Z</time>
      </trkpt>
      <trkpt lat="45.73218" lon="5.63555">
        <ele>386.32235376764</ele>
        <time>2015-04-26T15:09:36Z</time>
      </trkpt>
      <trkpt lat="45.73214" lon="5.63556">
        <ele>386.32235376764</ele>
        <time>2015-04-26T15:09:41Z</time>
      </trkpt>
      <trkpt lat="45.73211" lon="5.63557">
        <ele>384.87625385556</ele>
        <time>2015-04-26T15:09:46Z</time>
      </trkpt>
      <trkpt lat="45.73205" lon="5.6356">
        <ele>384.87625385556</ele>
        <time>2015-04-26T15:09:51Z</time>
      </trkpt>
      <trkpt lat="45.73198" lon="5.63562">
        <ele>383.42679566433</ele>
        <time>2015-04-26T15:09:56Z</time>
      </trkpt>
      <trkpt lat="45.7319" lon="5.63564">
        <ele>383.42679566433</ele>
        <time>2015-04-26T15:10:01Z</time>
      </trkpt>
      <trkpt lat="45.73182" lon="5.63564">
        <ele>382.42617050845</ele>
        <time>2015-04-26T15:10:06Z</time>
      </trkpt>
      <trkpt lat="45.73175" lon="5.63566">
        <ele>382.42617050845</ele>
        <time>2015-04-26T15:10:11Z</time>
      </trkpt>
      <trkpt lat="45.73168" lon="5.63568">
        <ele>381.83090763103</ele>
        <time>2015-04-26T15:10:16Z</time>
      </trkpt>
      <trkpt lat="45.73161" lon="5.6357">
        <ele>381.83090763103</ele>
        <time>2015-04-26T15:10:21Z</time>
      </trkpt>
      <trkpt lat="45.73154" lon="5.63571">
        <ele>380.92223006513</ele>
        <time>2015-04-26T15:10:26Z</time>
      </trkpt>
      <trkpt lat="45.73147" lon="5.63572">
        <ele>380.92223006513</ele>
        <time>2015-04-26T15:10:31Z</time>
      </trkpt>
      <trkpt lat="45.73138" lon="5.63574">
        <ele>380.56257224909</ele>
        <time>2015-04-26T15:10:36Z</time>
      </trkpt>
      <trkpt lat="45.73129" lon="5.63575">
        <ele>380.2235997132</ele>
        <time>2015-04-26T15:10:41Z</time>
      </trkpt>
      <trkpt lat="45.73123" lon="5.63574">
        <ele>380.2235997132</ele>
        <time>2015-04-26T15:10:46Z</time>
      </trkpt>
      <trkpt lat="45.73116" lon="5.63575">
        <ele>380.1794653541</ele>
        <time>2015-04-26T15:10:51Z</time>
      </trkpt>
      <trkpt lat="45.73109" lon="5.63577">
        <ele>380.1794653541</ele>
        <time>2015-04-26T15:10:56Z</time>
      </trkpt>
      <trkpt lat="45.73103" lon="5.63579">
        <ele>379.7177540298</ele>
        <time>2015-04-26T15:11:01Z</time>
      </trkpt>
      <trkpt lat="45.73096" lon="5.63581">
        <ele>379.7177540298</ele>
        <time>2015-04-26T15:11:06Z</time>
      </trkpt>
      <trkpt lat="45.73089" lon="5.63583">
        <ele>378.84240835218</ele>
        <time>2015-04-26T15:11:11Z</time>
      </trkpt>
      <trkpt lat="45.73082" lon="5.63586">
        <ele>378.84240835218</ele>
        <time>2015-04-26T15:11:16Z</time>
      </trkpt>
      <trkpt lat="45.73075" lon="5.6359">
        <ele>378.22109272088</ele>
        <time>2015-04-26T15:11:21Z</time>
      </trkpt>
      <trkpt lat="45.73068" lon="5.63592">
        <ele>378.22109272088</ele>
        <time>2015-04-26T15:11:26Z</time>
      </trkpt>
      <trkpt lat="45.73062" lon="5.63597">
        <ele>377.73668332083</ele>
        <time>2015-04-26T15:11:31Z</time>
      </trkpt>
      <trkpt lat="45.73054" lon="5.63599">
        <ele>377.73668332083</ele>
        <time>2015-04-26T15:11:36Z</time>
      </trkpt>
      <trkpt lat="45.73046" lon="5.636">
        <ele>376.87669938254</ele>
        <time>2015-04-26T15:11:41Z</time>
      </trkpt>
      <trkpt lat="45.73037" lon="5.63603">
        <ele>376.87669938254</ele>
        <time>2015-04-26T15:11:46Z</time>
      </trkpt>
      <trkpt lat="45.7303" lon="5.63607">
        <ele>376.23371489119</ele>
        <time>2015-04-26T15:11:51Z</time>
      </trkpt>
      <trkpt lat="45.73022" lon="5.63608">
        <ele>376.23371489119</ele>
        <time>2015-04-26T15:11:56Z</time>
      </trkpt>
      <trkpt lat="45.73015" lon="5.63608">
        <ele>375.0590935112</ele>
        <time>2015-04-26T15:12:01Z</time>
      </trkpt>
      <trkpt lat="45.73009" lon="5.63608">
        <ele>375.0590935112</ele>
        <time>2015-04-26T15:12:06Z</time>
      </trkpt>
      <trkpt lat="45.73008" lon="5.63607">
        <ele>375.0590935112</ele>
        <time>2015-04-26T15:12:11Z</time>
      </trkpt>
      <trkpt lat="45.73004" lon="5.63606">
        <ele>373.69821050864</ele>
        <time>2015-04-26T15:12:16Z</time>
      </trkpt>
      <trkpt lat="45.72998" lon="5.63607">
        <ele>373.69821050864</ele>
        <time>2015-04-26T15:12:21Z</time>
      </trkpt>
      <trkpt lat="45.72989" lon="5.63609">
        <ele>373.22089306545</ele>
        <time>2015-04-26T15:12:26Z</time>
      </trkpt>
      <trkpt lat="45.72982" lon="5.63611">
        <ele>373.22089306545</ele>
        <time>2015-04-26T15:12:31Z</time>
      </trkpt>
      <trkpt lat="45.72974" lon="5.63615">
        <ele>372.95854265833</ele>
        <time>2015-04-26T15:12:36Z</time>
      </trkpt>
      <trkpt lat="45.72969" lon="5.63617">
        <ele>372.95854265833</ele>
        <time>2015-04-26T15:12:41Z</time>
      </trkpt>
      <trkpt lat="45.72962" lon="5.6362">
        <ele>371.0660443405</ele>
        <time>2015-04-26T15:12:46Z</time>
      </trkpt>
      <trkpt lat="45.72954" lon="5.63622">
        <ele>371.0660443405</ele>
        <time>2015-04-26T15:12:51Z</time>
      </trkpt>
      <trkpt lat="45.72948" lon="5.63625">
        <ele>369.84460227258</ele>
        <time>2015-04-26T15:12:56Z</time>
      </trkpt>
      <trkpt lat="45.72941" lon="5.63627">
        <ele>369.84460227258</ele>
        <time>2015-04-26T15:13:01Z</time>
      </trkpt>
      <trkpt lat="45.72934" lon="5.63626">
        <ele>368.45571473635</ele>
        <time>2015-04-26T15:13:06Z</time>
      </trkpt>
      <trkpt lat="45.72929" lon="5.63627">
        <ele>368.45571473635</ele>
        <time>2015-04-26T15:13:11Z</time>
      </trkpt>
      <trkpt lat="45.72923" lon="5.63632">
        <ele>367.70807717734</ele>
        <time>2015-04-26T15:13:16Z</time>
      </trkpt>
      <trkpt lat="45.72917" lon="5.63635">
        <ele>367.70807717734</ele>
        <time>2015-04-26T15:13:21Z</time>
      </trkpt>
      <trkpt lat="45.72911" lon="5.63632">
        <ele>366.9367962685</ele>
        <time>2015-04-26T15:13:26Z</time>
      </trkpt>
      <trkpt lat="45.72905" lon="5.63622">
        <ele>365.52579188037</ele>
        <time>2015-04-26T15:13:31Z</time>
      </trkpt>
      <trkpt lat="45.72897" lon="5.63616">
        <ele>364.03000544117</ele>
        <time>2015-04-26T15:13:36Z</time>
      </trkpt>
      <trkpt lat="45.72889" lon="5.63615">
        <ele>364.03000544117</ele>
        <time>2015-04-26T15:13:41Z</time>
      </trkpt>
      <trkpt lat="45.72883" lon="5.63615">
        <ele>363.28079791834</ele>
        <time>2015-04-26T15:13:46Z</time>
      </trkpt>
      <trkpt lat="45.72877" lon="5.63612">
        <ele>363.28079791834</ele>
        <time>2015-04-26T15:13:51Z</time>
      </trkpt>
      <trkpt lat="45.72871" lon="5.6361">
        <ele>362.86455610574</ele>
        <time>2015-04-26T15:13:56Z</time>
      </trkpt>
      <trkpt lat="45.72865" lon="5.63607">
        <ele>362.86455610574</ele>
        <time>2015-04-26T15:14:01Z</time>
      </trkpt>
      <trkpt lat="45.72859" lon="5.63599">
        <ele>362.28173181178</ele>
        <time>2015-04-26T15:14:06Z</time>
      </trkpt>
      <trkpt lat="45.72852" lon="5.63591">
        <ele>361.51659241786</ele>
        <time>2015-04-26T15:14:11Z</time>
      </trkpt>
      <trkpt lat="45.72846" lon="5.63582">
        <ele>360.84320612809</ele>
        <time>2015-04-26T15:14:16Z</time>
      </trkpt>
      <trkpt lat="45.72842" lon="5.63578">
        <ele>360.84320612809</ele>
        <time>2015-04-26T15:14:21Z</time>
      </trkpt>
      <trkpt lat="45.72837" lon="5.63571">
        <ele>360.08283256706</ele>
        <time>2015-04-26T15:14:26Z</time>
      </trkpt>
      <trkpt lat="45.72833" lon="5.63562">
        <ele>360.08283256706</ele>
        <time>2015-04-26T15:14:31Z</time>
      </trkpt>
      <trkpt lat="45.72826" lon="5.63552">
        <ele>359.60323586944</ele>
        <time>2015-04-26T15:14:36Z</time>
      </trkpt>
      <trkpt lat="45.72819" lon="5.63543">
        <ele>359.52813362116</ele>
        <time>2015-04-26T15:14:41Z</time>
      </trkpt>
      <trkpt lat="45.72814" lon="5.63535">
        <ele>359.52813362116</ele>
        <time>2015-04-26T15:14:46Z</time>
      </trkpt>
      <trkpt lat="45.72809" lon="5.63527">
        <ele>359.82683909062</ele>
        <time>2015-04-26T15:14:51Z</time>
      </trkpt>
      <trkpt lat="45.72803" lon="5.63519">
        <ele>359.82683909062</ele>
        <time>2015-04-26T15:14:56Z</time>
      </trkpt>
      <trkpt lat="45.72796" lon="5.63512">
        <ele>360.35452010725</ele>
        <time>2015-04-26T15:15:01Z</time>
      </trkpt>
      <trkpt lat="45.72789" lon="5.63506">
        <ele>360.35452010725</ele>
        <time>2015-04-26T15:15:06Z</time>
      </trkpt>
      <trkpt lat="45.72781" lon="5.63501">
        <ele>360.99070059688</ele>
        <time>2015-04-26T15:15:11Z</time>
      </trkpt>
      <trkpt lat="45.72774" lon="5.63499">
        <ele>360.99070059688</ele>
        <time>2015-04-26T15:15:16Z</time>
      </trkpt>
      <trkpt lat="45.72767" lon="5.63499">
        <ele>361.34959798058</ele>
        <time>2015-04-26T15:15:21Z</time>
      </trkpt>
      <trkpt lat="45.7276" lon="5.63499">
        <ele>361.34959798058</ele>
        <time>2015-04-26T15:15:26Z</time>
      </trkpt>
      <trkpt lat="45.72746" lon="5.635">
        <ele>361.59331693436</ele>
        <time>2015-04-26T15:15:31Z</time>
      </trkpt>
      <trkpt lat="45.7273" lon="5.63501">
        <ele>361.68501209826</ele>
        <time>2015-04-26T15:15:36Z</time>
      </trkpt>
      <trkpt lat="45.72723" lon="5.63502">
        <ele>361.68501209826</ele>
        <time>2015-04-26T15:15:41Z</time>
      </trkpt>
      <trkpt lat="45.72716" lon="5.63502">
        <ele>361.54772509142</ele>
        <time>2015-04-26T15:15:46Z</time>
      </trkpt>
      <trkpt lat="45.72707" lon="5.63502">
        <ele>361.54772509142</ele>
        <time>2015-04-26T15:15:51Z</time>
      </trkpt>
      <trkpt lat="45.727" lon="5.63502">
        <ele>361.2981307096</ele>
        <time>2015-04-26T15:15:56Z</time>
      </trkpt>
      <trkpt lat="45.72692" lon="5.63501">
        <ele>361.2981307096</ele>
        <time>2015-04-26T15:16:01Z</time>
      </trkpt>
      <trkpt lat="45.72685" lon="5.63503">
        <ele>360.69877777634</ele>
        <time>2015-04-26T15:16:06Z</time>
      </trkpt>
      <trkpt lat="45.72677" lon="5.63504">
        <ele>360.69877777634</ele>
        <time>2015-04-26T15:16:11Z</time>
      </trkpt>
      <trkpt lat="45.72669" lon="5.63503">
        <ele>359.97738237504</ele>
        <time>2015-04-26T15:16:16Z</time>
      </trkpt>
      <trkpt lat="45.72661" lon="5.635">
        <ele>359.97738237504</ele>
        <time>2015-04-26T15:16:21Z</time>
      </trkpt>
      <trkpt lat="45.72654" lon="5.63497">
        <ele>359.43174077244</ele>
        <time>2015-04-26T15:16:26Z</time>
      </trkpt>
      <trkpt lat="45.72648" lon="5.63499">
        <ele>359.43174077244</ele>
        <time>2015-04-26T15:16:31Z</time>
      </trkpt>
      <trkpt lat="45.72641" lon="5.63499">
        <ele>358.77524518007</ele>
        <time>2015-04-26T15:16:36Z</time>
      </trkpt>
      <trkpt lat="45.72633" lon="5.63498">
        <ele>358.77524518007</ele>
        <time>2015-04-26T15:16:41Z</time>
      </trkpt>
      <trkpt lat="45.72624" lon="5.63499">
        <ele>358.18939504643</ele>
        <time>2015-04-26T15:16:46Z</time>
      </trkpt>
      <trkpt lat="45.72616" lon="5.63505">
        <ele>356.81896500623</ele>
        <time>2015-04-26T15:16:51Z</time>
      </trkpt>
      <trkpt lat="45.72609" lon="5.63514">
        <ele>356.81896500623</ele>
        <time>2015-04-26T15:16:56Z</time>
      </trkpt>
      <trkpt lat="45.72599" lon="5.63517">
        <ele>355.51661510884</ele>
        <time>2015-04-26T15:17:01Z</time>
      </trkpt>
      <trkpt lat="45.72591" lon="5.63521">
        <ele>355.51661510884</ele>
        <time>2015-04-26T15:17:06Z</time>
      </trkpt>
      <trkpt lat="45.72583" lon="5.63522">
        <ele>354.39484511862</ele>
        <time>2015-04-26T15:17:11Z</time>
      </trkpt>
      <trkpt lat="45.72574" lon="5.6352">
        <ele>354.39484511862</ele>
        <time>2015-04-26T15:17:16Z</time>
      </trkpt>
      <trkpt lat="45.72568" lon="5.63522">
        <ele>353.182679484</ele>
        <time>2015-04-26T15:17:21Z</time>
      </trkpt>
      <trkpt lat="45.72562" lon="5.63522">
        <ele>353.182679484</ele>
        <time>2015-04-26T15:17:26Z</time>
      </trkpt>
      <trkpt lat="45.72554" lon="5.63521">
        <ele>351.4707583506</ele>
        <time>2015-04-26T15:17:31Z</time>
      </trkpt>
      <trkpt lat="45.72547" lon="5.63523">
        <ele>351.4707583506</ele>
        <time>2015-04-26T15:17:36Z</time>
      </trkpt>
      <trkpt lat="45.72538" lon="5.63524">
        <ele>349.90435771108</ele>
        <time>2015-04-26T15:17:41Z</time>
      </trkpt>
      <trkpt lat="45.72529" lon="5.63525">
        <ele>349.90435771108</ele>
        <time>2015-04-26T15:17:46Z</time>
      </trkpt>
      <trkpt lat="45.72518" lon="5.63528">
        <ele>348.53328921691</ele>
        <time>2015-04-26T15:17:51Z</time>
      </trkpt>
      <trkpt lat="45.72509" lon="5.6353">
        <ele>347.57605404807</ele>
        <time>2015-04-26T15:17:56Z</time>
      </trkpt>
      <trkpt lat="45.72501" lon="5.63531">
        <ele>347.57605404807</ele>
        <time>2015-04-26T15:18:01Z</time>
      </trkpt>
      <trkpt lat="45.72493" lon="5.63534">
        <ele>347.3924246976</ele>
        <time>2015-04-26T15:18:06Z</time>
      </trkpt>
      <trkpt lat="45.72485" lon="5.63533">
        <ele>347.3924246976</ele>
        <time>2015-04-26T15:18:11Z</time>
      </trkpt>
      <trkpt lat="45.72478" lon="5.63539">
        <ele>347.44886959653</ele>
        <time>2015-04-26T15:18:16Z</time>
      </trkpt>
      <trkpt lat="45.72471" lon="5.63542">
        <ele>347.44886959653</ele>
        <time>2015-04-26T15:18:21Z</time>
      </trkpt>
      <trkpt lat="45.72463" lon="5.63544">
        <ele>347.46650903481</ele>
        <time>2015-04-26T15:18:26Z</time>
      </trkpt>
      <trkpt lat="45.72453" lon="5.63544">
        <ele>347.44643043219</ele>
        <time>2015-04-26T15:18:31Z</time>
      </trkpt>
      <trkpt lat="45.72445" lon="5.63547">
        <ele>347.44643043219</ele>
        <time>2015-04-26T15:18:36Z</time>
      </trkpt>
      <trkpt lat="45.72439" lon="5.6355">
        <ele>347.69236005102</ele>
        <time>2015-04-26T15:18:41Z</time>
      </trkpt>
      <trkpt lat="45.72431" lon="5.63551">
        <ele>347.69236005102</ele>
        <time>2015-04-26T15:18:46Z</time>
      </trkpt>
      <trkpt lat="45.72422" lon="5.63551">
        <ele>347.69234163209</ele>
        <time>2015-04-26T15:18:51Z</time>
      </trkpt>
      <trkpt lat="45.72412" lon="5.63553">
        <ele>347.57797705198</ele>
        <time>2015-04-26T15:18:56Z</time>
      </trkpt>
      <trkpt lat="45.72402" lon="5.63553">
        <ele>347.12565338446</ele>
        <time>2015-04-26T15:19:01Z</time>
      </trkpt>
      <trkpt lat="45.72386" lon="5.63552">
        <ele>346.84969113397</ele>
        <time>2015-04-26T15:19:06Z</time>
      </trkpt>
      <trkpt lat="45.72377" lon="5.63554">
        <ele>346.85145193898</ele>
        <time>2015-04-26T15:19:11Z</time>
      </trkpt>
      <trkpt lat="45.72367" lon="5.63556">
        <ele>347.23849391932</ele>
        <time>2015-04-26T15:19:16Z</time>
      </trkpt>
      <trkpt lat="45.72359" lon="5.63553">
        <ele>347.23849391932</ele>
        <time>2015-04-26T15:19:21Z</time>
      </trkpt>
      <trkpt lat="45.72352" lon="5.63551">
        <ele>347.64825243269</ele>
        <time>2015-04-26T15:19:26Z</time>
      </trkpt>
      <trkpt lat="45.72346" lon="5.63551">
        <ele>347.64825243269</ele>
        <time>2015-04-26T15:19:31Z</time>
      </trkpt>
      <trkpt lat="45.72336" lon="5.63551">
        <ele>348.33560986911</ele>
        <time>2015-04-26T15:19:36Z</time>
      </trkpt>
      <trkpt lat="45.72328" lon="5.63555">
        <ele>348.33560986911</ele>
        <time>2015-04-26T15:19:41Z</time>
      </trkpt>
      <trkpt lat="45.72322" lon="5.63559">
        <ele>349.33421972117</ele>
        <time>2015-04-26T15:19:46Z</time>
      </trkpt>
      <trkpt lat="45.72314" lon="5.63563">
        <ele>349.33421972117</ele>
        <time>2015-04-26T15:19:51Z</time>
      </trkpt>
      <trkpt lat="45.72303" lon="5.63566">
        <ele>349.49271480488</ele>
        <time>2015-04-26T15:19:56Z</time>
      </trkpt>
      <trkpt lat="45.72295" lon="5.63571">
        <ele>349.49271480488</ele>
        <time>2015-04-26T15:20:01Z</time>
      </trkpt>
      <trkpt lat="45.72288" lon="5.63579">
        <ele>350.49923108063</ele>
        <time>2015-04-26T15:20:06Z</time>
      </trkpt>
      <trkpt lat="45.72284" lon="5.63587">
        <ele>350.49923108063</ele>
        <time>2015-04-26T15:20:11Z</time>
      </trkpt>
      <trkpt lat="45.72279" lon="5.63593">
        <ele>352.25829109653</ele>
        <time>2015-04-26T15:20:16Z</time>
      </trkpt>
      <trkpt lat="45.72275" lon="5.636">
        <ele>352.25829109653</ele>
        <time>2015-04-26T15:20:21Z</time>
      </trkpt>
      <trkpt lat="45.7227" lon="5.63612">
        <ele>354.11734980018</ele>
        <time>2015-04-26T15:20:26Z</time>
      </trkpt>
      <trkpt lat="45.72267" lon="5.63618">
        <ele>354.11734980018</ele>
        <time>2015-04-26T15:20:31Z</time>
      </trkpt>
      <trkpt lat="45.72263" lon="5.63626">
        <ele>355.80304710472</ele>
        <time>2015-04-26T15:20:36Z</time>
      </trkpt>
      <trkpt lat="45.72258" lon="5.63634">
        <ele>355.80304710472</ele>
        <time>2015-04-26T15:20:41Z</time>
      </trkpt>
      <trkpt lat="45.72254" lon="5.63642">
        <ele>357.81205544853</ele>
        <time>2015-04-26T15:20:46Z</time>
      </trkpt>
      <trkpt lat="45.72249" lon="5.63649">
        <ele>357.81205544853</ele>
        <time>2015-04-26T15:20:51Z</time>
      </trkpt>
      <trkpt lat="45.72244" lon="5.63657">
        <ele>360.22906702373</ele>
        <time>2015-04-26T15:20:56Z</time>
      </trkpt>
      <trkpt lat="45.72241" lon="5.6366">
        <ele>360.22906702373</ele>
        <time>2015-04-26T15:21:01Z</time>
      </trkpt>
      <trkpt lat="45.72235" lon="5.63668">
        <ele>362.33891052243</ele>
        <time>2015-04-26T15:21:06Z</time>
      </trkpt>
      <trkpt lat="45.72228" lon="5.63678">
        <ele>364.22931640354</ele>
        <time>2015-04-26T15:21:11Z</time>
      </trkpt>
      <trkpt lat="45.72224" lon="5.63687">
        <ele>364.22931640354</ele>
        <time>2015-04-26T15:21:16Z</time>
      </trkpt>
      <trkpt lat="45.7222" lon="5.63697">
        <ele>365.69409999722</ele>
        <time>2015-04-26T15:21:21Z</time>
      </trkpt>
      <trkpt lat="45.72217" lon="5.63705">
        <ele>365.69409999722</ele>
        <time>2015-04-26T15:21:26Z</time>
      </trkpt>
      <trkpt lat="45.72213" lon="5.63713">
        <ele>366.94707200354</ele>
        <time>2015-04-26T15:21:31Z</time>
      </trkpt>
      <trkpt lat="45.72208" lon="5.63722">
        <ele>366.94707200354</ele>
        <time>2015-04-26T15:21:36Z</time>
      </trkpt>
      <trkpt lat="45.72204" lon="5.63732">
        <ele>368.40324653835</ele>
        <time>2015-04-26T15:21:41Z</time>
      </trkpt>
      <trkpt lat="45.722" lon="5.63738">
        <ele>368.40324653835</ele>
        <time>2015-04-26T15:21:46Z</time>
      </trkpt>
      <trkpt lat="45.72193" lon="5.63748">
        <ele>369.75499891877</ele>
        <time>2015-04-26T15:21:51Z</time>
      </trkpt>
      <trkpt lat="45.72188" lon="5.63759">
        <ele>371.22213741773</ele>
        <time>2015-04-26T15:21:56Z</time>
      </trkpt>
      <trkpt lat="45.72183" lon="5.63764">
        <ele>371.22213741773</ele>
        <time>2015-04-26T15:22:01Z</time>
      </trkpt>
      <trkpt lat="45.72175" lon="5.63772">
        <ele>372.74875359811</ele>
        <time>2015-04-26T15:22:06Z</time>
      </trkpt>
      <trkpt lat="45.72166" lon="5.63781">
        <ele>373.66335505612</ele>
        <time>2015-04-26T15:22:11Z</time>
      </trkpt>
      <trkpt lat="45.72158" lon="5.63789">
        <ele>374.45530214574</ele>
        <time>2015-04-26T15:22:16Z</time>
      </trkpt>
      <trkpt lat="45.72149" lon="5.63794">
        <ele>374.38237650573</ele>
        <time>2015-04-26T15:22:21Z</time>
      </trkpt>
      <trkpt lat="45.72134" lon="5.638">
        <ele>374.35908385798</ele>
        <time>2015-04-26T15:22:26Z</time>
      </trkpt>
      <trkpt lat="45.72112" lon="5.63802">
        <ele>374.28160912888</ele>
        <time>2015-04-26T15:22:31Z</time>
      </trkpt>
      <trkpt lat="45.72082" lon="5.63816">
        <ele>373.44876710744</ele>
        <time>2015-04-26T15:22:36Z</time>
      </trkpt>
      <trkpt lat="45.72062" lon="5.63827">
        <ele>372.38040465676</ele>
        <time>2015-04-26T15:22:41Z</time>
      </trkpt>
      <trkpt lat="45.72054" lon="5.63833">
        <ele>371.90479773645</ele>
        <time>2015-04-26T15:22:46Z</time>
      </trkpt>
      <trkpt lat="45.72047" lon="5.63838">
        <ele>371.90479773645</ele>
        <time>2015-04-26T15:22:51Z</time>
      </trkpt>
      <trkpt lat="45.72039" lon="5.63843">
        <ele>371.73577791848</ele>
        <time>2015-04-26T15:22:56Z</time>
      </trkpt>
      <trkpt lat="45.72032" lon="5.63847">
        <ele>371.73577791848</ele>
        <time>2015-04-26T15:23:01Z</time>
      </trkpt>
      <trkpt lat="45.72027" lon="5.6385">
        <ele>372.03973387251</ele>
        <time>2015-04-26T15:23:06Z</time>
      </trkpt>
      <trkpt lat="45.7202" lon="5.63853">
        <ele>372.03973387251</ele>
        <time>2015-04-26T15:23:11Z</time>
      </trkpt>
      <trkpt lat="45.72005" lon="5.63858">
        <ele>371.25463190894</ele>
        <time>2015-04-26T15:23:16Z</time>
      </trkpt>
      <trkpt lat="45.7197" lon="5.63864">
        <ele>369.91060166818</ele>
        <time>2015-04-26T15:23:21Z</time>
      </trkpt>
      <trkpt lat="45.71943" lon="5.63873">
        <ele>368.47160254495</ele>
        <time>2015-04-26T15:23:26Z</time>
      </trkpt>
      <trkpt lat="45.7191" lon="5.63883">
        <ele>367.59836998855</ele>
        <time>2015-04-26T15:23:31Z</time>
      </trkpt>
      <trkpt lat="45.71886" lon="5.63884">
        <ele>366.77744785934</ele>
        <time>2015-04-26T15:23:36Z</time>
      </trkpt>
      <trkpt lat="45.71879" lon="5.63885">
        <ele>366.77744785934</ele>
        <time>2015-04-26T15:23:41Z</time>
      </trkpt>
      <trkpt lat="45.71871" lon="5.63884">
        <ele>366.38319526285</ele>
        <time>2015-04-26T15:23:46Z</time>
      </trkpt>
      <trkpt lat="45.71864" lon="5.63886">
        <ele>366.38319526285</ele>
        <time>2015-04-26T15:23:51Z</time>
      </trkpt>
      <trkpt lat="45.71859" lon="5.6389">
        <ele>365.9109967368</ele>
        <time>2015-04-26T15:23:56Z</time>
      </trkpt>
      <trkpt lat="45.71851" lon="5.63892">
        <ele>365.9109967368</ele>
        <time>2015-04-26T15:24:01Z</time>
      </trkpt>
      <trkpt lat="45.71842" lon="5.63893">
        <ele>365.61405178023</ele>
        <time>2015-04-26T15:24:06Z</time>
      </trkpt>
      <trkpt lat="45.71835" lon="5.63898">
        <ele>365.61405178023</ele>
        <time>2015-04-26T15:24:11Z</time>
      </trkpt>
      <trkpt lat="45.71831" lon="5.63906">
        <ele>364.32855490572</ele>
        <time>2015-04-26T15:24:16Z</time>
      </trkpt>
      <trkpt lat="45.71827" lon="5.63914">
        <ele>364.32855490572</ele>
        <time>2015-04-26T15:24:21Z</time>
      </trkpt>
      <trkpt lat="45.71822" lon="5.6392">
        <ele>362.36239036922</ele>
        <time>2015-04-26T15:24:26Z</time>
      </trkpt>
      <trkpt lat="45.71818" lon="5.63926">
        <ele>362.36239036922</ele>
        <time>2015-04-26T15:24:31Z</time>
      </trkpt>
      <trkpt lat="45.71813" lon="5.63932">
        <ele>359.95944777137</ele>
        <time>2015-04-26T15:24:36Z</time>
      </trkpt>
      <trkpt lat="45.71809" lon="5.63939">
        <ele>359.95944777137</ele>
        <time>2015-04-26T15:24:41Z</time>
      </trkpt>
      <trkpt lat="45.71803" lon="5.63948">
        <ele>358.18270466722</ele>
        <time>2015-04-26T15:24:46Z</time>
      </trkpt>
      <trkpt lat="45.71801" lon="5.6396">
        <ele>358.18270466722</ele>
        <time>2015-04-26T15:24:51Z</time>
      </trkpt>
      <trkpt lat="45.718" lon="5.63972">
        <ele>356.60292707481</ele>
        <time>2015-04-26T15:24:56Z</time>
      </trkpt>
      <trkpt lat="45.718" lon="5.63984">
        <ele>356.60292707481</ele>
        <time>2015-04-26T15:25:01Z</time>
      </trkpt>
      <trkpt lat="45.71797" lon="5.63995">
        <ele>355.19645677904</ele>
        <time>2015-04-26T15:25:06Z</time>
      </trkpt>
      <trkpt lat="45.71794" lon="5.64005">
        <ele>355.19645677904</ele>
        <time>2015-04-26T15:25:11Z</time>
      </trkpt>
      <trkpt lat="45.71791" lon="5.64016">
        <ele>354.12813064972</ele>
        <time>2015-04-26T15:25:16Z</time>
      </trkpt>
      <trkpt lat="45.71787" lon="5.64026">
        <ele>354.12813064972</ele>
        <time>2015-04-26T15:25:21Z</time>
      </trkpt>
      <trkpt lat="45.71786" lon="5.64039">
        <ele>353.5640328472</ele>
        <time>2015-04-26T15:25:26Z</time>
      </trkpt>
      <trkpt lat="45.71781" lon="5.64049">
        <ele>353.5640328472</ele>
        <time>2015-04-26T15:25:31Z</time>
      </trkpt>
      <trkpt lat="45.71779" lon="5.64058">
        <ele>353.69975819865</ele>
        <time>2015-04-26T15:25:36Z</time>
      </trkpt>
      <trkpt lat="45.71777" lon="5.64069">
        <ele>353.69975819865</ele>
        <time>2015-04-26T15:25:41Z</time>
      </trkpt>
      <trkpt lat="45.71772" lon="5.6409">
        <ele>354.3397761498</ele>
        <time>2015-04-26T15:25:46Z</time>
      </trkpt>
      <trkpt lat="45.71768" lon="5.64108">
        <ele>355.0275955773</ele>
        <time>2015-04-26T15:25:51Z</time>
      </trkpt>
      <trkpt lat="45.71766" lon="5.64118">
        <ele>355.0275955773</ele>
        <time>2015-04-26T15:25:56Z</time>
      </trkpt>
      <trkpt lat="45.71761" lon="5.64127">
        <ele>355.65708067945</ele>
        <time>2015-04-26T15:26:01Z</time>
      </trkpt>
      <trkpt lat="45.71754" lon="5.64134">
        <ele>355.65708067945</ele>
        <time>2015-04-26T15:26:06Z</time>
      </trkpt>
      <trkpt lat="45.71748" lon="5.64141">
        <ele>356.43261198506</ele>
        <time>2015-04-26T15:26:11Z</time>
      </trkpt>
      <trkpt lat="45.71742" lon="5.64151">
        <ele>356.90899106601</ele>
        <time>2015-04-26T15:26:16Z</time>
      </trkpt>
      <trkpt lat="45.71728" lon="5.6418">
        <ele>357.32300661248</ele>
        <time>2015-04-26T15:26:21Z</time>
      </trkpt>
      <trkpt lat="45.71716" lon="5.64204">
        <ele>357.57713571023</ele>
        <time>2015-04-26T15:26:26Z</time>
      </trkpt>
      <trkpt lat="45.71712" lon="5.64214">
        <ele>357.57713571023</ele>
        <time>2015-04-26T15:26:31Z</time>
      </trkpt>
      <trkpt lat="45.71704" lon="5.64216">
        <ele>357.59583849442</ele>
        <time>2015-04-26T15:26:36Z</time>
      </trkpt>
      <trkpt lat="45.71698" lon="5.64218">
        <ele>357.59583849442</ele>
        <time>2015-04-26T15:26:41Z</time>
      </trkpt>
      <trkpt lat="45.71694" lon="5.6422">
        <ele>357.82855011984</ele>
        <time>2015-04-26T15:26:46Z</time>
      </trkpt>
      <trkpt lat="45.71686" lon="5.64224">
        <ele>357.82855011984</ele>
        <time>2015-04-26T15:26:51Z</time>
      </trkpt>
      <trkpt lat="45.71681" lon="5.64226">
        <ele>357.85521517989</ele>
        <time>2015-04-26T15:26:56Z</time>
      </trkpt>
      <trkpt lat="45.71675" lon="5.64227">
        <ele>357.85521517989</ele>
        <time>2015-04-26T15:27:01Z</time>
      </trkpt>
      <trkpt lat="45.71669" lon="5.64227">
        <ele>357.74834237928</ele>
        <time>2015-04-26T15:27:06Z</time>
      </trkpt>
      <trkpt lat="45.71663" lon="5.64229">
        <ele>357.74834237928</ele>
        <time>2015-04-26T15:27:11Z</time>
      </trkpt>
      <trkpt lat="45.71657" lon="5.64229">
        <ele>357.44576437725</ele>
        <time>2015-04-26T15:27:16Z</time>
      </trkpt>
      <trkpt lat="45.7165" lon="5.64229">
        <ele>357.44576437725</ele>
        <time>2015-04-26T15:27:21Z</time>
      </trkpt>
      <trkpt lat="45.71643" lon="5.6423">
        <ele>356.96246245642</ele>
        <time>2015-04-26T15:27:26Z</time>
      </trkpt>
      <trkpt lat="45.71637" lon="5.6423">
        <ele>356.96246245642</ele>
        <time>2015-04-26T15:27:31Z</time>
      </trkpt>
      <trkpt lat="45.71631" lon="5.64228">
        <ele>356.57220206633</ele>
        <time>2015-04-26T15:27:36Z</time>
      </trkpt>
      <trkpt lat="45.71624" lon="5.64227">
        <ele>356.57220206633</ele>
        <time>2015-04-26T15:27:41Z</time>
      </trkpt>
      <trkpt lat="45.71617" lon="5.64227">
        <ele>356.08160937681</ele>
        <time>2015-04-26T15:27:46Z</time>
      </trkpt>
      <trkpt lat="45.71613" lon="5.64234">
        <ele>356.08160937681</ele>
        <time>2015-04-26T15:27:51Z</time>
      </trkpt>
      <trkpt lat="45.71616" lon="5.6424">
        <ele>355.61440657334</ele>
        <time>2015-04-26T15:27:56Z</time>
      </trkpt>
      <trkpt lat="45.71616" lon="5.64239">
        <ele>355.61440657334</ele>
        <time>2015-04-26T15:28:01Z</time>
      </trkpt>
      <trkpt lat="45.71616" lon="5.64239">
        <ele>355.61440657334</ele>
        <time>2015-04-26T15:28:06Z</time>
      </trkpt>
      <trkpt lat="45.71617" lon="5.6424">
        <ele>355.61440657334</ele>
        <time>2015-04-26T15:28:11Z</time>
      </trkpt>
      <trkpt lat="45.71618" lon="5.64241">
        <ele>355.61440657334</ele>
        <time>2015-04-26T15:28:16Z</time>
      </trkpt>
      <trkpt lat="45.71618" lon="5.64242">
        <ele>355.61440657334</ele>
        <time>2015-04-26T15:28:21Z</time>
      </trkpt>
      <trkpt lat="45.71618" lon="5.64242">
        <ele>355.61440657334</ele>
        <time>2015-04-26T15:28:26Z</time>
      </trkpt>
      <trkpt lat="45.71619" lon="5.64241">
        <ele>355.61440657334</ele>
        <time>2015-04-26T15:28:31Z</time>
      </trkpt>
      <trkpt lat="45.71624" lon="5.64241">
        <ele>355.09779193824</ele>
        <time>2015-04-26T15:28:36Z</time>
      </trkpt>
      <trkpt lat="45.71625" lon="5.64237">
        <ele>355.09779193824</ele>
        <time>2015-04-26T15:28:41Z</time>
      </trkpt>
      <trkpt lat="45.71625" lon="5.64237">
        <ele>355.09779193824</ele>
        <time>2015-04-26T15:28:46Z</time>
      </trkpt>
      <trkpt lat="45.71625" lon="5.64237">
        <ele>355.09779193824</ele>
        <time>2015-04-26T15:28:51Z</time>
      </trkpt>
      <trkpt lat="45.71626" lon="5.64237">
        <ele>355.09779193824</ele>
        <time>2015-04-26T15:28:56Z</time>
      </trkpt>
      <trkpt lat="45.71626" lon="5.64237">
        <ele>355.09779193824</ele>
        <time>2015-04-26T15:29:01Z</time>
      </trkpt>
      <trkpt lat="45.71626" lon="5.64237">
        <ele>355.09779193824</ele>
        <time>2015-04-26T15:29:06Z</time>
      </trkpt>
      <trkpt lat="45.71626" lon="5.64237">
        <ele>355.09779193824</ele>
        <time>2015-04-26T15:29:11Z</time>
      </trkpt>
      <trkpt lat="45.71625" lon="5.64237">
        <ele>355.09779193824</ele>
        <time>2015-04-26T15:29:16Z</time>
      </trkpt>
      <trkpt lat="45.71625" lon="5.64237">
        <ele>355.09779193824</ele>
        <time>2015-04-26T15:29:21Z</time>
      </trkpt>
      <trkpt lat="45.71621" lon="5.6424">
        <ele>355.09779193824</ele>
        <time>2015-04-26T15:29:26Z</time>
      </trkpt>
      <trkpt lat="45.7162" lon="5.64241">
        <ele>354.73823550379</ele>
        <time>2015-04-26T15:29:31Z</time>
      </trkpt>
      <trkpt lat="45.71619" lon="5.64242">
        <ele>354.73823550379</ele>
        <time>2015-04-26T15:29:36Z</time>
      </trkpt>
      <trkpt lat="45.71619" lon="5.64242">
        <ele>354.73823550379</ele>
        <time>2015-04-26T15:29:41Z</time>
      </trkpt>
      <trkpt lat="45.71619" lon="5.64242">
        <ele>354.73823550379</ele>
        <time>2015-04-26T15:29:46Z</time>
      </trkpt>
      <trkpt lat="45.71621" lon="5.64243">
        <ele>354.73823550379</ele>
        <time>2015-04-26T15:29:51Z</time>
      </trkpt>
      <trkpt lat="45.71622" lon="5.64243">
        <ele>354.73823550379</ele>
        <time>2015-04-26T15:29:56Z</time>
      </trkpt>
      <trkpt lat="45.71622" lon="5.64242">
        <ele>354.73823550379</ele>
        <time>2015-04-26T15:30:01Z</time>
      </trkpt>
      <trkpt lat="45.71622" lon="5.64242">
        <ele>354.73823550379</ele>
        <time>2015-04-26T15:30:06Z</time>
      </trkpt>
      <trkpt lat="45.71619" lon="5.64241">
        <ele>354.73823550379</ele>
        <time>2015-04-26T15:30:11Z</time>
      </trkpt>
      <trkpt lat="45.71618" lon="5.64241">
        <ele>354.46717286398</ele>
        <time>2015-04-26T15:30:16Z</time>
      </trkpt>
      <trkpt lat="45.71618" lon="5.64241">
        <ele>354.46717286398</ele>
        <time>2015-04-26T15:30:21Z</time>
      </trkpt>
      <trkpt lat="45.71618" lon="5.6424">
        <ele>354.46717286398</ele>
        <time>2015-04-26T15:30:26Z</time>
      </trkpt>
      <trkpt lat="45.71618" lon="5.6424">
        <ele>354.46717286398</ele>
        <time>2015-04-26T15:30:31Z</time>
      </trkpt>
      <trkpt lat="45.71618" lon="5.64241">
        <ele>354.46717286398</ele>
        <time>2015-04-26T15:30:36Z</time>
      </trkpt>
      <trkpt lat="45.71618" lon="5.64241">
        <ele>354.46717286398</ele>
        <time>2015-04-26T15:30:41Z</time>
      </trkpt>
      <trkpt lat="45.71618" lon="5.6424">
        <ele>354.46717286398</ele>
        <time>2015-04-26T15:30:46Z</time>
      </trkpt>
      <trkpt lat="45.71615" lon="5.64234">
        <ele>354.46717286398</ele>
        <time>2015-04-26T15:30:51Z</time>
      </trkpt>
      <trkpt lat="45.71612" lon="5.64227">
        <ele>353.99022323271</ele>
        <time>2015-04-26T15:30:56Z</time>
      </trkpt>
      <trkpt lat="45.71604" lon="5.64223">
        <ele>353.99022323271</ele>
        <time>2015-04-26T15:31:01Z</time>
      </trkpt>
      <trkpt lat="45.71596" lon="5.6422">
        <ele>353.59721504523</ele>
        <time>2015-04-26T15:31:07Z</time>
      </trkpt>
      <trkpt lat="45.71591" lon="5.64218">
        <ele>353.59721504523</ele>
        <time>2015-04-26T15:31:11Z</time>
      </trkpt>
      <trkpt lat="45.71584" lon="5.64215">
        <ele>353.46995763142</ele>
        <time>2015-04-26T15:31:16Z</time>
      </trkpt>
      <trkpt lat="45.71577" lon="5.64211">
        <ele>353.46995763142</ele>
        <time>2015-04-26T15:31:21Z</time>
      </trkpt>
      <trkpt lat="45.71569" lon="5.64209">
        <ele>353.14204433785</ele>
        <time>2015-04-26T15:31:26Z</time>
      </trkpt>
      <trkpt lat="45.71562" lon="5.64207">
        <ele>353.14204433785</ele>
        <time>2015-04-26T15:31:31Z</time>
      </trkpt>
      <trkpt lat="45.71554" lon="5.64204">
        <ele>352.84477981657</ele>
        <time>2015-04-26T15:31:36Z</time>
      </trkpt>
      <trkpt lat="45.71546" lon="5.64201">
        <ele>352.84477981657</ele>
        <time>2015-04-26T15:31:41Z</time>
      </trkpt>
      <trkpt lat="45.7154" lon="5.64199">
        <ele>352.41767816248</ele>
        <time>2015-04-26T15:31:46Z</time>
      </trkpt>
      <trkpt lat="45.71533" lon="5.64196">
        <ele>352.41767816248</ele>
        <time>2015-04-26T15:31:51Z</time>
      </trkpt>
      <trkpt lat="45.71526" lon="5.64193">
        <ele>352.11589507692</ele>
        <time>2015-04-26T15:31:56Z</time>
      </trkpt>
      <trkpt lat="45.71518" lon="5.64188">
        <ele>352.11589507692</ele>
        <time>2015-04-26T15:32:01Z</time>
      </trkpt>
      <trkpt lat="45.71512" lon="5.64186">
        <ele>351.62784590671</ele>
        <time>2015-04-26T15:32:06Z</time>
      </trkpt>
      <trkpt lat="45.71506" lon="5.64183">
        <ele>351.62784590671</ele>
        <time>2015-04-26T15:32:11Z</time>
      </trkpt>
      <trkpt lat="45.71501" lon="5.64183">
        <ele>351.18413500262</ele>
        <time>2015-04-26T15:32:16Z</time>
      </trkpt>
      <trkpt lat="45.71494" lon="5.64187">
        <ele>351.18413500262</ele>
        <time>2015-04-26T15:32:21Z</time>
      </trkpt>
      <trkpt lat="45.71486" lon="5.64191">
        <ele>350.72446850383</ele>
        <time>2015-04-26T15:32:26Z</time>
      </trkpt>
      <trkpt lat="45.7148" lon="5.64194">
        <ele>350.72446850383</ele>
        <time>2015-04-26T15:32:31Z</time>
      </trkpt>
      <trkpt lat="45.71472" lon="5.64197">
        <ele>349.96242545193</ele>
        <time>2015-04-26T15:32:36Z</time>
      </trkpt>
      <trkpt lat="45.71462" lon="5.64201">
        <ele>349.16666049602</ele>
        <time>2015-04-26T15:32:41Z</time>
      </trkpt>
      <trkpt lat="45.71445" lon="5.64204">
        <ele>348.31235045988</ele>
        <time>2015-04-26T15:32:46Z</time>
      </trkpt>
      <trkpt lat="45.71434" lon="5.64205">
        <ele>347.82337687493</ele>
        <time>2015-04-26T15:32:51Z</time>
      </trkpt>
      <trkpt lat="45.71426" lon="5.64206">
        <ele>347.82337687493</ele>
        <time>2015-04-26T15:32:56Z</time>
      </trkpt>
      <trkpt lat="45.71419" lon="5.64206">
        <ele>347.4141067795</ele>
        <time>2015-04-26T15:33:01Z</time>
      </trkpt>
      <trkpt lat="45.71414" lon="5.64205">
        <ele>347.4141067795</ele>
        <time>2015-04-26T15:33:06Z</time>
      </trkpt>
      <trkpt lat="45.71408" lon="5.64202">
        <ele>347.00698100982</ele>
        <time>2015-04-26T15:33:11Z</time>
      </trkpt>
      <trkpt lat="45.71403" lon="5.642">
        <ele>347.00698100982</ele>
        <time>2015-04-26T15:33:16Z</time>
      </trkpt>
      <trkpt lat="45.71397" lon="5.64199">
        <ele>346.37158003454</ele>
        <time>2015-04-26T15:33:21Z</time>
      </trkpt>
      <trkpt lat="45.71392" lon="5.64198">
        <ele>346.37158003454</ele>
        <time>2015-04-26T15:33:26Z</time>
      </trkpt>
      <trkpt lat="45.71386" lon="5.64196">
        <ele>345.55442192561</ele>
        <time>2015-04-26T15:33:31Z</time>
      </trkpt>
      <trkpt lat="45.71378" lon="5.64199">
        <ele>345.55442192561</ele>
        <time>2015-04-26T15:33:36Z</time>
      </trkpt>
      <trkpt lat="45.71369" lon="5.64207">
        <ele>345.92491252119</ele>
        <time>2015-04-26T15:33:41Z</time>
      </trkpt>
      <trkpt lat="45.71363" lon="5.64209">
        <ele>345.92491252119</ele>
        <time>2015-04-26T15:33:46Z</time>
      </trkpt>
      <trkpt lat="45.71357" lon="5.64212">
        <ele>345.79422518624</ele>
        <time>2015-04-26T15:33:51Z</time>
      </trkpt>
      <trkpt lat="45.71349" lon="5.64208">
        <ele>345.79422518624</ele>
        <time>2015-04-26T15:33:56Z</time>
      </trkpt>
      <trkpt lat="45.71343" lon="5.64209">
        <ele>345.32830936822</ele>
        <time>2015-04-26T15:34:01Z</time>
      </trkpt>
      <trkpt lat="45.71336" lon="5.64214">
        <ele>345.32830936822</ele>
        <time>2015-04-26T15:34:06Z</time>
      </trkpt>
      <trkpt lat="45.7133" lon="5.64213">
        <ele>345.11417682384</ele>
        <time>2015-04-26T15:34:11Z</time>
      </trkpt>
      <trkpt lat="45.71324" lon="5.64213">
        <ele>345.11417682384</ele>
        <time>2015-04-26T15:34:16Z</time>
      </trkpt>
      <trkpt lat="45.71317" lon="5.64209">
        <ele>343.64861276715</ele>
        <time>2015-04-26T15:34:21Z</time>
      </trkpt>
      <trkpt lat="45.71309" lon="5.64209">
        <ele>343.64861276715</ele>
        <time>2015-04-26T15:34:26Z</time>
      </trkpt>
      <trkpt lat="45.71302" lon="5.64209">
        <ele>342.41012923833</ele>
        <time>2015-04-26T15:34:31Z</time>
      </trkpt>
      <trkpt lat="45.71295" lon="5.64212">
        <ele>342.41012923833</ele>
        <time>2015-04-26T15:34:36Z</time>
      </trkpt>
      <trkpt lat="45.71289" lon="5.64215">
        <ele>341.15392098018</ele>
        <time>2015-04-26T15:34:41Z</time>
      </trkpt>
      <trkpt lat="45.71282" lon="5.64218">
        <ele>341.15392098018</ele>
        <time>2015-04-26T15:34:46Z</time>
      </trkpt>
      <trkpt lat="45.71276" lon="5.64221">
        <ele>340.24404284731</ele>
        <time>2015-04-26T15:34:51Z</time>
      </trkpt>
      <trkpt lat="45.71269" lon="5.64226">
        <ele>340.24404284731</ele>
        <time>2015-04-26T15:34:56Z</time>
      </trkpt>
      <trkpt lat="45.71262" lon="5.64221">
        <ele>340.06003636076</ele>
        <time>2015-04-26T15:35:01Z</time>
      </trkpt>
      <trkpt lat="45.71255" lon="5.6421">
        <ele>340.15888214314</ele>
        <time>2015-04-26T15:35:06Z</time>
      </trkpt>
      <trkpt lat="45.71247" lon="5.64198">
        <ele>340.25898126453</ele>
        <time>2015-04-26T15:35:11Z</time>
      </trkpt>
      <trkpt lat="45.71236" lon="5.64186">
        <ele>340.24350293634</ele>
        <time>2015-04-26T15:35:16Z</time>
      </trkpt>
      <trkpt lat="45.71226" lon="5.64194">
        <ele>340.14861394236</ele>
        <time>2015-04-26T15:35:21Z</time>
      </trkpt>
      <trkpt lat="45.71219" lon="5.64199">
        <ele>340.14861394236</ele>
        <time>2015-04-26T15:35:26Z</time>
      </trkpt>
      <trkpt lat="45.71218" lon="5.64198">
        <ele>340.52683306825</ele>
        <time>2015-04-26T15:35:31Z</time>
      </trkpt>
      <trkpt lat="45.71218" lon="5.64197">
        <ele>340.52683306825</ele>
        <time>2015-04-26T15:35:36Z</time>
      </trkpt>
      <trkpt lat="45.71217" lon="5.64197">
        <ele>340.52683306825</ele>
        <time>2015-04-26T15:35:41Z</time>
      </trkpt>
      <trkpt lat="45.71216" lon="5.64198">
        <ele>340.52683306825</ele>
        <time>2015-04-26T15:35:46Z</time>
      </trkpt>
      <trkpt lat="45.71216" lon="5.64198">
        <ele>340.52683306825</ele>
        <time>2015-04-26T15:35:51Z</time>
      </trkpt>
      <trkpt lat="45.71216" lon="5.64198">
        <ele>340.52683306825</ele>
        <time>2015-04-26T15:35:56Z</time>
      </trkpt>
      <trkpt lat="45.71216" lon="5.64198">
        <ele>340.52683306825</ele>
        <time>2015-04-26T15:36:01Z</time>
      </trkpt>
      <trkpt lat="45.71216" lon="5.64198">
        <ele>340.52683306825</ele>
        <time>2015-04-26T15:36:06Z</time>
      </trkpt>
      <trkpt lat="45.71216" lon="5.64198">
        <ele>340.52683306825</ele>
        <time>2015-04-26T15:36:11Z</time>
      </trkpt>
      <trkpt lat="45.71216" lon="5.64198">
        <ele>340.52683306825</ele>
        <time>2015-04-26T15:36:16Z</time>
      </trkpt>
      <trkpt lat="45.71216" lon="5.64198">
        <ele>340.52683306825</ele>
        <time>2015-04-26T15:36:21Z</time>
      </trkpt>
      <trkpt lat="45.71216" lon="5.64198">
        <ele>340.52683306825</ele>
        <time>2015-04-26T15:36:26Z</time>
      </trkpt>
      <trkpt lat="45.71214" lon="5.64195">
        <ele>340.52683306825</ele>
        <time>2015-04-26T15:36:31Z</time>
      </trkpt>
      <trkpt lat="45.71211" lon="5.64188">
        <ele>340.9952667313</ele>
        <time>2015-04-26T15:36:36Z</time>
      </trkpt>
      <trkpt lat="45.71207" lon="5.6418">
        <ele>340.9952667313</ele>
        <time>2015-04-26T15:36:41Z</time>
      </trkpt>
      <trkpt lat="45.71204" lon="5.64175">
        <ele>341.34300444578</ele>
        <time>2015-04-26T15:36:46Z</time>
      </trkpt>
      <trkpt lat="45.71203" lon="5.64174">
        <ele>341.34300444578</ele>
        <time>2015-04-26T15:36:51Z</time>
      </trkpt>
      <trkpt lat="45.712" lon="5.64172">
        <ele>341.34300444578</ele>
        <time>2015-04-26T15:36:56Z</time>
      </trkpt>
      <trkpt lat="45.71199" lon="5.64167">
        <ele>341.34300444578</ele>
        <time>2015-04-26T15:37:01Z</time>
      </trkpt>
      <trkpt lat="45.71194" lon="5.64161">
        <ele>341.21644893244</ele>
        <time>2015-04-26T15:37:06Z</time>
      </trkpt>
      <trkpt lat="45.71189" lon="5.64153">
        <ele>341.21644893244</ele>
        <time>2015-04-26T15:37:11Z</time>
      </trkpt>
      <trkpt lat="45.71178" lon="5.6416">
        <ele>340.17402667377</ele>
        <time>2015-04-26T15:37:16Z</time>
      </trkpt>
      <trkpt lat="45.71173" lon="5.64164">
        <ele>340.17402667377</ele>
        <time>2015-04-26T15:37:21Z</time>
      </trkpt>
      <trkpt lat="45.71168" lon="5.64167">
        <ele>338.97647940908</ele>
        <time>2015-04-26T15:37:26Z</time>
      </trkpt>
      <trkpt lat="45.71165" lon="5.64168">
        <ele>338.97647940908</ele>
        <time>2015-04-26T15:37:31Z</time>
      </trkpt>
      <trkpt lat="45.7116" lon="5.64172">
        <ele>338.97647940908</ele>
        <time>2015-04-26T15:37:36Z</time>
      </trkpt>
      <trkpt lat="45.71155" lon="5.64173">
        <ele>337.86795003962</ele>
        <time>2015-04-26T15:37:41Z</time>
      </trkpt>
      <trkpt lat="45.71149" lon="5.64181">
        <ele>337.86795003962</ele>
        <time>2015-04-26T15:37:46Z</time>
      </trkpt>
      <trkpt lat="45.71142" lon="5.64193">
        <ele>337.27615411042</ele>
        <time>2015-04-26T15:37:51Z</time>
      </trkpt>
      <trkpt lat="45.71137" lon="5.64189">
        <ele>337.27615411042</ele>
        <time>2015-04-26T15:37:56Z</time>
      </trkpt>
      <trkpt lat="45.71126" lon="5.64195">
        <ele>336.18364445695</ele>
        <time>2015-04-26T15:38:01Z</time>
      </trkpt>
      <trkpt lat="45.71119" lon="5.642">
        <ele>336.18364445695</ele>
        <time>2015-04-26T15:38:06Z</time>
      </trkpt>
      <trkpt lat="45.71108" lon="5.64211">
        <ele>336.0125359033</ele>
        <time>2015-04-26T15:38:11Z</time>
      </trkpt>
      <trkpt lat="45.71098" lon="5.64219">
        <ele>336.33413832458</ele>
        <time>2015-04-26T15:38:16Z</time>
      </trkpt>
      <trkpt lat="45.71089" lon="5.64232">
        <ele>337.11014398003</ele>
        <time>2015-04-26T15:38:21Z</time>
      </trkpt>
      <trkpt lat="45.71084" lon="5.64242">
        <ele>337.11014398003</ele>
        <time>2015-04-26T15:38:26Z</time>
      </trkpt>
      <trkpt lat="45.71083" lon="5.6425">
        <ele>338.05879636538</ele>
        <time>2015-04-26T15:38:31Z</time>
      </trkpt>
      <trkpt lat="45.71079" lon="5.64258">
        <ele>338.05879636538</ele>
        <time>2015-04-26T15:38:36Z</time>
      </trkpt>
      <trkpt lat="45.71074" lon="5.64269">
        <ele>338.76003901798</ele>
        <time>2015-04-26T15:38:41Z</time>
      </trkpt>
      <trkpt lat="45.71073" lon="5.64274">
        <ele>338.76003901798</ele>
        <time>2015-04-26T15:38:46Z</time>
      </trkpt>
      <trkpt lat="45.71073" lon="5.64283">
        <ele>340.13679745185</ele>
        <time>2015-04-26T15:38:51Z</time>
      </trkpt>
      <trkpt lat="45.7107" lon="5.6429">
        <ele>340.13679745185</ele>
        <time>2015-04-26T15:38:56Z</time>
      </trkpt>
      <trkpt lat="45.71065" lon="5.64299">
        <ele>341.47152275141</ele>
        <time>2015-04-26T15:39:01Z</time>
      </trkpt>
      <trkpt lat="45.71061" lon="5.64308">
        <ele>341.47152275141</ele>
        <time>2015-04-26T15:39:06Z</time>
      </trkpt>
      <trkpt lat="45.71056" lon="5.64313">
        <ele>342.84891348966</ele>
        <time>2015-04-26T15:39:11Z</time>
      </trkpt>
      <trkpt lat="45.71051" lon="5.64323">
        <ele>342.84891348966</ele>
        <time>2015-04-26T15:39:16Z</time>
      </trkpt>
      <trkpt lat="45.71048" lon="5.64331">
        <ele>344.57795684609</ele>
        <time>2015-04-26T15:39:21Z</time>
      </trkpt>
      <trkpt lat="45.71037" lon="5.64344">
        <ele>346.05053005756</ele>
        <time>2015-04-26T15:39:26Z</time>
      </trkpt>
      <trkpt lat="45.7102" lon="5.64353">
        <ele>347.19395416507</ele>
        <time>2015-04-26T15:39:31Z</time>
      </trkpt>
      <trkpt lat="45.71009" lon="5.64356">
        <ele>348.27335113111</ele>
        <time>2015-04-26T15:39:36Z</time>
      </trkpt>
      <trkpt lat="45.70998" lon="5.64357">
        <ele>349.18876984497</ele>
        <time>2015-04-26T15:39:41Z</time>
      </trkpt>
      <trkpt lat="45.70989" lon="5.64357">
        <ele>349.18876984497</ele>
        <time>2015-04-26T15:39:46Z</time>
      </trkpt>
      <trkpt lat="45.70978" lon="5.64353">
        <ele>350.29490105269</ele>
        <time>2015-04-26T15:39:51Z</time>
      </trkpt>
      <trkpt lat="45.70969" lon="5.64357">
        <ele>351.71818866206</ele>
        <time>2015-04-26T15:39:56Z</time>
      </trkpt>
      <trkpt lat="45.70963" lon="5.64358">
        <ele>351.71818866206</ele>
        <time>2015-04-26T15:40:01Z</time>
      </trkpt>
      <trkpt lat="45.70957" lon="5.64359">
        <ele>352.79680071023</ele>
        <time>2015-04-26T15:40:06Z</time>
      </trkpt>
      <trkpt lat="45.7095" lon="5.64363">
        <ele>352.79680071023</ele>
        <time>2015-04-26T15:40:11Z</time>
      </trkpt>
      <trkpt lat="45.70944" lon="5.64369">
        <ele>354.24441919222</ele>
        <time>2015-04-26T15:40:16Z</time>
      </trkpt>
      <trkpt lat="45.70938" lon="5.64374">
        <ele>354.24441919222</ele>
        <time>2015-04-26T15:40:21Z</time>
      </trkpt>
      <trkpt lat="45.70934" lon="5.64384">
        <ele>356.53403168177</ele>
        <time>2015-04-26T15:40:26Z</time>
      </trkpt>
      <trkpt lat="45.70929" lon="5.6439">
        <ele>356.53403168177</ele>
        <time>2015-04-26T15:40:31Z</time>
      </trkpt>
      <trkpt lat="45.70925" lon="5.64387">
        <ele>358.1849569098</ele>
        <time>2015-04-26T15:40:36Z</time>
      </trkpt>
      <trkpt lat="45.70919" lon="5.64389">
        <ele>358.1849569098</ele>
        <time>2015-04-26T15:40:41Z</time>
      </trkpt>
      <trkpt lat="45.70914" lon="5.64393">
        <ele>359.57094261497</ele>
        <time>2015-04-26T15:40:46Z</time>
      </trkpt>
      <trkpt lat="45.70909" lon="5.64396">
        <ele>359.57094261497</ele>
        <time>2015-04-26T15:40:51Z</time>
      </trkpt>
      <trkpt lat="45.70903" lon="5.64398">
        <ele>359.94390492418</ele>
        <time>2015-04-26T15:40:56Z</time>
      </trkpt>
      <trkpt lat="45.70897" lon="5.644">
        <ele>359.94390492418</ele>
        <time>2015-04-26T15:41:01Z</time>
      </trkpt>
      <trkpt lat="45.70892" lon="5.64404">
        <ele>360.53036023981</ele>
        <time>2015-04-26T15:41:06Z</time>
      </trkpt>
      <trkpt lat="45.70888" lon="5.64407">
        <ele>360.53036023981</ele>
        <time>2015-04-26T15:41:11Z</time>
      </trkpt>
      <trkpt lat="45.70886" lon="5.64413">
        <ele>359.45432392146</ele>
        <time>2015-04-26T15:41:16Z</time>
      </trkpt>
      <trkpt lat="45.70883" lon="5.64418">
        <ele>359.45432392146</ele>
        <time>2015-04-26T15:41:21Z</time>
      </trkpt>
      <trkpt lat="45.7088" lon="5.64428">
        <ele>358.61399625775</ele>
        <time>2015-04-26T15:41:26Z</time>
      </trkpt>
      <trkpt lat="45.70878" lon="5.6444">
        <ele>358.61399625775</ele>
        <time>2015-04-26T15:41:31Z</time>
      </trkpt>
      <trkpt lat="45.7088" lon="5.64446">
        <ele>357.31768295738</ele>
        <time>2015-04-26T15:41:36Z</time>
      </trkpt>
      <trkpt lat="45.70882" lon="5.64452">
        <ele>357.31768295738</ele>
        <time>2015-04-26T15:41:41Z</time>
      </trkpt>
      <trkpt lat="45.70883" lon="5.64461">
        <ele>356.46785152583</ele>
        <time>2015-04-26T15:41:46Z</time>
      </trkpt>
      <trkpt lat="45.70883" lon="5.6447">
        <ele>356.46785152583</ele>
        <time>2015-04-26T15:41:51Z</time>
      </trkpt>
      <trkpt lat="45.70887" lon="5.64477">
        <ele>355.19897474402</ele>
        <time>2015-04-26T15:41:56Z</time>
      </trkpt>
      <trkpt lat="45.70894" lon="5.64481">
        <ele>355.19897474402</ele>
        <time>2015-04-26T15:42:01Z</time>
      </trkpt>
      <trkpt lat="45.70899" lon="5.64487">
        <ele>353.80557449541</ele>
        <time>2015-04-26T15:42:06Z</time>
      </trkpt>
      <trkpt lat="45.70904" lon="5.64492">
        <ele>353.80557449541</ele>
        <time>2015-04-26T15:42:11Z</time>
      </trkpt>
      <trkpt lat="45.70909" lon="5.64496">
        <ele>351.1342150407</ele>
        <time>2015-04-26T15:42:16Z</time>
      </trkpt>
      <trkpt lat="45.70915" lon="5.64499">
        <ele>351.1342150407</ele>
        <time>2015-04-26T15:42:21Z</time>
      </trkpt>
      <trkpt lat="45.7092" lon="5.64507">
        <ele>349.03083252365</ele>
        <time>2015-04-26T15:42:26Z</time>
      </trkpt>
      <trkpt lat="45.70925" lon="5.64516">
        <ele>349.03083252365</ele>
        <time>2015-04-26T15:42:31Z</time>
      </trkpt>
      <trkpt lat="45.70929" lon="5.64522">
        <ele>346.797502451</ele>
        <time>2015-04-26T15:42:36Z</time>
      </trkpt>
      <trkpt lat="45.70934" lon="5.64526">
        <ele>346.797502451</ele>
        <time>2015-04-26T15:42:41Z</time>
      </trkpt>
      <trkpt lat="45.70942" lon="5.64527">
        <ele>344.09053703528</ele>
        <time>2015-04-26T15:42:46Z</time>
      </trkpt>
      <trkpt lat="45.7095" lon="5.64531">
        <ele>344.09053703528</ele>
        <time>2015-04-26T15:42:51Z</time>
      </trkpt>
      <trkpt lat="45.70955" lon="5.64534">
        <ele>340.44866028521</ele>
        <time>2015-04-26T15:42:56Z</time>
      </trkpt>
      <trkpt lat="45.70962" lon="5.64538">
        <ele>340.44866028521</ele>
        <time>2015-04-26T15:43:01Z</time>
      </trkpt>
      <trkpt lat="45.70968" lon="5.64544">
        <ele>337.81045375788</ele>
        <time>2015-04-26T15:43:06Z</time>
      </trkpt>
      <trkpt lat="45.70975" lon="5.64548">
        <ele>337.81045375788</ele>
        <time>2015-04-26T15:43:11Z</time>
      </trkpt>
      <trkpt lat="45.70982" lon="5.64547">
        <ele>334.66903599067</ele>
        <time>2015-04-26T15:43:16Z</time>
      </trkpt>
      <trkpt lat="45.70987" lon="5.64554">
        <ele>334.66903599067</ele>
        <time>2015-04-26T15:43:21Z</time>
      </trkpt>
      <trkpt lat="45.70992" lon="5.64561">
        <ele>332.15146313545</ele>
        <time>2015-04-26T15:43:26Z</time>
      </trkpt>
      <trkpt lat="45.70996" lon="5.64568">
        <ele>332.15146313545</ele>
        <time>2015-04-26T15:43:31Z</time>
      </trkpt>
      <trkpt lat="45.70999" lon="5.64574">
        <ele>330.20487336944</ele>
        <time>2015-04-26T15:43:36Z</time>
      </trkpt>
      <trkpt lat="45.71001" lon="5.64581">
        <ele>330.20487336944</ele>
        <time>2015-04-26T15:43:41Z</time>
      </trkpt>
      <trkpt lat="45.71001" lon="5.64583">
        <ele>330.20487336944</ele>
        <time>2015-04-26T15:43:46Z</time>
      </trkpt>
      <trkpt lat="45.71004" lon="5.64586">
        <ele>328.67766700062</ele>
        <time>2015-04-26T15:43:51Z</time>
      </trkpt>
      <trkpt lat="45.71005" lon="5.6459">
        <ele>328.67766700062</ele>
        <time>2015-04-26T15:43:56Z</time>
      </trkpt>
      <trkpt lat="45.71002" lon="5.64589">
        <ele>328.67766700062</ele>
        <time>2015-04-26T15:44:01Z</time>
      </trkpt>
      <trkpt lat="45.70999" lon="5.64588">
        <ele>328.67766700062</ele>
        <time>2015-04-26T15:44:06Z</time>
      </trkpt>
      <trkpt lat="45.70992" lon="5.64592">
        <ele>327.0101324362</ele>
        <time>2015-04-26T15:44:11Z</time>
      </trkpt>
      <trkpt lat="45.70987" lon="5.64596">
        <ele>327.0101324362</ele>
        <time>2015-04-26T15:44:16Z</time>
      </trkpt>
      <trkpt lat="45.70981" lon="5.64598">
        <ele>324.94331353493</ele>
        <time>2015-04-26T15:44:21Z</time>
      </trkpt>
      <trkpt lat="45.70973" lon="5.64603">
        <ele>324.94331353493</ele>
        <time>2015-04-26T15:44:26Z</time>
      </trkpt>
      <trkpt lat="45.70965" lon="5.64611">
        <ele>323.78023037496</ele>
        <time>2015-04-26T15:44:31Z</time>
      </trkpt>
      <trkpt lat="45.7096" lon="5.64614">
        <ele>323.78023037496</ele>
        <time>2015-04-26T15:44:36Z</time>
      </trkpt>
      <trkpt lat="45.70952" lon="5.64617">
        <ele>322.34765738836</ele>
        <time>2015-04-26T15:44:41Z</time>
      </trkpt>
      <trkpt lat="45.70947" lon="5.64619">
        <ele>322.34765738836</ele>
        <time>2015-04-26T15:44:46Z</time>
      </trkpt>
      <trkpt lat="45.70942" lon="5.64632">
        <ele>319.99148442662</ele>
        <time>2015-04-26T15:44:51Z</time>
      </trkpt>
      <trkpt lat="45.7094" lon="5.64637">
        <ele>319.99148442662</ele>
        <time>2015-04-26T15:44:56Z</time>
      </trkpt>
      <trkpt lat="45.70941" lon="5.64643">
        <ele>319.99148442662</ele>
        <time>2015-04-26T15:45:01Z</time>
      </trkpt>
      <trkpt lat="45.7094" lon="5.64649">
        <ele>316.19454709751</ele>
        <time>2015-04-26T15:45:06Z</time>
      </trkpt>
      <trkpt lat="45.70941" lon="5.64654">
        <ele>316.19454709751</ele>
        <time>2015-04-26T15:45:11Z</time>
      </trkpt>
      <trkpt lat="45.70937" lon="5.64661">
        <ele>312.51351228461</ele>
        <time>2015-04-26T15:45:16Z</time>
      </trkpt>
      <trkpt lat="45.70934" lon="5.64669">
        <ele>312.51351228461</ele>
        <time>2015-04-26T15:45:21Z</time>
      </trkpt>
      <trkpt lat="45.7093" lon="5.64678">
        <ele>308.25734498396</ele>
        <time>2015-04-26T15:45:26Z</time>
      </trkpt>
      <trkpt lat="45.70927" lon="5.64684">
        <ele>308.25734498396</ele>
        <time>2015-04-26T15:45:31Z</time>
      </trkpt>
      <trkpt lat="45.70924" lon="5.64688">
        <ele>303.85361497691</ele>
        <time>2015-04-26T15:45:36Z</time>
      </trkpt>
      <trkpt lat="45.70913" lon="5.647">
        <ele>299.36723081894</ele>
        <time>2015-04-26T15:45:41Z</time>
      </trkpt>
      <trkpt lat="45.70905" lon="5.64708">
        <ele>295.08891682461</ele>
        <time>2015-04-26T15:45:46Z</time>
      </trkpt>
      <trkpt lat="45.709" lon="5.64715">
        <ele>295.08891682461</ele>
        <time>2015-04-26T15:45:51Z</time>
      </trkpt>
      <trkpt lat="45.70898" lon="5.64721">
        <ele>290.37931577289</ele>
        <time>2015-04-26T15:45:56Z</time>
      </trkpt>
      <trkpt lat="45.70895" lon="5.64729">
        <ele>290.37931577289</ele>
        <time>2015-04-26T15:46:01Z</time>
      </trkpt>
      <trkpt lat="45.70891" lon="5.64738">
        <ele>285.77105951482</ele>
        <time>2015-04-26T15:46:06Z</time>
      </trkpt>
      <trkpt lat="45.70884" lon="5.64752">
        <ele>282.39119302126</ele>
        <time>2015-04-26T15:46:11Z</time>
      </trkpt>
      <trkpt lat="45.70876" lon="5.64766">
        <ele>279.98325219747</ele>
        <time>2015-04-26T15:46:16Z</time>
      </trkpt>
      <trkpt lat="45.70872" lon="5.64773">
        <ele>279.98325219747</ele>
        <time>2015-04-26T15:46:21Z</time>
      </trkpt>
      <trkpt lat="45.70869" lon="5.64781">
        <ele>276.83667949154</ele>
        <time>2015-04-26T15:46:26Z</time>
      </trkpt>
      <trkpt lat="45.70864" lon="5.64787">
        <ele>276.83667949154</ele>
        <time>2015-04-26T15:46:31Z</time>
      </trkpt>
      <trkpt lat="45.7086" lon="5.64793">
        <ele>274.07766624313</ele>
        <time>2015-04-26T15:46:36Z</time>
      </trkpt>
      <trkpt lat="45.70861" lon="5.64793">
        <ele>274.07766624313</ele>
        <time>2015-04-26T15:46:41Z</time>
      </trkpt>
      <trkpt lat="45.7086" lon="5.64793">
        <ele>274.07766624313</ele>
        <time>2015-04-26T15:46:46Z</time>
      </trkpt>
      <trkpt lat="45.70859" lon="5.64794">
        <ele>274.07766624313</ele>
        <time>2015-04-26T15:46:51Z</time>
      </trkpt>
      <trkpt lat="45.70861" lon="5.648">
        <ele>274.07766624313</ele>
        <time>2015-04-26T15:46:56Z</time>
      </trkpt>
      <trkpt lat="45.70864" lon="5.64809">
        <ele>272.30158088174</ele>
        <time>2015-04-26T15:47:01Z</time>
      </trkpt>
      <trkpt lat="45.70866" lon="5.64817">
        <ele>272.30158088174</ele>
        <time>2015-04-26T15:47:06Z</time>
      </trkpt>
      <trkpt lat="45.7087" lon="5.64825">
        <ele>270.39976876367</ele>
        <time>2015-04-26T15:47:11Z</time>
      </trkpt>
      <trkpt lat="45.70874" lon="5.64831">
        <ele>270.39976876367</ele>
        <time>2015-04-26T15:47:16Z</time>
      </trkpt>
      <trkpt lat="45.70876" lon="5.64837">
        <ele>269.14651944471</ele>
        <time>2015-04-26T15:47:21Z</time>
      </trkpt>
      <trkpt lat="45.70877" lon="5.64846">
        <ele>269.14651944471</ele>
        <time>2015-04-26T15:47:26Z</time>
      </trkpt>
      <trkpt lat="45.70879" lon="5.64854">
        <ele>267.88814442049</ele>
        <time>2015-04-26T15:47:31Z</time>
      </trkpt>
      <trkpt lat="45.70882" lon="5.64861">
        <ele>267.88814442049</ele>
        <time>2015-04-26T15:47:36Z</time>
      </trkpt>
      <trkpt lat="45.70884" lon="5.64864">
        <ele>267.88814442049</ele>
        <time>2015-04-26T15:47:41Z</time>
      </trkpt>
      <trkpt lat="45.70886" lon="5.64869">
        <ele>266.33582687768</ele>
        <time>2015-04-26T15:47:46Z</time>
      </trkpt>
      <trkpt lat="45.70889" lon="5.64879">
        <ele>266.33582687768</ele>
        <time>2015-04-26T15:47:51Z</time>
      </trkpt>
      <trkpt lat="45.70895" lon="5.6489">
        <ele>265.50519166142</ele>
        <time>2015-04-26T15:47:56Z</time>
      </trkpt>
      <trkpt lat="45.70899" lon="5.64895">
        <ele>265.50519166142</ele>
        <time>2015-04-26T15:48:01Z</time>
      </trkpt>
      <trkpt lat="45.70901" lon="5.64896">
        <ele>265.50519166142</ele>
        <time>2015-04-26T15:48:06Z</time>
      </trkpt>
      <trkpt lat="45.70901" lon="5.64897">
        <ele>265.50519166142</ele>
        <time>2015-04-26T15:48:11Z</time>
      </trkpt>
      <trkpt lat="45.70904" lon="5.64901">
        <ele>263.91399294189</ele>
        <time>2015-04-26T15:48:16Z</time>
      </trkpt>
      <trkpt lat="45.7091" lon="5.64909">
        <ele>263.91399294189</ele>
        <time>2015-04-26T15:48:21Z</time>
      </trkpt>
      <trkpt lat="45.70915" lon="5.6492">
        <ele>262.36692711307</ele>
        <time>2015-04-26T15:48:26Z</time>
      </trkpt>
      <trkpt lat="45.7092" lon="5.64928">
        <ele>262.36692711307</ele>
        <time>2015-04-26T15:48:31Z</time>
      </trkpt>
      <trkpt lat="45.70922" lon="5.6494">
        <ele>259.79351204155</ele>
        <time>2015-04-26T15:48:36Z</time>
      </trkpt>
      <trkpt lat="45.70925" lon="5.64953">
        <ele>257.72659757731</ele>
        <time>2015-04-26T15:48:41Z</time>
      </trkpt>
      <trkpt lat="45.70928" lon="5.64963">
        <ele>257.72659757731</ele>
        <time>2015-04-26T15:48:46Z</time>
      </trkpt>
      <trkpt lat="45.70933" lon="5.6497">
        <ele>256.01407868623</ele>
        <time>2015-04-26T15:48:51Z</time>
      </trkpt>
      <trkpt lat="45.70936" lon="5.64978">
        <ele>256.01407868623</ele>
        <time>2015-04-26T15:48:56Z</time>
      </trkpt>
      <trkpt lat="45.7094" lon="5.6499">
        <ele>254.19687366922</ele>
        <time>2015-04-26T15:49:01Z</time>
      </trkpt>
      <trkpt lat="45.70944" lon="5.65">
        <ele>254.19687366922</ele>
        <time>2015-04-26T15:49:06Z</time>
      </trkpt>
      <trkpt lat="45.70953" lon="5.65014">
        <ele>252.39743784032</ele>
        <time>2015-04-26T15:49:11Z</time>
      </trkpt>
      <trkpt lat="45.70958" lon="5.65024">
        <ele>252.39743784032</ele>
        <time>2015-04-26T15:49:16Z</time>
      </trkpt>
      <trkpt lat="45.70962" lon="5.65033">
        <ele>250.55615409195</ele>
        <time>2015-04-26T15:49:21Z</time>
      </trkpt>
      <trkpt lat="45.70966" lon="5.65043">
        <ele>250.55615409195</ele>
        <time>2015-04-26T15:49:26Z</time>
      </trkpt>
      <trkpt lat="45.7097" lon="5.65054">
        <ele>248.50252828541</ele>
        <time>2015-04-26T15:49:31Z</time>
      </trkpt>
      <trkpt lat="45.70975" lon="5.65063">
        <ele>248.50252828541</ele>
        <time>2015-04-26T15:49:36Z</time>
      </trkpt>
      <trkpt lat="45.7098" lon="5.65073">
        <ele>246.13675321551</ele>
        <time>2015-04-26T15:49:41Z</time>
      </trkpt>
      <trkpt lat="45.70985" lon="5.65084">
        <ele>243.98683598216</ele>
        <time>2015-04-26T15:49:46Z</time>
      </trkpt>
      <trkpt lat="45.70989" lon="5.65096">
        <ele>243.98683598216</ele>
        <time>2015-04-26T15:49:51Z</time>
      </trkpt>
      <trkpt lat="45.70991" lon="5.65108">
        <ele>241.87841393985</ele>
        <time>2015-04-26T15:49:56Z</time>
      </trkpt>
      <trkpt lat="45.70991" lon="5.65118">
        <ele>241.87841393985</ele>
        <time>2015-04-26T15:50:01Z</time>
      </trkpt>
      <trkpt lat="45.70994" lon="5.65134">
        <ele>240.38472368065</ele>
        <time>2015-04-26T15:50:06Z</time>
      </trkpt>
      <trkpt lat="45.71001" lon="5.65145">
        <ele>239.06956979291</ele>
        <time>2015-04-26T15:50:11Z</time>
      </trkpt>
      <trkpt lat="45.71006" lon="5.65154">
        <ele>239.06956979291</ele>
        <time>2015-04-26T15:50:16Z</time>
      </trkpt>
      <trkpt lat="45.71013" lon="5.65161">
        <ele>237.74442068983</ele>
        <time>2015-04-26T15:50:21Z</time>
      </trkpt>
      <trkpt lat="45.71019" lon="5.6517">
        <ele>237.74442068983</ele>
        <time>2015-04-26T15:50:26Z</time>
      </trkpt>
      <trkpt lat="45.71025" lon="5.65178">
        <ele>236.65250975702</ele>
        <time>2015-04-26T15:50:31Z</time>
      </trkpt>
      <trkpt lat="45.71031" lon="5.65187">
        <ele>236.65250975702</ele>
        <time>2015-04-26T15:50:36Z</time>
      </trkpt>
      <trkpt lat="45.71035" lon="5.65197">
        <ele>236.49409260275</ele>
        <time>2015-04-26T15:50:41Z</time>
      </trkpt>
      <trkpt lat="45.71042" lon="5.65203">
        <ele>236.49409260275</ele>
        <time>2015-04-26T15:50:46Z</time>
      </trkpt>
      <trkpt lat="45.71043" lon="5.6521">
        <ele>236.35895605247</ele>
        <time>2015-04-26T15:50:51Z</time>
      </trkpt>
      <trkpt lat="45.71047" lon="5.65216">
        <ele>236.35895605247</ele>
        <time>2015-04-26T15:50:56Z</time>
      </trkpt>
      <trkpt lat="45.71054" lon="5.65223">
        <ele>236.64304786931</ele>
        <time>2015-04-26T15:51:01Z</time>
      </trkpt>
      <trkpt lat="45.71062" lon="5.65232">
        <ele>237.20768872574</ele>
        <time>2015-04-26T15:51:06Z</time>
      </trkpt>
      <trkpt lat="45.71071" lon="5.65239">
        <ele>237.86599819651</ele>
        <time>2015-04-26T15:51:11Z</time>
      </trkpt>
      <trkpt lat="45.7108" lon="5.6524">
        <ele>238.87695736041</ele>
        <time>2015-04-26T15:51:16Z</time>
      </trkpt>
      <trkpt lat="45.71089" lon="5.65239">
        <ele>240.13374935638</ele>
        <time>2015-04-26T15:51:21Z</time>
      </trkpt>
      <trkpt lat="45.71097" lon="5.6524">
        <ele>240.13374935638</ele>
        <time>2015-04-26T15:51:26Z</time>
      </trkpt>
      <trkpt lat="45.71105" lon="5.65243">
        <ele>241.81062902228</ele>
        <time>2015-04-26T15:51:31Z</time>
      </trkpt>
      <trkpt lat="45.71112" lon="5.65247">
        <ele>241.81062902228</ele>
        <time>2015-04-26T15:51:36Z</time>
      </trkpt>
      <trkpt lat="45.7112" lon="5.65252">
        <ele>243.8662411847</ele>
        <time>2015-04-26T15:51:41Z</time>
      </trkpt>
      <trkpt lat="45.71128" lon="5.65256">
        <ele>243.8662411847</ele>
        <time>2015-04-26T15:51:46Z</time>
      </trkpt>
      <trkpt lat="45.71136" lon="5.65262">
        <ele>246.146064021</ele>
        <time>2015-04-26T15:51:51Z</time>
      </trkpt>
      <trkpt lat="45.71143" lon="5.65266">
        <ele>246.146064021</ele>
        <time>2015-04-26T15:51:56Z</time>
      </trkpt>
      <trkpt lat="45.71151" lon="5.65271">
        <ele>248.34794439726</ele>
        <time>2015-04-26T15:52:01Z</time>
      </trkpt>
      <trkpt lat="45.71158" lon="5.65276">
        <ele>248.34794439726</ele>
        <time>2015-04-26T15:52:06Z</time>
      </trkpt>
      <trkpt lat="45.71163" lon="5.65279">
        <ele>250.35085616934</ele>
        <time>2015-04-26T15:52:11Z</time>
      </trkpt>
      <trkpt lat="45.71163" lon="5.65277">
        <ele>250.35085616934</ele>
        <time>2015-04-26T15:52:16Z</time>
      </trkpt>
      <trkpt lat="45.71163" lon="5.65277">
        <ele>250.35085616934</ele>
        <time>2015-04-26T15:52:21Z</time>
      </trkpt>
      <trkpt lat="45.71163" lon="5.65276">
        <ele>250.35085616934</ele>
        <time>2015-04-26T15:52:26Z</time>
      </trkpt>
      <trkpt lat="45.71167" lon="5.65278">
        <ele>250.35085616934</ele>
        <time>2015-04-26T15:52:31Z</time>
      </trkpt>
      <trkpt lat="45.71174" lon="5.65279">
        <ele>252.28842034038</ele>
        <time>2015-04-26T15:52:36Z</time>
      </trkpt>
      <trkpt lat="45.71181" lon="5.65281">
        <ele>252.28842034038</ele>
        <time>2015-04-26T15:52:41Z</time>
      </trkpt>
      <trkpt lat="45.7119" lon="5.65283">
        <ele>254.76041974306</ele>
        <time>2015-04-26T15:52:46Z</time>
      </trkpt>
      <trkpt lat="45.71198" lon="5.65283">
        <ele>254.76041974306</ele>
        <time>2015-04-26T15:52:51Z</time>
      </trkpt>
      <trkpt lat="45.71209" lon="5.6528">
        <ele>257.39901039193</ele>
        <time>2015-04-26T15:52:56Z</time>
      </trkpt>
      <trkpt lat="45.71219" lon="5.65276">
        <ele>259.79110530385</ele>
        <time>2015-04-26T15:53:01Z</time>
      </trkpt>
      <trkpt lat="45.71226" lon="5.65274">
        <ele>259.79110530385</ele>
        <time>2015-04-26T15:53:06Z</time>
      </trkpt>
      <trkpt lat="45.71234" lon="5.6527">
        <ele>262.21783767585</ele>
        <time>2015-04-26T15:53:11Z</time>
      </trkpt>
      <trkpt lat="45.71241" lon="5.65267">
        <ele>262.21783767585</ele>
        <time>2015-04-26T15:53:16Z</time>
      </trkpt>
      <trkpt lat="45.7125" lon="5.65271">
        <ele>264.78135439553</ele>
        <time>2015-04-26T15:53:21Z</time>
      </trkpt>
      <trkpt lat="45.7126" lon="5.65318">
        <ele>267.74914508031</ele>
        <time>2015-04-26T15:53:26Z</time>
      </trkpt>
      <trkpt lat="45.71259" lon="5.65368">
        <ele>270.34503283055</ele>
        <time>2015-04-26T15:53:31Z</time>
      </trkpt>
      <trkpt lat="45.71252" lon="5.65419">
        <ele>272.97528398409</ele>
        <time>2015-04-26T15:53:36Z</time>
      </trkpt>
      <trkpt lat="45.71243" lon="5.65469">
        <ele>275.90125880016</ele>
        <time>2015-04-26T15:53:41Z</time>
      </trkpt>
      <trkpt lat="45.71224" lon="5.65489">
        <ele>279.37903067627</ele>
        <time>2015-04-26T15:53:46Z</time>
      </trkpt>
      <trkpt lat="45.7121" lon="5.65499">
        <ele>282.67910688703</ele>
        <time>2015-04-26T15:53:51Z</time>
      </trkpt>
      <trkpt lat="45.71205" lon="5.65506">
        <ele>282.67910688703</ele>
        <time>2015-04-26T15:53:56Z</time>
      </trkpt>
      <trkpt lat="45.712" lon="5.65509">
        <ele>285.52993610112</ele>
        <time>2015-04-26T15:54:01Z</time>
      </trkpt>
      <trkpt lat="45.71194" lon="5.65507">
        <ele>285.52993610112</ele>
        <time>2015-04-26T15:54:06Z</time>
      </trkpt>
      <trkpt lat="45.71186" lon="5.65503">
        <ele>287.98415648101</ele>
        <time>2015-04-26T15:54:11Z</time>
      </trkpt>
      <trkpt lat="45.71177" lon="5.65496">
        <ele>290.1928789913</ele>
        <time>2015-04-26T15:54:16Z</time>
      </trkpt>
      <trkpt lat="45.71169" lon="5.65492">
        <ele>290.1928789913</ele>
        <time>2015-04-26T15:54:21Z</time>
      </trkpt>
      <trkpt lat="45.71169" lon="5.65493">
        <ele>290.1928789913</ele>
        <time>2015-04-26T15:54:26Z</time>
      </trkpt>
      <trkpt lat="45.7116" lon="5.65488">
        <ele>292.15303825142</ele>
        <time>2015-04-26T15:54:31Z</time>
      </trkpt>
      <trkpt lat="45.71134" lon="5.65481">
        <ele>293.63225370543</ele>
        <time>2015-04-26T15:54:36Z</time>
      </trkpt>
      <trkpt lat="45.71111" lon="5.65472">
        <ele>294.8780509124</ele>
        <time>2015-04-26T15:54:41Z</time>
      </trkpt>
      <trkpt lat="45.71104" lon="5.65466">
        <ele>294.8780509124</ele>
        <time>2015-04-26T15:54:46Z</time>
      </trkpt>
      <trkpt lat="45.71095" lon="5.6546">
        <ele>295.40018875368</ele>
        <time>2015-04-26T15:54:51Z</time>
      </trkpt>
      <trkpt lat="45.71088" lon="5.65454">
        <ele>295.40018875368</ele>
        <time>2015-04-26T15:54:56Z</time>
      </trkpt>
      <trkpt lat="45.7108" lon="5.65447">
        <ele>295.59702583602</ele>
        <time>2015-04-26T15:55:01Z</time>
      </trkpt>
      <trkpt lat="45.71073" lon="5.6544">
        <ele>295.59702583602</ele>
        <time>2015-04-26T15:55:06Z</time>
      </trkpt>
      <trkpt lat="45.71068" lon="5.65436">
        <ele>295.59386256507</ele>
        <time>2015-04-26T15:55:11Z</time>
      </trkpt>
      <trkpt lat="45.7106" lon="5.65431">
        <ele>295.59386256507</ele>
        <time>2015-04-26T15:55:16Z</time>
      </trkpt>
      <trkpt lat="45.7106" lon="5.65433">
        <ele>295.3346818805</ele>
        <time>2015-04-26T15:55:21Z</time>
      </trkpt>
      <trkpt lat="45.71052" lon="5.65427">
        <ele>295.3346818805</ele>
        <time>2015-04-26T15:55:26Z</time>
      </trkpt>
      <trkpt lat="45.71045" lon="5.65423">
        <ele>295.11440261272</ele>
        <time>2015-04-26T15:55:31Z</time>
      </trkpt>
      <trkpt lat="45.71038" lon="5.65419">
        <ele>295.11440261272</ele>
        <time>2015-04-26T15:55:36Z</time>
      </trkpt>
      <trkpt lat="45.71031" lon="5.65415">
        <ele>294.4137698521</ele>
        <time>2015-04-26T15:55:41Z</time>
      </trkpt>
      <trkpt lat="45.71025" lon="5.65413">
        <ele>294.4137698521</ele>
        <time>2015-04-26T15:55:46Z</time>
      </trkpt>
      <trkpt lat="45.71021" lon="5.65408">
        <ele>293.87727448478</ele>
        <time>2015-04-26T15:55:51Z</time>
      </trkpt>
      <trkpt lat="45.71016" lon="5.65403">
        <ele>293.87727448478</ele>
        <time>2015-04-26T15:55:56Z</time>
      </trkpt>
      <trkpt lat="45.7101" lon="5.65398">
        <ele>293.2515098746</ele>
        <time>2015-04-26T15:56:01Z</time>
      </trkpt>
      <trkpt lat="45.71003" lon="5.6539">
        <ele>292.38854034103</ele>
        <time>2015-04-26T15:56:06Z</time>
      </trkpt>
      <trkpt lat="45.70994" lon="5.65381">
        <ele>291.15207755362</ele>
        <time>2015-04-26T15:56:11Z</time>
      </trkpt>
      <trkpt lat="45.70986" lon="5.65372">
        <ele>289.89255053306</ele>
        <time>2015-04-26T15:56:16Z</time>
      </trkpt>
      <trkpt lat="45.70981" lon="5.65365">
        <ele>289.89255053306</ele>
        <time>2015-04-26T15:56:21Z</time>
      </trkpt>
      <trkpt lat="45.70976" lon="5.65359">
        <ele>288.27186633886</ele>
        <time>2015-04-26T15:56:26Z</time>
      </trkpt>
      <trkpt lat="45.70969" lon="5.65355">
        <ele>288.27186633886</ele>
        <time>2015-04-26T15:56:31Z</time>
      </trkpt>
      <trkpt lat="45.70962" lon="5.65348">
        <ele>286.56867990787</ele>
        <time>2015-04-26T15:56:36Z</time>
      </trkpt>
      <trkpt lat="45.70955" lon="5.6534">
        <ele>286.56867990787</ele>
        <time>2015-04-26T15:56:41Z</time>
      </trkpt>
      <trkpt lat="45.70948" lon="5.65336">
        <ele>284.55144824152</ele>
        <time>2015-04-26T15:56:46Z</time>
      </trkpt>
      <trkpt lat="45.70942" lon="5.65329">
        <ele>284.55144824152</ele>
        <time>2015-04-26T15:56:51Z</time>
      </trkpt>
      <trkpt lat="45.70936" lon="5.65323">
        <ele>282.46766842185</ele>
        <time>2015-04-26T15:56:56Z</time>
      </trkpt>
      <trkpt lat="45.70931" lon="5.65318">
        <ele>282.46766842185</ele>
        <time>2015-04-26T15:57:01Z</time>
      </trkpt>
      <trkpt lat="45.70927" lon="5.65318">
        <ele>280.05683543111</ele>
        <time>2015-04-26T15:57:06Z</time>
      </trkpt>
      <trkpt lat="45.70922" lon="5.65315">
        <ele>280.05683543111</ele>
        <time>2015-04-26T15:57:11Z</time>
      </trkpt>
      <trkpt lat="45.70917" lon="5.65311">
        <ele>277.64047843041</ele>
        <time>2015-04-26T15:57:16Z</time>
      </trkpt>
      <trkpt lat="45.70911" lon="5.65311">
        <ele>277.64047843041</ele>
        <time>2015-04-26T15:57:21Z</time>
      </trkpt>
      <trkpt lat="45.70905" lon="5.65307">
        <ele>274.65177849653</ele>
        <time>2015-04-26T15:57:26Z</time>
      </trkpt>
      <trkpt lat="45.70897" lon="5.65305">
        <ele>274.65177849653</ele>
        <time>2015-04-26T15:57:31Z</time>
      </trkpt>
      <trkpt lat="45.70892" lon="5.65307">
        <ele>271.44613767011</ele>
        <time>2015-04-26T15:57:36Z</time>
      </trkpt>
      <trkpt lat="45.70886" lon="5.65307">
        <ele>271.44613767011</ele>
        <time>2015-04-26T15:57:41Z</time>
      </trkpt>
      <trkpt lat="45.70881" lon="5.6531">
        <ele>268.22363444232</ele>
        <time>2015-04-26T15:57:46Z</time>
      </trkpt>
      <trkpt lat="45.70874" lon="5.6531">
        <ele>268.22363444232</ele>
        <time>2015-04-26T15:57:51Z</time>
      </trkpt>
      <trkpt lat="45.70869" lon="5.65306">
        <ele>265.54423950277</ele>
        <time>2015-04-26T15:57:56Z</time>
      </trkpt>
      <trkpt lat="45.70868" lon="5.65307">
        <ele>265.54423950277</ele>
        <time>2015-04-26T15:58:01Z</time>
      </trkpt>
      <trkpt lat="45.70861" lon="5.65312">
        <ele>262.93073099486</ele>
        <time>2015-04-26T15:58:06Z</time>
      </trkpt>
      <trkpt lat="45.70855" lon="5.65317">
        <ele>262.93073099486</ele>
        <time>2015-04-26T15:58:11Z</time>
      </trkpt>
      <trkpt lat="45.7085" lon="5.65322">
        <ele>260.0846852502</ele>
        <time>2015-04-26T15:58:16Z</time>
      </trkpt>
      <trkpt lat="45.70841" lon="5.65337">
        <ele>256.73005250857</ele>
        <time>2015-04-26T15:58:21Z</time>
      </trkpt>
      <trkpt lat="45.70831" lon="5.65347">
        <ele>253.76516340951</ele>
        <time>2015-04-26T15:58:26Z</time>
      </trkpt>
      <trkpt lat="45.70821" lon="5.65355">
        <ele>250.8537370536</ele>
        <time>2015-04-26T15:58:31Z</time>
      </trkpt>
      <trkpt lat="45.70814" lon="5.65363">
        <ele>248.21701887332</ele>
        <time>2015-04-26T15:58:36Z</time>
      </trkpt>
      <trkpt lat="45.70809" lon="5.65372">
        <ele>248.21701887332</ele>
        <time>2015-04-26T15:58:41Z</time>
      </trkpt>
      <trkpt lat="45.70804" lon="5.6538">
        <ele>245.17990532203</ele>
        <time>2015-04-26T15:58:46Z</time>
      </trkpt>
      <trkpt lat="45.70799" lon="5.65389">
        <ele>245.17990532203</ele>
        <time>2015-04-26T15:58:51Z</time>
      </trkpt>
      <trkpt lat="45.70792" lon="5.65398">
        <ele>242.42916572302</ele>
        <time>2015-04-26T15:58:56Z</time>
      </trkpt>
      <trkpt lat="45.70787" lon="5.65407">
        <ele>242.42916572302</ele>
        <time>2015-04-26T15:59:01Z</time>
      </trkpt>
      <trkpt lat="45.70783" lon="5.65414">
        <ele>239.77862267907</ele>
        <time>2015-04-26T15:59:06Z</time>
      </trkpt>
      <trkpt lat="45.7078" lon="5.65423">
        <ele>239.77862267907</ele>
        <time>2015-04-26T15:59:11Z</time>
      </trkpt>
      <trkpt lat="45.70785" lon="5.65434">
        <ele>237.51638670384</ele>
        <time>2015-04-26T15:59:16Z</time>
      </trkpt>
      <trkpt lat="45.70791" lon="5.65444">
        <ele>235.61982825322</ele>
        <time>2015-04-26T15:59:21Z</time>
      </trkpt>
      <trkpt lat="45.70799" lon="5.65451">
        <ele>234.28286002362</ele>
        <time>2015-04-26T15:59:26Z</time>
      </trkpt>
      <trkpt lat="45.70804" lon="5.65462">
        <ele>234.28286002362</ele>
        <time>2015-04-26T15:59:31Z</time>
      </trkpt>
      <trkpt lat="45.70808" lon="5.65466">
        <ele>231.75223337664</ele>
        <time>2015-04-26T15:59:36Z</time>
      </trkpt>
      <trkpt lat="45.70811" lon="5.65475">
        <ele>231.75223337664</ele>
        <time>2015-04-26T15:59:41Z</time>
      </trkpt>
      <trkpt lat="45.70807" lon="5.65483">
        <ele>229.6779130945</ele>
        <time>2015-04-26T15:59:46Z</time>
      </trkpt>
      <trkpt lat="45.70803" lon="5.65492">
        <ele>229.6779130945</ele>
        <time>2015-04-26T15:59:51Z</time>
      </trkpt>
      <trkpt lat="45.70798" lon="5.65498">
        <ele>227.32458741954</ele>
        <time>2015-04-26T15:59:56Z</time>
      </trkpt>
      <trkpt lat="45.7079" lon="5.65505">
        <ele>225.66878157091</ele>
        <time>2015-04-26T16:00:01Z</time>
      </trkpt>
      <trkpt lat="45.70785" lon="5.65514">
        <ele>225.66878157091</ele>
        <time>2015-04-26T16:00:06Z</time>
      </trkpt>
      <trkpt lat="45.7078" lon="5.65519">
        <ele>224.14316160415</ele>
        <time>2015-04-26T16:00:11Z</time>
      </trkpt>
      <trkpt lat="45.70773" lon="5.65523">
        <ele>224.14316160415</ele>
        <time>2015-04-26T16:00:16Z</time>
      </trkpt>
      <trkpt lat="45.70766" lon="5.65527">
        <ele>223.27349155448</ele>
        <time>2015-04-26T16:00:21Z</time>
      </trkpt>
      <trkpt lat="45.70758" lon="5.65535">
        <ele>223.19899458595</ele>
        <time>2015-04-26T16:00:26Z</time>
      </trkpt>
      <trkpt lat="45.70752" lon="5.65542">
        <ele>223.19899458595</ele>
        <time>2015-04-26T16:00:31Z</time>
      </trkpt>
      <trkpt lat="45.70746" lon="5.65547">
        <ele>222.61953888396</ele>
        <time>2015-04-26T16:00:36Z</time>
      </trkpt>
      <trkpt lat="45.70741" lon="5.65551">
        <ele>222.61953888396</ele>
        <time>2015-04-26T16:00:41Z</time>
      </trkpt>
      <trkpt lat="45.70735" lon="5.65558">
        <ele>222.32047123416</ele>
        <time>2015-04-26T16:00:46Z</time>
      </trkpt>
      <trkpt lat="45.7073" lon="5.65564">
        <ele>222.32047123416</ele>
        <time>2015-04-26T16:00:51Z</time>
      </trkpt>
      <trkpt lat="45.70723" lon="5.65571">
        <ele>222.20706696563</ele>
        <time>2015-04-26T16:00:56Z</time>
      </trkpt>
      <trkpt lat="45.70717" lon="5.65577">
        <ele>222.20706696563</ele>
        <time>2015-04-26T16:01:01Z</time>
      </trkpt>
      <trkpt lat="45.70712" lon="5.65583">
        <ele>222.23413125475</ele>
        <time>2015-04-26T16:01:06Z</time>
      </trkpt>
      <trkpt lat="45.70707" lon="5.65593">
        <ele>222.23413125475</ele>
        <time>2015-04-26T16:01:11Z</time>
      </trkpt>
      <trkpt lat="45.70703" lon="5.65604">
        <ele>222.84925157579</ele>
        <time>2015-04-26T16:01:16Z</time>
      </trkpt>
      <trkpt lat="45.70698" lon="5.65614">
        <ele>222.84925157579</ele>
        <time>2015-04-26T16:01:21Z</time>
      </trkpt>
      <trkpt lat="45.70694" lon="5.65621">
        <ele>223.08191695278</ele>
        <time>2015-04-26T16:01:26Z</time>
      </trkpt>
      <trkpt lat="45.70689" lon="5.65626">
        <ele>223.08191695278</ele>
        <time>2015-04-26T16:01:31Z</time>
      </trkpt>
      <trkpt lat="45.70684" lon="5.65632">
        <ele>223.04267767683</ele>
        <time>2015-04-26T16:01:36Z</time>
      </trkpt>
      <trkpt lat="45.70678" lon="5.65637">
        <ele>223.04267767683</ele>
        <time>2015-04-26T16:01:41Z</time>
      </trkpt>
      <trkpt lat="45.70671" lon="5.65642">
        <ele>222.50320444727</ele>
        <time>2015-04-26T16:01:46Z</time>
      </trkpt>
      <trkpt lat="45.70664" lon="5.65646">
        <ele>222.50320444727</ele>
        <time>2015-04-26T16:01:51Z</time>
      </trkpt>
      <trkpt lat="45.70657" lon="5.65648">
        <ele>221.51269272798</ele>
        <time>2015-04-26T16:01:56Z</time>
      </trkpt>
      <trkpt lat="45.70649" lon="5.65652">
        <ele>221.51269272798</ele>
        <time>2015-04-26T16:02:01Z</time>
      </trkpt>
      <trkpt lat="45.70642" lon="5.65657">
        <ele>221.04026072875</ele>
        <time>2015-04-26T16:02:06Z</time>
      </trkpt>
      <trkpt lat="45.70635" lon="5.65661">
        <ele>221.04026072875</ele>
        <time>2015-04-26T16:02:11Z</time>
      </trkpt>
      <trkpt lat="45.70629" lon="5.65666">
        <ele>220.41153938625</ele>
        <time>2015-04-26T16:02:16Z</time>
      </trkpt>
      <trkpt lat="45.70622" lon="5.65673">
        <ele>220.41153938625</ele>
        <time>2015-04-26T16:02:21Z</time>
      </trkpt>
      <trkpt lat="45.70615" lon="5.65679">
        <ele>220.2270586887</ele>
        <time>2015-04-26T16:02:26Z</time>
      </trkpt>
      <trkpt lat="45.70608" lon="5.65684">
        <ele>220.2270586887</ele>
        <time>2015-04-26T16:02:31Z</time>
      </trkpt>
      <trkpt lat="45.70602" lon="5.65691">
        <ele>219.88908357702</ele>
        <time>2015-04-26T16:02:36Z</time>
      </trkpt>
      <trkpt lat="45.70595" lon="5.65699">
        <ele>219.88908357702</ele>
        <time>2015-04-26T16:02:41Z</time>
      </trkpt>
      <trkpt lat="45.70588" lon="5.65706">
        <ele>219.88181359118</ele>
        <time>2015-04-26T16:02:46Z</time>
      </trkpt>
      <trkpt lat="45.70581" lon="5.65714">
        <ele>219.88181359118</ele>
        <time>2015-04-26T16:02:51Z</time>
      </trkpt>
      <trkpt lat="45.70577" lon="5.65732">
        <ele>220.06209977208</ele>
        <time>2015-04-26T16:02:56Z</time>
      </trkpt>
      <trkpt lat="45.70561" lon="5.65774">
        <ele>220.62825318939</ele>
        <time>2015-04-26T16:03:01Z</time>
      </trkpt>
      <trkpt lat="45.70547" lon="5.65811">
        <ele>221.22974954822</ele>
        <time>2015-04-26T16:03:06Z</time>
      </trkpt>
      <trkpt lat="45.7053" lon="5.6585">
        <ele>222.13260935603</ele>
        <time>2015-04-26T16:03:11Z</time>
      </trkpt>
      <trkpt lat="45.70502" lon="5.65853">
        <ele>222.83313947954</ele>
        <time>2015-04-26T16:03:16Z</time>
      </trkpt>
      <trkpt lat="45.7047" lon="5.65863">
        <ele>223.18232339492</ele>
        <time>2015-04-26T16:03:21Z</time>
      </trkpt>
      <trkpt lat="45.70436" lon="5.65872">
        <ele>223.5619511345</ele>
        <time>2015-04-26T16:03:26Z</time>
      </trkpt>
      <trkpt lat="45.70403" lon="5.65878">
        <ele>224.02313091227</ele>
        <time>2015-04-26T16:03:31Z</time>
      </trkpt>
      <trkpt lat="45.70376" lon="5.65903">
        <ele>224.69954526751</ele>
        <time>2015-04-26T16:03:36Z</time>
      </trkpt>
      <trkpt lat="45.70355" lon="5.65936">
        <ele>225.75778435394</ele>
        <time>2015-04-26T16:03:41Z</time>
      </trkpt>
      <trkpt lat="45.70332" lon="5.65963">
        <ele>226.54421268375</ele>
        <time>2015-04-26T16:03:46Z</time>
      </trkpt>
      <trkpt lat="45.70314" lon="5.65997">
        <ele>227.39080869748</ele>
        <time>2015-04-26T16:03:51Z</time>
      </trkpt>
      <trkpt lat="45.70292" lon="5.66021">
        <ele>227.69721415658</ele>
        <time>2015-04-26T16:03:56Z</time>
      </trkpt>
      <trkpt lat="45.70272" lon="5.66044">
        <ele>228.03287950819</ele>
        <time>2015-04-26T16:04:01Z</time>
      </trkpt>
      <trkpt lat="45.7025" lon="5.66071">
        <ele>228.40666848339</ele>
        <time>2015-04-26T16:04:06Z</time>
      </trkpt>
      <trkpt lat="45.70229" lon="5.66091">
        <ele>228.45212554519</ele>
        <time>2015-04-26T16:04:11Z</time>
      </trkpt>
      <trkpt lat="45.70204" lon="5.66113">
        <ele>228.24868491303</ele>
        <time>2015-04-26T16:04:16Z</time>
      </trkpt>
      <trkpt lat="45.70182" lon="5.66137">
        <ele>228.05811275275</ele>
        <time>2015-04-26T16:04:21Z</time>
      </trkpt>
      <trkpt lat="45.70155" lon="5.66165">
        <ele>228.65624341287</ele>
        <time>2015-04-26T16:04:26Z</time>
      </trkpt>
      <trkpt lat="45.70134" lon="5.66184">
        <ele>228.64139101304</ele>
        <time>2015-04-26T16:04:31Z</time>
      </trkpt>
      <trkpt lat="45.70114" lon="5.66209">
        <ele>229.03686261155</ele>
        <time>2015-04-26T16:04:36Z</time>
      </trkpt>
      <trkpt lat="45.70094" lon="5.66226">
        <ele>229.47834609462</ele>
        <time>2015-04-26T16:04:41Z</time>
      </trkpt>
      <trkpt lat="45.70083" lon="5.66242">
        <ele>230.16148825894</ele>
        <time>2015-04-26T16:04:46Z</time>
      </trkpt>
      <trkpt lat="45.7008" lon="5.66246">
        <ele>230.16148825894</ele>
        <time>2015-04-26T16:04:51Z</time>
      </trkpt>
      <trkpt lat="45.70075" lon="5.66252">
        <ele>230.6617327372</ele>
        <time>2015-04-26T16:04:56Z</time>
      </trkpt>
      <trkpt lat="45.70069" lon="5.66259">
        <ele>230.6617327372</ele>
        <time>2015-04-26T16:05:01Z</time>
      </trkpt>
      <trkpt lat="45.70065" lon="5.66266">
        <ele>230.71603679248</ele>
        <time>2015-04-26T16:05:06Z</time>
      </trkpt>
      <trkpt lat="45.70059" lon="5.66269">
        <ele>230.71603679248</ele>
        <time>2015-04-26T16:05:11Z</time>
      </trkpt>
      <trkpt lat="45.70052" lon="5.66275">
        <ele>230.65848733407</ele>
        <time>2015-04-26T16:05:16Z</time>
      </trkpt>
      <trkpt lat="45.70046" lon="5.66281">
        <ele>230.65848733407</ele>
        <time>2015-04-26T16:05:21Z</time>
      </trkpt>
      <trkpt lat="45.7004" lon="5.66286">
        <ele>230.42436178854</ele>
        <time>2015-04-26T16:05:26Z</time>
      </trkpt>
      <trkpt lat="45.70033" lon="5.66292">
        <ele>230.42436178854</ele>
        <time>2015-04-26T16:05:31Z</time>
      </trkpt>
      <trkpt lat="45.70026" lon="5.66301">
        <ele>230.86219143246</ele>
        <time>2015-04-26T16:05:36Z</time>
      </trkpt>
      <trkpt lat="45.7002" lon="5.66311">
        <ele>230.86219143246</ele>
        <time>2015-04-26T16:05:41Z</time>
      </trkpt>
      <trkpt lat="45.70014" lon="5.6632">
        <ele>231.5890893955</ele>
        <time>2015-04-26T16:05:46Z</time>
      </trkpt>
      <trkpt lat="45.70008" lon="5.66328">
        <ele>231.5890893955</ele>
        <time>2015-04-26T16:05:51Z</time>
      </trkpt>
      <trkpt lat="45.70003" lon="5.66336">
        <ele>232.00459246894</ele>
        <time>2015-04-26T16:05:56Z</time>
      </trkpt>
      <trkpt lat="45.69998" lon="5.66344">
        <ele>232.00459246894</ele>
        <time>2015-04-26T16:06:01Z</time>
      </trkpt>
      <trkpt lat="45.69993" lon="5.66353">
        <ele>232.72061675896</ele>
        <time>2015-04-26T16:06:06Z</time>
      </trkpt>
      <trkpt lat="45.69979" lon="5.66374">
        <ele>233.48194616584</ele>
        <time>2015-04-26T16:06:11Z</time>
      </trkpt>
      <trkpt lat="45.69968" lon="5.66411">
        <ele>234.03766956467</ele>
        <time>2015-04-26T16:06:16Z</time>
      </trkpt>
      <trkpt lat="45.69986" lon="5.66456">
        <ele>234.50184560154</ele>
        <time>2015-04-26T16:06:21Z</time>
      </trkpt>
      <trkpt lat="45.70004" lon="5.66498">
        <ele>235.47048327024</ele>
        <time>2015-04-26T16:06:26Z</time>
      </trkpt>
      <trkpt lat="45.70025" lon="5.66536">
        <ele>235.93808641641</ele>
        <time>2015-04-26T16:06:31Z</time>
      </trkpt>
      <trkpt lat="45.70044" lon="5.66575">
        <ele>236.70385374211</ele>
        <time>2015-04-26T16:06:36Z</time>
      </trkpt>
      <trkpt lat="45.70059" lon="5.66609">
        <ele>237.59962998398</ele>
        <time>2015-04-26T16:06:41Z</time>
      </trkpt>
      <trkpt lat="45.70073" lon="5.66646">
        <ele>238.8152061815</ele>
        <time>2015-04-26T16:06:46Z</time>
      </trkpt>
      <trkpt lat="45.70089" lon="5.66683">
        <ele>240.17975985494</ele>
        <time>2015-04-26T16:06:51Z</time>
      </trkpt>
      <trkpt lat="45.70105" lon="5.66718">
        <ele>241.50587107892</ele>
        <time>2015-04-26T16:06:56Z</time>
      </trkpt>
      <trkpt lat="45.70098" lon="5.66726">
        <ele>241.50587107892</ele>
        <time>2015-04-26T16:07:01Z</time>
      </trkpt>
      <trkpt lat="45.70091" lon="5.66731">
        <ele>242.10129073874</ele>
        <time>2015-04-26T16:07:06Z</time>
      </trkpt>
      <trkpt lat="45.70084" lon="5.66735">
        <ele>242.10129073874</ele>
        <time>2015-04-26T16:07:11Z</time>
      </trkpt>
      <trkpt lat="45.70078" lon="5.66741">
        <ele>242.23466720014</ele>
        <time>2015-04-26T16:07:16Z</time>
      </trkpt>
      <trkpt lat="45.70072" lon="5.66749">
        <ele>242.23466720014</ele>
        <time>2015-04-26T16:07:21Z</time>
      </trkpt>
      <trkpt lat="45.70062" lon="5.66761">
        <ele>242.17071357226</ele>
        <time>2015-04-26T16:07:26Z</time>
      </trkpt>
      <trkpt lat="45.70052" lon="5.66776">
        <ele>241.96799263194</ele>
        <time>2015-04-26T16:07:31Z</time>
      </trkpt>
      <trkpt lat="45.70044" lon="5.66785">
        <ele>241.69564349144</ele>
        <time>2015-04-26T16:07:36Z</time>
      </trkpt>
      <trkpt lat="45.70038" lon="5.66793">
        <ele>241.23064538344</ele>
        <time>2015-04-26T16:07:41Z</time>
      </trkpt>
      <trkpt lat="45.70031" lon="5.668">
        <ele>241.23064538344</ele>
        <time>2015-04-26T16:07:46Z</time>
      </trkpt>
      <trkpt lat="45.70025" lon="5.66809">
        <ele>240.97841369978</ele>
        <time>2015-04-26T16:07:51Z</time>
      </trkpt>
      <trkpt lat="45.70019" lon="5.66817">
        <ele>240.97841369978</ele>
        <time>2015-04-26T16:07:56Z</time>
      </trkpt>
      <trkpt lat="45.70014" lon="5.66824">
        <ele>239.85850997121</ele>
        <time>2015-04-26T16:08:01Z</time>
      </trkpt>
      <trkpt lat="45.70008" lon="5.66832">
        <ele>239.85850997121</ele>
        <time>2015-04-26T16:08:06Z</time>
      </trkpt>
      <trkpt lat="45.70003" lon="5.66842">
        <ele>239.35104705769</ele>
        <time>2015-04-26T16:08:11Z</time>
      </trkpt>
      <trkpt lat="45.69995" lon="5.6685">
        <ele>238.36141588742</ele>
        <time>2015-04-26T16:08:16Z</time>
      </trkpt>
      <trkpt lat="45.69987" lon="5.66856">
        <ele>238.36141588742</ele>
        <time>2015-04-26T16:08:21Z</time>
      </trkpt>
      <trkpt lat="45.69979" lon="5.66856">
        <ele>237.57729525901</ele>
        <time>2015-04-26T16:08:26Z</time>
      </trkpt>
      <trkpt lat="45.69974" lon="5.66865">
        <ele>237.57729525901</ele>
        <time>2015-04-26T16:08:31Z</time>
      </trkpt>
      <trkpt lat="45.69969" lon="5.66873">
        <ele>236.79942932477</ele>
        <time>2015-04-26T16:08:36Z</time>
      </trkpt>
      <trkpt lat="45.69963" lon="5.66882">
        <ele>236.79942932477</ele>
        <time>2015-04-26T16:08:41Z</time>
      </trkpt>
      <trkpt lat="45.69958" lon="5.6689">
        <ele>236.49167620059</ele>
        <time>2015-04-26T16:08:46Z</time>
      </trkpt>
      <trkpt lat="45.69953" lon="5.66898">
        <ele>236.49167620059</ele>
        <time>2015-04-26T16:08:51Z</time>
      </trkpt>
      <trkpt lat="45.69948" lon="5.66906">
        <ele>235.97283018048</ele>
        <time>2015-04-26T16:08:56Z</time>
      </trkpt>
      <trkpt lat="45.69943" lon="5.66916">
        <ele>235.97283018048</ele>
        <time>2015-04-26T16:09:01Z</time>
      </trkpt>
      <trkpt lat="45.69936" lon="5.66925">
        <ele>235.0734528092</ele>
        <time>2015-04-26T16:09:06Z</time>
      </trkpt>
      <trkpt lat="45.6993" lon="5.66933">
        <ele>235.0734528092</ele>
        <time>2015-04-26T16:09:11Z</time>
      </trkpt>
      <trkpt lat="45.69924" lon="5.6694">
        <ele>234.2140363739</ele>
        <time>2015-04-26T16:09:16Z</time>
      </trkpt>
      <trkpt lat="45.69917" lon="5.66946">
        <ele>234.2140363739</ele>
        <time>2015-04-26T16:09:21Z</time>
      </trkpt>
      <trkpt lat="45.6991" lon="5.66952">
        <ele>233.19318104001</ele>
        <time>2015-04-26T16:09:26Z</time>
      </trkpt>
      <trkpt lat="45.69904" lon="5.66959">
        <ele>233.19318104001</ele>
        <time>2015-04-26T16:09:31Z</time>
      </trkpt>
      <trkpt lat="45.69894" lon="5.66964">
        <ele>232.47319282566</ele>
        <time>2015-04-26T16:09:36Z</time>
      </trkpt>
      <trkpt lat="45.69886" lon="5.66968">
        <ele>232.47319282566</ele>
        <time>2015-04-26T16:09:41Z</time>
      </trkpt>
      <trkpt lat="45.69877" lon="5.66972">
        <ele>231.29981206436</ele>
        <time>2015-04-26T16:09:46Z</time>
      </trkpt>
      <trkpt lat="45.6987" lon="5.66975">
        <ele>231.29981206436</ele>
        <time>2015-04-26T16:09:51Z</time>
      </trkpt>
      <trkpt lat="45.69862" lon="5.66979">
        <ele>230.60385918194</ele>
        <time>2015-04-26T16:09:56Z</time>
      </trkpt>
      <trkpt lat="45.69855" lon="5.6698">
        <ele>230.60385918194</ele>
        <time>2015-04-26T16:10:01Z</time>
      </trkpt>
      <trkpt lat="45.69847" lon="5.66981">
        <ele>229.79085394035</ele>
        <time>2015-04-26T16:10:06Z</time>
      </trkpt>
      <trkpt lat="45.69839" lon="5.6698">
        <ele>229.79085394035</ele>
        <time>2015-04-26T16:10:11Z</time>
      </trkpt>
      <trkpt lat="45.69832" lon="5.66979">
        <ele>228.7281709166</ele>
        <time>2015-04-26T16:10:16Z</time>
      </trkpt>
      <trkpt lat="45.69824" lon="5.6698">
        <ele>228.7281709166</ele>
        <time>2015-04-26T16:10:21Z</time>
      </trkpt>
      <trkpt lat="45.69816" lon="5.6698">
        <ele>228.20145814926</ele>
        <time>2015-04-26T16:10:26Z</time>
      </trkpt>
      <trkpt lat="45.69808" lon="5.66978">
        <ele>228.20145814926</ele>
        <time>2015-04-26T16:10:31Z</time>
      </trkpt>
      <trkpt lat="45.698" lon="5.66973">
        <ele>227.69771832553</ele>
        <time>2015-04-26T16:10:36Z</time>
      </trkpt>
      <trkpt lat="45.69792" lon="5.66972">
        <ele>227.69771832553</ele>
        <time>2015-04-26T16:10:41Z</time>
      </trkpt>
      <trkpt lat="45.69784" lon="5.66968">
        <ele>227.4476450709</ele>
        <time>2015-04-26T16:10:46Z</time>
      </trkpt>
      <trkpt lat="45.69775" lon="5.66967">
        <ele>227.4476450709</ele>
        <time>2015-04-26T16:10:51Z</time>
      </trkpt>
      <trkpt lat="45.69767" lon="5.66964">
        <ele>227.27510010328</ele>
        <time>2015-04-26T16:10:56Z</time>
      </trkpt>
      <trkpt lat="45.69759" lon="5.66961">
        <ele>227.27510010328</ele>
        <time>2015-04-26T16:11:01Z</time>
      </trkpt>
      <trkpt lat="45.69751" lon="5.66958">
        <ele>227.1174728607</ele>
        <time>2015-04-26T16:11:06Z</time>
      </trkpt>
      <trkpt lat="45.69743" lon="5.66955">
        <ele>227.1174728607</ele>
        <time>2015-04-26T16:11:11Z</time>
      </trkpt>
      <trkpt lat="45.69735" lon="5.66953">
        <ele>227.08957496826</ele>
        <time>2015-04-26T16:11:16Z</time>
      </trkpt>
      <trkpt lat="45.69728" lon="5.66949">
        <ele>227.08957496826</ele>
        <time>2015-04-26T16:11:21Z</time>
      </trkpt>
      <trkpt lat="45.6972" lon="5.66944">
        <ele>227.03795489829</ele>
        <time>2015-04-26T16:11:26Z</time>
      </trkpt>
      <trkpt lat="45.69713" lon="5.6694">
        <ele>227.03795489829</ele>
        <time>2015-04-26T16:11:31Z</time>
      </trkpt>
      <trkpt lat="45.69704" lon="5.66936">
        <ele>226.8636720019</ele>
        <time>2015-04-26T16:11:36Z</time>
      </trkpt>
      <trkpt lat="45.69689" lon="5.66948">
        <ele>226.07182766424</ele>
        <time>2015-04-26T16:11:41Z</time>
      </trkpt>
      <trkpt lat="45.69684" lon="5.66976">
        <ele>225.41608736485</ele>
        <time>2015-04-26T16:11:46Z</time>
      </trkpt>
      <trkpt lat="45.69675" lon="5.6702">
        <ele>224.78729184378</ele>
        <time>2015-04-26T16:11:51Z</time>
      </trkpt>
      <trkpt lat="45.69667" lon="5.67063">
        <ele>224.15622361998</ele>
        <time>2015-04-26T16:11:56Z</time>
      </trkpt>
      <trkpt lat="45.69655" lon="5.67115">
        <ele>223.89927208214</ele>
        <time>2015-04-26T16:12:01Z</time>
      </trkpt>
      <trkpt lat="45.69646" lon="5.67162">
        <ele>223.96056081898</ele>
        <time>2015-04-26T16:12:06Z</time>
      </trkpt>
      <trkpt lat="45.69637" lon="5.67207">
        <ele>224.34501733494</ele>
        <time>2015-04-26T16:12:11Z</time>
      </trkpt>
      <trkpt lat="45.69636" lon="5.67238">
        <ele>224.33569660726</ele>
        <time>2015-04-26T16:12:16Z</time>
      </trkpt>
      <trkpt lat="45.69636" lon="5.67267">
        <ele>224.68167193812</ele>
        <time>2015-04-26T16:12:21Z</time>
      </trkpt>
      <trkpt lat="45.69636" lon="5.67278">
        <ele>224.68167193812</ele>
        <time>2015-04-26T16:12:26Z</time>
      </trkpt>
      <trkpt lat="45.69635" lon="5.67293">
        <ele>225.0383573526</ele>
        <time>2015-04-26T16:12:31Z</time>
      </trkpt>
      <trkpt lat="45.69634" lon="5.67304">
        <ele>225.0383573526</ele>
        <time>2015-04-26T16:12:36Z</time>
      </trkpt>
      <trkpt lat="45.69632" lon="5.67314">
        <ele>225.48993212212</ele>
        <time>2015-04-26T16:12:41Z</time>
      </trkpt>
      <trkpt lat="45.69631" lon="5.67324">
        <ele>225.48993212212</ele>
        <time>2015-04-26T16:12:46Z</time>
      </trkpt>
      <trkpt lat="45.69632" lon="5.67334">
        <ele>225.56647995366</ele>
        <time>2015-04-26T16:12:51Z</time>
      </trkpt>
      <trkpt lat="45.69632" lon="5.67345">
        <ele>225.56647995366</ele>
        <time>2015-04-26T16:12:56Z</time>
      </trkpt>
      <trkpt lat="45.69632" lon="5.67356">
        <ele>225.28038289312</ele>
        <time>2015-04-26T16:13:01Z</time>
      </trkpt>
      <trkpt lat="45.69631" lon="5.67369">
        <ele>225.09086108581</ele>
        <time>2015-04-26T16:13:06Z</time>
      </trkpt>
      <trkpt lat="45.69631" lon="5.67383">
        <ele>224.63050592431</ele>
        <time>2015-04-26T16:13:11Z</time>
      </trkpt>
      <trkpt lat="45.69631" lon="5.67395">
        <ele>224.63050592431</ele>
        <time>2015-04-26T16:13:16Z</time>
      </trkpt>
      <trkpt lat="45.69632" lon="5.67405">
        <ele>224.53960277876</ele>
        <time>2015-04-26T16:13:21Z</time>
      </trkpt>
      <trkpt lat="45.69633" lon="5.67417">
        <ele>224.53960277876</ele>
        <time>2015-04-26T16:13:26Z</time>
      </trkpt>
      <trkpt lat="45.69632" lon="5.67434">
        <ele>224.64656605414</ele>
        <time>2015-04-26T16:13:31Z</time>
      </trkpt>
      <trkpt lat="45.69632" lon="5.67447">
        <ele>224.64656605414</ele>
        <time>2015-04-26T16:13:36Z</time>
      </trkpt>
      <trkpt lat="45.69632" lon="5.6746">
        <ele>224.67656176075</ele>
        <time>2015-04-26T16:13:41Z</time>
      </trkpt>
      <trkpt lat="45.69631" lon="5.67471">
        <ele>224.67656176075</ele>
        <time>2015-04-26T16:13:46Z</time>
      </trkpt>
      <trkpt lat="45.69631" lon="5.67483">
        <ele>225.12453279802</ele>
        <time>2015-04-26T16:13:51Z</time>
      </trkpt>
      <trkpt lat="45.69632" lon="5.67494">
        <ele>225.12453279802</ele>
        <time>2015-04-26T16:13:56Z</time>
      </trkpt>
      <trkpt lat="45.69632" lon="5.67506">
        <ele>225.65527763563</ele>
        <time>2015-04-26T16:14:01Z</time>
      </trkpt>
      <trkpt lat="45.69633" lon="5.67517">
        <ele>225.65527763563</ele>
        <time>2015-04-26T16:14:06Z</time>
      </trkpt>
      <trkpt lat="45.69634" lon="5.67529">
        <ele>225.66976553061</ele>
        <time>2015-04-26T16:14:11Z</time>
      </trkpt>
      <trkpt lat="45.69635" lon="5.67539">
        <ele>225.66976553061</ele>
        <time>2015-04-26T16:14:16Z</time>
      </trkpt>
      <trkpt lat="45.69635" lon="5.67552">
        <ele>225.9402470135</ele>
        <time>2015-04-26T16:14:21Z</time>
      </trkpt>
      <trkpt lat="45.69634" lon="5.67564">
        <ele>225.9402470135</ele>
        <time>2015-04-26T16:14:26Z</time>
      </trkpt>
      <trkpt lat="45.69635" lon="5.67575">
        <ele>226.46097975105</ele>
        <time>2015-04-26T16:14:31Z</time>
      </trkpt>
      <trkpt lat="45.69637" lon="5.67586">
        <ele>226.46097975105</ele>
        <time>2015-04-26T16:14:36Z</time>
      </trkpt>
      <trkpt lat="45.69639" lon="5.67599">
        <ele>226.99537746184</ele>
        <time>2015-04-26T16:14:41Z</time>
      </trkpt>
      <trkpt lat="45.69641" lon="5.67609">
        <ele>226.99537746184</ele>
        <time>2015-04-26T16:14:46Z</time>
      </trkpt>
      <trkpt lat="45.69645" lon="5.67616">
        <ele>226.76217819464</ele>
        <time>2015-04-26T16:14:51Z</time>
      </trkpt>
      <trkpt lat="45.69646" lon="5.67621">
        <ele>226.76217819464</ele>
        <time>2015-04-26T16:14:56Z</time>
      </trkpt>
      <trkpt lat="45.69646" lon="5.67621">
        <ele>226.76217819464</ele>
        <time>2015-04-26T16:15:01Z</time>
      </trkpt>
      <trkpt lat="45.69652" lon="5.67632">
        <ele>227.08606283756</ele>
        <time>2015-04-26T16:15:06Z</time>
      </trkpt>
      <trkpt lat="45.6966" lon="5.67642">
        <ele>227.24736048325</ele>
        <time>2015-04-26T16:15:11Z</time>
      </trkpt>
      <trkpt lat="45.69666" lon="5.67654">
        <ele>227.57411359298</ele>
        <time>2015-04-26T16:15:16Z</time>
      </trkpt>
      <trkpt lat="45.69668" lon="5.6767">
        <ele>228.02396105703</ele>
        <time>2015-04-26T16:15:21Z</time>
      </trkpt>
      <trkpt lat="45.69672" lon="5.67683">
        <ele>228.25470194269</ele>
        <time>2015-04-26T16:15:26Z</time>
      </trkpt>
      <trkpt lat="45.69675" lon="5.67692">
        <ele>228.25470194269</ele>
        <time>2015-04-26T16:15:31Z</time>
      </trkpt>
      <trkpt lat="45.69676" lon="5.67703">
        <ele>228.39666121019</ele>
        <time>2015-04-26T16:15:36Z</time>
      </trkpt>
      <trkpt lat="45.69674" lon="5.67716">
        <ele>228.55645824482</ele>
        <time>2015-04-26T16:15:41Z</time>
      </trkpt>
      <trkpt lat="45.69674" lon="5.67728">
        <ele>228.55645824482</ele>
        <time>2015-04-26T16:15:46Z</time>
      </trkpt>
      <trkpt lat="45.69673" lon="5.6774">
        <ele>228.27082666639</ele>
        <time>2015-04-26T16:15:51Z</time>
      </trkpt>
      <trkpt lat="45.69674" lon="5.67753">
        <ele>228.30793301535</ele>
        <time>2015-04-26T16:15:56Z</time>
      </trkpt>
      <trkpt lat="45.69677" lon="5.67767">
        <ele>228.52838200703</ele>
        <time>2015-04-26T16:16:01Z</time>
      </trkpt>
      <trkpt lat="45.69681" lon="5.67778">
        <ele>228.61518678863</ele>
        <time>2015-04-26T16:16:06Z</time>
      </trkpt>
      <trkpt lat="45.69682" lon="5.67792">
        <ele>228.89472594663</ele>
        <time>2015-04-26T16:16:11Z</time>
      </trkpt>
      <trkpt lat="45.6968" lon="5.67806">
        <ele>229.03479948894</ele>
        <time>2015-04-26T16:16:16Z</time>
      </trkpt>
      <trkpt lat="45.6968" lon="5.67822">
        <ele>229.24682909587</ele>
        <time>2015-04-26T16:16:21Z</time>
      </trkpt>
      <trkpt lat="45.69684" lon="5.67833">
        <ele>229.24682909587</ele>
        <time>2015-04-26T16:16:26Z</time>
      </trkpt>
      <trkpt lat="45.69685" lon="5.67847">
        <ele>229.56800871811</ele>
        <time>2015-04-26T16:16:31Z</time>
      </trkpt>
      <trkpt lat="45.69683" lon="5.67857">
        <ele>229.56800871811</ele>
        <time>2015-04-26T16:16:36Z</time>
      </trkpt>
      <trkpt lat="45.69677" lon="5.67857">
        <ele>229.45607624876</ele>
        <time>2015-04-26T16:16:41Z</time>
      </trkpt>
      <trkpt lat="45.6967" lon="5.67855">
        <ele>229.45607624876</ele>
        <time>2015-04-26T16:16:46Z</time>
      </trkpt>
      <trkpt lat="45.69659" lon="5.67856">
        <ele>229.2889231802</ele>
        <time>2015-04-26T16:16:51Z</time>
      </trkpt>
      <trkpt lat="45.69635" lon="5.6786">
        <ele>229.12863863049</ele>
        <time>2015-04-26T16:16:56Z</time>
      </trkpt>
      <trkpt lat="45.69608" lon="5.67866">
        <ele>228.90305372523</ele>
        <time>2015-04-26T16:17:01Z</time>
      </trkpt>
      <trkpt lat="45.69574" lon="5.67865">
        <ele>228.89137074921</ele>
        <time>2015-04-26T16:17:06Z</time>
      </trkpt>
      <trkpt lat="45.69535" lon="5.67866">
        <ele>228.70319859606</ele>
        <time>2015-04-26T16:17:11Z</time>
      </trkpt>
      <trkpt lat="45.69497" lon="5.67866">
        <ele>228.66906748585</ele>
        <time>2015-04-26T16:17:16Z</time>
      </trkpt>
      <trkpt lat="45.69459" lon="5.67868">
        <ele>229.06598626705</ele>
        <time>2015-04-26T16:17:21Z</time>
      </trkpt>
      <trkpt lat="45.69424" lon="5.67868">
        <ele>229.44327416529</ele>
        <time>2015-04-26T16:17:26Z</time>
      </trkpt>
      <trkpt lat="45.6939" lon="5.67868">
        <ele>229.81575952199</ele>
        <time>2015-04-26T16:17:31Z</time>
      </trkpt>
      <trkpt lat="45.69353" lon="5.67867">
        <ele>230.42778846832</ele>
        <time>2015-04-26T16:17:36Z</time>
      </trkpt>
      <trkpt lat="45.69321" lon="5.67865">
        <ele>230.89983680516</ele>
        <time>2015-04-26T16:17:41Z</time>
      </trkpt>
      <trkpt lat="45.6929" lon="5.67856">
        <ele>231.26977308498</ele>
        <time>2015-04-26T16:17:46Z</time>
      </trkpt>
      <trkpt lat="45.69274" lon="5.67826">
        <ele>231.67387070369</ele>
        <time>2015-04-26T16:17:51Z</time>
      </trkpt>
      <trkpt lat="45.69263" lon="5.67794">
        <ele>232.03656506903</ele>
        <time>2015-04-26T16:17:56Z</time>
      </trkpt>
      <trkpt lat="45.69241" lon="5.67774">
        <ele>232.8500181301</ele>
        <time>2015-04-26T16:18:01Z</time>
      </trkpt>
      <trkpt lat="45.69214" lon="5.67755">
        <ele>233.38728936466</ele>
        <time>2015-04-26T16:18:06Z</time>
      </trkpt>
      <trkpt lat="45.69203" lon="5.67752">
        <ele>233.84030996407</ele>
        <time>2015-04-26T16:18:11Z</time>
      </trkpt>
      <trkpt lat="45.69196" lon="5.67751">
        <ele>233.84030996407</ele>
        <time>2015-04-26T16:18:16Z</time>
      </trkpt>
      <trkpt lat="45.69188" lon="5.67754">
        <ele>234.43041294597</ele>
        <time>2015-04-26T16:18:21Z</time>
      </trkpt>
      <trkpt lat="45.69181" lon="5.67757">
        <ele>234.43041294597</ele>
        <time>2015-04-26T16:18:26Z</time>
      </trkpt>
      <trkpt lat="45.69174" lon="5.67761">
        <ele>234.78587577454</ele>
        <time>2015-04-26T16:18:31Z</time>
      </trkpt>
      <trkpt lat="45.69167" lon="5.67763">
        <ele>234.78587577454</ele>
        <time>2015-04-26T16:18:36Z</time>
      </trkpt>
      <trkpt lat="45.6916" lon="5.67767">
        <ele>235.24029658641</ele>
        <time>2015-04-26T16:18:41Z</time>
      </trkpt>
      <trkpt lat="45.69153" lon="5.67772">
        <ele>235.24029658641</ele>
        <time>2015-04-26T16:18:46Z</time>
      </trkpt>
      <trkpt lat="45.69145" lon="5.67773">
        <ele>235.82871286364</ele>
        <time>2015-04-26T16:18:51Z</time>
      </trkpt>
      <trkpt lat="45.69138" lon="5.67777">
        <ele>235.82871286364</ele>
        <time>2015-04-26T16:18:56Z</time>
      </trkpt>
      <trkpt lat="45.69131" lon="5.67783">
        <ele>236.36708021696</ele>
        <time>2015-04-26T16:19:01Z</time>
      </trkpt>
      <trkpt lat="45.69125" lon="5.67786">
        <ele>236.36708021696</ele>
        <time>2015-04-26T16:19:06Z</time>
      </trkpt>
      <trkpt lat="45.69121" lon="5.67788">
        <ele>237.00209425395</ele>
        <time>2015-04-26T16:19:11Z</time>
      </trkpt>
      <trkpt lat="45.69112" lon="5.67791">
        <ele>237.00209425395</ele>
        <time>2015-04-26T16:19:16Z</time>
      </trkpt>
      <trkpt lat="45.69104" lon="5.67796">
        <ele>237.82620640284</ele>
        <time>2015-04-26T16:19:21Z</time>
      </trkpt>
      <trkpt lat="45.69095" lon="5.67802">
        <ele>238.54989500791</ele>
        <time>2015-04-26T16:19:26Z</time>
      </trkpt>
      <trkpt lat="45.69086" lon="5.67806">
        <ele>238.54989500791</ele>
        <time>2015-04-26T16:19:31Z</time>
      </trkpt>
      <trkpt lat="45.69078" lon="5.67809">
        <ele>238.8764046954</ele>
        <time>2015-04-26T16:19:36Z</time>
      </trkpt>
      <trkpt lat="45.6907" lon="5.67801">
        <ele>239.65600080534</ele>
        <time>2015-04-26T16:19:41Z</time>
      </trkpt>
      <trkpt lat="45.69062" lon="5.67795">
        <ele>240.21973528487</ele>
        <time>2015-04-26T16:19:46Z</time>
      </trkpt>
      <trkpt lat="45.69055" lon="5.6779">
        <ele>240.21973528487</ele>
        <time>2015-04-26T16:19:51Z</time>
      </trkpt>
      <trkpt lat="45.69048" lon="5.67786">
        <ele>240.74105797269</ele>
        <time>2015-04-26T16:19:56Z</time>
      </trkpt>
      <trkpt lat="45.6904" lon="5.67781">
        <ele>240.74105797269</ele>
        <time>2015-04-26T16:20:01Z</time>
      </trkpt>
      <trkpt lat="45.69032" lon="5.67776">
        <ele>241.46730331806</ele>
        <time>2015-04-26T16:20:06Z</time>
      </trkpt>
      <trkpt lat="45.69026" lon="5.67769">
        <ele>241.46730331806</ele>
        <time>2015-04-26T16:20:11Z</time>
      </trkpt>
      <trkpt lat="45.69021" lon="5.67762">
        <ele>241.8489017284</ele>
        <time>2015-04-26T16:20:16Z</time>
      </trkpt>
      <trkpt lat="45.69013" lon="5.67758">
        <ele>241.8489017284</ele>
        <time>2015-04-26T16:20:21Z</time>
      </trkpt>
      <trkpt lat="45.69006" lon="5.67752">
        <ele>242.08380533114</ele>
        <time>2015-04-26T16:20:26Z</time>
      </trkpt>
      <trkpt lat="45.68999" lon="5.67748">
        <ele>242.08380533114</ele>
        <time>2015-04-26T16:20:31Z</time>
      </trkpt>
      <trkpt lat="45.68993" lon="5.67742">
        <ele>242.26940699914</ele>
        <time>2015-04-26T16:20:36Z</time>
      </trkpt>
      <trkpt lat="45.68986" lon="5.67739">
        <ele>242.26940699914</ele>
        <time>2015-04-26T16:20:41Z</time>
      </trkpt>
      <trkpt lat="45.68978" lon="5.6774">
        <ele>242.3952404423</ele>
        <time>2015-04-26T16:20:46Z</time>
      </trkpt>
      <trkpt lat="45.68971" lon="5.67743">
        <ele>242.3952404423</ele>
        <time>2015-04-26T16:20:51Z</time>
      </trkpt>
      <trkpt lat="45.68964" lon="5.67748">
        <ele>242.06270626057</ele>
        <time>2015-04-26T16:20:56Z</time>
      </trkpt>
      <trkpt lat="45.68959" lon="5.67756">
        <ele>242.06270626057</ele>
        <time>2015-04-26T16:21:01Z</time>
      </trkpt>
      <trkpt lat="45.68953" lon="5.67768">
        <ele>241.82610889509</ele>
        <time>2015-04-26T16:21:06Z</time>
      </trkpt>
      <trkpt lat="45.68947" lon="5.67775">
        <ele>241.82610889509</ele>
        <time>2015-04-26T16:21:11Z</time>
      </trkpt>
      <trkpt lat="45.68942" lon="5.67781">
        <ele>240.82972742752</ele>
        <time>2015-04-26T16:21:16Z</time>
      </trkpt>
      <trkpt lat="45.68935" lon="5.67788">
        <ele>240.82972742752</ele>
        <time>2015-04-26T16:21:21Z</time>
      </trkpt>
      <trkpt lat="45.68929" lon="5.67793">
        <ele>239.91129990622</ele>
        <time>2015-04-26T16:21:26Z</time>
      </trkpt>
      <trkpt lat="45.68923" lon="5.67798">
        <ele>239.91129990622</ele>
        <time>2015-04-26T16:21:31Z</time>
      </trkpt>
      <trkpt lat="45.68916" lon="5.67802">
        <ele>239.41447437212</ele>
        <time>2015-04-26T16:21:36Z</time>
      </trkpt>
      <trkpt lat="45.68908" lon="5.67811">
        <ele>238.96473167626</ele>
        <time>2015-04-26T16:21:41Z</time>
      </trkpt>
      <trkpt lat="45.68899" lon="5.67817">
        <ele>238.54637371346</ele>
        <time>2015-04-26T16:21:46Z</time>
      </trkpt>
      <trkpt lat="45.68892" lon="5.67824">
        <ele>238.54637371346</ele>
        <time>2015-04-26T16:21:51Z</time>
      </trkpt>
      <trkpt lat="45.68884" lon="5.6783">
        <ele>238.63472574239</ele>
        <time>2015-04-26T16:21:56Z</time>
      </trkpt>
      <trkpt lat="45.68876" lon="5.67837">
        <ele>238.45821709555</ele>
        <time>2015-04-26T16:22:01Z</time>
      </trkpt>
      <trkpt lat="45.6887" lon="5.67845">
        <ele>238.45821709555</ele>
        <time>2015-04-26T16:22:06Z</time>
      </trkpt>
      <trkpt lat="45.68864" lon="5.67852">
        <ele>238.19616215209</ele>
        <time>2015-04-26T16:22:11Z</time>
      </trkpt>
      <trkpt lat="45.68858" lon="5.67859">
        <ele>238.19616215209</ele>
        <time>2015-04-26T16:22:16Z</time>
      </trkpt>
      <trkpt lat="45.68851" lon="5.67866">
        <ele>238.11579265324</ele>
        <time>2015-04-26T16:22:21Z</time>
      </trkpt>
      <trkpt lat="45.68844" lon="5.67874">
        <ele>238.11579265324</ele>
        <time>2015-04-26T16:22:26Z</time>
      </trkpt>
      <trkpt lat="45.68838" lon="5.67881">
        <ele>238.13271501701</ele>
        <time>2015-04-26T16:22:31Z</time>
      </trkpt>
      <trkpt lat="45.68831" lon="5.67884">
        <ele>238.13271501701</ele>
        <time>2015-04-26T16:22:36Z</time>
      </trkpt>
      <trkpt lat="45.68825" lon="5.67891">
        <ele>237.8081534366</ele>
        <time>2015-04-26T16:22:41Z</time>
      </trkpt>
      <trkpt lat="45.68818" lon="5.67899">
        <ele>237.8081534366</ele>
        <time>2015-04-26T16:22:46Z</time>
      </trkpt>
      <trkpt lat="45.68812" lon="5.67906">
        <ele>237.47145692772</ele>
        <time>2015-04-26T16:22:51Z</time>
      </trkpt>
      <trkpt lat="45.68806" lon="5.67913">
        <ele>237.47145692772</ele>
        <time>2015-04-26T16:22:56Z</time>
      </trkpt>
      <trkpt lat="45.68799" lon="5.6792">
        <ele>237.03868064806</ele>
        <time>2015-04-26T16:23:01Z</time>
      </trkpt>
      <trkpt lat="45.6879" lon="5.67926">
        <ele>236.83579139139</ele>
        <time>2015-04-26T16:23:06Z</time>
      </trkpt>
      <trkpt lat="45.68783" lon="5.67934">
        <ele>236.78943938701</ele>
        <time>2015-04-26T16:23:11Z</time>
      </trkpt>
      <trkpt lat="45.68774" lon="5.67941">
        <ele>236.97529734027</ele>
        <time>2015-04-26T16:23:16Z</time>
      </trkpt>
      <trkpt lat="45.68768" lon="5.67948">
        <ele>236.97529734027</ele>
        <time>2015-04-26T16:23:21Z</time>
      </trkpt>
      <trkpt lat="45.6876" lon="5.67955">
        <ele>237.14574591103</ele>
        <time>2015-04-26T16:23:26Z</time>
      </trkpt>
      <trkpt lat="45.68753" lon="5.67963">
        <ele>237.14574591103</ele>
        <time>2015-04-26T16:23:31Z</time>
      </trkpt>
      <trkpt lat="45.68745" lon="5.67973">
        <ele>237.96485387655</ele>
        <time>2015-04-26T16:23:36Z</time>
      </trkpt>
      <trkpt lat="45.68738" lon="5.67981">
        <ele>238.72023534819</ele>
        <time>2015-04-26T16:23:41Z</time>
      </trkpt>
      <trkpt lat="45.68731" lon="5.67987">
        <ele>238.72023534819</ele>
        <time>2015-04-26T16:23:46Z</time>
      </trkpt>
      <trkpt lat="45.68725" lon="5.67992">
        <ele>239.35725667061</ele>
        <time>2015-04-26T16:23:51Z</time>
      </trkpt>
      <trkpt lat="45.68717" lon="5.68">
        <ele>239.89766602961</ele>
        <time>2015-04-26T16:23:56Z</time>
      </trkpt>
      <trkpt lat="45.6871" lon="5.68009">
        <ele>240.39069379757</ele>
        <time>2015-04-26T16:24:01Z</time>
      </trkpt>
      <trkpt lat="45.68703" lon="5.68015">
        <ele>240.39069379757</ele>
        <time>2015-04-26T16:24:06Z</time>
      </trkpt>
      <trkpt lat="45.68698" lon="5.68019">
        <ele>240.88207806049</ele>
        <time>2015-04-26T16:24:11Z</time>
      </trkpt>
      <trkpt lat="45.68692" lon="5.68025">
        <ele>240.88207806049</ele>
        <time>2015-04-26T16:24:16Z</time>
      </trkpt>
      <trkpt lat="45.68686" lon="5.6803">
        <ele>241.35655226151</ele>
        <time>2015-04-26T16:24:21Z</time>
      </trkpt>
      <trkpt lat="45.68679" lon="5.68037">
        <ele>241.35655226151</ele>
        <time>2015-04-26T16:24:26Z</time>
      </trkpt>
      <trkpt lat="45.68672" lon="5.68046">
        <ele>241.62708345055</ele>
        <time>2015-04-26T16:24:31Z</time>
      </trkpt>
      <trkpt lat="45.68666" lon="5.68053">
        <ele>241.62708345055</ele>
        <time>2015-04-26T16:24:36Z</time>
      </trkpt>
      <trkpt lat="45.68659" lon="5.68059">
        <ele>241.7659393712</ele>
        <time>2015-04-26T16:24:41Z</time>
      </trkpt>
      <trkpt lat="45.68651" lon="5.68066">
        <ele>241.7659393712</ele>
        <time>2015-04-26T16:24:46Z</time>
      </trkpt>
      <trkpt lat="45.68644" lon="5.68073">
        <ele>242.0566170479</ele>
        <time>2015-04-26T16:24:51Z</time>
      </trkpt>
      <trkpt lat="45.68638" lon="5.6808">
        <ele>242.0566170479</ele>
        <time>2015-04-26T16:24:56Z</time>
      </trkpt>
      <trkpt lat="45.68632" lon="5.68087">
        <ele>242.55960970314</ele>
        <time>2015-04-26T16:25:01Z</time>
      </trkpt>
      <trkpt lat="45.68626" lon="5.68094">
        <ele>242.55960970314</ele>
        <time>2015-04-26T16:25:06Z</time>
      </trkpt>
      <trkpt lat="45.6862" lon="5.68101">
        <ele>243.17185363921</ele>
        <time>2015-04-26T16:25:11Z</time>
      </trkpt>
      <trkpt lat="45.68614" lon="5.68108">
        <ele>243.17185363921</ele>
        <time>2015-04-26T16:25:16Z</time>
      </trkpt>
      <trkpt lat="45.68608" lon="5.68114">
        <ele>243.3219888705</ele>
        <time>2015-04-26T16:25:21Z</time>
      </trkpt>
      <trkpt lat="45.68601" lon="5.68122">
        <ele>243.3219888705</ele>
        <time>2015-04-26T16:25:26Z</time>
      </trkpt>
      <trkpt lat="45.68595" lon="5.6813">
        <ele>243.27454204645</ele>
        <time>2015-04-26T16:25:31Z</time>
      </trkpt>
      <trkpt lat="45.68587" lon="5.6814">
        <ele>243.47692552984</ele>
        <time>2015-04-26T16:25:36Z</time>
      </trkpt>
      <trkpt lat="45.68579" lon="5.68149">
        <ele>243.57920236449</ele>
        <time>2015-04-26T16:25:41Z</time>
      </trkpt>
      <trkpt lat="45.6857" lon="5.6816">
        <ele>243.54565099464</ele>
        <time>2015-04-26T16:25:46Z</time>
      </trkpt>
      <trkpt lat="45.68562" lon="5.68169">
        <ele>243.60295995685</ele>
        <time>2015-04-26T16:25:51Z</time>
      </trkpt>
      <trkpt lat="45.68556" lon="5.68176">
        <ele>243.60295995685</ele>
        <time>2015-04-26T16:25:56Z</time>
      </trkpt>
      <trkpt lat="45.6855" lon="5.68183">
        <ele>243.54299162788</ele>
        <time>2015-04-26T16:26:01Z</time>
      </trkpt>
      <trkpt lat="45.68543" lon="5.68191">
        <ele>243.54299162788</ele>
        <time>2015-04-26T16:26:06Z</time>
      </trkpt>
      <trkpt lat="45.68537" lon="5.68199">
        <ele>243.11558382863</ele>
        <time>2015-04-26T16:26:11Z</time>
      </trkpt>
      <trkpt lat="45.68531" lon="5.68206">
        <ele>243.11558382863</ele>
        <time>2015-04-26T16:26:16Z</time>
      </trkpt>
      <trkpt lat="45.68523" lon="5.68216">
        <ele>242.66642495498</ele>
        <time>2015-04-26T16:26:21Z</time>
      </trkpt>
      <trkpt lat="45.68514" lon="5.68227">
        <ele>242.29969856379</ele>
        <time>2015-04-26T16:26:26Z</time>
      </trkpt>
      <trkpt lat="45.68507" lon="5.68237">
        <ele>241.95317245437</ele>
        <time>2015-04-26T16:26:31Z</time>
      </trkpt>
      <trkpt lat="45.68501" lon="5.68244">
        <ele>241.95317245437</ele>
        <time>2015-04-26T16:26:36Z</time>
      </trkpt>
      <trkpt lat="45.68495" lon="5.6825">
        <ele>241.85733916147</ele>
        <time>2015-04-26T16:26:41Z</time>
      </trkpt>
      <trkpt lat="45.68489" lon="5.68257">
        <ele>241.85733916147</ele>
        <time>2015-04-26T16:26:46Z</time>
      </trkpt>
      <trkpt lat="45.68482" lon="5.68266">
        <ele>241.56212923419</ele>
        <time>2015-04-26T16:26:51Z</time>
      </trkpt>
      <trkpt lat="45.68474" lon="5.68277">
        <ele>241.14105425359</ele>
        <time>2015-04-26T16:26:56Z</time>
      </trkpt>
      <trkpt lat="45.68465" lon="5.68283">
        <ele>241.12371474867</ele>
        <time>2015-04-26T16:27:01Z</time>
      </trkpt>
      <trkpt lat="45.68459" lon="5.6829">
        <ele>241.12371474867</ele>
        <time>2015-04-26T16:27:06Z</time>
      </trkpt>
      <trkpt lat="45.68452" lon="5.68292">
        <ele>240.94764169931</ele>
        <time>2015-04-26T16:27:11Z</time>
      </trkpt>
      <trkpt lat="45.68445" lon="5.68284">
        <ele>240.94764169931</ele>
        <time>2015-04-26T16:27:16Z</time>
      </trkpt>
      <trkpt lat="45.6844" lon="5.68249">
        <ele>241.44675361017</ele>
        <time>2015-04-26T16:27:21Z</time>
      </trkpt>
      <trkpt lat="45.68434" lon="5.682">
        <ele>242.32537357785</ele>
        <time>2015-04-26T16:27:26Z</time>
      </trkpt>
      <trkpt lat="45.68425" lon="5.68146">
        <ele>243.06347547745</ele>
        <time>2015-04-26T16:27:31Z</time>
      </trkpt>
      <trkpt lat="45.68418" lon="5.68087">
        <ele>243.42460581511</ele>
        <time>2015-04-26T16:27:36Z</time>
      </trkpt>
      <trkpt lat="45.68413" lon="5.68039">
        <ele>243.79599897309</ele>
        <time>2015-04-26T16:27:41Z</time>
      </trkpt>
      <trkpt lat="45.68406" lon="5.6799">
        <ele>244.04643427322</ele>
        <time>2015-04-26T16:27:46Z</time>
      </trkpt>
      <trkpt lat="45.68401" lon="5.67947">
        <ele>244.5014150318</ele>
        <time>2015-04-26T16:27:51Z</time>
      </trkpt>
      <trkpt lat="45.68396" lon="5.679">
        <ele>245.02962902475</ele>
        <time>2015-04-26T16:27:56Z</time>
      </trkpt>
      <trkpt lat="45.68391" lon="5.67856">
        <ele>245.76861071409</ele>
        <time>2015-04-26T16:28:01Z</time>
      </trkpt>
      <trkpt lat="45.6839" lon="5.67833">
        <ele>246.64345390487</ele>
        <time>2015-04-26T16:28:06Z</time>
      </trkpt>
      <trkpt lat="45.68389" lon="5.67824">
        <ele>246.64345390487</ele>
        <time>2015-04-26T16:28:11Z</time>
      </trkpt>
      <trkpt lat="45.68389" lon="5.67813">
        <ele>247.0079420004</ele>
        <time>2015-04-26T16:28:16Z</time>
      </trkpt>
      <trkpt lat="45.68389" lon="5.67809">
        <ele>247.0079420004</ele>
        <time>2015-04-26T16:28:21Z</time>
      </trkpt>
      <trkpt lat="45.68387" lon="5.67796">
        <ele>247.12944340483</ele>
        <time>2015-04-26T16:28:26Z</time>
      </trkpt>
      <trkpt lat="45.68387" lon="5.67783">
        <ele>247.01139536502</ele>
        <time>2015-04-26T16:28:31Z</time>
      </trkpt>
      <trkpt lat="45.68385" lon="5.67771">
        <ele>247.01139536502</ele>
        <time>2015-04-26T16:28:36Z</time>
      </trkpt>
      <trkpt lat="45.68384" lon="5.67759">
        <ele>247.16206057366</ele>
        <time>2015-04-26T16:28:41Z</time>
      </trkpt>
      <trkpt lat="45.68381" lon="5.67751">
        <ele>247.16206057366</ele>
        <time>2015-04-26T16:28:46Z</time>
      </trkpt>
      <trkpt lat="45.68377" lon="5.67742">
        <ele>247.53282685728</ele>
        <time>2015-04-26T16:28:51Z</time>
      </trkpt>
      <trkpt lat="45.68376" lon="5.67734">
        <ele>247.53282685728</ele>
        <time>2015-04-26T16:28:56Z</time>
      </trkpt>
      <trkpt lat="45.68374" lon="5.67734">
        <ele>247.53282685728</ele>
        <time>2015-04-26T16:29:01Z</time>
      </trkpt>
      <trkpt lat="45.68369" lon="5.67732">
        <ele>247.57366083904</ele>
        <time>2015-04-26T16:29:06Z</time>
      </trkpt>
      <trkpt lat="45.68369" lon="5.67734">
        <ele>247.57366083904</ele>
        <time>2015-04-26T16:29:11Z</time>
      </trkpt>
      <trkpt lat="45.68369" lon="5.67734">
        <ele>247.57366083904</ele>
        <time>2015-04-26T16:29:16Z</time>
      </trkpt>
      <trkpt lat="45.6837" lon="5.67735">
        <ele>247.57366083904</ele>
        <time>2015-04-26T16:29:21Z</time>
      </trkpt>
      <trkpt lat="45.68369" lon="5.67735">
        <ele>247.57366083904</ele>
        <time>2015-04-26T16:29:26Z</time>
      </trkpt>
      <trkpt lat="45.68366" lon="5.67737">
        <ele>247.57366083904</ele>
        <time>2015-04-26T16:29:31Z</time>
      </trkpt>
      <trkpt lat="45.68358" lon="5.67739">
        <ele>247.65495108822</ele>
        <time>2015-04-26T16:29:36Z</time>
      </trkpt>
      <trkpt lat="45.6835" lon="5.6774">
        <ele>247.65495108822</ele>
        <time>2015-04-26T16:29:41Z</time>
      </trkpt>
      <trkpt lat="45.68342" lon="5.67741">
        <ele>247.32716423945</ele>
        <time>2015-04-26T16:29:46Z</time>
      </trkpt>
      <trkpt lat="45.68334" lon="5.67742">
        <ele>247.32716423945</ele>
        <time>2015-04-26T16:29:51Z</time>
      </trkpt>
      <trkpt lat="45.68325" lon="5.67743">
        <ele>247.41430284032</ele>
        <time>2015-04-26T16:29:56Z</time>
      </trkpt>
      <trkpt lat="45.68317" lon="5.67743">
        <ele>247.41430284032</ele>
        <time>2015-04-26T16:30:01Z</time>
      </trkpt>
      <trkpt lat="45.6831" lon="5.67742">
        <ele>247.09345879569</ele>
        <time>2015-04-26T16:30:06Z</time>
      </trkpt>
      <trkpt lat="45.68302" lon="5.67743">
        <ele>247.09345879569</ele>
        <time>2015-04-26T16:30:11Z</time>
      </trkpt>
      <trkpt lat="45.68292" lon="5.67745">
        <ele>247.50559128451</ele>
        <time>2015-04-26T16:30:16Z</time>
      </trkpt>
      <trkpt lat="45.68284" lon="5.67746">
        <ele>247.50559128451</ele>
        <time>2015-04-26T16:30:21Z</time>
      </trkpt>
      <trkpt lat="45.68276" lon="5.67746">
        <ele>247.81793628942</ele>
        <time>2015-04-26T16:30:26Z</time>
      </trkpt>
      <trkpt lat="45.68268" lon="5.67747">
        <ele>247.81793628942</ele>
        <time>2015-04-26T16:30:31Z</time>
      </trkpt>
      <trkpt lat="45.6826" lon="5.67748">
        <ele>247.47535288532</ele>
        <time>2015-04-26T16:30:36Z</time>
      </trkpt>
      <trkpt lat="45.68253" lon="5.6775">
        <ele>247.47535288532</ele>
        <time>2015-04-26T16:30:41Z</time>
      </trkpt>
      <trkpt lat="45.68245" lon="5.6775">
        <ele>247.23349672435</ele>
        <time>2015-04-26T16:30:46Z</time>
      </trkpt>
      <trkpt lat="45.68237" lon="5.6775">
        <ele>247.23349672435</ele>
        <time>2015-04-26T16:30:51Z</time>
      </trkpt>
      <trkpt lat="45.68228" lon="5.67749">
        <ele>247.17255223474</ele>
        <time>2015-04-26T16:30:56Z</time>
      </trkpt>
      <trkpt lat="45.6822" lon="5.67748">
        <ele>247.17255223474</ele>
        <time>2015-04-26T16:31:01Z</time>
      </trkpt>
      <trkpt lat="45.68211" lon="5.67748">
        <ele>247.00602509102</ele>
        <time>2015-04-26T16:31:06Z</time>
      </trkpt>
      <trkpt lat="45.68203" lon="5.67747">
        <ele>247.00602509102</ele>
        <time>2015-04-26T16:31:11Z</time>
      </trkpt>
      <trkpt lat="45.68196" lon="5.67747">
        <ele>246.9443241955</ele>
        <time>2015-04-26T16:31:16Z</time>
      </trkpt>
      <trkpt lat="45.68189" lon="5.67753">
        <ele>246.9443241955</ele>
        <time>2015-04-26T16:31:21Z</time>
      </trkpt>
      <trkpt lat="45.68187" lon="5.67766">
        <ele>247.08122301609</ele>
        <time>2015-04-26T16:31:26Z</time>
      </trkpt>
      <trkpt lat="45.68187" lon="5.67775">
        <ele>247.08122301609</ele>
        <time>2015-04-26T16:31:31Z</time>
      </trkpt>
      <trkpt lat="45.68182" lon="5.67785">
        <ele>247.08511883317</ele>
        <time>2015-04-26T16:31:36Z</time>
      </trkpt>
      <trkpt lat="45.68175" lon="5.67794">
        <ele>247.03823262068</ele>
        <time>2015-04-26T16:31:41Z</time>
      </trkpt>
      <trkpt lat="45.68167" lon="5.67802">
        <ele>247.06011197015</ele>
        <time>2015-04-26T16:31:46Z</time>
      </trkpt>
      <trkpt lat="45.68159" lon="5.67808">
        <ele>247.20367580036</ele>
        <time>2015-04-26T16:31:51Z</time>
      </trkpt>
      <trkpt lat="45.6815" lon="5.67813">
        <ele>247.20367580036</ele>
        <time>2015-04-26T16:31:56Z</time>
      </trkpt>
      <trkpt lat="45.68144" lon="5.67817">
        <ele>247.05644857939</ele>
        <time>2015-04-26T16:32:01Z</time>
      </trkpt>
      <trkpt lat="45.68137" lon="5.67822">
        <ele>247.05644857939</ele>
        <time>2015-04-26T16:32:06Z</time>
      </trkpt>
      <trkpt lat="45.68128" lon="5.67828">
        <ele>247.23142782467</ele>
        <time>2015-04-26T16:32:11Z</time>
      </trkpt>
      <trkpt lat="45.68121" lon="5.67834">
        <ele>247.23142782467</ele>
        <time>2015-04-26T16:32:16Z</time>
      </trkpt>
      <trkpt lat="45.68114" lon="5.67839">
        <ele>247.14277717735</ele>
        <time>2015-04-26T16:32:21Z</time>
      </trkpt>
      <trkpt lat="45.68107" lon="5.67846">
        <ele>247.14277717735</ele>
        <time>2015-04-26T16:32:26Z</time>
      </trkpt>
      <trkpt lat="45.681" lon="5.67851">
        <ele>247.17073616558</ele>
        <time>2015-04-26T16:32:31Z</time>
      </trkpt>
      <trkpt lat="45.68093" lon="5.67856">
        <ele>247.17073616558</ele>
        <time>2015-04-26T16:32:36Z</time>
      </trkpt>
      <trkpt lat="45.68086" lon="5.67861">
        <ele>247.04759620027</ele>
        <time>2015-04-26T16:32:41Z</time>
      </trkpt>
      <trkpt lat="45.68076" lon="5.67868">
        <ele>246.95806058461</ele>
        <time>2015-04-26T16:32:46Z</time>
      </trkpt>
      <trkpt lat="45.6807" lon="5.67875">
        <ele>246.95806058461</ele>
        <time>2015-04-26T16:32:51Z</time>
      </trkpt>
      <trkpt lat="45.68062" lon="5.67878">
        <ele>246.78493575454</ele>
        <time>2015-04-26T16:32:56Z</time>
      </trkpt>
      <trkpt lat="45.68053" lon="5.67885">
        <ele>246.93865935724</ele>
        <time>2015-04-26T16:33:01Z</time>
      </trkpt>
      <trkpt lat="45.68046" lon="5.67888">
        <ele>246.93865935724</ele>
        <time>2015-04-26T16:33:06Z</time>
      </trkpt>
      <trkpt lat="45.68039" lon="5.67895">
        <ele>247.27978911308</ele>
        <time>2015-04-26T16:33:11Z</time>
      </trkpt>
      <trkpt lat="45.68033" lon="5.67902">
        <ele>247.27978911308</ele>
        <time>2015-04-26T16:33:16Z</time>
      </trkpt>
      <trkpt lat="45.68029" lon="5.67906">
        <ele>246.72745376321</ele>
        <time>2015-04-26T16:33:21Z</time>
      </trkpt>
      <trkpt lat="45.68019" lon="5.6791">
        <ele>246.84785490705</ele>
        <time>2015-04-26T16:33:26Z</time>
      </trkpt>
      <trkpt lat="45.68011" lon="5.67916">
        <ele>246.84785490705</ele>
        <time>2015-04-26T16:33:31Z</time>
      </trkpt>
      <trkpt lat="45.68006" lon="5.67919">
        <ele>246.40977377906</ele>
        <time>2015-04-26T16:33:36Z</time>
      </trkpt>
      <trkpt lat="45.68001" lon="5.67925">
        <ele>246.40977377906</ele>
        <time>2015-04-26T16:33:41Z</time>
      </trkpt>
      <trkpt lat="45.67994" lon="5.67931">
        <ele>245.70068832258</ele>
        <time>2015-04-26T16:33:46Z</time>
      </trkpt>
      <trkpt lat="45.67987" lon="5.67936">
        <ele>245.70068832258</ele>
        <time>2015-04-26T16:33:51Z</time>
      </trkpt>
      <trkpt lat="45.67979" lon="5.67941">
        <ele>245.14622301648</ele>
        <time>2015-04-26T16:33:56Z</time>
      </trkpt>
      <trkpt lat="45.67972" lon="5.67947">
        <ele>245.14622301648</ele>
        <time>2015-04-26T16:34:01Z</time>
      </trkpt>
      <trkpt lat="45.67966" lon="5.67952">
        <ele>244.05944659658</ele>
        <time>2015-04-26T16:34:06Z</time>
      </trkpt>
      <trkpt lat="45.6796" lon="5.67956">
        <ele>244.05944659658</ele>
        <time>2015-04-26T16:34:11Z</time>
      </trkpt>
      <trkpt lat="45.6795" lon="5.67965">
        <ele>243.04471129966</ele>
        <time>2015-04-26T16:34:16Z</time>
      </trkpt>
      <trkpt lat="45.67941" lon="5.67975">
        <ele>242.08529410233</ele>
        <time>2015-04-26T16:34:21Z</time>
      </trkpt>
      <trkpt lat="45.67932" lon="5.67984">
        <ele>240.99257265233</ele>
        <time>2015-04-26T16:34:26Z</time>
      </trkpt>
      <trkpt lat="45.67923" lon="5.67993">
        <ele>240.05326529849</ele>
        <time>2015-04-26T16:34:31Z</time>
      </trkpt>
      <trkpt lat="45.67916" lon="5.68001">
        <ele>238.79758013642</ele>
        <time>2015-04-26T16:34:36Z</time>
      </trkpt>
      <trkpt lat="45.67908" lon="5.68009">
        <ele>238.10247984531</ele>
        <time>2015-04-26T16:34:41Z</time>
      </trkpt>
      <trkpt lat="45.67901" lon="5.68015">
        <ele>238.10247984531</ele>
        <time>2015-04-26T16:34:46Z</time>
      </trkpt>
      <trkpt lat="45.679" lon="5.68011">
        <ele>237.85656374872</ele>
        <time>2015-04-26T16:34:51Z</time>
      </trkpt>
      <trkpt lat="45.679" lon="5.68012">
        <ele>237.85656374872</ele>
        <time>2015-04-26T16:34:56Z</time>
      </trkpt>
      <trkpt lat="45.67901" lon="5.68012">
        <ele>237.85656374872</ele>
        <time>2015-04-26T16:35:01Z</time>
      </trkpt>
      <trkpt lat="45.67902" lon="5.68012">
        <ele>237.85656374872</ele>
        <time>2015-04-26T16:35:06Z</time>
      </trkpt>
      <trkpt lat="45.67903" lon="5.68011">
        <ele>237.85656374872</ele>
        <time>2015-04-26T16:35:11Z</time>
      </trkpt>
      <trkpt lat="45.67903" lon="5.68011">
        <ele>237.85656374872</ele>
        <time>2015-04-26T16:35:16Z</time>
      </trkpt>
      <trkpt lat="45.67903" lon="5.68011">
        <ele>237.85656374872</ele>
        <time>2015-04-26T16:35:21Z</time>
      </trkpt>
      <trkpt lat="45.67903" lon="5.68011">
        <ele>237.85656374872</ele>
        <time>2015-04-26T16:35:26Z</time>
      </trkpt>
      <trkpt lat="45.67903" lon="5.68011">
        <ele>237.85656374872</ele>
        <time>2015-04-26T16:35:31Z</time>
      </trkpt>
      <trkpt lat="45.67903" lon="5.68011">
        <ele>237.85656374872</ele>
        <time>2015-04-26T16:35:36Z</time>
      </trkpt>
      <trkpt lat="45.67903" lon="5.68011">
        <ele>237.85656374872</ele>
        <time>2015-04-26T16:35:41Z</time>
      </trkpt>
      <trkpt lat="45.67903" lon="5.68011">
        <ele>237.85656374872</ele>
        <time>2015-04-26T16:35:46Z</time>
      </trkpt>
      <trkpt lat="45.67903" lon="5.68011">
        <ele>237.85656374872</ele>
        <time>2015-04-26T16:35:51Z</time>
      </trkpt>
      <trkpt lat="45.67903" lon="5.68011">
        <ele>237.85656374872</ele>
        <time>2015-04-26T16:35:56Z</time>
      </trkpt>
      <trkpt lat="45.67903" lon="5.68011">
        <ele>237.85656374872</ele>
        <time>2015-04-26T16:36:01Z</time>
      </trkpt>
      <trkpt lat="45.67903" lon="5.68011">
        <ele>237.85656374872</ele>
        <time>2015-04-26T16:36:06Z</time>
      </trkpt>
      <trkpt lat="45.67903" lon="5.68011">
        <ele>237.85656374872</ele>
        <time>2015-04-26T16:36:11Z</time>
      </trkpt>
      <trkpt lat="45.67903" lon="5.68011">
        <ele>237.85656374872</ele>
        <time>2015-04-26T16:36:16Z</time>
      </trkpt>
      <trkpt lat="45.67903" lon="5.68011">
        <ele>237.85656374872</ele>
        <time>2015-04-26T16:36:21Z</time>
      </trkpt>
      <trkpt lat="45.67903" lon="5.68011">
        <ele>237.85656374872</ele>
        <time>2015-04-26T16:36:26Z</time>
      </trkpt>
      <trkpt lat="45.67903" lon="5.68011">
        <ele>237.85656374872</ele>
        <time>2015-04-26T16:36:31Z</time>
      </trkpt>
      <trkpt lat="45.67903" lon="5.68011">
        <ele>237.85656374872</ele>
        <time>2015-04-26T16:36:36Z</time>
      </trkpt>
      <trkpt lat="45.67903" lon="5.68011">
        <ele>237.85656374872</ele>
        <time>2015-04-26T16:36:41Z</time>
      </trkpt>
      <trkpt lat="45.67901" lon="5.6801">
        <ele>237.85656374872</ele>
        <time>2015-04-26T16:36:46Z</time>
      </trkpt>
      <trkpt lat="45.67899" lon="5.6801">
        <ele>237.85656374872</ele>
        <time>2015-04-26T16:36:51Z</time>
      </trkpt>
      <trkpt lat="45.67897" lon="5.6801">
        <ele>237.5517838274</ele>
        <time>2015-04-26T16:36:56Z</time>
      </trkpt>
      <trkpt lat="45.67891" lon="5.68014">
        <ele>237.5517838274</ele>
        <time>2015-04-26T16:37:01Z</time>
      </trkpt>
      <trkpt lat="45.67886" lon="5.68022">
        <ele>236.58781801629</ele>
        <time>2015-04-26T16:37:06Z</time>
      </trkpt>
      <trkpt lat="45.67882" lon="5.68031">
        <ele>236.58781801629</ele>
        <time>2015-04-26T16:37:11Z</time>
      </trkpt>
      <trkpt lat="45.67876" lon="5.68037">
        <ele>236.05310103261</ele>
        <time>2015-04-26T16:37:16Z</time>
      </trkpt>
      <trkpt lat="45.67871" lon="5.68045">
        <ele>236.05310103261</ele>
        <time>2015-04-26T16:37:21Z</time>
      </trkpt>
      <trkpt lat="45.67866" lon="5.68049">
        <ele>235.45609319397</ele>
        <time>2015-04-26T16:37:26Z</time>
      </trkpt>
      <trkpt lat="45.67859" lon="5.68051">
        <ele>235.45609319397</ele>
        <time>2015-04-26T16:37:31Z</time>
      </trkpt>
      <trkpt lat="45.67853" lon="5.68045">
        <ele>234.65852390891</ele>
        <time>2015-04-26T16:37:36Z</time>
      </trkpt>
      <trkpt lat="45.67849" lon="5.68034">
        <ele>234.65852390891</ele>
        <time>2015-04-26T16:37:41Z</time>
      </trkpt>
      <trkpt lat="45.67844" lon="5.68023">
        <ele>233.73453911058</ele>
        <time>2015-04-26T16:37:46Z</time>
      </trkpt>
      <trkpt lat="45.6784" lon="5.68012">
        <ele>233.0413558802</ele>
        <time>2015-04-26T16:37:51Z</time>
      </trkpt>
      <trkpt lat="45.67834" lon="5.68002">
        <ele>233.0413558802</ele>
        <time>2015-04-26T16:37:56Z</time>
      </trkpt>
      <trkpt lat="45.67828" lon="5.67995">
        <ele>232.0733981992</ele>
        <time>2015-04-26T16:38:01Z</time>
      </trkpt>
      <trkpt lat="45.67822" lon="5.67988">
        <ele>232.0733981992</ele>
        <time>2015-04-26T16:38:06Z</time>
      </trkpt>
      <trkpt lat="45.67817" lon="5.67983">
        <ele>231.28525107228</ele>
        <time>2015-04-26T16:38:11Z</time>
      </trkpt>
      <trkpt lat="45.6781" lon="5.67977">
        <ele>231.28525107228</ele>
        <time>2015-04-26T16:38:16Z</time>
      </trkpt>
      <trkpt lat="45.67804" lon="5.6797">
        <ele>230.996663531</ele>
        <time>2015-04-26T16:38:21Z</time>
      </trkpt>
      <trkpt lat="45.678" lon="5.67963">
        <ele>230.996663531</ele>
        <time>2015-04-26T16:38:26Z</time>
      </trkpt>
      <trkpt lat="45.67795" lon="5.67958">
        <ele>230.36395697079</ele>
        <time>2015-04-26T16:38:31Z</time>
      </trkpt>
      <trkpt lat="45.67788" lon="5.67954">
        <ele>230.36395697079</ele>
        <time>2015-04-26T16:38:36Z</time>
      </trkpt>
      <trkpt lat="45.67783" lon="5.67949">
        <ele>230.06185962894</ele>
        <time>2015-04-26T16:38:41Z</time>
      </trkpt>
      <trkpt lat="45.67777" lon="5.67945">
        <ele>230.06185962894</ele>
        <time>2015-04-26T16:38:46Z</time>
      </trkpt>
      <trkpt lat="45.6777" lon="5.67943">
        <ele>229.59048532388</ele>
        <time>2015-04-26T16:38:51Z</time>
      </trkpt>
      <trkpt lat="45.67763" lon="5.67942">
        <ele>229.59048532388</ele>
        <time>2015-04-26T16:38:56Z</time>
      </trkpt>
      <trkpt lat="45.67757" lon="5.67941">
        <ele>229.23647074743</ele>
        <time>2015-04-26T16:39:01Z</time>
      </trkpt>
      <trkpt lat="45.67751" lon="5.67941">
        <ele>229.23647074743</ele>
        <time>2015-04-26T16:39:06Z</time>
      </trkpt>
      <trkpt lat="45.67745" lon="5.6794">
        <ele>228.63092943876</ele>
        <time>2015-04-26T16:39:11Z</time>
      </trkpt>
      <trkpt lat="45.67738" lon="5.6794">
        <ele>228.63092943876</ele>
        <time>2015-04-26T16:39:16Z</time>
      </trkpt>
      <trkpt lat="45.67731" lon="5.67943">
        <ele>228.16770002619</ele>
        <time>2015-04-26T16:39:21Z</time>
      </trkpt>
      <trkpt lat="45.67726" lon="5.67951">
        <ele>228.16770002619</ele>
        <time>2015-04-26T16:39:26Z</time>
      </trkpt>
      <trkpt lat="45.67722" lon="5.67959">
        <ele>227.69244745494</ele>
        <time>2015-04-26T16:39:31Z</time>
      </trkpt>
      <trkpt lat="45.67716" lon="5.67961">
        <ele>227.69244745494</ele>
        <time>2015-04-26T16:39:36Z</time>
      </trkpt>
      <trkpt lat="45.67708" lon="5.67961">
        <ele>227.2639227904</ele>
        <time>2015-04-26T16:39:41Z</time>
      </trkpt>
      <trkpt lat="45.67701" lon="5.67959">
        <ele>227.2639227904</ele>
        <time>2015-04-26T16:39:46Z</time>
      </trkpt>
      <trkpt lat="45.67694" lon="5.67957">
        <ele>227.16697044383</ele>
        <time>2015-04-26T16:39:51Z</time>
      </trkpt>
      <trkpt lat="45.67687" lon="5.67955">
        <ele>227.16697044383</ele>
        <time>2015-04-26T16:39:56Z</time>
      </trkpt>
      <trkpt lat="45.6768" lon="5.67951">
        <ele>226.81428980597</ele>
        <time>2015-04-26T16:40:01Z</time>
      </trkpt>
      <trkpt lat="45.67673" lon="5.67948">
        <ele>226.81428980597</ele>
        <time>2015-04-26T16:40:06Z</time>
      </trkpt>
      <trkpt lat="45.67666" lon="5.67944">
        <ele>226.64236560812</ele>
        <time>2015-04-26T16:40:11Z</time>
      </trkpt>
      <trkpt lat="45.67661" lon="5.67944">
        <ele>226.64236560812</ele>
        <time>2015-04-26T16:40:16Z</time>
      </trkpt>
      <trkpt lat="45.67663" lon="5.67944">
        <ele>226.64236560812</ele>
        <time>2015-04-26T16:40:21Z</time>
      </trkpt>
      <trkpt lat="45.67663" lon="5.67943">
        <ele>226.64236560812</ele>
        <time>2015-04-26T16:40:26Z</time>
      </trkpt>
      <trkpt lat="45.67658" lon="5.6794">
        <ele>226.65157388436</ele>
        <time>2015-04-26T16:40:31Z</time>
      </trkpt>
      <trkpt lat="45.67652" lon="5.67937">
        <ele>226.65157388436</ele>
        <time>2015-04-26T16:40:36Z</time>
      </trkpt>
      <trkpt lat="45.6765" lon="5.67935">
        <ele>226.65157388436</ele>
        <time>2015-04-26T16:40:41Z</time>
      </trkpt>
      <trkpt lat="45.67643" lon="5.67935">
        <ele>226.69762197514</ele>
        <time>2015-04-26T16:40:46Z</time>
      </trkpt>
      <trkpt lat="45.67637" lon="5.67937">
        <ele>226.69762197514</ele>
        <time>2015-04-26T16:40:51Z</time>
      </trkpt>
      <trkpt lat="45.67629" lon="5.67935">
        <ele>226.7763966763</ele>
        <time>2015-04-26T16:40:56Z</time>
      </trkpt>
      <trkpt lat="45.67623" lon="5.67936">
        <ele>226.7763966763</ele>
        <time>2015-04-26T16:41:01Z</time>
      </trkpt>
      <trkpt lat="45.67617" lon="5.67938">
        <ele>226.84075013034</ele>
        <time>2015-04-26T16:41:06Z</time>
      </trkpt>
      <trkpt lat="45.67612" lon="5.67938">
        <ele>226.84075013034</ele>
        <time>2015-04-26T16:41:11Z</time>
      </trkpt>
      <trkpt lat="45.67608" lon="5.67937">
        <ele>227.22172157885</ele>
        <time>2015-04-26T16:41:16Z</time>
      </trkpt>
      <trkpt lat="45.67606" lon="5.67935">
        <ele>227.22172157885</ele>
        <time>2015-04-26T16:41:21Z</time>
      </trkpt>
      <trkpt lat="45.67606" lon="5.67937">
        <ele>227.22172157885</ele>
        <time>2015-04-26T16:41:26Z</time>
      </trkpt>
      <trkpt lat="45.67602" lon="5.67935">
        <ele>227.22172157885</ele>
        <time>2015-04-26T16:41:31Z</time>
      </trkpt>
      <trkpt lat="45.676" lon="5.67936">
        <ele>227.40371016056</ele>
        <time>2015-04-26T16:41:36Z</time>
      </trkpt>
      <trkpt lat="45.67599" lon="5.67939">
        <ele>227.40371016056</ele>
        <time>2015-04-26T16:41:41Z</time>
      </trkpt>
      <trkpt lat="45.676" lon="5.6794">
        <ele>227.40371016056</ele>
        <time>2015-04-26T16:41:46Z</time>
      </trkpt>
      <trkpt lat="45.67601" lon="5.67941">
        <ele>227.40371016056</ele>
        <time>2015-04-26T16:41:51Z</time>
      </trkpt>
      <trkpt lat="45.67601" lon="5.6794">
        <ele>227.40371016056</ele>
        <time>2015-04-26T16:41:56Z</time>
      </trkpt>
      <trkpt lat="45.67602" lon="5.67938">
        <ele>227.40371016056</ele>
        <time>2015-04-26T16:42:01Z</time>
      </trkpt>
      <trkpt lat="45.67602" lon="5.67936">
        <ele>227.40371016056</ele>
        <time>2015-04-26T16:42:06Z</time>
      </trkpt>
      <trkpt lat="45.67603" lon="5.67935">
        <ele>227.94715520772</ele>
        <time>2015-04-26T16:42:11Z</time>
      </trkpt>
      <trkpt lat="45.67603" lon="5.67934">
        <ele>227.94715520772</ele>
        <time>2015-04-26T16:42:16Z</time>
      </trkpt>
      <trkpt lat="45.67602" lon="5.67934">
        <ele>227.94715520772</ele>
        <time>2015-04-26T16:42:21Z</time>
      </trkpt>
      <trkpt lat="45.67602" lon="5.67934">
        <ele>227.94715520772</ele>
        <time>2015-04-26T16:42:26Z</time>
      </trkpt>
      <trkpt lat="45.67602" lon="5.67934">
        <ele>227.94715520772</ele>
        <time>2015-04-26T16:42:31Z</time>
      </trkpt>
      <trkpt lat="45.67602" lon="5.67934">
        <ele>227.94715520772</ele>
        <time>2015-04-26T16:42:36Z</time>
      </trkpt>
      <trkpt lat="45.67602" lon="5.67934">
        <ele>227.94715520772</ele>
        <time>2015-04-26T16:42:41Z</time>
      </trkpt>
      <trkpt lat="45.67602" lon="5.67934">
        <ele>227.94715520772</ele>
        <time>2015-04-26T16:42:46Z</time>
      </trkpt>
      <trkpt lat="45.67603" lon="5.67935">
        <ele>227.94715520772</ele>
        <time>2015-04-26T16:42:51Z</time>
      </trkpt>
      <trkpt lat="45.67602" lon="5.67933">
        <ele>227.94715520772</ele>
        <time>2015-04-26T16:42:56Z</time>
      </trkpt>
      <trkpt lat="45.67601" lon="5.67933">
        <ele>227.94715520772</ele>
        <time>2015-04-26T16:43:01Z</time>
      </trkpt>
      <trkpt lat="45.67603" lon="5.67933">
        <ele>227.94715520772</ele>
        <time>2015-04-26T16:43:06Z</time>
      </trkpt>
      <trkpt lat="45.67604" lon="5.67935">
        <ele>227.94715520772</ele>
        <time>2015-04-26T16:43:11Z</time>
      </trkpt>
      <trkpt lat="45.67604" lon="5.6794">
        <ele>227.42482212039</ele>
        <time>2015-04-26T16:43:16Z</time>
      </trkpt>
      <trkpt lat="45.67605" lon="5.6794">
        <ele>227.42482212039</ele>
        <time>2015-04-26T16:43:21Z</time>
      </trkpt>
      <trkpt lat="45.67605" lon="5.6794">
        <ele>227.42482212039</ele>
        <time>2015-04-26T16:43:26Z</time>
      </trkpt>
      <trkpt lat="45.67605" lon="5.67941">
        <ele>227.42482212039</ele>
        <time>2015-04-26T16:43:31Z</time>
      </trkpt>
    </trkseg>
  </trk>
</gpx>